# Wetter Temperatur Luftdruck Luftfeuchtigkeit Sichtweite Windgeschwindigkeit Windrichtung Zeit
1 Clear 25 1011 61 10000 3.1 30 19:42 02.04.2020
2 Clear 25 1011 61 10000 3.1 30 19:20 02.04.2020
3 Clear 25 1011 61 10000 3.1 30 19:20 02.04.2020
4 Clear 25 1011 61 10000 3.1 30 19:20 02.04.2020
5 Clear 26 1011 69 10000 2.1 360 18:57 02.04.2020
6 Clear 26 1011 69 10000 2.1 360 18:39 02.04.2020
7 Clear 26 1011 69 10000 2.1 360 18:20 02.04.2020
8 Clear 26 1010 69 10000 5.1 330 17:55 02.04.2020
9 Clear 26 1010 69 10000 5.1 330 17:37 02.04.2020
10 Clear 26 1010 69 10000 5.1 330 17:18 02.04.2020
11 Clear 27 1010 48 10000 4.6 350 16:55 02.04.2020
12 Clear 28 1010 48 10000 4.6 350 16:36 02.04.2020
13 Clear 28 1010 48 10000 4.6 350 16:36 02.04.2020
14 Clear 28 1010 48 10000 4.6 350 16:18 02.04.2020
15 Clear 29 1010 42 10000 4.1 350 15:42 02.04.2020
16 Clear 29 1010 42 10000 4.1 350 15:20 02.04.2020
17 Clear 30 1010 40 10000 6.7 340 14:58 02.04.2020
18 Clear 30 1010 40 10000 6.7 340 14:58 02.04.2020
19 Clear 30 1010 40 10000 6.7 340 14:39 02.04.2020
20 Clear 30 1010 40 10000 6.7 340 14:19 02.04.2020
21 Clear 31 1010 40 10000 6.2 330 13:56 02.04.2020
22 Clear 31 1010 40 10000 6.2 330 13:38 02.04.2020
23 Clear 31 1010 40 10000 6.2 330 13:19 02.04.2020
24 Clear 32 1010 35 10000 2.1 0 12:47 02.04.2020
25 Clear 31 1010 35 10000 2.1 0 12:21 02.04.2020
26 Clear 30 1011 40 10000 3.6 330 11:58 02.04.2020
27 Clear 30 1011 40 10000 3.6 330 11:39 02.04.2020
28 Clear 30 1011 40 10000 3.6 330 11:21 02.04.2020
29 Clear 29 1013 51 9000 3.6 330 10:57 02.04.2020
30 Clear 29 1013 51 9000 3.6 330 10:39 02.04.2020
31 Clear 29 1013 51 9000 3.6 330 10:21 02.04.2020
32 Clear 28 1013 45 10000 1.5 0 09:59 02.04.2020
33 Clear 28 1013 45 10000 1.5 0 09:41 02.04.2020
34 Clear 28 1013 45 10000 1.5 0 09:23 02.04.2020
35 Clear 26 1013 57 10000 1.5 70 08:57 02.04.2020
36 Clear 26 1013 57 10000 1.5 70 08:38 02.04.2020
37 Clear 25 1013 57 10000 1.5 70 08:19 02.04.2020
38 Clear 23 1013 69 6000 1 0 07:42 02.04.2020
39 Clear 22 1013 69 6000 1 0 07:19 02.04.2020
40 Mist 21 1013 100 2500 1 0 06:46 02.04.2020
41 Fog 21 1013 100 1500 1.5 120 06:20 02.04.2020
42 Fog 21 1012 94 300 2.1 140 05:41 02.04.2020
43 Clouds 22 1011 88 8000 1 330 02:59 02.04.2020
44 Clouds 22 1011 88 7000 2.1 340 01:30 02.04.2020
45 Clouds 22 1012 88 8000 3.6 340 00:42 02.04.2020
46 Clouds 22 1012 88 8000 3.6 340 00:24 02.04.2020
47 Clear 22 1012 88 8000 2.6 330 23:41 01.04.2020
48 Clear 22 1012 88 8000 2.6 330 23:20 01.04.2020
49 Clear 23 1012 73 10000 1.5 260 22:58 01.04.2020
50 Clear 23 1012 73 10000 1.5 260 22:58 01.04.2020
51 Clear 23 1012 73 10000 1.5 260 22:39 01.04.2020
52 Clear 23 1012 73 10000 1.5 260 22:21 01.04.2020
53 Clear 23 1012 73 10000 1.5 260 22:21 01.04.2020
54 Clear 23 1012 69 10000 0.5 0 21:42 01.04.2020
55 Clear 23 1012 69 10000 0.5 0 21:42 01.04.2020
56 Clear 23 1012 69 10000 0.5 0 21:22 01.04.2020
57 Clear 23 1012 69 10000 0.5 0 21:21 01.04.2020
58 Clear 23 1012 73 10000 1.5 100 20:57 01.04.2020
59 Clear 23 1012 73 10000 1.5 100 20:39 01.04.2020
60 -273 0 0 0 0 0 20:20 01.04.2020
61 Clear 23 1012 73 10000 1.5 100 20:20 01.04.2020
62 Clear 23 1012 73 10000 2.6 70 19:59 01.04.2020
63 Clear 23 1012 73 10000 2.6 70 19:41 01.04.2020
64 -273 0 0 0 0 0 19:20 01.04.2020
65 Clear 24 1012 83 10000 4.6 330 18:44 01.04.2020
66 Clear 24 1012 83 10000 4.6 330 18:25 01.04.2020
67 Clear 25 1012 73 10000 4.6 330 17:58 01.04.2020
68 Clear 25 1012 73 10000 4.6 330 17:38 01.04.2020
69 Clear 25 1012 73 10000 4.6 330 17:19 01.04.2020
70 Clear 26 1012 61 10000 5.1 330 16:59 01.04.2020
71 Clear 26 1012 61 10000 5.1 330 16:39 01.04.2020
72 Clear 27 1012 61 10000 5.1 330 16:21 01.04.2020
73 Clear 28 1012 51 10000 5.7 320 15:57 01.04.2020
74 Clear 28 1012 51 10000 5.7 320 15:38 01.04.2020
75 Clear 28 1012 51 10000 5.7 320 15:19 01.04.2020
76 Clear 28 1012 54 10000 6.7 320 14:55 01.04.2020
77 Clear 28 1012 54 10000 6.7 320 14:55 01.04.2020
78 Clear 28 1012 54 10000 6.7 320 14:37 01.04.2020
79 Clear 28 1012 54 10000 6.7 320 14:19 01.04.2020
80 Clear 29 1012 51 10000 5.1 310 13:56 01.04.2020
81 Clear 29 1012 51 10000 5.1 310 13:37 01.04.2020
82 Clear 29 1012 51 10000 5.1 310 13:18 01.04.2020
83 Clear 30 1013 48 10000 3.1 310 12:42 01.04.2020
84 Clear 30 1013 48 10000 3.1 310 12:24 01.04.2020
85 Clear 29 1014 45 10000 2.1 290 11:59 01.04.2020
86 Clear 29 1014 45 10000 2.1 290 11:39 01.04.2020
87 Clear 29 1014 45 10000 2.1 290 11:20 01.04.2020
88 Clear 29 1015 45 10000 3.1 250 10:56 01.04.2020
89 Clear 28 1015 45 10000 3.1 250 10:37 01.04.2020
90 Clear 28 1015 45 10000 3.1 250 10:37 01.04.2020
91 Clear 28 1015 45 10000 3.1 250 10:18 01.04.2020
92 Clear 27 1015 51 10000 3.1 210 09:40 01.04.2020
93 Clear 27 1015 51 10000 3.1 210 09:40 01.04.2020
94 Clear 26 1015 51 10000 3.1 210 09:21 01.04.2020
95 Clear 25 1015 61 10000 3.1 210 08:59 01.04.2020
96 Clear 25 1015 61 10000 3.1 210 08:40 01.04.2020
97 Clear 24 1015 61 10000 3.1 210 08:18 01.04.2020
98 Clear 23 1016 69 10000 3.6 190 07:42 01.04.2020
99 Clear 22 1016 69 10000 3.6 190 07:19 01.04.2020
100 Clear 21 1015 73 10000 3.6 200 06:47 01.04.2020
101 Clear 21 1015 73 10000 3.6 200 06:21 01.04.2020
102 Clear 19 1014 82 10000 3.6 200 05:53 01.04.2020
103 Clear 19 1013 82 10000 3.1 200 04:29 01.04.2020
104 Clear 20 1013 77 10000 2.1 190 03:21 01.04.2020
105 Clear 20 1012 77 10000 2.6 180 02:41 01.04.2020
106 Clear 20 1013 77 10000 3.1 190 01:53 01.04.2020
107 Clear 20 1013 77 10000 3.1 190 01:27 01.04.2020
108 Clear 21 1013 73 10000 3.1 200 00:47 01.04.2020
109 Clear 21 1013 73 10000 3.1 200 00:24 01.04.2020
110 Clear 21 1013 73 10000 3.1 200 23:59 31.03.2020
111 Clear 21 1013 73 10000 3.1 200 23:41 31.03.2020
112 Clear 21 1013 73 10000 3.1 200 23:22 31.03.2020
113 Clear 22 1014 68 10000 3.1 200 22:41 31.03.2020
114 Clear 22 1014 68 10000 3.1 200 22:22 31.03.2020
115 Clear 23 1014 64 10000 2.6 210 21:58 31.03.2020
116 Clear 23 1014 64 10000 2.6 210 21:40 31.03.2020
117 Clear 23 1014 64 10000 2.6 210 21:21 31.03.2020
118 Clear 23 1014 60 10000 2.1 260 20:57 31.03.2020
119 Clear 23 1014 60 10000 2.1 260 20:57 31.03.2020
120 Clear 24 1014 60 10000 2.1 260 20:37 31.03.2020
121 Clear 23 1014 60 10000 3.1 280 20:19 31.03.2020
122 Clear 24 1014 60 10000 3.1 280 19:57 31.03.2020
123 Clear 24 1014 60 10000 3.1 280 19:38 31.03.2020
124 Clear 24 1014 60 10000 3.1 280 19:19 31.03.2020
125 Clear 24 1013 57 10000 4.1 280 18:44 31.03.2020
126 Clear 24 1013 60 10000 4.6 280 18:21 31.03.2020
127 Clear 24 1013 60 10000 4.6 280 17:57 31.03.2020
128 Clear 24 1013 60 10000 4.6 280 17:57 31.03.2020
129 Clear 24 1013 60 10000 4.6 280 17:39 31.03.2020
130 Clear 24 1013 60 10000 4.6 280 17:21 31.03.2020
131 Clear 25 1013 57 10000 5.1 280 16:56 31.03.2020
132 Clear 25 1013 57 10000 5.1 280 16:37 31.03.2020
133 Clear 25 1013 57 10000 5.1 280 16:18 31.03.2020
134 Clear 26 1013 54 10000 6.2 290 15:56 31.03.2020
135 Clear 26 1013 54 10000 6.2 290 15:37 31.03.2020
136 Clear 26 1013 54 10000 6.2 290 15:37 31.03.2020
137 Clear 26 1013 54 10000 6.2 290 15:18 31.03.2020
138 Clear 26 1013 54 10000 7.2 280 14:42 31.03.2020
139 Clear 26 1013 54 10000 7.2 280 14:23 31.03.2020
140 Clear 27 1013 47 10000 7.2 280 13:59 31.03.2020
141 Clear 27 1013 47 10000 7.2 280 13:40 31.03.2020
142 Clear 27 1013 47 10000 7.2 280 13:19 31.03.2020
143 Clear 27 1013 47 10000 7.2 280 13:19 31.03.2020
144 Clear 27 1013 47 10000 6.2 280 12:46 31.03.2020
145 Clear 27 1013 47 10000 6.2 280 12:21 31.03.2020
146 Clear 27 1013 47 10000 6.2 280 12:21 31.03.2020
147 Clear 27 1014 44 10000 5.7 270 11:59 31.03.2020
148 Clear 27 1014 44 10000 5.7 270 11:38 31.03.2020
149 Clear 27 1014 44 10000 5.7 270 11:19 31.03.2020
150 Clear 27 1014 42 10000 5.1 270 10:55 31.03.2020
151 Clear 27 1014 42 10000 5.1 270 10:37 31.03.2020
152 Clear 26 1014 42 10000 5.1 270 10:19 31.03.2020
153 Clear 25 1015 44 10000 6.2 290 09:44 31.03.2020
154 Clear 26 1015 44 10000 6.2 290 09:25 31.03.2020
155 Clear 23 1015 64 10000 5.1 230 08:59 31.03.2020
156 Clear 23 1015 64 10000 5.1 230 08:40 31.03.2020
157 Clear 23 1015 64 10000 5.1 230 08:20 31.03.2020
158 Clear 22 1015 68 10000 5.1 210 07:57 31.03.2020
159 Clear 22 1015 68 10000 5.1 210 07:38 31.03.2020
160 Clear 21 1015 68 10000 5.1 210 07:20 31.03.2020
161 Clear 20 1014 72 10000 4.6 210 06:53 31.03.2020
162 Clear 20 1014 72 10000 4.6 210 06:35 31.03.2020
163 Clear 19 1013 82 10000 4.1 180 05:41 31.03.2020
164 Clear 19 1013 82 10000 4.1 210 04:33 31.03.2020
165 Clouds 20 1012 77 10000 2.6 180 02:30 31.03.2020
166 Clouds 21 1012 73 10000 2.6 250 01:46 31.03.2020
167 Clouds 22 1012 68 10000 3.6 270 00:53 31.03.2020
168 Clouds 22 1012 68 10000 3.6 270 00:25 31.03.2020
169 Clear 21 1012 68 10000 3.6 300 23:59 30.03.2020
170 Clear 21 1012 68 10000 3.6 300 23:38 30.03.2020
171 Clear 22 1012 68 10000 3.6 300 23:19 30.03.2020
172 Clear 22 1012 64 10000 4.1 300 22:57 30.03.2020
173 Clear 22 1012 64 10000 4.1 300 22:38 30.03.2020
174 Clear 22 1012 64 10000 4.1 300 22:18 30.03.2020
175 Clear 23 1012 64 10000 2.6 280 21:57 30.03.2020
176 Clear 23 1012 64 10000 2.6 280 21:37 30.03.2020
177 Clear 22 1012 64 10000 2.6 270 21:19 30.03.2020
178 Clear 22 1012 64 10000 2.6 270 20:55 30.03.2020
179 Clear 22 1012 64 10000 2.6 270 20:36 30.03.2020
180 Clear 22 1012 64 10000 2.6 270 20:18 30.03.2020
181 Clear 23 1011 60 10000 3.1 280 19:40 30.03.2020
182 Clear 23 1011 60 10000 3.1 280 19:22 30.03.2020
183 Clear 24 1011 60 10000 4.1 280 18:57 30.03.2020
184 Clear 24 1011 60 10000 4.1 280 18:39 30.03.2020
185 Clear 24 1011 60 10000 4.1 280 18:20 30.03.2020
186 Clear 24 1010 73 10000 4.6 290 17:57 30.03.2020
187 Clear 24 1010 73 10000 4.6 290 17:38 30.03.2020
188 Clear 24 1010 73 10000 4.6 290 17:19 30.03.2020
189 Clouds 24 1010 73 9000 5.7 280 16:55 30.03.2020
190 Clouds 25 1010 73 9000 5.7 280 16:37 30.03.2020
191 Clouds 25 1010 73 9000 5.7 280 16:19 30.03.2020
192 Clouds 25 1010 73 7000 7.2 290 15:54 30.03.2020
193 Clouds 25 1010 73 7000 7.2 290 15:36 30.03.2020
194 Clouds 25 1010 73 7000 7.2 290 15:18 30.03.2020
195 Clouds 26 1009 69 8000 7.2 290 14:39 30.03.2020
196 Clouds 26 1009 69 8000 7.2 290 14:19 30.03.2020
197 Clouds 26 1009 69 9000 7.2 290 13:59 30.03.2020
198 Clouds 26 1009 69 9000 7.2 290 13:40 30.03.2020
199 Clouds 26 1009 69 9000 7.2 290 13:21 30.03.2020
200 Clouds 27 1009 69 10000 7.7 300 12:56 30.03.2020
201 Clouds 27 1009 69 10000 7.7 300 12:37 30.03.2020
202 Clouds 27 1009 69 10000 7.7 300 12:19 30.03.2020
203 Clouds 27 1009 65 10000 5.1 280 11:55 30.03.2020
204 Clouds 27 1009 65 10000 5.1 280 11:55 30.03.2020
205 Clouds 27 1009 65 10000 5.1 280 11:55 30.03.2020
206 Clouds 27 1009 65 10000 5.1 280 11:37 30.03.2020
207 Clouds 27 1009 65 10000 5.1 280 11:18 30.03.2020
208 Clouds 27 1010 74 8000 9.3 280 10:39 30.03.2020
209 Clouds 27 1010 74 8000 9.3 280 10:21 30.03.2020
210 Clouds 27 1010 74 8000 9.3 280 10:21 30.03.2020
211 Clouds 27 1009 65 7000 7.2 260 09:55 30.03.2020
212 Clouds 27 1009 65 7000 7.2 260 09:37 30.03.2020
213 Clouds 27 1009 65 7000 7.2 260 09:18 30.03.2020
214 Clouds 27 1009 69 6000 7.7 280 08:40 30.03.2020
215 Clouds 27 1009 69 8000 8.2 220 08:22 30.03.2020
216 Clouds 26 1009 65 8000 7.7 220 07:49 30.03.2020
217 Clouds 26 1008 74 10000 6.7 210 07:26 30.03.2020
218 Rain 26 1008 74 10000 7.7 210 06:52 30.03.2020
219 Rain 25 1007 73 10000 7.2 200 06:30 30.03.2020
220 Clouds 25 1007 73 7000 7.2 200 05:47 30.03.2020
221 Clouds 25 1007 73 7000 7.2 200 05:18 30.03.2020
222 Clouds 25 1005 73 8000 8.2 200 04:21 30.03.2020
223 Rain 25 1004 69 6000 7.2 190 03:19 30.03.2020
224 Rain 25 1005 65 8000 5.7 170 01:59 30.03.2020
225 Rain 25 1005 65 8000 5.7 170 01:24 30.03.2020
226 Rain 25 1006 54 5000 6.2 190 00:30 30.03.2020
227 Rain 26 1006 61 8000 3.6 240 23:59 29.03.2020
228 Rain 26 1006 61 8000 3.6 240 23:40 29.03.2020
229 Thunderstorm 27 1005 57 10000 3.6 180 23:21 29.03.2020
230 Rain 27 1005 65 8000 8.7 140 22:55 29.03.2020
231 Rain 27 1005 65 8000 8.7 140 22:37 29.03.2020
232 Rain 26 1005 65 8000 8.7 140 22:18 29.03.2020
233 Rain 26 1005 65 9000 10.3 120 21:39 29.03.2020
234 Clouds 26 1005 65 9000 10.3 120 21:20 29.03.2020
235 Clouds 27 1006 57 8000 8.7 120 20:56 29.03.2020
236 Clouds 27 1006 57 8000 8.7 120 20:37 29.03.2020
237 Clouds 27 1006 57 8000 8.7 120 20:19 29.03.2020
238 Clouds 27 1006 57 10000 7.2 110 19:58 29.03.2020
239 Clouds 27 1006 57 10000 7.2 110 19:40 29.03.2020
240 Clouds 27 1006 57 10000 7.2 110 19:22 29.03.2020
241 Rain 27 1006 57 8000 6.7 110 18:57 29.03.2020
242 Rain 27 1006 57 8000 6.7 110 18:38 29.03.2020
243 Rain 28 1006 57 8000 6.7 110 18:19 29.03.2020
244 Clouds 29 1005 54 8000 7.7 130 18:19 29.03.2020
245 Clouds 29 1005 54 8000 7.7 130 17:56 29.03.2020
246 Clouds 29 1005 54 8000 7.7 130 17:38 29.03.2020
247 Clouds 29 1005 54 8000 7.7 130 17:18 29.03.2020
248 Clouds 30 1005 45 8000 8.2 130 16:56 29.03.2020
249 Clouds 30 1005 45 8000 8.2 130 16:38 29.03.2020
250 Clouds 30 1005 45 8000 8.2 130 16:19 29.03.2020
251 Dust 32 1005 31 5000 6.2 140 15:41 29.03.2020
252 Dust 32 1005 31 5000 6.2 140 15:41 29.03.2020
253 Dust 32 1005 24 4500 4.1 180 15:23 29.03.2020
254 Dust 33 1005 26 4500 5.7 190 14:58 29.03.2020
255 Dust 33 1005 26 4500 5.7 190 14:40 29.03.2020
256 Dust 33 1005 26 4500 5.7 190 14:20 29.03.2020
257 Dust 32 1006 25 4500 5.7 180 13:58 29.03.2020
258 Dust 32 1006 25 4500 5.7 180 13:39 29.03.2020
259 Dust 32 1006 25 4500 5.7 180 13:20 29.03.2020
260 Dust 31 1007 25 4500 5.7 180 12:55 29.03.2020
261 Dust 32 1007 25 4500 5.7 180 12:37 29.03.2020
262 Dust 31 1007 25 4500 5.7 180 12:19 29.03.2020
263 Dust 31 1008 27 4500 6.7 180 11:55 29.03.2020
264 Dust 31 1008 27 4500 6.7 180 11:37 29.03.2020
265 Dust 31 1008 27 4500 6.7 180 11:18 29.03.2020
266 Dust 31 1008 27 4500 6.7 180 11:18 29.03.2020
267 Dust 30 1009 25 5000 7.2 180 10:38 29.03.2020
268 Dust 30 1009 25 5000 7.2 180 10:19 29.03.2020
269 Dust 29 1010 22 3500 7.7 160 09:41 29.03.2020
270 Dust 29 1010 22 3500 7.7 160 09:22 29.03.2020
271 Dust 29 1011 25 4000 4.6 140 08:54 29.03.2020
272 Dust 29 1011 25 4000 4.6 140 08:36 29.03.2020
273 Dust 29 1011 25 4000 4.6 140 08:18 29.03.2020
274 Dust 28 1011 30 4000 5.1 170 07:42 29.03.2020
275 Dust 28 1011 30 4000 5.1 170 07:21 29.03.2020
276 Clouds 27 1008 39 10000 6.2 180 05:46 29.03.2020
277 Clouds 27 1010 44 9000 5.1 170 04:27 29.03.2020
278 Clouds 27 1008 39 7000 5.1 160 03:31 29.03.2020
279 Clouds 28 1009 35 7000 5.1 170 01:51 29.03.2020
280 Clouds 28 1009 35 7000 5.1 170 01:23 29.03.2020
281 Clouds 28 1009 42 10000 4.6 170 00:56 29.03.2020
282 Clouds 28 1009 42 10000 4.6 170 00:33 29.03.2020
283 Clouds 27 1006 47 10000 6.2 150 23:56 28.03.2020
284 Clouds 27 1006 47 10000 6.2 150 23:38 28.03.2020
285 Clouds 27 1006 47 10000 6.2 150 23:18 28.03.2020
286 Clouds 26 1008 50 10000 4.1 110 22:39 28.03.2020
287 Clouds 26 1008 50 10000 4.1 110 22:21 28.03.2020
288 Clouds 26 1009 36 10000 4.1 100 21:55 28.03.2020
289 Clouds 26 1009 36 10000 4.1 100 21:37 28.03.2020
290 Clouds 27 1009 36 10000 4.1 100 21:18 28.03.2020
291 Clouds 27 1010 32 10000 3.6 80 20:42 28.03.2020
292 Clouds 27 1010 32 10000 3.6 80 20:23 28.03.2020
293 Clouds 27 1011 34 10000 5.1 70 19:57 28.03.2020
294 Clouds 27 1011 34 10000 5.1 70 19:39 28.03.2020
295 Clouds 28 1011 34 10000 5.1 70 19:20 28.03.2020
296 Clouds 28 1011 35 10000 4.1 80 18:58 28.03.2020
297 Clouds 28 1011 35 10000 4.1 80 18:39 28.03.2020
298 Clouds 29 1011 35 10000 4.1 80 18:19 28.03.2020
299 Clouds 29 1011 35 10000 4.1 80 18:19 28.03.2020
300 Clouds 29 1010 33 10000 4.6 70 17:39 28.03.2020
301 Clouds 29 1010 33 10000 4.6 70 17:20 28.03.2020
302 Clouds 30 1011 45 10000 3.6 30 16:43 28.03.2020
303 Clouds 30 1011 45 10000 3.6 30 16:20 28.03.2020
304 Clouds 30 1011 45 10000 3.6 30 16:20 28.03.2020
305 Clouds 30 1011 45 10000 3.6 30 16:20 28.03.2020
306 Clouds 30 1010 45 10000 4.1 40 15:59 28.03.2020
307 Clouds 30 1010 45 10000 4.1 40 15:39 28.03.2020
308 Clouds 29 1010 45 10000 4.1 40 15:19 28.03.2020
309 Clouds 31 1010 42 10000 4.1 30 14:55 28.03.2020
310 Clouds 30 1010 42 10000 4.1 30 14:37 28.03.2020
311 Clouds 31 1010 42 10000 4.1 30 14:18 28.03.2020
312 Clouds 32 1010 35 9000 3.6 10 13:39 28.03.2020
313 Clouds 32 1010 35 9000 3.6 10 13:21 28.03.2020
314 Clouds 31 1010 38 8000 6.2 340 12:40 28.03.2020
315 Clouds 31 1010 38 8000 6.2 340 12:22 28.03.2020
316 Clouds 33 1010 33 8000 5.1 330 11:43 28.03.2020
317 Clouds 33 1011 20 6000 5.1 220 11:23 28.03.2020
318 Clouds 33 1012 18 10000 4.6 150 10:56 28.03.2020
319 Clouds 33 1012 18 10000 4.6 150 10:38 28.03.2020
320 Clouds 32 1012 18 10000 4.6 150 10:18 28.03.2020
321 Clouds 32 1013 29 10000 5.1 160 09:42 28.03.2020
322 Clouds 31 1013 29 10000 5.1 160 09:23 28.03.2020
323 Clouds 30 1014 35 10000 5.1 140 08:47 28.03.2020
324 Clouds 30 1014 35 10000 5.1 140 08:28 28.03.2020
325 Clouds 29 1014 39 10000 6.2 130 07:59 28.03.2020
326 Clouds 29 1014 39 10000 6.2 130 07:41 28.03.2020
327 Clouds 27 1014 44 10000 5.1 120 06:56 28.03.2020
328 Clouds 27 1014 44 10000 5.1 120 06:34 28.03.2020
329 Clouds 25 1014 53 10000 2.1 160 05:41 28.03.2020
330 Clouds 24 1014 53 10000 2.1 160 05:21 28.03.2020
331 Clouds 23 1013 57 10000 2.1 100 04:40 28.03.2020
332 Clouds 23 1012 53 10000 3.6 130 03:21 28.03.2020
333 Clouds 23 1012 47 10000 1.5 70 01:49 28.03.2020
334 Clouds 23 1012 47 10000 1.5 70 01:24 28.03.2020
335 Clouds 24 1012 47 10000 2.6 90 00:55 28.03.2020
336 Clouds 24 1012 47 10000 2.6 90 00:33 28.03.2020
337 Clouds 24 1013 47 10000 2.6 80 23:54 27.03.2020
338 Clouds 24 1013 47 10000 2.6 80 23:36 27.03.2020
339 Clouds 24 1013 47 10000 2.6 80 23:18 27.03.2020
340 Clouds 25 1013 44 10000 2.6 60 22:54 27.03.2020
341 Clouds 25 1013 44 10000 2.6 60 22:36 27.03.2020
342 Clouds 25 1013 44 10000 2.6 60 22:18 27.03.2020
343 Clouds 25 1014 44 10000 2.6 60 21:42 27.03.2020
344 Clouds 25 1014 44 10000 2.6 60 21:23 27.03.2020
345 Clouds 25 1014 41 10000 2.1 80 20:58 27.03.2020
346 Clouds 25 1014 41 10000 2.1 80 20:58 27.03.2020
347 Clouds 25 1014 41 10000 2.1 80 20:39 27.03.2020
348 Clouds 25 1014 41 10000 2.1 80 20:20 27.03.2020
349 Clouds 26 1014 36 10000 3.6 60 19:56 27.03.2020
350 Clouds 26 1014 36 10000 3.6 60 19:38 27.03.2020
351 Clouds 26 1014 36 10000 3.6 60 19:19 27.03.2020
352 Clouds 26 1014 34 10000 3.1 70 18:43 27.03.2020
353 Clouds 26 1014 34 10000 3.1 70 18:23 27.03.2020
354 Clouds 26 1014 36 10000 4.1 40 17:57 27.03.2020
355 Clouds 26 1014 36 10000 4.1 40 17:38 27.03.2020
356 Clouds 27 1014 36 10000 4.1 40 17:19 27.03.2020
357 Clouds 27 1013 42 10000 3.1 30 16:44 27.03.2020
358 Clouds 27 1013 42 10000 3.1 30 16:25 27.03.2020
359 Clouds 27 1013 42 10000 3.1 30 16:25 27.03.2020
360 Clouds 28 1012 42 10000 4.1 30 15:45 27.03.2020
361 Clouds 28 1012 42 10000 4.1 30 15:27 27.03.2020
362 Clouds 29 1012 45 10000 4.1 10 14:57 27.03.2020
363 Clouds 29 1012 45 10000 4.1 10 14:39 27.03.2020
364 Clear 30 1012 45 10000 4.1 10 14:21 27.03.2020
365 Clear 30 1012 42 10000 4.6 20 13:43 27.03.2020
366 Clear 30 1012 42 10000 4.6 20 13:22 27.03.2020
367 Clear 31 1012 33 10000 5.1 40 12:59 27.03.2020
368 Clear 31 1012 33 10000 5.1 40 12:41 27.03.2020
369 Clear 31 1012 33 10000 5.1 40 12:19 27.03.2020
370 Clear 32 1013 15 10000 2.1 0 11:43 27.03.2020
371 Clear 31 1013 15 10000 2.1 0 11:25 27.03.2020
372 Clear 31 1014 15 10000 2.1 0 10:57 27.03.2020
373 Clear 31 1014 15 10000 2.1 0 10:39 27.03.2020
374 Clear 30 1014 15 10000 2.1 0 10:20 27.03.2020
375 Clear 30 1015 19 10000 3.1 110 09:58 27.03.2020
376 Clear 30 1015 19 10000 3.1 110 09:58 27.03.2020
377 Clear 30 1015 19 10000 3.1 110 09:39 27.03.2020
378 Clear 30 1015 19 10000 3.1 110 09:21 27.03.2020
379 Clear 28 1016 30 10000 4.6 110 08:58 27.03.2020
380 Clear 28 1016 30 10000 4.6 110 08:39 27.03.2020
381 Clear 28 1016 30 10000 4.6 110 08:21 27.03.2020
382 Clouds 26 1016 39 10000 4.1 80 07:53 27.03.2020
383 Clouds 26 1016 39 10000 4.1 80 07:28 27.03.2020
384 Clouds 25 1015 44 10000 3.6 80 06:57 27.03.2020
385 Clouds 25 1015 44 10000 3.6 80 06:37 27.03.2020
386 Clouds 23 1015 49 10000 3.6 110 05:37 27.03.2020
387 Clouds 21 1013 77 9000 1 100 02:49 27.03.2020
388 Clear 21 1013 77 0 1.34 100 01:36 27.03.2020
389 Clear 21 1012 77 10000 2.1 110 00:53 27.03.2020
390 Clear 21 1012 77 10000 2.1 110 00:32 27.03.2020
391 Clear 22 1013 78 10000 2.6 100 23:44 26.03.2020
392 Clouds 22 1013 78 10000 2.6 100 23:24 26.03.2020
393 Clouds 22 1013 78 10000 2.1 70 22:59 26.03.2020
394 Clouds 22 1013 78 10000 2.1 70 22:59 26.03.2020
395 Clouds 22 1013 78 10000 2.1 70 22:39 26.03.2020
396 Clouds 22 1013 78 10000 2.1 70 22:20 26.03.2020
397 Clouds 23 1013 73 10000 2.6 60 21:58 26.03.2020
398 Clouds 23 1013 73 10000 2.6 60 21:39 26.03.2020
399 Clouds 23 1013 73 10000 2.6 60 21:21 26.03.2020
400 Clouds 23 1013 73 10000 4.1 40 20:58 26.03.2020
401 Clouds 23 1013 73 10000 4.1 40 20:38 26.03.2020
402 Clouds 23 1013 73 10000 4.1 40 20:20 26.03.2020
403 Clouds 23 1013 69 10000 4.6 40 19:56 26.03.2020
404 Clouds 23 1013 69 10000 4.6 40 19:38 26.03.2020
405 Clouds 23 1013 69 10000 4.6 40 19:38 26.03.2020
406 Clouds 24 1013 69 10000 4.6 40 19:20 26.03.2020
407 Clouds 24 1013 64 10000 3.6 30 18:55 26.03.2020
408 Clouds 24 1013 64 10000 3.6 30 18:55 26.03.2020
409 Clouds 24 1013 64 10000 3.6 30 18:37 26.03.2020
410 Clouds 24 1013 64 10000 3.6 30 18:18 26.03.2020
411 Clouds 24 1012 64 10000 4.1 360 17:42 26.03.2020
412 Clouds 24 1012 64 10000 4.1 360 17:19 26.03.2020
413 Clouds 24 1012 64 10000 5.1 330 16:45 26.03.2020
414 Clouds 24 1012 64 10000 5.1 330 16:27 26.03.2020
415 Clouds 24 1011 60 10000 5.1 340 15:58 26.03.2020
416 Clouds 24 1011 60 10000 5.1 340 15:40 26.03.2020
417 Clouds 25 1011 60 10000 5.1 340 15:21 26.03.2020
418 Clouds 25 1011 57 10000 6.2 350 14:57 26.03.2020
419 Clouds 25 1011 57 10000 6.2 350 14:38 26.03.2020
420 Clouds 25 1011 57 10000 6.2 350 14:38 26.03.2020
421 Clouds 25 1011 57 10000 6.2 350 14:19 26.03.2020
422 Clouds 26 1011 47 10000 6.7 330 13:43 26.03.2020
423 Clouds 26 1011 47 10000 6.7 330 13:23 26.03.2020
424 Clouds 27 1011 42 10000 7.2 330 12:56 26.03.2020
425 Clouds 27 1011 42 10000 7.2 330 12:37 26.03.2020
426 Clouds 26 1011 42 10000 7.2 330 12:19 26.03.2020
427 Clouds 26 1012 50 10000 8.2 340 11:44 26.03.2020
428 Clear 26 1012 50 10000 8.2 340 11:20 26.03.2020
429 Clear 27 1012 47 10000 6.2 350 10:56 26.03.2020
430 Clear 27 1012 47 10000 6.2 350 10:36 26.03.2020
431 Clear 27 1012 47 10000 6.2 350 10:18 26.03.2020
432 Clear 27 1012 47 10000 6.2 350 10:18 26.03.2020
433 Clouds 27 1013 36 10000 2.6 0 09:42 26.03.2020
434 Clouds 26 1013 36 10000 2.6 0 09:19 26.03.2020
435 Clear 26 1013 44 10000 2.1 90 08:46 26.03.2020
436 Clear 26 1013 44 10000 2.1 90 08:27 26.03.2020
437 Clouds 24 1013 57 10000 2.6 70 07:58 26.03.2020
438 Clouds 24 1013 57 10000 2.6 70 07:40 26.03.2020
439 Clouds 23 1013 57 10000 2.6 70 07:20 26.03.2020
440 Clouds 22 1013 68 10000 2.6 90 06:46 26.03.2020
441 Clouds 21 1012 73 10000 3.1 120 05:52 26.03.2020
442 Clear 20 1011 77 10000 1 70 03:58 26.03.2020
443 Clear 20 1011 77 10000 1 70 03:35 26.03.2020
444 Clear 20 1011 77 10000 1 90 02:53 26.03.2020
445 Clouds 20 1011 77 10000 1 110 01:44 26.03.2020
446 Clouds 20 1011 77 10000 1 120 00:43 26.03.2020
447 Clouds 21 1011 68 10000 1 100 23:45 25.03.2020
448 Clouds 21 1011 68 10000 1 100 23:27 25.03.2020
449 Clouds 22 1012 68 10000 2.1 350 22:57 25.03.2020
450 Clouds 22 1012 68 10000 2.1 350 22:38 25.03.2020
451 Clouds 22 1012 68 10000 2.1 350 22:19 25.03.2020
452 Clouds 22 1012 64 10000 2.1 350 21:54 25.03.2020
453 Clouds 22 1012 64 10000 2.1 350 21:36 25.03.2020
454 Clouds 22 1012 64 10000 2.1 350 21:18 25.03.2020
455 Clouds 22 1012 64 10000 3.1 350 20:39 25.03.2020
456 Clear 22 1012 64 10000 3.1 350 20:20 25.03.2020
457 Clouds 22 1012 64 10000 2.6 310 19:58 25.03.2020
458 Clouds 22 1012 64 10000 2.6 310 19:39 25.03.2020
459 Clouds 22 1012 64 10000 2.6 310 19:21 25.03.2020
460 Clouds 22 1012 64 10000 3.6 330 18:54 25.03.2020
461 Clouds 22 1012 64 10000 3.6 330 18:36 25.03.2020
462 Clouds 22 1012 64 10000 4.1 340 18:18 25.03.2020
463 Clouds 22 1012 64 10000 4.1 340 17:41 25.03.2020
464 Clouds 22 1012 64 10000 4.1 340 17:22 25.03.2020
465 Clouds 23 1011 56 10000 4.1 330 16:59 25.03.2020
466 Clouds 23 1011 56 10000 4.1 330 16:39 25.03.2020
467 Clouds 23 1011 56 10000 4.1 330 16:21 25.03.2020
468 Clouds 23 1011 56 10000 4.1 330 16:21 25.03.2020
469 Clouds 23 1011 56 10000 4.1 320 15:43 25.03.2020
470 Clouds 24 1011 56 10000 4.1 320 15:21 25.03.2020
471 Clouds 24 1011 53 10000 4.6 320 14:59 25.03.2020
472 Clouds 24 1011 53 10000 4.6 320 14:40 25.03.2020
473 Clouds 24 1011 53 10000 4.6 320 14:20 25.03.2020
474 Clouds 24 1011 50 10000 5.7 320 13:45 25.03.2020
475 Clouds 24 1011 50 10000 5.7 320 13:25 25.03.2020
476 Clouds 25 1011 47 10000 5.1 330 12:40 25.03.2020
477 Clouds 25 1011 47 10000 5.1 330 12:21 25.03.2020
478 Clouds 24 1011 53 10000 4.6 320 11:59 25.03.2020
479 Clouds 24 1011 53 10000 4.6 320 11:41 25.03.2020
480 Clouds 24 1011 53 10000 4.6 320 11:21 25.03.2020
481 Clouds 24 1012 53 10000 5.1 310 10:58 25.03.2020
482 Clouds 24 1012 53 10000 5.1 310 10:40 25.03.2020
483 Clouds 24 1012 53 10000 5.1 310 10:40 25.03.2020
484 Clouds 24 1012 53 10000 5.1 310 10:19 25.03.2020
485 Clouds 24 1013 47 10000 3.6 330 09:56 25.03.2020
486 Clouds 24 1013 47 10000 3.6 330 09:56 25.03.2020
487 Clouds 24 1013 47 10000 3.6 330 09:38 25.03.2020
488 Clouds 23 1013 47 10000 3.6 330 09:20 25.03.2020
489 Clouds 23 1013 53 10000 2.1 0 08:42 25.03.2020
490 Clouds 23 1013 53 10000 2.1 0 08:42 25.03.2020
491 Clouds 23 1013 53 10000 2.1 0 08:24 25.03.2020
492 Clouds 22 1013 60 10000 2.6 210 07:57 25.03.2020
493 Clouds 22 1013 60 10000 2.6 210 07:38 25.03.2020
494 Clouds 21 1013 60 10000 2.6 210 07:18 25.03.2020
495 Clouds 20 1013 68 10000 2.1 180 06:42 25.03.2020
496 Clouds 19 1013 68 10000 2.1 180 06:23 25.03.2020
497 Clouds 18 1013 77 10000 3.6 180 05:47 25.03.2020
498 Clouds 18 1012 77 10000 3.1 180 04:46 25.03.2020
499 Clouds 18 1011 77 10000 2.1 160 03:58 25.03.2020
500 Clouds 18 1011 77 10000 2.1 160 03:33 25.03.2020
501 Clouds 19 1010 72 10000 2.6 190 01:41 25.03.2020
502 Clouds 19 1011 72 10000 3.6 180 00:51 25.03.2020
503 Clouds 19 1011 72 10000 3.6 180 00:30 25.03.2020
504 Clouds 21 1011 60 10000 3.1 270 23:59 24.03.2020
505 Clouds 21 1011 60 10000 3.1 270 23:40 24.03.2020
506 Clouds 21 1011 60 10000 3.1 270 23:20 24.03.2020
507 Clouds 21 1012 60 10000 3.1 280 22:55 24.03.2020
508 Clouds 21 1012 60 10000 3.1 280 22:36 24.03.2020
509 Clouds 21 1012 60 10000 3.1 280 22:18 24.03.2020
510 Clouds 21 1012 64 10000 3.6 260 21:42 24.03.2020
511 Clouds 21 1012 64 10000 3.6 260 21:19 24.03.2020
512 Clouds 21 1012 60 10000 4.1 270 20:59 24.03.2020
513 Clouds 21 1012 60 10000 4.1 270 20:41 24.03.2020
514 Clouds 21 1012 60 10000 4.1 270 20:22 24.03.2020
515 Clouds 21 1012 60 10000 4.6 280 19:48 24.03.2020
516 Clouds 21 1012 60 10000 4.6 280 19:23 24.03.2020
517 Clouds 21 1012 60 10000 4.6 280 18:59 24.03.2020
518 Clouds 21 1012 60 10000 4.6 280 18:39 24.03.2020
519 Clouds 21 1012 60 10000 4.6 280 18:20 24.03.2020
520 Clouds 21 1012 60 10000 5.1 280 17:58 24.03.2020
521 Clouds 21 1012 60 10000 5.1 280 17:40 24.03.2020
522 Clouds 21 1012 60 10000 5.1 280 17:40 24.03.2020
523 Clouds 21 1012 60 10000 5.1 280 17:40 24.03.2020
524 Clouds 21 1012 60 10000 5.1 280 17:22 24.03.2020
525 Clouds 21 1011 56 10000 6.2 280 16:57 24.03.2020
526 Clouds 21 1011 56 10000 6.2 280 16:57 24.03.2020
527 Clouds 21 1011 56 10000 6.2 280 16:38 24.03.2020
528 Clouds 21 1011 56 10000 6.2 280 16:20 24.03.2020
529 Clouds 22 1011 53 10000 7.7 310 15:43 24.03.2020
530 Clouds 22 1011 53 10000 7.7 310 15:25 24.03.2020
531 Clouds 22 1011 53 10000 7.7 280 14:57 24.03.2020
532 Clouds 22 1011 53 10000 7.7 280 14:37 24.03.2020
533 Clouds 22 1011 53 10000 7.7 280 14:18 24.03.2020
534 Clouds 23 1011 46 10000 8.7 300 13:41 24.03.2020
535 Clouds 23 1011 46 10000 8.7 300 13:22 24.03.2020
536 Clouds 23 1011 46 10000 7.7 290 12:45 24.03.2020
537 Clouds 23 1011 46 10000 7.7 290 12:27 24.03.2020
538 Clouds 23 1012 46 10000 8.7 310 11:57 24.03.2020
539 Clouds 23 1012 46 10000 8.7 310 11:38 24.03.2020
540 Clouds 23 1012 46 10000 8.7 310 11:18 24.03.2020
541 Clouds 23 1012 46 10000 7.7 290 10:42 24.03.2020
542 Clouds 23 1012 46 10000 7.7 290 10:19 24.03.2020
543 Clouds 23 1012 46 10000 7.7 290 10:19 24.03.2020
544 Clouds 23 1013 46 10000 6.7 270 09:48 24.03.2020
545 Clouds 23 1013 46 10000 6.7 270 09:27 24.03.2020
546 Clouds 22 1013 46 10000 6.2 280 08:58 24.03.2020
547 Clouds 22 1013 46 10000 6.2 280 08:38 24.03.2020
548 Clouds 22 1013 46 10000 6.2 280 08:20 24.03.2020
549 Clouds 22 1014 49 10000 5.7 260 07:44 24.03.2020
550 Clouds 22 1014 49 10000 5.7 260 07:22 24.03.2020
551 Clouds 21 1013 52 10000 5.7 270 06:42 24.03.2020
552 Clouds 20 1013 52 10000 5.7 270 06:21 24.03.2020
553 Clouds 19 1013 56 10000 4.6 280 04:53 24.03.2020
554 Clouds 19 1012 56 10000 4.1 270 03:43 24.03.2020
555 Clouds 19 1012 60 10000 4.1 280 02:45 24.03.2020
556 Clouds 19 1012 56 10000 4.6 280 01:22 24.03.2020
557 Clouds 20 1012 56 10000 5.1 280 00:41 24.03.2020
558 Clouds 20 1012 56 10000 5.1 280 00:22 24.03.2020
559 Clear 20 1012 52 10000 4.6 270 23:38 23.03.2020
560 Clear 20 1012 52 10000 4.6 270 23:20 23.03.2020
561 Clouds 20 1012 56 10000 5.1 270 22:45 23.03.2020
562 Clouds 19 1012 56 10000 5.1 270 22:24 23.03.2020
563 Clouds 20 1013 52 10000 6.2 270 21:57 23.03.2020
564 Clouds 20 1013 52 10000 6.2 270 21:38 23.03.2020
565 Clouds 20 1013 52 10000 6.2 270 21:20 23.03.2020
566 Clouds 20 1013 49 10000 5.7 280 20:56 23.03.2020
567 Clouds 20 1013 49 10000 5.7 280 20:38 23.03.2020
568 Clouds 20 1013 49 10000 5.7 280 20:19 23.03.2020
569 Clear 21 1013 49 10000 6.2 280 19:42 23.03.2020
570 Clear 21 1013 49 10000 6.2 280 19:23 23.03.2020
571 Clear 21 1013 43 10000 5.7 280 18:56 23.03.2020
572 Clear 21 1013 43 10000 5.7 280 18:38 23.03.2020
573 Clear 21 1013 43 10000 5.7 280 18:19 23.03.2020
574 Clouds 21 1013 43 9000 6.2 280 17:41 23.03.2020
575 Clear 22 1013 40 8000 6.2 270 17:20 23.03.2020
576 Clear 22 1013 40 8000 6.2 270 16:56 23.03.2020
577 Clear 22 1013 40 8000 6.2 270 16:37 23.03.2020
578 Clear 22 1013 40 8000 6.2 270 16:18 23.03.2020
579 Clouds 23 1012 38 7000 7.2 280 15:41 23.03.2020
580 Clouds 23 1012 38 7000 7.2 280 15:19 23.03.2020
581 Clouds 23 1012 38 8000 8.2 270 14:38 23.03.2020
582 Clouds 23 1012 38 8000 8.2 270 14:20 23.03.2020
583 Clouds 23 1012 38 9000 7.2 280 13:57 23.03.2020
584 Clouds 23 1012 38 9000 7.2 280 13:39 23.03.2020
585 Clouds 23 1012 38 9000 7.2 280 13:20 23.03.2020
586 Clear 24 1012 36 10000 7.7 280 12:44 23.03.2020
587 Clear 24 1012 36 10000 7.7 280 12:25 23.03.2020
588 Clear 24 1013 36 10000 7.7 280 11:58 23.03.2020
589 Clear 24 1013 36 10000 7.7 280 11:38 23.03.2020
590 Clear 24 1013 36 10000 7.7 280 11:19 23.03.2020
591 Clear 24 1013 38 10000 8.2 280 10:56 23.03.2020
592 Clear 24 1013 38 10000 8.2 280 10:37 23.03.2020
593 Clear 24 1013 38 10000 8.2 280 10:19 23.03.2020
594 Clear 23 1014 40 10000 7.7 280 09:43 23.03.2020
595 Clear 23 1014 40 10000 7.7 280 09:21 23.03.2020
596 Clouds 23 1014 40 10000 8.7 300 08:40 23.03.2020
597 Clouds 23 1014 40 10000 8.7 300 08:21 23.03.2020
598 Clouds 23 1014 43 10000 7.7 290 07:59 23.03.2020
599 Clouds 23 1014 43 10000 7.7 290 07:59 23.03.2020
600 Clouds 23 1014 43 10000 7.7 290 07:40 23.03.2020
601 Clouds 23 1014 43 10000 7.7 290 07:19 23.03.2020
602 Clouds 22 1014 43 8000 8.2 290 06:48 23.03.2020
603 Dust 21 1013 40 4000 7.2 300 05:51 23.03.2020
604 Dust 21 1012 40 3300 7.2 300 04:57 23.03.2020
605 Dust 21 1012 40 4500 6.7 310 03:26 23.03.2020
606 Clouds 21 1010 35 10000 10.8 310 01:50 23.03.2020
607 Clouds 21 1009 40 10000 10.3 310 00:58 23.03.2020
608 Clouds 22 1009 40 10000 10.3 310 00:36 23.03.2020
609 Clouds 22 1009 40 10000 9.8 310 23:47 22.03.2020
610 Clouds 22 1009 40 10000 9.8 310 23:25 22.03.2020
611 Rain 22 1009 60 10000 8.2 300 22:45 22.03.2020
612 Rain 22 1009 60 10000 8.2 300 22:24 22.03.2020
613 Rain 22 1010 73 10000 8.7 290 21:56 22.03.2020
614 Rain 22 1010 73 10000 8.7 290 21:37 22.03.2020
615 Rain 22 1010 73 10000 8.7 290 21:19 22.03.2020
616 Rain 23 1009 78 9000 8.7 290 20:46 22.03.2020
617 Rain 23 1009 78 9000 8.7 290 20:25 22.03.2020
618 Rain 24 1009 78 10000 7.7 280 19:58 22.03.2020
619 Rain 24 1009 78 10000 7.7 280 19:40 22.03.2020
620 Rain 24 1009 78 10000 7.7 280 19:20 22.03.2020
621 Rain 24 1008 78 10000 3.6 250 18:59 22.03.2020
622 Rain 24 1008 78 10000 3.6 250 18:41 22.03.2020
623 Rain 24 1008 78 10000 3.6 250 18:22 22.03.2020
624 Rain 23 1008 73 10000 3.1 260 17:58 22.03.2020
625 Rain 23 1008 73 10000 3.1 260 17:38 22.03.2020
626 Rain 23 1008 73 10000 3.1 260 17:20 22.03.2020
627 Thunderstorm 23 1007 78 10000 6.2 250 16:57 22.03.2020
628 Thunderstorm 24 1007 78 10000 6.2 250 16:39 22.03.2020
629 Thunderstorm 24 1007 83 10000 6.2 270 16:21 22.03.2020
630 Thunderstorm 25 1007 88 9000 9.8 250 15:44 22.03.2020
631 Thunderstorm 28 1006 74 9000 5.1 260 15:26 22.03.2020
632 Thunderstorm 29 1005 58 8000 5.7 190 14:46 22.03.2020
633 Clouds 30 1005 52 10000 6.7 190 14:19 22.03.2020
634 Clouds 30 1005 52 10000 6.7 200 13:45 22.03.2020
635 Clouds 30 1005 52 10000 6.7 200 13:21 22.03.2020
636 Clouds 30 1006 48 10000 5.1 210 12:59 22.03.2020
637 Clouds 30 1006 48 10000 5.1 210 12:41 22.03.2020
638 Clouds 30 1006 48 10000 5.1 210 12:19 22.03.2020
639 Rain 30 1006 48 10000 7.2 180 11:44 22.03.2020
640 Rain 30 1006 48 10000 7.2 180 11:25 22.03.2020
641 Rain 29 1007 51 10000 7.2 180 10:58 22.03.2020
642 Rain 29 1007 51 10000 7.2 180 10:40 22.03.2020
643 Rain 29 1007 51 10000 7.2 180 10:22 22.03.2020
644 Rain 27 1008 65 10000 6.7 150 09:47 22.03.2020
645 Rain 26 1008 65 10000 6.7 150 09:28 22.03.2020
646 Rain 26 1009 61 10000 6.2 150 08:51 22.03.2020
647 Rain 26 1009 61 10000 6.2 150 08:33 22.03.2020
648 Rain 26 1009 61 10000 6.2 150 08:33 22.03.2020
649 Thunderstorm 25 1011 74 5000 7.7 150 07:59 22.03.2020
650 Thunderstorm 25 1011 74 5000 7.7 150 07:41 22.03.2020
651 Rain 23 1010 78 10000 6.2 140 06:48 22.03.2020
652 Rain 23 1011 73 10000 6.2 150 05:52 22.03.2020
653 Rain 22 1007 78 10000 4.6 90 04:39 22.03.2020
654 Rain 21 1006 78 10000 4.1 100 01:49 22.03.2020
655 Rain 22 1007 88 10000 4.6 80 00:51 22.03.2020
656 Rain 22 1007 88 10000 4.6 80 00:32 22.03.2020
657 Clouds 21 1007 88 10000 5.1 80 23:46 21.03.2020
658 Thunderstorm 21 1008 83 10000 5.1 90 23:23 21.03.2020
659 Thunderstorm 22 1008 88 8000 7.2 90 22:59 21.03.2020
660 Thunderstorm 22 1008 88 8000 7.2 90 22:38 21.03.2020
661 Thunderstorm 22 1007 78 4000 8.2 80 22:20 21.03.2020
662 Thunderstorm 22 1008 69 10000 4.1 20 21:58 21.03.2020
663 Thunderstorm 22 1008 69 10000 4.1 20 21:38 21.03.2020
664 Thunderstorm 22 1007 69 10000 7.2 100 21:19 21.03.2020
665 Rain 22 1007 78 10000 10.8 120 20:42 21.03.2020
666 Rain 23 1007 78 10000 10.8 120 20:22 21.03.2020
667 Clouds 22 1008 78 10000 7.2 140 19:55 21.03.2020
668 Clouds 22 1008 78 10000 7.2 140 19:36 21.03.2020
669 Clouds 22 1008 78 10000 7.2 140 19:18 21.03.2020
670 Thunderstorm 22 1008 83 10000 10.3 90 18:41 21.03.2020
671 Thunderstorm 22 1008 83 10000 10.3 90 18:21 21.03.2020
672 Thunderstorm 24 1008 83 8000 10.8 90 17:59 21.03.2020
673 Thunderstorm 24 1008 65 10000 6.2 60 17:41 21.03.2020
674 Thunderstorm 25 1008 65 10000 6.2 60 17:22 21.03.2020
675 Clouds 24 1007 69 10000 5.7 50 16:42 21.03.2020
676 Rain 25 1007 65 10000 6.2 60 16:23 21.03.2020
677 Rain 24 1008 57 10000 6.2 60 15:59 21.03.2020
678 Rain 25 1008 57 10000 6.2 60 15:40 21.03.2020
679 Rain 25 1008 57 10000 6.2 60 15:21 21.03.2020
680 Rain 26 1007 61 10000 6.7 60 14:56 21.03.2020
681 Rain 26 1007 61 10000 6.7 60 14:38 21.03.2020
682 Rain 26 1007 61 10000 6.7 60 14:19 21.03.2020
683 Rain 26 1008 57 10000 8.2 60 13:57 21.03.2020
684 Rain 26 1008 57 10000 8.2 60 13:39 21.03.2020
685 Rain 26 1008 57 10000 8.2 60 13:20 21.03.2020
686 Rain 27 1008 51 10000 5.7 70 12:54 21.03.2020
687 Rain 26 1008 51 10000 5.7 70 12:36 21.03.2020
688 Rain 26 1008 51 10000 5.7 70 12:18 21.03.2020
689 Rain 25 1009 69 10000 3.1 40 11:54 21.03.2020
690 Rain 25 1009 69 10000 3.1 40 11:36 21.03.2020
691 Rain 24 1009 78 10000 2.6 0 11:18 21.03.2020
692 Rain 24 1009 78 10000 2.6 0 10:55 21.03.2020
693 Thunderstorm 24 1009 88 10000 3.1 90 10:37 21.03.2020
694 Thunderstorm 24 1009 88 10000 3.1 90 10:18 21.03.2020
695 Thunderstorm 24 1010 78 6000 3.1 140 09:39 21.03.2020
696 Rain 25 1009 73 10000 6.7 130 09:21 21.03.2020
697 Rain 23 1010 73 10000 5.7 150 08:56 21.03.2020
698 Rain 24 1010 73 10000 5.7 150 08:38 21.03.2020
699 Rain 24 1010 73 10000 5.7 150 08:19 21.03.2020
700 Rain 23 1012 83 10000 4.6 170 07:39 21.03.2020
701 Rain 23 1012 83 10000 4.6 170 07:20 21.03.2020
702 Rain 25 1013 69 10000 4.6 240 06:44 21.03.2020
703 Rain 25 1013 69 10000 4.6 240 06:25 21.03.2020
704 Rain 24 1010 69 10000 5.1 270 05:40 21.03.2020
705 Rain 24 1008 65 10000 2.1 200 04:26 21.03.2020
706 Rain 25 1008 57 10000 4.1 170 02:37 21.03.2020
707 Rain 26 1007 51 10000 6.2 150 01:45 21.03.2020
708 Rain 25 1007 51 10000 6.2 150 01:25 21.03.2020
709 Rain 26 1009 57 10000 0.5 0 00:39 21.03.2020
710 Rain 26 1009 57 10000 0.5 0 00:21 21.03.2020
711 Clouds 26 1009 61 10000 1.5 200 23:43 20.03.2020
712 Clouds 26 1009 61 10000 1.5 200 23:22 20.03.2020
713 Rain 26 1010 57 10000 3.1 210 22:44 20.03.2020
714 Rain 26 1010 57 10000 3.1 210 22:25 20.03.2020
715 Rain 28 1010 45 10000 3.6 360 21:58 20.03.2020
716 Rain 28 1010 45 10000 3.6 360 21:40 20.03.2020
717 Rain 27 1010 45 10000 3.6 360 21:20 20.03.2020
718 Clouds 27 1009 48 10000 3.6 10 20:59 20.03.2020
719 Clouds 27 1009 48 10000 3.6 10 20:41 20.03.2020
720 Clouds 27 1009 48 10000 3.6 10 20:20 20.03.2020
721 Clouds 27 1009 48 10000 2.6 100 19:48 20.03.2020
722 Clouds 27 1009 48 10000 2.6 100 19:21 20.03.2020
723 Clouds 27 1009 51 10000 3.1 80 18:58 20.03.2020
724 Clouds 27 1009 51 10000 3.1 80 18:38 20.03.2020
725 Clouds 27 1009 51 10000 3.1 80 18:20 20.03.2020
726 Clouds 27 1009 51 10000 3.1 80 18:20 20.03.2020
727 Clouds 28 1008 48 10000 2.6 30 17:56 20.03.2020
728 Clouds 28 1008 48 10000 2.6 30 17:37 20.03.2020
729 Clouds 28 1008 48 10000 2.6 30 17:19 20.03.2020
730 Clouds 28 1008 48 10000 3.1 50 16:42 20.03.2020
731 Clouds 29 1008 48 10000 3.1 50 16:21 20.03.2020
732 Clouds 29 1008 40 10000 3.6 10 15:55 20.03.2020
733 Clouds 29 1008 40 10000 3.6 10 15:37 20.03.2020
734 Clouds 29 1008 40 10000 3.6 10 15:37 20.03.2020
735 Clouds 29 1008 40 10000 3.6 10 15:18 20.03.2020
736 Clouds 30 1008 42 10000 6.7 340 14:42 20.03.2020
737 Clouds 30 1008 42 10000 6.7 340 14:21 20.03.2020
738 Clouds 30 1008 42 10000 6.7 340 13:49 20.03.2020
739 Clouds 30 1008 42 10000 6.7 340 13:49 20.03.2020
740 Clouds 30 1008 42 10000 6.7 340 13:25 20.03.2020
741 Clouds 30 1009 40 10000 7.2 330 12:58 20.03.2020
742 Clouds 30 1009 40 10000 7.2 330 12:38 20.03.2020
743 Clouds 30 1009 40 10000 7.2 330 12:20 20.03.2020
744 Clouds 31 1009 40 10000 6.2 310 11:39 20.03.2020
745 Clouds 31 1009 40 10000 6.2 310 11:21 20.03.2020
746 Clouds 31 1010 51 10000 6.2 340 10:56 20.03.2020
747 Clouds 31 1010 51 10000 6.2 340 10:38 20.03.2020
748 Clouds 31 1010 51 10000 6.2 340 10:18 20.03.2020
749 Clouds 31 1010 51 10000 6.2 340 10:18 20.03.2020
750 Clouds 31 1010 48 10000 5.1 350 09:46 20.03.2020
751 Clouds 32 1011 35 10000 3.6 260 09:21 20.03.2020
752 Clouds 31 1012 38 10000 4.1 210 08:58 20.03.2020
753 Clouds 31 1012 38 10000 4.1 210 08:39 20.03.2020
754 Clear 31 1012 38 10000 4.1 210 08:19 20.03.2020
755 Clear 30 1012 37 10000 4.1 210 07:41 20.03.2020
756 Clear 29 1012 37 10000 4.1 210 07:23 20.03.2020
757 Clear 28 1012 45 10000 2.1 0 06:42 20.03.2020
758 Clear 28 1012 45 10000 2.1 0 06:42 20.03.2020
759 Clear 28 1012 45 10000 2.1 0 06:22 20.03.2020
760 Clear 23 1010 61 10000 1.5 10 04:39 20.03.2020
761 Clear 24 1009 50 10000 1 190 02:51 20.03.2020
762 Clear 24 1009 47 10000 1.5 180 01:50 20.03.2020
763 Clear 24 1009 50 10000 1.37 293 00:45 20.03.2020
764 Clear 24 1009 50 10000 1.37 293 00:24 20.03.2020
765 Clear 25 1010 47 10000 2.1 180 23:42 19.03.2020
766 Clear 25 1010 47 10000 2.1 180 23:23 19.03.2020
767 Rain 25 1010 47 10000 2.1 190 22:54 19.03.2020
768 Rain 25 1010 47 10000 2.1 190 22:36 19.03.2020
769 Rain 25 1010 47 10000 2.1 190 22:18 19.03.2020
770 Rain 25 1010 51 10000 2.6 150 21:39 19.03.2020
771 Rain 25 1010 51 10000 2.6 150 21:20 19.03.2020
772 Rain 26 1010 54 10000 3.6 130 20:54 19.03.2020
773 Rain 26 1010 54 10000 3.6 130 20:36 19.03.2020
774 Clouds 26 1010 54 10000 3.6 130 20:18 19.03.2020
775 Clouds 26 1010 54 10000 3.1 100 19:39 19.03.2020
776 Clouds 26 1010 54 10000 3.1 100 19:21 19.03.2020
777 Clouds 27 1010 57 10000 3.1 60 18:59 19.03.2020
778 Clouds 27 1010 57 10000 3.1 60 18:41 19.03.2020
779 Clouds 27 1010 57 10000 3.1 60 18:22 19.03.2020
780 Clouds 27 1010 57 10000 3.1 40 17:55 19.03.2020
781 Clouds 27 1010 57 10000 3.6 30 17:37 19.03.2020
782 Clouds 29 1009 45 10000 5.1 330 17:18 19.03.2020
783 Clouds 29 1009 45 10000 5.1 330 16:42 19.03.2020
784 Clouds 29 1009 45 10000 5.1 330 16:21 19.03.2020
785 Clouds 30 1008 40 10000 5.7 340 15:44 19.03.2020
786 Clouds 30 1008 40 10000 5.7 340 15:24 19.03.2020
787 Clouds 31 1008 35 10000 6.2 350 14:54 19.03.2020
788 Clouds 31 1008 35 10000 6.2 350 14:36 19.03.2020
789 Clouds 32 1008 35 10000 6.2 350 14:18 19.03.2020
790 Clouds 32 1008 31 10000 7.2 330 13:38 19.03.2020
791 Clouds 32 1008 31 10000 7.2 330 13:18 19.03.2020
792 Clouds 33 1009 30 10000 5.1 290 12:42 19.03.2020
793 Clouds 33 1009 30 10000 5.1 290 12:24 19.03.2020
794 Clouds 33 1009 30 10000 5.1 290 11:58 19.03.2020
795 Clouds 33 1010 31 10000 3.6 240 11:40 19.03.2020
796 Clouds 33 1010 31 10000 3.6 240 11:22 19.03.2020
797 Clouds 32 1010 33 10000 4.1 240 10:43 19.03.2020
798 Clouds 31 1010 33 10000 4.1 240 10:22 19.03.2020
799 Clouds 31 1011 35 10000 4.1 170 09:58 19.03.2020
800 Clouds 31 1011 35 10000 4.1 170 09:39 19.03.2020
801 Clouds 30 1011 35 10000 4.1 170 09:19 19.03.2020
802 Clouds 29 1012 37 10000 5.1 190 08:46 19.03.2020
803 Clouds 29 1012 37 10000 5.1 190 08:22 19.03.2020
804 Clouds 28 1013 48 10000 4.1 200 07:47 19.03.2020
805 Clouds 28 1013 48 10000 4.1 200 07:29 19.03.2020
806 Clouds 27 1013 47 10000 4.6 180 06:51 19.03.2020
807 Clouds 26 1013 42 10000 4.6 190 05:53 19.03.2020
808 Clouds 26 1013 42 10000 4.6 190 05:22 19.03.2020
809 Clear 25 1013 44 10000 2.1 210 04:41 19.03.2020
810 Clear 25 1012 54 10000 2.1 190 03:36 19.03.2020
811 Clouds 25 1010 54 10000 4.1 70 01:27 19.03.2020
812 Clouds 25 1010 57 10000 2.1 80 00:37 19.03.2020
813 Clouds 24 1010 53 10000 4.6 130 23:58 18.03.2020
814 Clouds 24 1010 53 10000 4.6 130 23:36 18.03.2020
815 Clouds 25 1010 53 10000 4.6 130 23:18 18.03.2020
816 Clouds 25 1011 47 10000 4.1 90 22:42 18.03.2020
817 Clouds 25 1011 47 10000 4.1 90 22:22 18.03.2020
818 Clouds 26 1011 44 10000 5.7 70 21:54 18.03.2020
819 Clouds 26 1011 44 10000 5.7 70 21:36 18.03.2020
820 Clouds 26 1011 44 10000 5.7 70 21:18 18.03.2020
821 Clouds 26 1012 42 10000 3.6 60 20:41 18.03.2020
822 Clouds 26 1012 42 10000 3.6 60 20:21 18.03.2020
823 Clear 26 1012 34 10000 3.6 60 19:59 18.03.2020
824 Clear 26 1012 34 10000 3.6 60 19:40 18.03.2020
825 Clear 26 1012 34 10000 3.6 60 19:21 18.03.2020
826 Clear 26 1012 34 10000 3.6 60 19:21 18.03.2020
827 Clear 26 1012 34 10000 4.6 60 18:55 18.03.2020
828 Clear 27 1012 34 10000 4.6 60 18:36 18.03.2020
829 Clear 27 1012 34 10000 4.6 60 18:18 18.03.2020
830 Clear 27 1012 37 10000 5.7 50 17:41 18.03.2020
831 Clear 27 1012 37 10000 5.7 50 17:22 18.03.2020
832 Clear 28 1012 45 10000 5.7 40 16:59 18.03.2020
833 Clear 28 1012 45 10000 5.7 40 16:40 18.03.2020
834 Clear 28 1012 48 10000 5.1 30 16:20 18.03.2020
835 Clear 28 1012 48 10000 5.1 30 15:56 18.03.2020
836 Clear 28 1012 48 10000 5.1 30 15:37 18.03.2020
837 Clear 28 1012 48 10000 5.1 30 15:18 18.03.2020
838 Clear 29 1012 42 10000 5.1 10 14:42 18.03.2020
839 Clear 29 1012 42 10000 5.1 10 14:21 18.03.2020
840 Clear 30 1011 37 10000 6.2 20 13:40 18.03.2020
841 Clear 30 1011 37 10000 6.2 20 13:19 18.03.2020
842 Clear 30 1011 37 10000 6.2 20 13:19 18.03.2020
843 Clear 31 1012 40 10000 6.7 350 12:43 18.03.2020
844 Clear 31 1012 40 10000 6.7 350 12:21 18.03.2020
845 Clouds 31 1012 38 10000 6.2 350 11:58 18.03.2020
846 Clouds 31 1012 38 10000 6.2 350 11:37 18.03.2020
847 Clouds 31 1012 38 10000 6.2 350 11:18 18.03.2020
848 Clear 31 1013 35 10000 5.7 320 10:55 18.03.2020
849 Clear 31 1013 35 10000 5.7 320 10:36 18.03.2020
850 Clear 32 1013 35 10000 5.7 320 10:18 18.03.2020
851 Clear 31 1014 22 10000 2.1 0 09:41 18.03.2020
852 Clear 31 1014 22 10000 2.1 0 09:22 18.03.2020
853 Clear 30 1015 25 10000 2.6 0 08:40 18.03.2020
854 Clear 30 1015 25 10000 2.6 0 08:22 18.03.2020
855 Clear 28 1015 37 10000 2.6 90 07:59 18.03.2020
856 Clear 28 1015 37 10000 2.6 90 07:37 18.03.2020
857 Clear 27 1015 37 10000 2.6 90 07:19 18.03.2020
858 Clear 26 1015 31 10000 4.6 120 06:39 18.03.2020
859 Clear 24 1015 44 10000 2.1 170 05:37 18.03.2020
860 Clear 22 1014 60 10000 1 0 04:58 18.03.2020
861 Clear 22 1013 53 10000 5.1 170 03:21 18.03.2020
862 Clear 22 1013 53 10000 5.1 170 02:37 18.03.2020
863 Clear 22 1012 60 10000 2.6 80 01:43 18.03.2020
864 Clear 22 1013 57 10000 1.5 70 00:45 18.03.2020
865 Clear 22 1013 57 10000 1.5 70 00:21 18.03.2020
866 Clear 23 1013 53 10000 1.5 90 23:42 17.03.2020
867 Clear 23 1013 57 10000 1.5 100 23:21 17.03.2020
868 Clear 23 1013 57 10000 1.5 100 22:46 17.03.2020
869 Clear 23 1013 57 10000 1.5 100 22:28 17.03.2020
870 Clear 24 1014 57 10000 2.1 90 21:46 17.03.2020
871 Clear 24 1014 57 10000 2.1 90 21:25 17.03.2020
872 Clear 24 1014 57 10000 1.5 90 20:58 17.03.2020
873 Clear 24 1014 57 10000 1.5 90 20:38 17.03.2020
874 Clear 24 1014 57 10000 1.5 90 20:19 17.03.2020
875 Clear 24 1014 61 10000 2.6 50 19:42 17.03.2020
876 Clear 24 1014 61 10000 2.6 50 19:20 17.03.2020
877 Clear 25 1014 57 10000 3.6 70 18:57 17.03.2020
878 Clear 25 1014 57 10000 3.6 70 18:39 17.03.2020
879 Clear 25 1014 57 10000 3.6 40 18:21 17.03.2020
880 Clear 25 1014 57 10000 3.6 40 17:56 17.03.2020
881 Clear 25 1014 57 10000 3.6 40 17:38 17.03.2020
882 Clear 26 1014 57 10000 3.6 40 17:18 17.03.2020
883 Clear 26 1014 54 10000 3.6 20 16:42 17.03.2020
884 Clear 26 1014 54 10000 3.6 20 16:19 17.03.2020
885 Clear 26 1014 54 10000 3.6 20 16:19 17.03.2020
886 Clear 27 1013 54 10000 4.1 360 15:45 17.03.2020
887 Clear 27 1013 54 10000 4.1 360 15:22 17.03.2020
888 Clear 28 1013 51 10000 4.6 10 14:47 17.03.2020
889 Clear 28 1013 51 10000 4.6 10 14:26 17.03.2020
890 Clouds 28 1013 51 10000 6.2 350 13:58 17.03.2020
891 Clouds 28 1013 51 10000 6.2 350 13:40 17.03.2020
892 Clouds 28 1013 51 10000 6.2 350 13:21 17.03.2020
893 Clouds 29 1013 51 10000 6.2 350 12:44 17.03.2020
894 Clouds 29 1013 51 10000 6.2 350 12:24 17.03.2020
895 Clouds 29 1014 51 10000 6.2 340 11:56 17.03.2020
896 Clouds 29 1014 51 10000 6.2 340 11:37 17.03.2020
897 Clouds 30 1014 51 10000 6.2 340 11:19 17.03.2020
898 Clouds 30 1015 40 10000 3.6 260 10:54 17.03.2020
899 Clouds 30 1015 40 10000 3.6 260 10:36 17.03.2020
900 Clouds 30 1015 40 10000 3.6 260 10:18 17.03.2020
901 Clear 29 1016 45 10000 2.6 250 09:44 17.03.2020
902 Clear 29 1016 45 10000 2.6 250 09:20 17.03.2020
903 Clear 28 1016 48 10000 3.1 200 08:51 17.03.2020
904 Clear 28 1016 48 10000 3.1 200 08:24 17.03.2020
905 Clear 26 1017 54 10000 4.6 180 07:58 17.03.2020
906 Clear 26 1017 54 10000 4.6 180 07:39 17.03.2020
907 Clear 26 1017 54 10000 4.6 180 07:19 17.03.2020
908 Clear 24 1017 60 10000 3.6 160 06:40 17.03.2020
909 Clear 24 1017 60 10000 3.6 160 06:19 17.03.2020
910 Clear 20 1015 68 10000 1.5 80 04:40 17.03.2020
911 Clear 20 1015 68 10000 2.1 100 03:19 17.03.2020
912 Clear 20 1013 68 10000 2.6 90 01:49 17.03.2020
913 Clear 20 1013 68 10000 2.6 90 01:28 17.03.2020
914 Clear 20 1013 68 10000 3.1 90 00:48 17.03.2020
915 Clear 21 1013 64 10000 3.6 80 23:51 16.03.2020
916 Clear 21 1013 64 10000 3.6 80 23:32 16.03.2020
917 Clear 21 1014 64 10000 3.6 90 22:45 16.03.2020
918 Clear 21 1014 64 10000 3.6 90 22:26 16.03.2020
919 Clear 22 1014 60 10000 3.6 90 21:59 16.03.2020
920 Clear 22 1014 60 10000 3.6 90 21:41 16.03.2020
921 Clear 22 1014 60 10000 3.6 90 21:22 16.03.2020
922 Clear 22 1015 64 10000 3.6 70 20:57 16.03.2020
923 Clear 22 1015 64 10000 3.6 70 20:38 16.03.2020
924 Clear 22 1015 64 10000 3.6 70 20:19 16.03.2020
925 Clear 22 1015 64 10000 3.6 70 20:19 16.03.2020
926 Clear 24 1015 57 10000 4.1 70 19:42 16.03.2020
927 Clear 24 1015 57 10000 4.1 70 19:22 16.03.2020
928 Clear 24 1015 57 10000 4.6 40 18:56 16.03.2020
929 Clear 24 1015 57 10000 4.6 40 18:37 16.03.2020
930 Clear 24 1015 57 10000 4.6 40 18:18 16.03.2020
931 Clear 24 1014 61 10000 3.6 30 17:42 16.03.2020
932 Clear 24 1014 61 10000 3.6 30 17:22 16.03.2020
933 Clear 25 1014 61 10000 5.1 20 16:46 16.03.2020
934 Clear 25 1014 61 10000 5.1 20 16:28 16.03.2020
935 Clear 26 1013 54 10000 5.7 30 15:56 16.03.2020
936 Clear 26 1013 54 10000 5.7 30 15:37 16.03.2020
937 Clear 26 1013 54 10000 5.7 30 15:18 16.03.2020
938 Clear 26 1013 50 10000 6.2 10 14:42 16.03.2020
939 Clear 27 1013 50 10000 6.2 10 14:19 16.03.2020
940 Clear 28 1013 48 10000 6.2 30 13:42 16.03.2020
941 Clear 28 1013 48 10000 6.2 30 13:23 16.03.2020
942 Clear 28 1013 45 10000 5.7 340 12:46 16.03.2020
943 Clear 28 1013 45 10000 5.7 340 12:26 16.03.2020
944 Clear 28 1014 42 10000 7.7 340 11:58 16.03.2020
945 Clear 28 1014 42 10000 7.7 340 11:39 16.03.2020
946 Clouds 28 1014 42 10000 7.7 340 11:18 16.03.2020
947 Clouds 29 1014 35 10000 2.1 50 10:41 16.03.2020
948 Clouds 29 1014 35 10000 2.1 50 10:19 16.03.2020
949 Clouds 28 1015 37 10000 1.5 0 09:44 16.03.2020
950 Clouds 28 1015 37 10000 1.5 0 09:24 16.03.2020
951 Clouds 27 1016 39 10000 4.6 170 08:54 16.03.2020
952 Clouds 27 1016 39 10000 4.6 170 08:25 16.03.2020
953 Clear 26 1016 39 10000 3.6 180 07:50 16.03.2020
954 Clear 26 1016 39 10000 3.6 180 07:27 16.03.2020
955 Clear 24 1016 41 10000 5.1 180 06:54 16.03.2020
956 Clear 24 1016 41 10000 5.1 180 06:25 16.03.2020
957 Clear 22 1015 47 10000 3.6 160 05:42 16.03.2020
958 Clear 21 1013 53 10000 1.5 0 02:44 16.03.2020
959 Clear 22 1012 64 10000 3.1 150 01:20 16.03.2020
960 Clear 21 1012 49 10000 3.1 90 00:39 16.03.2020
961 Clear 21 1012 49 10000 3.1 90 00:39 16.03.2020
962 Clear 21 1012 46 10000 2.1 80 23:47 15.03.2020
963 Clear 21 1012 46 10000 2.1 80 23:20 15.03.2020
964 Clear 22 1012 41 10000 2.6 110 22:43 15.03.2020
965 Clear 22 1012 41 10000 2.6 110 22:23 15.03.2020
966 Clear 23 1013 33 10000 2.6 100 21:58 15.03.2020
967 Clear 23 1013 33 10000 2.6 100 21:38 15.03.2020
968 Clear 23 1013 33 10000 2.6 100 21:18 15.03.2020
969 Clear 24 1013 29 10000 2.1 90 20:42 15.03.2020
970 Clear 24 1013 29 10000 2.1 90 20:21 15.03.2020
971 Clear 24 1013 27 10000 3.1 60 19:58 15.03.2020
972 Clear 24 1013 27 10000 3.1 60 19:39 15.03.2020
973 Clear 24 1013 27 10000 3.1 60 19:20 15.03.2020
974 Clear 24 1013 34 10000 4.6 70 18:56 15.03.2020
975 Clear 24 1013 34 10000 4.6 70 18:37 15.03.2020
976 Clear 24 1013 34 10000 4.6 70 18:19 15.03.2020
977 Clear 25 1013 30 10000 3.6 50 17:41 15.03.2020
978 Clear 26 1013 30 10000 3.6 50 17:21 15.03.2020
979 Clear 27 1012 30 10000 3.6 40 16:58 15.03.2020
980 Clear 27 1012 30 10000 3.6 40 16:40 15.03.2020
981 Clear 27 1012 30 10000 3.6 40 16:21 15.03.2020
982 Clear 28 1011 26 10000 3.6 340 15:48 15.03.2020
983 Clear 28 1011 26 10000 3.6 340 15:30 15.03.2020
984 Clear 29 1011 28 10000 5.7 350 14:58 15.03.2020
985 Clear 29 1011 28 10000 5.7 350 14:38 15.03.2020
986 Clouds 29 1011 28 10000 5.7 350 14:19 15.03.2020
987 Clouds 31 1010 12 10000 6.7 330 13:55 15.03.2020
988 Clouds 31 1010 12 10000 6.7 330 13:55 15.03.2020
989 Clouds 31 1010 12 10000 6.7 330 13:36 15.03.2020
990 Clouds 31 1010 12 10000 6.7 330 13:18 15.03.2020
991 Clouds 31 1010 12 10000 6.7 330 13:18 15.03.2020
992 Clouds 32 1010 11 10000 5.1 290 12:40 15.03.2020
993 Clouds 32 1010 11 10000 5.1 290 12:21 15.03.2020
994 Clouds 31 1011 10 10000 2.1 0 11:43 15.03.2020
995 Clouds 32 1011 10 10000 2.1 0 11:24 15.03.2020
996 Clouds 31 1012 10 10000 3.1 260 10:58 15.03.2020
997 Clouds 31 1012 10 10000 3.1 260 10:39 15.03.2020
998 Clouds 31 1012 10 10000 3.1 260 10:39 15.03.2020
999 Clouds 31 1012 10 10000 3.1 260 10:21 15.03.2020
1000 Clouds 30 1013 9 10000 3.6 250 09:44 15.03.2020
1001 Clouds 30 1013 9 10000 3.6 250 09:25 15.03.2020
1002 Clouds 29 1014 21 10000 4.1 220 08:59 15.03.2020
1003 Clouds 29 1014 21 10000 4.1 220 08:40 15.03.2020
1004 Clouds 29 1014 21 10000 4.1 220 08:18 15.03.2020
1005 Clouds 27 1014 24 10000 3.6 200 07:44 15.03.2020
1006 Clouds 27 1014 24 10000 3.6 200 07:18 15.03.2020
1007 Clouds 26 1014 21 10000 4.6 190 06:36 15.03.2020
1008 Clouds 24 1013 20 10000 3.6 180 05:46 15.03.2020
1009 Clouds 23 1013 33 10000 3.1 150 04:50 15.03.2020
1010 Clouds 23 1013 33 10000 3.1 150 04:32 15.03.2020
1011 Clouds 22 1013 44 10000 3.1 170 03:59 15.03.2020
1012 Clouds 23 1012 36 10000 2.6 130 02:49 15.03.2020
1013 Clouds 23 1012 36 10000 2.6 130 02:18 15.03.2020
1014 Clouds 23 1012 44 10000 2.1 70 00:57 15.03.2020
1015 Clouds 23 1012 44 10000 2.1 70 00:38 15.03.2020
1016 Clouds 23 1012 44 10000 2.1 70 00:18 15.03.2020
1017 Clouds 24 1012 41 10000 2.6 80 23:38 14.03.2020
1018 Clouds 23 1012 41 10000 2.6 80 23:19 14.03.2020
1019 Clouds 23 1013 41 10000 4.1 60 22:46 14.03.2020
1020 Clouds 23 1013 41 10000 4.1 60 22:27 14.03.2020
1021 Clouds 24 1013 44 10000 3.6 50 21:57 14.03.2020
1022 Clouds 24 1013 44 10000 3.6 50 21:37 14.03.2020
1023 Clouds 24 1013 44 10000 3.6 50 21:37 14.03.2020
1024 Clouds 24 1013 44 10000 3.6 50 21:19 14.03.2020
1025 Clouds 25 1013 47 10000 4.1 50 20:59 14.03.2020
1026 Clouds 25 1013 47 10000 4.1 50 20:41 14.03.2020
1027 Clouds 25 1013 47 10000 4.1 50 20:20 14.03.2020
1028 Clouds 25 1013 47 10000 4.1 50 19:59 14.03.2020
1029 Clouds 25 1013 47 10000 4.1 50 19:40 14.03.2020
1030 Clouds 25 1013 47 10000 4.1 50 19:20 14.03.2020
1031 Clouds 26 1013 36 10000 2.6 90 18:39 14.03.2020
1032 Clouds 26 1013 36 10000 2.6 90 18:19 14.03.2020
1033 Clouds 27 1013 39 8000 2.1 90 17:41 14.03.2020
1034 Clouds 27 1013 39 8000 2.1 90 17:21 14.03.2020
1035 Clouds 27 1013 34 8000 2.1 40 16:57 14.03.2020
1036 Clouds 27 1013 34 8000 2.1 40 16:38 14.03.2020
1037 Clouds 27 1013 34 8000 2.1 40 16:18 14.03.2020
1038 Clouds 28 1012 34 6000 3.6 30 15:28 14.03.2020
1039 Clouds 29 1012 30 10000 3.1 340 14:59 14.03.2020
1040 Clouds 29 1012 30 10000 3.1 340 14:38 14.03.2020
1041 Clouds 29 1012 30 10000 3.1 340 14:20 14.03.2020
1042 Clouds 30 1012 16 10000 1.5 220 13:56 14.03.2020
1043 Clouds 30 1012 16 10000 1.5 220 13:38 14.03.2020
1044 Clouds 30 1012 16 10000 1.5 220 13:18 14.03.2020
1045 Clouds 31 1013 15 10000 1.5 230 12:43 14.03.2020
1046 Clouds 31 1013 15 10000 1.5 230 12:43 14.03.2020
1047 Clouds 31 1013 15 10000 1.5 230 12:24 14.03.2020
1048 Clouds 31 1014 18 10000 2.1 200 11:44 14.03.2020
1049 Clouds 31 1014 18 10000 2.1 200 11:25 14.03.2020
1050 Clouds 31 1015 15 10000 4.6 200 10:48 14.03.2020
1051 Clouds 30 1015 15 10000 4.6 200 10:28 14.03.2020
1052 Clouds 30 1016 19 10000 4.6 190 09:59 14.03.2020
1053 Clouds 30 1016 19 10000 4.6 190 09:40 14.03.2020
1054 Clouds 29 1016 19 10000 4.6 190 09:21 14.03.2020
1055 Clouds 29 1017 21 7000 4.6 180 08:46 14.03.2020
1056 Clouds 29 1017 21 7000 4.6 180 08:27 14.03.2020
1057 Clouds 27 1017 28 10000 4.6 190 07:45 14.03.2020
1058 Clouds 26 1017 28 10000 4.6 190 07:22 14.03.2020
1059 Clouds 25 1017 29 10000 2.6 170 06:55 14.03.2020
1060 Clouds 24 1017 29 10000 2.6 170 06:36 14.03.2020
1061 Clouds 20 1016 49 10000 4.1 160 04:56 14.03.2020
1062 Clouds 19 1015 40 10000 2.1 110 03:37 14.03.2020
1063 Clouds 19 1015 43 10000 2.1 0 02:53 14.03.2020
1064 Clouds 20 1015 31 10000 1.5 0 01:47 14.03.2020
1065 Clouds 21 1015 31 10000 1.5 0 00:34 14.03.2020
1066 Clouds 20 1016 33 10000 1.5 360 23:42 13.03.2020
1067 Clouds 20 1016 33 10000 1.5 360 23:23 13.03.2020
1068 Clouds 21 1016 33 10000 1.5 20 22:45 13.03.2020
1069 Clouds 21 1016 33 10000 1.5 20 22:22 13.03.2020
1070 Clouds 21 1016 31 10000 2.6 70 21:41 13.03.2020
1071 Clouds 21 1016 31 10000 2.6 70 21:19 13.03.2020
1072 Clouds 22 1016 33 10000 2.6 70 20:43 13.03.2020
1073 Clouds 22 1016 33 10000 2.6 70 20:23 13.03.2020
1074 Clouds 22 1016 31 10000 3.1 70 19:59 13.03.2020
1075 Clouds 22 1016 31 10000 3.1 70 19:40 13.03.2020
1076 Clouds 22 1016 31 10000 3.1 70 19:22 13.03.2020
1077 Clouds 23 1016 47 10000 2.1 60 18:44 13.03.2020
1078 Clouds 23 1016 47 10000 2.1 60 18:23 13.03.2020
1079 Clouds 24 1016 47 10000 3.1 50 17:43 13.03.2020
1080 Clouds 24 1016 47 10000 3.1 50 17:21 13.03.2020
1081 Clouds 25 1015 39 10000 4.6 50 16:59 13.03.2020
1082 Clouds 25 1015 39 10000 4.6 50 16:39 13.03.2020
1083 Clouds 25 1015 39 10000 4.6 50 16:20 13.03.2020
1084 Clouds 27 1015 26 10000 4.6 30 15:46 13.03.2020
1085 Clouds 27 1015 26 10000 4.6 30 15:23 13.03.2020
1086 Clouds 28 1015 23 10000 4.1 350 14:59 13.03.2020
1087 Clouds 28 1015 23 10000 4.1 350 14:40 13.03.2020
1088 Clouds 28 1015 23 10000 4.1 350 14:21 13.03.2020
1089 Clouds 29 1015 26 10000 5.7 330 13:55 13.03.2020
1090 Clouds 29 1015 26 10000 5.7 330 13:36 13.03.2020
1091 Clouds 29 1015 26 10000 5.7 330 13:18 13.03.2020
1092 Clouds 30 1015 28 10000 5.7 340 12:39 13.03.2020
1093 Clouds 30 1015 28 10000 5.7 340 12:39 13.03.2020
1094 Clouds 30 1015 28 10000 5.7 340 12:20 13.03.2020
1095 Clouds 30 1016 33 10000 6.2 330 11:57 13.03.2020
1096 Clouds 30 1016 33 10000 6.2 330 11:37 13.03.2020
1097 Clear 30 1017 15 10000 3.6 320 11:19 13.03.2020
1098 Clear 30 1017 15 10000 3.6 320 10:47 13.03.2020
1099 Clear 30 1017 15 10000 3.6 320 10:26 13.03.2020
1100 Clear 30 1018 9 10000 3.1 50 09:56 13.03.2020
1101 Clear 30 1018 9 10000 3.1 50 09:38 13.03.2020
1102 Clear 30 1018 9 10000 3.1 50 09:18 13.03.2020
1103 Clear 27 1018 18 10000 2.6 40 08:41 13.03.2020
1104 Clear 27 1018 18 10000 2.6 40 08:22 13.03.2020
1105 Clouds 25 1018 24 10000 2.6 90 07:45 13.03.2020
1106 Clouds 24 1018 24 10000 2.6 90 07:27 13.03.2020
1107 Clouds 20 1018 56 10000 2.1 100 06:46 13.03.2020
1108 Clouds 19 1018 56 10000 2.1 100 06:23 13.03.2020
1109 Haze 16 1017 77 5000 2.1 110 05:46 13.03.2020
1110 Haze 14 1017 88 4500 1.5 60 04:57 13.03.2020
1111 Haze 14 1017 88 4500 1.5 60 04:26 13.03.2020
1112 Clouds 16 1016 82 6000 2.6 110 02:58 13.03.2020
1113 Clouds 17 1015 77 6000 2.1 110 01:39 13.03.2020
1114 Clouds 17 1015 77 6000 2.1 110 01:18 13.03.2020
1115 Clouds 17 1015 77 8000 2.1 100 00:42 13.03.2020
1116 Clouds 17 1015 77 8000 2.1 100 00:19 13.03.2020
1117 Clouds 18 1016 77 8000 2.1 100 23:40 12.03.2020
1118 Clouds 18 1016 77 8000 2.1 100 23:22 12.03.2020
1119 Clouds 19 1016 73 9000 2.1 150 22:47 12.03.2020
1120 Clouds 19 1016 73 9000 2.1 150 22:28 12.03.2020
1121 Clouds 20 1016 73 10000 1 0 21:59 12.03.2020
1122 Clouds 19 1016 73 10000 1 0 21:40 12.03.2020
1123 Clouds 19 1016 73 10000 1 0 21:21 12.03.2020
1124 Clouds 20 1017 68 10000 1 0 20:42 12.03.2020
1125 Clouds 20 1017 68 10000 1 0 20:42 12.03.2020
1126 Clouds 20 1017 68 10000 1 0 20:20 12.03.2020
1127 Clouds 20 1017 68 10000 1 0 20:20 12.03.2020
1128 Clouds 21 1017 68 10000 2.1 330 19:56 12.03.2020
1129 Clouds 20 1017 68 10000 2.1 330 19:37 12.03.2020
1130 Clouds 21 1017 68 10000 2.1 330 19:18 12.03.2020
1131 Clouds 21 1016 68 10000 3.1 340 18:42 12.03.2020
1132 Clouds 22 1016 68 10000 3.1 340 18:22 12.03.2020
1133 Clouds 22 1016 64 10000 4.1 340 17:56 12.03.2020
1134 Clouds 22 1016 64 10000 4.1 340 17:37 12.03.2020
1135 Clouds 22 1016 64 10000 4.1 340 17:18 12.03.2020
1136 Clouds 23 1016 64 10000 5.1 320 16:41 12.03.2020
1137 Clouds 22 1016 64 10000 5.1 320 16:23 12.03.2020
1138 Clouds 23 1016 64 10000 5.7 310 15:49 12.03.2020
1139 Clouds 23 1016 64 10000 5.7 310 15:28 12.03.2020
1140 Clouds 24 1016 53 10000 6.2 320 14:58 12.03.2020
1141 Clouds 24 1016 53 10000 6.2 320 14:38 12.03.2020
1142 Clouds 24 1016 53 10000 6.2 320 14:38 12.03.2020
1143 Clear 25 1016 53 10000 6.2 320 14:18 12.03.2020
1144 Clear 26 1016 41 10000 6.2 320 13:40 12.03.2020
1145 Clear 26 1016 41 10000 6.2 320 13:21 12.03.2020
1146 Clear 27 1015 30 10000 5.1 330 12:55 12.03.2020
1147 Clear 27 1015 30 10000 5.1 330 12:37 12.03.2020
1148 Clear 27 1015 30 10000 5.1 330 12:18 12.03.2020
1149 Clear 28 1016 20 10000 4.6 320 11:55 12.03.2020
1150 Clear 28 1016 20 10000 4.6 320 11:36 12.03.2020
1151 Clear 28 1016 20 10000 4.6 320 11:18 12.03.2020
1152 Clear 27 1017 24 10000 2.1 0 10:43 12.03.2020
1153 Clear 27 1017 24 10000 2.1 0 10:43 12.03.2020
1154 Clear 27 1017 24 10000 2.1 0 10:24 12.03.2020
1155 Clear 26 1018 36 10000 1.5 0 09:59 12.03.2020
1156 Clear 26 1018 36 10000 1.5 0 09:40 12.03.2020
1157 Clear 25 1018 36 10000 1.5 0 09:22 12.03.2020
1158 Clear 24 1018 50 10000 1.5 160 08:39 12.03.2020
1159 Clear 23 1018 50 10000 1.5 160 08:18 12.03.2020
1160 Clear 22 1018 64 8000 1.5 0 07:47 12.03.2020
1161 Clear 21 1018 64 8000 1.5 0 07:22 12.03.2020
1162 Clear 20 1018 72 10000 2.1 130 06:26 12.03.2020
1163 Clear 17 1017 77 10000 1.5 140 05:35 12.03.2020
1164 Clear 16 1016 72 10000 1.5 190 03:44 12.03.2020
1165 Clear 16 1015 68 10000 2.6 120 02:19 12.03.2020
1166 Clear 17 1016 68 10000 2.6 100 01:24 12.03.2020
1167 Clear 17 1016 68 10000 1.5 190 00:42 12.03.2020
1168 Clear 18 1016 64 10000 1.5 0 23:59 11.03.2020
1169 Clear 18 1016 64 10000 1.5 0 23:37 11.03.2020
1170 Clear 18 1016 64 10000 1.5 0 23:18 11.03.2020
1171 Clear 18 1017 64 10000 3.1 120 22:41 11.03.2020
1172 Clear 18 1017 64 10000 3.1 120 22:23 11.03.2020
1173 Clear 20 1017 64 10000 1.5 360 21:58 11.03.2020
1174 Clear 20 1017 64 10000 1.5 360 21:39 11.03.2020
1175 Clear 20 1017 64 10000 1.5 360 21:21 11.03.2020
1176 Clear 20 1017 60 10000 1.5 60 20:56 11.03.2020
1177 Clear 20 1017 60 10000 1.5 60 20:37 11.03.2020
1178 Clear 20 1017 60 10000 1.5 60 20:19 11.03.2020
1179 Clear 20 1017 60 10000 2.1 360 19:42 11.03.2020
1180 Clear 20 1017 60 10000 2.1 360 19:24 11.03.2020
1181 Clear 21 1017 64 10000 4.1 330 18:57 11.03.2020
1182 Clear 22 1017 64 10000 4.1 330 18:38 11.03.2020
1183 Clear 22 1017 64 10000 4.1 330 18:18 11.03.2020
1184 Clear 22 1016 56 10000 4.6 340 17:55 11.03.2020
1185 Clear 22 1016 56 10000 4.6 340 17:37 11.03.2020
1186 Clear 23 1016 53 10000 5.7 330 17:18 11.03.2020
1187 Clear 23 1016 53 10000 5.7 330 16:43 11.03.2020
1188 Clear 23 1016 53 10000 5.7 330 16:19 11.03.2020
1189 Clear 24 1015 44 10000 5.7 340 15:43 11.03.2020
1190 Clear 24 1015 44 10000 5.7 340 15:23 11.03.2020
1191 Clear 25 1015 36 10000 5.1 340 14:54 11.03.2020
1192 Clear 25 1015 36 10000 5.1 340 14:36 11.03.2020
1193 Clear 25 1015 36 10000 5.1 340 14:18 11.03.2020
1194 Clear 26 1015 41 10000 5.7 340 13:41 11.03.2020
1195 Clear 26 1015 41 10000 5.7 340 13:22 11.03.2020
1196 Clear 26 1015 36 10000 6.2 340 12:56 11.03.2020
1197 Clear 26 1015 36 10000 6.2 340 12:38 11.03.2020
1198 Clear 26 1015 36 10000 6.2 340 12:19 11.03.2020
1199 Clear 27 1016 36 10000 5.7 340 11:41 11.03.2020
1200 Clear 27 1016 36 10000 5.7 340 11:20 11.03.2020
1201 Clear 26 1017 36 10000 4.6 320 10:47 11.03.2020
1202 Clear 26 1017 36 10000 4.6 320 10:20 11.03.2020
1203 Clear 26 1018 26 10000 2.6 30 09:58 11.03.2020
1204 Clear 26 1018 26 10000 2.6 30 09:38 11.03.2020
1205 Clear 26 1018 26 10000 2.6 30 09:19 11.03.2020
1206 Clear 25 1018 33 10000 2.6 20 08:42 11.03.2020
1207 Clear 25 1018 33 10000 2.6 20 08:23 11.03.2020
1208 Clear 23 1018 29 10000 3.1 60 07:47 11.03.2020
1209 Clear 23 1018 29 10000 3.1 60 07:20 11.03.2020
1210 Clear 21 1018 40 10000 2.1 110 06:49 11.03.2020
1211 Clear 21 1018 40 10000 2.1 110 06:30 11.03.2020
1212 Clear 18 1017 52 10000 2.1 90 05:32 11.03.2020
1213 Clear 17 1016 48 10000 2.1 100 02:43 11.03.2020
1214 Clear 18 1016 45 10000 2.1 110 01:52 11.03.2020
1215 Clear 18 1016 45 10000 2.1 110 01:23 11.03.2020
1216 Clear 19 1016 46 10000 2.6 80 00:32 11.03.2020
1217 Clear 19 1016 37 10000 1.5 50 23:49 10.03.2020
1218 Clear 19 1016 37 10000 1.5 50 23:26 10.03.2020
1219 Clear 19 1016 35 10000 2.1 70 22:56 10.03.2020
1220 Clear 18 1016 35 10000 2.1 70 22:37 10.03.2020
1221 Clear 18 1016 35 10000 2.1 70 22:19 10.03.2020
1222 Clear 19 1016 28 10000 1.5 60 21:56 10.03.2020
1223 Clear 19 1016 28 10000 1.5 60 21:37 10.03.2020
1224 Clear 19 1016 28 10000 1.5 60 21:18 10.03.2020
1225 Clear 19 1016 28 10000 1.5 60 21:18 10.03.2020
1226 Clear 20 1016 20 10000 1.5 40 20:42 10.03.2020
1227 Clear 20 1016 20 10000 1.5 40 20:19 10.03.2020
1228 Clear 21 1016 20 10000 3.1 360 19:58 10.03.2020
1229 Clear 20 1016 20 10000 3.1 360 19:40 10.03.2020
1230 Clear 20 1016 20 10000 3.1 360 19:22 10.03.2020
1231 Clear 21 1016 43 10000 2.6 70 18:56 10.03.2020
1232 Clear 21 1016 43 10000 2.6 70 18:37 10.03.2020
1233 Clear 21 1016 43 10000 2.6 70 18:18 10.03.2020
1234 Clear 22 1015 17 10000 2.6 50 17:41 10.03.2020
1235 Clear 22 1015 17 10000 2.6 50 17:22 10.03.2020
1236 Clear 23 1015 15 10000 4.1 40 16:57 10.03.2020
1237 Clear 24 1015 15 10000 4.1 40 16:37 10.03.2020
1238 Clear 23 1015 15 10000 4.1 40 16:18 10.03.2020
1239 Clear 25 1014 16 10000 6.2 30 15:41 10.03.2020
1240 Clear 25 1014 16 10000 6.2 30 15:20 10.03.2020
1241 Clear 26 1014 22 10000 6.7 10 14:58 10.03.2020
1242 Clear 26 1014 22 10000 6.7 10 14:40 10.03.2020
1243 Clear 26 1014 22 10000 6.7 10 14:19 10.03.2020
1244 Clear 27 1013 19 10000 8.2 10 13:43 10.03.2020
1245 Clear 27 1013 19 10000 8.2 10 13:25 10.03.2020
1246 Clear 27 1014 23 10000 6.7 10 12:55 10.03.2020
1247 Clear 27 1014 23 10000 6.7 10 12:36 10.03.2020
1248 Clear 28 1014 23 10000 6.7 10 12:18 10.03.2020
1249 Clear 28 1014 23 10000 6.7 10 12:18 10.03.2020
1250 Clouds 27 1014 28 10000 4.6 10 11:42 10.03.2020
1251 Clouds 27 1014 28 10000 4.6 10 11:24 10.03.2020
1252 Clouds 26 1015 36 10000 5.1 20 10:54 10.03.2020
1253 Clouds 26 1015 36 10000 5.1 20 10:36 10.03.2020
1254 Clouds 27 1015 36 10000 5.1 20 10:18 10.03.2020
1255 Clear 26 1016 36 10000 4.6 20 09:44 10.03.2020
1256 Clear 26 1016 36 10000 4.6 20 09:20 10.03.2020
1257 Clear 25 1017 41 10000 4.6 50 08:54 10.03.2020
1258 Clear 24 1017 41 10000 4.6 50 08:35 10.03.2020
1259 Clear 23 1017 56 10000 3.6 80 07:58 10.03.2020
1260 Clear 23 1017 56 10000 3.6 80 07:40 10.03.2020
1261 Clear 23 1017 56 10000 3.6 80 07:19 10.03.2020
1262 Clear 21 1017 60 10000 2.6 60 06:37 10.03.2020
1263 Clear 19 1016 64 7000 2.1 60 05:42 10.03.2020
1264 Clear 19 1016 64 7000 2.1 60 05:18 10.03.2020
1265 Clear 19 1015 68 7000 2.1 100 04:29 10.03.2020
1266 Clear 19 1014 68 8000 2.6 100 02:58 10.03.2020
1267 Clear 20 1014 64 7000 4.1 30 01:32 10.03.2020
1268 Clear 20 1013 64 8000 3.6 350 00:50 10.03.2020
1269 Clear 20 1013 64 8000 3.6 350 00:28 10.03.2020
1270 Clear 20 1014 64 7000 3.1 340 23:42 09.03.2020
1271 Clear 20 1014 64 7000 3.1 340 23:22 09.03.2020
1272 Clear 21 1014 64 7000 2.1 10 22:57 09.03.2020
1273 Clear 20 1014 64 7000 2.1 10 22:38 09.03.2020
1274 Clear 20 1014 64 7000 2.1 10 22:19 09.03.2020
1275 Clear 21 1014 64 7000 4.1 330 21:43 09.03.2020
1276 Clear 21 1014 64 7000 4.1 330 21:22 09.03.2020
1277 Clear 21 1014 64 7000 4.1 320 20:58 09.03.2020
1278 Clear 21 1014 64 7000 4.1 320 20:40 09.03.2020
1279 Clear 21 1014 64 7000 4.1 320 20:20 09.03.2020
1280 Clear 22 1014 64 7000 3.1 330 19:46 09.03.2020
1281 Clear 22 1014 64 7000 3.1 330 19:26 09.03.2020
1282 Clear 22 1013 60 7000 3.1 280 18:59 09.03.2020
1283 Clear 22 1013 60 7000 3.1 280 18:40 09.03.2020
1284 Clear 22 1013 60 7000 3.1 280 18:40 09.03.2020
1285 Clear 22 1013 60 7000 3.1 280 18:21 09.03.2020
1286 Clear 22 1013 60 7000 3.6 320 17:59 09.03.2020
1287 Clear 22 1013 60 7000 3.6 320 17:39 09.03.2020
1288 Clear 22 1013 60 7000 3.6 320 17:20 09.03.2020
1289 Clear 23 1012 56 7000 4.1 310 16:59 09.03.2020
1290 Clear 23 1012 56 7000 4.1 310 16:41 09.03.2020
1291 Dust 23 1012 60 4500 5.1 320 16:22 09.03.2020
1292 Dust 23 1012 60 4500 5.1 320 15:58 09.03.2020
1293 Dust 23 1012 60 4500 5.1 320 15:39 09.03.2020
1294 Dust 23 1012 60 4500 5.1 320 15:21 09.03.2020
1295 Clouds 24 1011 53 6000 6.7 310 14:58 09.03.2020
1296 Clouds 24 1011 53 6000 6.7 310 14:38 09.03.2020
1297 Clouds 24 1011 53 6000 6.7 310 14:19 09.03.2020
1298 Dust 25 1011 44 5000 6.7 310 13:58 09.03.2020
1299 Dust 25 1010 44 4500 6.2 310 13:38 09.03.2020
1300 Dust 25 1010 44 4500 6.2 310 13:19 09.03.2020
1301 Dust 25 1011 50 4500 6.2 320 12:43 09.03.2020
1302 Clouds 25 1011 54 6000 5.7 300 12:22 09.03.2020
1303 Clouds 25 1011 50 7000 6.2 280 11:58 09.03.2020
1304 Clouds 25 1011 50 7000 6.2 280 11:38 09.03.2020
1305 Clouds 25 1011 50 7000 6.2 280 11:38 09.03.2020
1306 Clouds 25 1011 50 7000 6.2 280 11:19 09.03.2020
1307 Clouds 25 1012 53 10000 6.2 290 10:55 09.03.2020
1308 Clouds 25 1012 53 10000 6.2 290 10:36 09.03.2020
1309 Clouds 25 1012 53 10000 6.2 290 10:18 09.03.2020
1310 Clouds 25 1013 53 10000 4.6 260 09:40 09.03.2020
1311 Clouds 25 1013 53 10000 4.6 260 09:21 09.03.2020
1312 Clouds 23 1014 69 10000 4.1 250 08:44 09.03.2020
1313 Clouds 23 1014 69 10000 4.1 250 08:26 09.03.2020
1314 Clear 22 1014 78 6000 4.1 230 07:43 09.03.2020
1315 Clear 22 1014 78 6000 4.1 230 07:22 09.03.2020
1316 Haze 21 1014 77 4000 4.6 240 06:46 09.03.2020
1317 Haze 20 1013 82 4500 4.1 170 06:28 09.03.2020
1318 Mist 19 1014 100 1500 6.7 150 05:58 09.03.2020
1319 Haze 19 1012 77 4500 3.1 160 05:40 09.03.2020
1320 Haze 18 1012 88 4500 3.6 150 04:46 09.03.2020
1321 Clear 18 1012 77 7000 3.1 160 04:23 09.03.2020
1322 Clear 20 1011 73 10000 1.5 230 03:29 09.03.2020
1323 Clear 21 1010 78 10000 4.6 300 01:58 09.03.2020
1324 Clouds 21 1010 78 10000 6.2 320 00:42 09.03.2020
1325 Clouds 21 1010 78 10000 6.2 320 00:24 09.03.2020
1326 Clouds 21 1011 60 10000 2.1 270 23:55 08.03.2020
1327 Clouds 21 1011 60 10000 2.1 270 23:28 08.03.2020
1328 Clouds 21 1011 60 10000 1.5 200 22:58 08.03.2020
1329 Clouds 21 1011 60 10000 1.5 200 22:39 08.03.2020
1330 Clouds 21 1011 60 10000 1.5 200 22:21 08.03.2020
1331 Clouds 21 1011 60 10000 1.5 200 22:21 08.03.2020
1332 Clouds 21 1012 57 10000 1 0 21:57 08.03.2020
1333 Clouds 21 1012 57 10000 1 0 21:38 08.03.2020
1334 Clouds 22 1012 57 10000 1 0 21:19 08.03.2020
1335 Clouds 22 1012 60 10000 3.1 110 20:56 08.03.2020
1336 Clouds 22 1012 60 10000 3.1 110 20:37 08.03.2020
1337 Clear 22 1012 60 10000 3.1 90 20:18 08.03.2020
1338 Clear 22 1012 60 10000 3.1 90 19:37 08.03.2020
1339 Clear 22 1012 60 10000 2.1 90 19:19 08.03.2020
1340 Clear 22 1012 60 10000 2.1 90 18:42 08.03.2020
1341 Clear 22 1012 60 10000 2.1 90 18:24 08.03.2020
1342 Clear 23 1012 60 0 1.79 340 17:57 08.03.2020
1343 Clear 23 1012 60 0 1.79 340 17:38 08.03.2020
1344 Clear 24 1012 60 10000 5.1 330 17:19 08.03.2020
1345 Clear 24 1012 60 10000 5.1 330 16:47 08.03.2020
1346 Clear 24 1012 60 10000 5.1 330 16:28 08.03.2020
1347 Clear 26 1011 50 10000 5.1 340 15:58 08.03.2020
1348 Clear 26 1011 50 10000 5.1 340 15:40 08.03.2020
1349 Clear 26 1011 50 10000 5.1 340 15:20 08.03.2020
1350 Clear 27 1011 47 10000 6.7 320 14:42 08.03.2020
1351 Clear 27 1011 47 10000 6.7 320 14:22 08.03.2020
1352 Clear 27 1011 42 10000 7.2 320 13:59 08.03.2020
1353 Clear 27 1011 42 10000 7.2 320 13:39 08.03.2020
1354 Clear 27 1011 42 10000 7.2 320 13:19 08.03.2020
1355 Clear 29 1011 30 10000 8.2 320 12:43 08.03.2020
1356 Clear 29 1011 30 10000 8.2 320 12:43 08.03.2020
1357 Clear 29 1011 30 10000 8.2 320 12:24 08.03.2020
1358 Clear 31 1011 16 10000 7.2 290 11:56 08.03.2020
1359 Clear 31 1011 16 10000 7.2 290 11:37 08.03.2020
1360 Clear 31 1011 16 10000 7.2 290 11:37 08.03.2020
1361 Clear 31 1012 18 10000 4.6 280 11:19 08.03.2020
1362 Clear 31 1012 18 10000 4.6 280 10:41 08.03.2020
1363 Clear 31 1012 18 10000 4.6 280 10:23 08.03.2020
1364 Clear 30 1013 22 10000 3.6 200 09:43 08.03.2020
1365 Clear 30 1013 22 10000 3.6 200 09:25 08.03.2020
1366 Clear 28 1014 25 10000 4.1 210 08:57 08.03.2020
1367 Clear 28 1014 25 10000 4.1 210 08:39 08.03.2020
1368 Clear 28 1014 25 10000 4.1 210 08:19 08.03.2020
1369 Clear 26 1014 28 10000 2.1 160 07:42 08.03.2020
1370 Clear 26 1014 28 10000 2.1 160 07:23 08.03.2020
1371 Clear 23 1014 40 10000 2.6 160 06:42 08.03.2020
1372 Clear 23 1014 40 10000 2.6 160 06:22 08.03.2020
1373 Clear 17 1013 68 9000 2.6 130 05:35 08.03.2020
1374 Clear 16 1012 77 9000 2.1 130 03:52 08.03.2020
1375 Clear 17 1012 77 9000 3.1 110 02:29 08.03.2020
1376 Clear 19 1013 77 10000 2.6 90 01:23 08.03.2020
1377 Clear 18 1013 77 10000 2.6 90 00:49 08.03.2020
1378 Clear 19 1013 64 10000 1.5 70 00:26 08.03.2020
1379 Clear 19 1013 64 10000 1.5 70 23:44 07.03.2020
1380 Clear 19 1013 64 10000 1.5 70 23:23 07.03.2020
1381 Clear 20 1014 64 10000 1.5 80 22:41 07.03.2020
1382 Clear 20 1014 64 10000 1.5 80 22:22 07.03.2020
1383 Clear 20 1014 64 10000 1.5 60 21:50 07.03.2020
1384 Clear 20 1014 64 10000 1.5 60 21:29 07.03.2020
1385 Clear 21 1014 60 10000 1.5 0 20:57 07.03.2020
1386 Clear 21 1014 60 10000 1.5 0 20:57 07.03.2020
1387 Clear 21 1014 60 10000 1.5 0 20:38 07.03.2020
1388 Clear 21 1014 60 10000 1.5 0 20:19 07.03.2020
1389 Clear 22 1014 53 10000 2.6 30 19:41 07.03.2020
1390 Clear 22 1014 53 10000 2.6 30 19:22 07.03.2020
1391 Clear 22 1014 50 10000 2.1 30 18:46 07.03.2020
1392 Clear 22 1014 50 10000 2.1 30 18:27 07.03.2020
1393 Clear 23 1014 47 10000 3.1 20 17:57 07.03.2020
1394 Clear 23 1014 47 10000 3.1 20 17:39 07.03.2020
1395 Clear 24 1014 47 10000 3.1 20 17:19 07.03.2020
1396 Clear 24 1013 50 10000 4.1 20 16:43 07.03.2020
1397 Clear 24 1013 50 10000 4.1 20 16:24 07.03.2020
1398 Clear 25 1013 50 10000 5.1 10 15:59 07.03.2020
1399 Clear 25 1013 50 10000 5.1 10 15:41 07.03.2020
1400 Clear 25 1013 50 10000 5.1 10 15:41 07.03.2020
1401 Clear 25 1013 50 10000 5.1 10 15:21 07.03.2020
1402 Clear 27 1013 44 10000 5.1 360 14:58 07.03.2020
1403 Clear 27 1013 44 10000 5.1 360 14:40 07.03.2020
1404 Clear 27 1013 44 10000 5.1 360 14:21 07.03.2020
1405 Clear 28 1012 39 10000 6.2 330 13:41 07.03.2020
1406 Clear 28 1012 39 10000 6.2 330 13:21 07.03.2020
1407 Clear 29 1012 37 10000 7.2 330 12:45 07.03.2020
1408 Clear 29 1012 37 10000 7.2 330 12:23 07.03.2020
1409 Clear 30 1012 35 10000 6.2 340 11:59 07.03.2020
1410 Clear 30 1012 35 10000 6.2 340 11:41 07.03.2020
1411 Clear 30 1012 19 10000 2.6 0 11:23 07.03.2020
1412 Clear 29 1013 21 10000 3.1 0 10:56 07.03.2020
1413 Clear 29 1013 21 10000 3.1 0 10:36 07.03.2020
1414 Clear 29 1013 21 10000 3.1 0 10:18 07.03.2020
1415 Clear 28 1014 28 10000 2.6 80 09:40 07.03.2020
1416 Clear 27 1014 28 10000 2.6 80 09:19 07.03.2020
1417 Clear 26 1015 44 10000 2.6 100 08:56 07.03.2020
1418 Clear 25 1015 44 10000 2.6 100 08:38 07.03.2020
1419 Clear 25 1015 44 10000 2.6 100 08:19 07.03.2020
1420 Clear 23 1016 57 10000 2.6 0 07:44 07.03.2020
1421 Clear 23 1016 51 0 2.24 52 07:21 07.03.2020
1422 Clear 23 1016 51 0 2.24 52 06:39 07.03.2020
1423 Clear 23 1016 51 0 2.31 52 05:59 07.03.2020
1424 Clear 23 1016 51 0 2.31 52 05:38 07.03.2020
1425 Clear 21 1014 61 0 2.24 21 03:35 07.03.2020
1426 Clear 21 1014 61 0 2.24 21 02:42 07.03.2020
1427 Clear 16 1013 68 10000 1.5 150 01:51 07.03.2020
1428 Clear 16 1013 68 10000 2.1 160 00:43 07.03.2020
1429 Clear 16 1013 68 10000 2.1 160 00:23 07.03.2020
1430 Clear 16 1013 68 10000 2.1 160 00:23 07.03.2020
1431 Clear 18 1013 56 10000 1.5 360 23:58 06.03.2020
1432 Clear 18 1013 56 10000 1.5 360 23:38 06.03.2020
1433 Clear 18 1013 56 10000 1.5 360 23:38 06.03.2020
1434 Clear 18 1013 56 10000 1.5 360 23:20 06.03.2020
1435 Clear 19 1014 56 10000 2.1 0 22:44 06.03.2020
1436 Clear 19 1014 56 10000 2.1 0 22:19 06.03.2020
1437 Clear 19 1014 56 10000 2.1 0 22:19 06.03.2020
1438 Clear 20 1014 56 10000 1.5 80 21:45 06.03.2020
1439 Clear 20 1014 56 10000 1.5 80 21:19 06.03.2020
1440 Clear 20 1014 56 10000 2.6 100 20:42 06.03.2020
1441 Clear 20 1014 56 10000 2.6 100 20:21 06.03.2020
1442 Clear 20 1014 56 10000 2.6 100 20:21 06.03.2020
1443 Clear 21 1014 56 10000 2.1 60 19:54 06.03.2020
1444 Clear 21 1014 56 10000 2.1 60 19:36 06.03.2020
1445 Clear 21 1014 53 10000 2.6 50 19:18 06.03.2020
1446 Clear 21 1014 53 10000 2.6 50 18:41 06.03.2020
1447 Clear 21 1014 53 10000 2.6 50 18:20 06.03.2020
1448 Clear 22 1013 53 10000 3.6 30 17:56 06.03.2020
1449 Clear 23 1013 53 10000 3.6 30 17:36 06.03.2020
1450 Clear 23 1013 53 10000 3.6 30 17:36 06.03.2020
1451 Clear 23 1013 47 10000 4.6 20 17:18 06.03.2020
1452 Clear 23 1013 47 10000 4.6 20 16:42 06.03.2020
1453 Clear 23 1013 47 10000 4.6 20 16:21 06.03.2020
1454 Clear 24 1012 50 10000 5.1 350 15:58 06.03.2020
1455 Clear 24 1012 50 10000 5.1 350 15:39 06.03.2020
1456 Clear 25 1012 50 10000 5.1 350 15:20 06.03.2020
1457 Clear 25 1012 47 10000 6.2 350 14:39 06.03.2020
1458 Clear 25 1012 47 10000 6.2 350 14:20 06.03.2020
1459 Clear 26 1012 31 10000 6.7 350 13:43 06.03.2020
1460 Clear 26 1012 31 10000 6.7 350 13:23 06.03.2020
1461 Clear 26 1013 41 10000 6.7 340 12:58 06.03.2020
1462 Clear 26 1013 41 10000 6.7 340 12:38 06.03.2020
1463 Clear 26 1013 41 10000 6.7 340 12:19 06.03.2020
1464 Clear 28 1013 42 10000 6.2 350 11:57 06.03.2020
1465 Clear 28 1013 42 10000 6.2 350 11:39 06.03.2020
1466 Clear 28 1013 42 10000 6.2 350 11:20 06.03.2020
1467 Clear 28 1014 39 10000 3.6 340 10:39 06.03.2020
1468 Clear 28 1014 39 10000 3.6 340 10:21 06.03.2020
1469 Clear 27 1015 24 10000 1.5 0 09:55 06.03.2020
1470 Clear 27 1015 24 10000 1.5 0 09:37 06.03.2020
1471 Clear 27 1015 24 10000 1.5 0 09:19 06.03.2020
1472 Clear 26 1016 41 10000 2.1 0 08:43 06.03.2020
1473 Clear 25 1016 41 10000 2.1 0 08:25 06.03.2020
1474 Clear 23 1016 57 10000 2.1 60 07:57 06.03.2020
1475 Clear 23 1016 57 10000 2.1 60 07:37 06.03.2020
1476 Clear 21 1016 64 10000 2.1 110 06:58 06.03.2020
1477 Clear 20 1016 64 10000 2.1 110 06:39 06.03.2020
1478 Clear 18 1015 72 9000 1 0 05:42 06.03.2020
1479 Clear 18 1015 72 9000 1 0 05:24 06.03.2020
1480 Clear 16 1014 82 7000 1.5 190 04:57 06.03.2020
1481 Clear 16 1013 77 10000 1.5 140 02:36 06.03.2020
1482 Clear 17 1013 72 10000 1.5 160 01:39 06.03.2020
1483 Clear 17 1013 72 10000 1.5 160 01:20 06.03.2020
1484 Clear 17 1013 72 10000 1.5 180 00:32 06.03.2020
1485 Clear 18 1013 73 10000 0.5 0 23:56 05.03.2020
1486 Clear 18 1013 73 10000 0.5 0 23:38 05.03.2020
1487 Clear 18 1013 73 10000 0.5 0 23:19 05.03.2020
1488 Clear 18 1014 73 10000 1 0 22:40 05.03.2020
1489 Clear 18 1014 73 10000 1 0 22:21 05.03.2020
1490 Clear 19 1014 64 10000 1.5 350 21:57 05.03.2020
1491 Clear 19 1014 64 10000 1.5 350 21:38 05.03.2020
1492 Clear 19 1014 64 10000 1.5 350 21:20 05.03.2020
1493 Clear 20 1014 68 10000 1.5 360 20:57 05.03.2020
1494 Clear 20 1014 68 10000 1.5 360 20:39 05.03.2020
1495 Clear 20 1014 68 10000 1.5 360 20:19 05.03.2020
1496 Clear 20 1015 64 10000 2.6 340 19:56 05.03.2020
1497 Clear 20 1015 64 10000 2.6 340 19:37 05.03.2020
1498 Clear 20 1015 64 10000 2.6 340 19:18 05.03.2020
1499 Clear 21 1014 64 10000 3.6 330 18:40 05.03.2020
1500 Clear 21 1014 64 10000 3.6 330 18:20 05.03.2020
1501 Clear 21 1014 68 10000 3.6 330 17:59 05.03.2020
1502 Clear 21 1014 68 10000 3.6 330 17:40 05.03.2020
1503 Clear 21 1014 68 10000 3.6 330 17:22 05.03.2020
1504 Clear 22 1013 64 10000 4.6 340 16:55 05.03.2020
1505 Clear 22 1013 64 10000 4.6 340 16:36 05.03.2020
1506 Clear 22 1013 64 10000 4.6 340 16:18 05.03.2020
1507 Clear 23 1013 60 10000 5.1 340 15:44 05.03.2020
1508 Clear 23 1013 60 10000 5.1 340 15:22 05.03.2020
1509 Clear 24 1013 57 10000 6.2 330 14:57 05.03.2020
1510 Clear 24 1013 57 10000 6.2 330 14:39 05.03.2020
1511 Clear 24 1013 57 10000 6.2 330 14:21 05.03.2020
1512 Clouds 24 1012 53 10000 4.6 330 13:55 05.03.2020
1513 Clouds 24 1012 53 10000 4.6 330 13:36 05.03.2020
1514 Clouds 24 1012 53 10000 4.6 330 13:18 05.03.2020
1515 Clouds 25 1013 53 10000 5.1 330 12:40 05.03.2020
1516 Clouds 25 1013 53 10000 5.1 330 12:40 05.03.2020
1517 Clouds 25 1013 53 10000 5.1 330 12:20 05.03.2020
1518 Clouds 25 1013 53 10000 5.7 330 11:57 05.03.2020
1519 Clouds 25 1013 53 10000 5.7 330 11:37 05.03.2020
1520 Clouds 25 1013 53 10000 5.7 330 11:19 05.03.2020
1521 Clouds 25 1014 50 10000 3.1 310 10:57 05.03.2020
1522 Clouds 25 1014 50 10000 3.1 310 10:39 05.03.2020
1523 Clouds 25 1014 50 10000 3.1 310 10:20 05.03.2020
1524 Clouds 25 1015 50 10000 2.6 40 09:45 05.03.2020
1525 Clouds 24 1015 50 10000 2.6 40 09:27 05.03.2020
1526 Clouds 23 1016 56 10000 2.1 150 08:47 05.03.2020
1527 Clouds 23 1016 56 10000 2.1 150 08:29 05.03.2020
1528 Clouds 22 1016 60 10000 2.1 0 07:49 05.03.2020
1529 Clouds 22 1016 60 10000 2.1 0 07:23 05.03.2020
1530 Clear 20 1016 60 10000 2.6 190 06:50 05.03.2020
1531 Clear 20 1016 60 10000 2.6 190 06:23 05.03.2020
1532 Clouds 18 1015 68 10000 2.1 150 05:57 05.03.2020
1533 Clouds 18 1015 68 10000 2.1 150 05:32 05.03.2020
1534 Clouds 18 1014 63 10000 2.6 170 04:23 05.03.2020
1535 Clouds 18 1014 63 10000 3.1 180 03:58 05.03.2020
1536 Clouds 18 1013 68 10000 2.1 180 02:25 05.03.2020
1537 Clouds 19 1013 64 10000 2.1 230 01:24 05.03.2020
1538 Clouds 19 1012 64 10000 2.6 230 00:43 05.03.2020
1539 Clouds 19 1013 64 10000 2.1 240 23:56 04.03.2020
1540 Clouds 19 1013 64 10000 2.1 240 23:38 04.03.2020
1541 Clouds 19 1013 64 10000 2.1 240 23:19 04.03.2020
1542 Clouds 20 1013 60 10000 2.6 260 22:40 04.03.2020
1543 Clouds 20 1013 60 10000 2.6 260 22:19 04.03.2020
1544 Clouds 20 1014 56 10000 3.6 270 21:59 04.03.2020
1545 Clouds 20 1014 56 10000 3.6 270 21:41 04.03.2020
1546 Clouds 20 1014 56 10000 3.6 270 21:20 04.03.2020
1547 Clouds 20 1014 56 10000 4.6 270 20:57 04.03.2020
1548 Clouds 20 1014 56 10000 4.6 270 20:39 04.03.2020
1549 Clouds 20 1014 56 10000 4.6 270 20:20 04.03.2020
1550 Clouds 21 1014 56 10000 4.1 280 19:42 04.03.2020
1551 Clouds 21 1014 56 10000 4.1 280 19:24 04.03.2020
1552 Clouds 21 1014 56 10000 4.6 280 18:57 04.03.2020
1553 Clouds 21 1014 56 10000 4.6 280 18:38 04.03.2020
1554 Clouds 21 1014 56 10000 4.6 280 18:20 04.03.2020
1555 Clouds 21 1014 56 10000 5.1 280 17:56 04.03.2020
1556 Clouds 21 1014 56 10000 5.1 280 17:38 04.03.2020
1557 Clouds 21 1014 56 10000 5.1 280 17:19 04.03.2020
1558 Clouds 21 1013 56 10000 6.7 290 16:44 04.03.2020
1559 Clouds 21 1013 56 10000 6.7 290 16:26 04.03.2020
1560 Clouds 22 1013 53 10000 7.2 290 15:59 04.03.2020
1561 Clouds 22 1013 53 10000 7.2 290 15:41 04.03.2020
1562 Clouds 22 1013 53 10000 7.2 290 15:23 04.03.2020
1563 Clouds 22 1012 49 10000 7.2 280 14:55 04.03.2020
1564 Clouds 22 1012 49 10000 7.2 280 14:37 04.03.2020
1565 Clouds 22 1012 49 10000 7.2 280 14:18 04.03.2020
1566 Clouds 23 1012 46 10000 7.7 290 13:56 04.03.2020
1567 Clouds 23 1012 46 10000 7.7 290 13:38 04.03.2020
1568 Clouds 23 1012 46 10000 7.7 290 13:19 04.03.2020
1569 Clouds 23 1012 49 10000 7.2 280 12:44 04.03.2020
1570 Clouds 23 1012 49 10000 7.2 280 12:26 04.03.2020
1571 Clouds 23 1013 49 10000 7.2 280 11:56 04.03.2020
1572 Clouds 23 1013 49 10000 7.2 280 11:38 04.03.2020
1573 Clouds 23 1013 49 10000 7.2 280 11:38 04.03.2020
1574 Clouds 23 1013 49 10000 7.2 280 11:19 04.03.2020
1575 Clouds 23 1013 49 10000 7.2 280 11:19 04.03.2020
1576 Clouds 23 1014 53 10000 7.7 280 10:47 04.03.2020
1577 Clouds 23 1014 53 10000 7.7 280 10:26 04.03.2020
1578 Clouds 23 1015 49 10000 7.2 280 09:58 04.03.2020
1579 Clouds 23 1015 49 10000 7.2 280 09:58 04.03.2020
1580 Clouds 23 1015 49 10000 7.2 280 09:40 04.03.2020
1581 Clouds 23 1015 49 10000 7.2 280 09:20 04.03.2020
1582 Clouds 22 1015 49 10000 7.7 270 08:44 04.03.2020
1583 Clouds 22 1015 49 10000 7.7 270 08:25 04.03.2020
1584 Clouds 22 1015 53 10000 7.2 280 07:52 04.03.2020
1585 Clouds 22 1016 53 10000 3.6 0 07:33 04.03.2020
1586 Clouds 21 1015 56 10000 6.7 280 06:54 04.03.2020
1587 Clouds 21 1015 56 10000 6.7 280 06:27 04.03.2020
1588 Clouds 19 1015 56 10000 5.1 260 05:59 04.03.2020
1589 Clouds 19 1015 56 10000 5.1 260 05:41 04.03.2020
1590 Clouds 18 1014 64 10000 5.1 280 04:19 04.03.2020
1591 Clouds 19 1014 68 10000 3.6 260 03:38 04.03.2020
1592 Clouds 19 1013 68 10000 4.1 270 02:59 04.03.2020
1593 Clouds 19 1013 68 10000 4.1 270 02:32 04.03.2020
1594 Clouds 19 1013 68 10000 4.1 260 01:58 04.03.2020
1595 Clouds 19 1013 68 10000 4.1 260 01:38 04.03.2020
1596 Clouds 19 1013 64 10000 3.6 270 00:42 04.03.2020
1597 Clouds 19 1013 64 10000 3.6 270 00:24 04.03.2020
1598 Clouds 19 1014 64 10000 5.7 270 23:45 03.03.2020
1599 Clouds 19 1014 64 10000 5.7 270 23:27 03.03.2020
1600 Clouds 19 1014 64 10000 6.2 270 22:56 03.03.2020
1601 Clouds 19 1014 64 10000 6.2 270 22:38 03.03.2020
1602 Clouds 19 1014 64 10000 6.2 270 22:19 03.03.2020
1603 Clouds 20 1014 64 10000 5.1 280 21:56 03.03.2020
1604 Clouds 20 1014 64 10000 5.1 280 21:36 03.03.2020
1605 Clouds 20 1014 64 10000 5.1 280 21:18 03.03.2020
1606 Clouds 20 1014 64 10000 5.1 280 21:18 03.03.2020
1607 Clouds 20 1015 64 10000 5.1 270 20:40 03.03.2020
1608 Clouds 20 1015 64 10000 5.1 270 20:19 03.03.2020
1609 Clear 21 1015 56 10000 3.6 0 19:58 03.03.2020
1610 Clear 21 1015 56 10000 3.6 0 19:37 03.03.2020
1611 Clear 20 1015 56 10000 3.6 0 19:19 03.03.2020
1612 Clear 20 1015 64 10000 5.1 280 18:58 03.03.2020
1613 Clear 20 1015 64 10000 5.1 280 18:40 03.03.2020
1614 Clear 21 1015 64 10000 5.1 280 18:20 03.03.2020
1615 Clear 21 1014 56 10000 5.7 280 17:55 03.03.2020
1616 Clear 21 1014 56 10000 5.7 280 17:37 03.03.2020
1617 Clear 21 1014 56 10000 5.7 280 17:19 03.03.2020
1618 Clear 22 1014 56 10000 6.7 280 16:55 03.03.2020
1619 Clear 22 1014 56 10000 6.7 280 16:36 03.03.2020
1620 Clear 22 1014 56 10000 6.7 280 16:18 03.03.2020
1621 Clear 22 1014 56 10000 6.7 280 16:18 03.03.2020
1622 Clear 23 1014 53 10000 7.7 280 15:43 03.03.2020
1623 Clear 23 1014 53 10000 7.7 280 15:21 03.03.2020
1624 Clear 23 1013 50 10000 7.2 280 14:55 03.03.2020
1625 Clear 23 1013 50 10000 7.2 280 14:37 03.03.2020
1626 Clear 23 1013 50 10000 7.2 280 14:18 03.03.2020
1627 Clear 24 1013 50 10000 7.2 270 13:42 03.03.2020
1628 Clear 24 1013 50 10000 7.2 270 13:24 03.03.2020
1629 Clear 24 1014 50 10000 7.2 280 12:55 03.03.2020
1630 Clear 24 1014 50 10000 7.2 280 12:37 03.03.2020
1631 Clear 24 1014 50 10000 7.2 280 12:19 03.03.2020
1632 Clear 25 1014 47 10000 7.7 280 11:55 03.03.2020
1633 Clear 24 1014 47 10000 7.7 280 11:36 03.03.2020
1634 Clear 24 1014 47 10000 7.7 280 11:18 03.03.2020
1635 Clear 24 1015 53 10000 7.7 290 10:54 03.03.2020
1636 Clear 24 1015 53 10000 7.7 290 10:36 03.03.2020
1637 Clear 24 1015 53 10000 7.7 290 10:18 03.03.2020
1638 Clear 24 1015 53 10000 7.7 290 10:18 03.03.2020
1639 Clear 24 1016 53 10000 7.2 300 09:41 03.03.2020
1640 Clear 24 1016 53 10000 7.2 300 09:20 03.03.2020
1641 Clear 24 1017 57 10000 5.1 280 08:42 03.03.2020
1642 Clear 24 1017 57 10000 5.1 280 08:22 03.03.2020
1643 Clouds 23 1016 64 10000 5.7 300 07:56 03.03.2020
1644 Clouds 23 1016 64 10000 5.7 300 07:37 03.03.2020
1645 Clouds 23 1016 64 10000 5.7 300 07:18 03.03.2020
1646 Clouds 21 1016 83 7000 2.6 210 06:40 03.03.2020
1647 Clouds 21 1016 83 7000 2.6 210 06:20 03.03.2020
1648 Haze 19 1016 82 5000 3.1 200 05:42 03.03.2020
1649 Haze 19 1015 82 4600 3.1 210 04:51 03.03.2020
1650 Clouds 19 1014 82 8000 3.1 210 02:38 03.03.2020
1651 Clear 19 1013 77 10000 3.1 200 01:29 03.03.2020
1652 Clear 20 1013 77 10000 2.6 230 00:42 03.03.2020
1653 Clear 20 1013 77 10000 2.6 230 00:23 03.03.2020
1654 Clear 20 1014 73 10000 2.1 340 23:48 02.03.2020
1655 Clear 20 1014 73 10000 2.1 340 23:23 02.03.2020
1656 Clear 20 1014 73 10000 2.1 10 22:57 02.03.2020
1657 Clear 20 1014 73 10000 2.1 10 22:57 02.03.2020
1658 Clear 20 1014 73 10000 2.1 10 22:38 02.03.2020
1659 Clear 20 1014 73 10000 2.1 10 22:19 02.03.2020
1660 Clear 21 1014 73 10000 2.6 340 21:56 02.03.2020
1661 Clear 21 1014 73 10000 2.6 340 21:37 02.03.2020
1662 Clear 21 1014 73 10000 2.6 340 21:19 02.03.2020
1663 Clear 22 1015 73 10000 4.1 320 20:54 02.03.2020
1664 Clear 22 1015 73 10000 4.1 320 20:36 02.03.2020
1665 Clear 22 1015 73 10000 4.1 320 20:18 02.03.2020
1666 Clear 22 1015 73 10000 4.6 320 19:40 02.03.2020
1667 Clear 22 1015 73 10000 4.6 320 19:21 02.03.2020
1668 Clear 22 1014 73 10000 5.1 320 18:57 02.03.2020
1669 Clear 22 1014 73 10000 5.1 320 18:38 02.03.2020
1670 Clear 22 1014 73 10000 5.1 320 18:18 02.03.2020
1671 Clear 23 1014 69 10000 5.1 330 17:56 02.03.2020
1672 Clear 23 1014 69 10000 5.1 330 17:38 02.03.2020
1673 Clear 23 1014 69 10000 5.1 330 17:20 02.03.2020
1674 Clear 24 1013 69 10000 6.2 320 16:43 02.03.2020
1675 Clear 24 1013 69 10000 6.2 320 16:24 02.03.2020
1676 Clear 25 1013 61 10000 6.2 330 15:57 02.03.2020
1677 Clear 25 1013 61 10000 6.2 330 15:38 02.03.2020
1678 Clear 25 1013 61 10000 6.2 330 15:18 02.03.2020
1679 Clear 26 1012 61 10000 7.7 340 14:39 02.03.2020
1680 Clear 26 1012 61 10000 7.7 340 14:19 02.03.2020
1681 Clear 27 1012 47 10000 7.2 320 13:55 02.03.2020
1682 Clear 27 1012 47 10000 7.2 320 13:36 02.03.2020
1683 Clear 27 1012 47 10000 7.2 320 13:18 02.03.2020
1684 Clear 29 1012 45 10000 6.2 320 12:41 02.03.2020
1685 Clear 29 1012 45 10000 6.2 320 12:19 02.03.2020
1686 Clear 29 1013 45 10000 5.7 330 11:39 02.03.2020
1687 Clear 29 1013 45 10000 5.7 330 11:21 02.03.2020
1688 Clear 29 1014 39 10000 6.7 330 10:58 02.03.2020
1689 Clear 29 1014 39 10000 6.7 330 10:38 02.03.2020
1690 Clear 29 1014 39 10000 6.7 330 10:19 02.03.2020
1691 Clear 29 1014 30 10000 2.6 220 09:51 02.03.2020
1692 Clear 29 1014 30 10000 2.6 220 09:31 02.03.2020
1693 Clear 28 1015 34 10000 2.1 240 08:49 02.03.2020
1694 Clear 29 1015 34 10000 2.1 240 08:24 02.03.2020
1695 Clear 26 1014 44 10000 1.5 170 07:52 02.03.2020
1696 Clear 26 1014 44 10000 1.5 170 07:33 02.03.2020
1697 Clear 23 1014 60 10000 1.5 0 06:53 02.03.2020
1698 Clear 23 1014 60 10000 1.5 0 06:26 02.03.2020
1699 Clear 19 1014 64 10000 2.6 160 05:26 02.03.2020
1700 Clear 18 1012 68 10000 2.1 130 03:59 02.03.2020
1701 Clear 18 1012 68 10000 2.1 130 03:19 02.03.2020
1702 Clear 18 1012 73 10000 2.1 100 02:30 02.03.2020
1703 Clear 18 1012 73 10000 2.6 100 01:37 02.03.2020
1704 Clear 18 1012 73 10000 2.6 100 01:19 02.03.2020
1705 Clear 18 1012 73 10000 2.1 70 00:22 02.03.2020
1706 Clear 19 1012 68 10000 2.6 100 23:43 01.03.2020
1707 Clear 19 1012 68 10000 2.6 100 23:24 01.03.2020
1708 Clear 19 1013 64 10000 2.6 90 22:55 01.03.2020
1709 Clear 19 1013 64 10000 2.6 90 22:36 01.03.2020
1710 Clear 19 1013 64 10000 2.6 90 22:18 01.03.2020
1711 Clear 20 1013 64 10000 2.6 100 21:41 01.03.2020
1712 Clear 20 1013 64 10000 2.6 100 21:23 01.03.2020
1713 Clear 20 1013 60 10000 2.6 100 20:56 01.03.2020
1714 Clear 20 1013 60 10000 2.6 100 20:37 01.03.2020
1715 Clear 20 1013 60 10000 2.6 100 20:19 01.03.2020
1716 Clear 21 1013 69 10000 2.1 90 19:42 01.03.2020
1717 Clear 21 1013 69 10000 2.1 90 19:22 01.03.2020
1718 Clear 22 1013 69 10000 3.1 50 18:58 01.03.2020
1719 Clear 22 1013 69 10000 3.1 50 18:39 01.03.2020
1720 Clear 22 1013 69 10000 3.1 50 18:19 01.03.2020
1721 Clear 23 1013 60 10000 3.1 10 17:55 01.03.2020
1722 Clear 23 1013 60 10000 3.1 10 17:37 01.03.2020
1723 Clear 23 1013 60 10000 3.1 10 17:19 01.03.2020
1724 Clear 23 1012 57 10000 3.6 350 16:54 01.03.2020
1725 Clear 23 1012 57 10000 3.6 350 16:36 01.03.2020
1726 Clear 23 1012 57 10000 3.6 350 16:18 01.03.2020
1727 Clear 23 1012 57 10000 3.6 350 16:18 01.03.2020
1728 Clear 24 1011 53 10000 4.6 350 15:55 01.03.2020
1729 Clear 24 1011 53 10000 4.6 350 15:36 01.03.2020
1730 Clear 24 1011 53 10000 4.6 350 15:18 01.03.2020
1731 Clear 26 1011 50 10000 5.1 360 14:54 01.03.2020
1732 Clear 26 1011 50 10000 5.1 360 14:36 01.03.2020
1733 Clear 26 1011 50 10000 5.1 360 14:36 01.03.2020
1734 Clear 26 1011 50 10000 5.1 360 14:18 01.03.2020
1735 Clear 26 1010 44 10000 5.7 330 13:43 01.03.2020
1736 Clear 26 1010 44 10000 5.7 330 13:21 01.03.2020
1737 Clear 27 1011 44 10000 6.2 330 12:57 01.03.2020
1738 Clear 27 1011 44 10000 6.2 330 12:38 01.03.2020
1739 Clear 27 1011 44 10000 6.2 330 12:20 01.03.2020
1740 Clear 27 1011 50 10000 5.1 320 11:40 01.03.2020
1741 Clear 27 1011 50 10000 5.1 320 11:40 01.03.2020
1742 Clear 27 1011 50 10000 5.1 320 11:20 01.03.2020
1743 Clear 27 1012 57 9000 4.6 330 10:56 01.03.2020
1744 Clear 27 1012 57 9000 4.6 330 10:37 01.03.2020
1745 Clear 26 1013 39 10000 1.5 0 10:19 01.03.2020
1746 Clear 26 1013 39 10000 1.5 0 09:46 01.03.2020
1747 Clear 26 1013 39 10000 1.5 0 09:26 01.03.2020
1748 Clear 24 1013 53 10000 3.1 40 08:57 01.03.2020
1749 Clear 23 1013 53 10000 3.1 40 08:38 01.03.2020
1750 Clear 23 1013 53 10000 3.1 40 08:18 01.03.2020
1751 Clear 21 1014 73 8000 1.5 130 07:41 01.03.2020
1752 Clear 21 1014 73 8000 1.5 130 07:23 01.03.2020
1753 Haze 20 1014 88 5000 1.5 150 06:47 01.03.2020
1754 Haze 19 1014 88 5000 1.5 150 06:28 01.03.2020
1755 Haze 17 1012 88 4000 2.6 160 03:54 01.03.2020
1756 Clouds 17 1011 82 8000 2.1 150 02:23 01.03.2020
1757 Clouds 18 1011 83 10000 2.1 330 01:48 01.03.2020
1758 Clouds 18 1011 83 10000 2.1 330 01:20 01.03.2020
1759 Clouds 19 1011 78 10000 2.6 10 00:41 01.03.2020
1760 Clouds 19 1011 78 10000 2.6 10 00:21 01.03.2020
1761 Clouds 19 1011 83 10000 2.1 350 23:45 29.02.2020
1762 Clouds 19 1011 83 10000 2.1 350 23:26 29.02.2020
1763 Clouds 19 1012 83 10000 3.1 330 22:42 29.02.2020
1764 Clouds 19 1012 83 10000 3.1 330 22:23 29.02.2020
1765 Clear 20 1012 78 10000 2.1 240 21:42 29.02.2020
1766 Clear 20 1012 78 10000 2.1 240 21:22 29.02.2020
1767 Clear 21 1012 78 10000 1.5 220 20:43 29.02.2020
1768 Clear 21 1012 78 10000 1.5 220 20:43 29.02.2020
1769 Clear 21 1012 78 10000 1.5 220 20:21 29.02.2020
1770 Clear 21 1012 78 10000 1 0 19:56 29.02.2020
1771 Clear 21 1012 78 10000 1 0 19:38 29.02.2020
1772 Clear 21 1012 78 10000 1 0 19:19 29.02.2020
1773 Clear 21 1012 78 10000 2.6 340 18:43 29.02.2020
1774 Clear 21 1012 78 10000 2.6 340 18:24 29.02.2020
1775 Clear 22 1012 78 10000 4.1 330 17:57 29.02.2020
1776 Clear 22 1012 78 10000 4.1 330 17:39 29.02.2020
1777 Clear 22 1012 78 10000 4.1 330 17:20 29.02.2020
1778 Clear 22 1012 78 10000 4.1 330 17:20 29.02.2020
1779 Clear 22 1011 73 10000 5.1 330 16:45 29.02.2020
1780 Clear 22 1011 73 10000 5.1 330 16:22 29.02.2020
1781 Clear 23 1011 64 8000 6.7 330 15:58 29.02.2020
1782 Clear 23 1011 64 8000 6.7 330 15:40 29.02.2020
1783 Clear 23 1011 64 8000 6.7 330 15:21 29.02.2020
1784 Clear 24 1010 64 10000 7.2 320 14:41 29.02.2020
1785 Clear 24 1010 64 10000 7.2 320 14:22 29.02.2020
1786 Clear 25 1010 57 10000 6.7 320 13:47 29.02.2020
1787 Clear 25 1010 57 10000 6.7 320 13:28 29.02.2020
1788 Clear 25 1011 50 10000 6.2 340 12:59 29.02.2020
1789 Clear 25 1011 50 10000 6.2 340 12:40 29.02.2020
1790 Clear 26 1011 50 10000 6.2 340 12:21 29.02.2020
1791 Clear 25 1011 57 10000 5.7 320 11:55 29.02.2020
1792 Clear 25 1011 57 10000 5.7 320 11:37 29.02.2020
1793 Clear 25 1011 57 10000 5.7 320 11:18 29.02.2020
1794 Clouds 26 1012 54 8000 5.7 320 10:44 29.02.2020
1795 Clouds 26 1012 54 8000 5.7 320 10:26 29.02.2020
1796 Clouds 25 1013 44 8000 2.1 0 09:47 29.02.2020
1797 Clouds 25 1013 44 8000 2.1 0 09:23 29.02.2020
1798 Clear 24 1014 57 8000 1.5 0 08:42 29.02.2020
1799 Clear 24 1014 57 8000 1.5 0 08:22 29.02.2020
1800 Clear 22 1014 68 8000 1.5 190 07:57 29.02.2020
1801 Clear 22 1014 68 8000 1.5 190 07:39 29.02.2020
1802 Clear 22 1014 68 8000 1.5 190 07:18 29.02.2020
1803 Clear 21 1014 73 8000 2.6 150 06:42 29.02.2020
1804 Clear 20 1014 73 8000 2.6 150 06:22 29.02.2020
1805 Clear 19 1013 77 8000 2.6 140 05:46 29.02.2020
1806 Clouds 18 1013 77 7000 2.1 180 04:45 29.02.2020
1807 Clouds 17 1012 82 8000 2.1 120 03:40 29.02.2020
1808 Clouds 17 1012 82 8000 2.1 120 03:21 29.02.2020
1809 Clouds 18 1012 77 10000 2.1 0 02:37 29.02.2020
1810 Clouds 18 1012 77 10000 2.1 0 02:37 29.02.2020
1811 Clouds 18 1012 77 10000 3.1 0 00:58 29.02.2020
1812 Clouds 18 1012 77 10000 3.1 0 00:36 29.02.2020
1813 Clouds 19 1012 77 10000 2.6 290 23:43 28.02.2020
1814 Clouds 19 1012 77 10000 2.6 290 23:25 28.02.2020
1815 Clear 19 1013 77 10000 2.1 270 22:54 28.02.2020
1816 Clear 19 1013 77 10000 2.1 270 22:36 28.02.2020
1817 Clear 19 1013 77 10000 2.1 270 22:18 28.02.2020
1818 Clear 20 1013 77 10000 2.6 230 21:41 28.02.2020
1819 Clear 20 1013 77 10000 2.6 230 21:20 28.02.2020
1820 Clouds 20 1014 77 10000 2.1 230 20:41 28.02.2020
1821 Clouds 20 1014 77 10000 2.1 230 20:22 28.02.2020
1822 Clouds 21 1014 77 10000 1.5 300 19:59 28.02.2020
1823 Clouds 21 1014 77 10000 1.5 300 19:39 28.02.2020
1824 Clouds 21 1014 77 10000 1.5 300 19:21 28.02.2020
1825 Clear 21 1014 73 10000 2.1 330 18:57 28.02.2020
1826 Clear 21 1014 73 10000 2.1 330 18:38 28.02.2020
1827 Clear 21 1014 73 10000 2.1 330 18:20 28.02.2020
1828 Clear 21 1013 73 10000 3.6 330 17:41 28.02.2020
1829 Clear 21 1013 73 10000 3.6 330 17:22 28.02.2020
1830 Clear 22 1013 68 10000 4.1 300 16:46 28.02.2020
1831 Clear 22 1013 68 10000 4.1 300 16:20 28.02.2020
1832 Clear 22 1013 64 10000 4.1 290 15:58 28.02.2020
1833 Clear 22 1013 64 10000 4.1 290 15:40 28.02.2020
1834 Clear 22 1013 64 10000 4.1 290 15:20 28.02.2020
1835 Clear 22 1013 64 10000 4.1 290 15:20 28.02.2020
1836 Clouds 23 1013 60 10000 4.6 320 14:57 28.02.2020
1837 Clouds 23 1013 60 10000 4.6 320 14:38 28.02.2020
1838 Clouds 23 1013 60 10000 4.6 320 14:18 28.02.2020
1839 Clear 23 1013 57 10000 3.6 300 13:42 28.02.2020
1840 Clear 23 1013 57 10000 3.6 300 13:20 28.02.2020
1841 Clear 23 1013 57 10000 3.6 300 13:20 28.02.2020
1842 Clouds 23 1013 60 10000 4.6 290 12:59 28.02.2020
1843 Clouds 23 1013 60 10000 4.6 290 12:40 28.02.2020
1844 Clouds 23 1013 60 10000 4.6 290 12:22 28.02.2020
1845 Clouds 23 1014 53 10000 4.1 280 11:42 28.02.2020
1846 Clouds 23 1014 53 10000 4.1 280 11:23 28.02.2020
1847 Clouds 23 1015 56 10000 4.1 310 10:57 28.02.2020
1848 Clouds 23 1015 56 10000 4.1 310 10:37 28.02.2020
1849 Clouds 23 1015 56 10000 4.1 310 10:19 28.02.2020
1850 Clouds 23 1016 56 10000 4.1 300 09:44 28.02.2020
1851 Clouds 23 1016 56 10000 4.1 300 09:20 28.02.2020
1852 Clouds 22 1016 60 10000 3.6 280 08:55 28.02.2020
1853 Clouds 22 1016 60 10000 3.6 280 08:36 28.02.2020
1854 Clouds 22 1016 60 10000 3.6 280 08:18 28.02.2020
1855 Clouds 22 1016 60 10000 2.1 0 07:39 28.02.2020
1856 Clouds 21 1016 60 10000 2.1 0 07:19 28.02.2020
1857 Clouds 20 1016 68 10000 2.6 230 06:41 28.02.2020
1858 Clouds 18 1016 68 10000 3.1 170 05:37 28.02.2020
1859 Clouds 18 1015 68 10000 3.1 190 04:33 28.02.2020
1860 Clouds 18 1014 68 10000 2.6 200 03:39 28.02.2020
1861 Clouds 19 1014 60 10000 3.6 280 02:42 28.02.2020
1862 Clouds 19 1014 60 10000 3.6 280 02:18 28.02.2020
1863 Clouds 19 1014 64 10000 3.1 270 00:35 28.02.2020
1864 Clouds 19 1015 64 10000 3.6 250 23:57 27.02.2020
1865 Clouds 19 1015 64 10000 3.6 250 23:38 27.02.2020
1866 Clouds 19 1015 64 10000 3.6 250 23:18 27.02.2020
1867 Clouds 19 1015 64 10000 4.6 280 22:40 27.02.2020
1868 Clouds 19 1015 64 10000 4.6 280 22:22 27.02.2020
1869 Clouds 20 1015 60 10000 6.2 300 21:54 27.02.2020
1870 Clouds 20 1015 60 10000 6.2 300 21:36 27.02.2020
1871 Clouds 20 1015 60 10000 6.2 300 21:18 27.02.2020
1872 Clouds 20 1016 68 10000 4.6 280 20:41 27.02.2020
1873 Clouds 20 1016 68 10000 4.6 280 20:23 27.02.2020
1874 Clouds 20 1016 68 10000 5.1 270 19:58 27.02.2020
1875 Clouds 20 1016 68 10000 5.1 270 19:39 27.02.2020
1876 Clouds 20 1016 68 10000 5.1 270 19:21 27.02.2020
1877 Clouds 20 1016 60 10000 5.7 290 18:57 27.02.2020
1878 Clouds 20 1016 60 10000 5.7 290 18:39 27.02.2020
1879 Clouds 20 1016 60 10000 5.7 290 18:19 27.02.2020
1880 Clouds 21 1016 60 10000 5.1 280 17:55 27.02.2020
1881 Clouds 21 1016 60 10000 5.1 280 17:36 27.02.2020
1882 Clouds 21 1016 60 10000 5.1 280 17:18 27.02.2020
1883 Clouds 21 1016 60 10000 6.7 270 16:41 27.02.2020
1884 Clouds 21 1016 60 10000 6.7 270 16:41 27.02.2020
1885 Clouds 21 1016 60 10000 6.7 270 16:20 27.02.2020
1886 Clouds 21 1015 56 10000 6.7 290 15:59 27.02.2020
1887 Clouds 21 1015 56 10000 6.7 290 15:38 27.02.2020
1888 Clouds 21 1015 56 10000 6.7 290 15:20 27.02.2020
1889 Clouds 22 1015 56 9000 7.2 270 14:58 27.02.2020
1890 Clouds 22 1015 56 9000 7.2 270 14:37 27.02.2020
1891 Clouds 22 1015 56 9000 7.2 270 14:19 27.02.2020
1892 Clouds 23 1015 53 8000 7.7 280 13:42 27.02.2020
1893 Clouds 23 1015 53 8000 7.7 280 13:21 27.02.2020
1894 -273 0 0 0 0 0 12:56 27.02.2020
1895 Clouds 23 1015 53 7000 7.2 280 12:38 27.02.2020
1896 Clouds 23 1015 53 7000 7.2 280 12:18 27.02.2020
1897 Clouds 23 1015 49 6000 7.2 300 11:41 27.02.2020
1898 Clouds 23 1015 49 6000 7.2 300 11:22 27.02.2020
1899 Clouds 23 1016 49 6000 8.2 310 10:44 27.02.2020
1900 Clouds 23 1016 49 6000 8.2 310 10:24 27.02.2020
1901 Clear 23 1017 49 6000 7.7 300 09:49 27.02.2020
1902 Clear 23 1017 49 6000 7.7 300 09:30 27.02.2020
1903 Clear 23 1017 49 6000 6.7 300 08:58 27.02.2020
1904 Clear 23 1017 49 6000 6.7 300 08:40 27.02.2020
1905 Clear 22 1017 49 6000 6.7 300 08:22 27.02.2020
1906 Clear 22 1018 49 7000 7.7 290 07:44 27.02.2020
1907 Clear 22 1018 49 7000 7.7 290 07:25 27.02.2020
1908 Clear 22 1017 49 6000 6.2 280 06:46 27.02.2020
1909 Clear 21 1017 52 6000 5.7 280 05:43 27.02.2020
1910 Clear 20 1015 52 10000 5.7 300 03:42 27.02.2020
1911 Clear 20 1015 56 10000 5.1 290 02:22 27.02.2020
1912 Clouds 20 1015 68 10000 3.6 0 00:45 27.02.2020
1913 Clouds 20 1015 68 10000 3.6 0 00:26 27.02.2020
1914 Clouds 21 1015 68 10000 4.1 280 23:40 26.02.2020
1915 Clouds 21 1015 68 10000 4.1 280 23:19 26.02.2020
1916 Clouds 21 1015 64 10000 4.6 290 22:57 26.02.2020
1917 Clouds 21 1015 64 10000 4.6 290 22:39 26.02.2020
1918 Clouds 21 1015 64 10000 4.6 290 22:20 26.02.2020
1919 Clear 22 1015 56 10000 5.7 290 21:56 26.02.2020
1920 Clear 22 1015 56 10000 5.7 290 21:36 26.02.2020
1921 Clear 22 1015 56 10000 5.7 290 21:18 26.02.2020
1922 Clear 22 1015 64 8000 6.7 280 20:54 26.02.2020
1923 Clear 22 1015 64 8000 6.7 280 20:36 26.02.2020
1924 Clouds 22 1015 64 8000 6.7 280 20:18 26.02.2020
1925 Clouds 22 1015 68 10000 6.7 280 19:45 26.02.2020
1926 Clouds 22 1015 68 10000 6.7 280 19:20 26.02.2020
1927 Clouds 22 1015 68 8000 6.2 290 18:58 26.02.2020
1928 Clouds 22 1015 68 8000 6.2 290 18:58 26.02.2020
1929 Clouds 22 1015 68 8000 6.2 290 18:40 26.02.2020
1930 Clouds 22 1015 68 8000 6.2 290 18:22 26.02.2020
1931 Clouds 22 1015 68 8000 6.2 290 18:22 26.02.2020
1932 Clouds 23 1015 60 8000 6.7 280 17:42 26.02.2020
1933 Clouds 23 1015 60 8000 6.7 280 17:42 26.02.2020
1934 Clouds 23 1015 60 8000 6.7 280 17:24 26.02.2020
1935 Dust 23 1014 69 4000 5.7 280 16:58 26.02.2020
1936 Dust 23 1014 69 4000 5.7 280 16:39 26.02.2020
1937 Dust 23 1014 69 4000 5.7 280 16:21 26.02.2020
1938 Dust 23 1014 69 4000 5.7 280 16:21 26.02.2020
1939 Dust 24 1013 64 4000 7.2 300 15:47 26.02.2020
1940 Dust 24 1013 64 4000 7.2 300 15:29 26.02.2020
1941 Dust 25 1013 61 4000 6.2 300 14:59 26.02.2020
1942 Dust 25 1013 61 4000 6.2 300 14:40 26.02.2020
1943 Dust 25 1013 61 4000 6.2 300 14:21 26.02.2020
1944 Dust 26 1013 65 3000 6.7 300 13:43 26.02.2020
1945 Dust 26 1013 65 3000 6.7 300 13:21 26.02.2020
1946 Dust 26 1012 69 3000 6.7 300 12:40 26.02.2020
1947 Dust 26 1012 69 5000 6.2 290 12:22 26.02.2020
1948 Dust 29 1012 48 4500 9.3 290 11:58 26.02.2020
1949 Dust 29 1012 48 4500 9.3 290 11:40 26.02.2020
1950 Dust 29 1012 48 4500 9.3 290 11:21 26.02.2020
1951 Clouds 29 1013 37 7000 5.1 270 10:43 26.02.2020
1952 Clouds 30 1013 37 7000 5.1 270 10:23 26.02.2020
1953 Clouds 30 1014 33 6000 8.2 250 09:57 26.02.2020
1954 Clouds 30 1014 33 6000 8.2 250 09:39 26.02.2020
1955 Clouds 30 1014 33 6000 8.2 250 09:20 26.02.2020
1956 Dust 27 1015 47 4000 8.7 280 08:39 26.02.2020
1957 Dust 28 1015 47 4000 8.7 280 08:19 26.02.2020
1958 Dust 29 1015 47 4000 8.7 280 07:51 26.02.2020
1959 Dust 30 1014 37 2000 9.8 270 07:30 26.02.2020
1960 Dust 29 1012 32 4000 8.7 170 06:58 26.02.2020
1961 Dust 29 1012 32 5000 7.7 180 06:39 26.02.2020
1962 Dust 29 1012 32 5000 7.7 180 06:18 26.02.2020
1963 Dust 28 1013 37 4000 9.8 160 05:47 26.02.2020
1964 Clear 25 1011 41 8000 6.7 180 04:52 26.02.2020
1965 Clear 23 1010 53 10000 2.1 140 02:55 26.02.2020
1966 Clouds 23 1010 57 10000 2.6 150 01:56 26.02.2020
1967 Clouds 23 1010 57 10000 2.6 150 01:24 26.02.2020
1968 Clouds 23 1011 53 10000 3.6 110 00:29 26.02.2020
1969 Clouds 23 1011 50 10000 2.1 70 23:59 25.02.2020
1970 Clouds 23 1011 50 10000 2.1 70 23:41 25.02.2020
1971 Clouds 23 1011 50 10000 2.1 70 23:21 25.02.2020
1972 Clouds 24 1011 47 10000 2.1 100 22:43 25.02.2020
1973 Clouds 24 1011 47 10000 2.1 100 22:20 25.02.2020
1974 Clouds 24 1012 44 10000 2.1 80 21:59 25.02.2020
1975 Clouds 24 1012 44 10000 2.1 80 21:38 25.02.2020
1976 Clouds 25 1012 44 10000 2.1 80 21:20 25.02.2020
1977 Clouds 26 1012 42 10000 2.1 90 20:56 25.02.2020
1978 Clouds 26 1012 42 10000 2.1 90 20:56 25.02.2020
1979 Clouds 26 1012 42 10000 2.1 90 20:37 25.02.2020
1980 Clouds 26 1012 42 10000 2.1 90 20:19 25.02.2020
1981 Clouds 26 1012 39 10000 1.5 90 19:44 25.02.2020
1982 Clouds 26 1012 39 10000 1.5 90 19:23 25.02.2020
1983 Clouds 26 1012 39 10000 2.1 90 18:59 25.02.2020
1984 Clouds 26 1012 39 10000 2.1 90 18:39 25.02.2020
1985 Clouds 26 1012 39 10000 2.1 90 18:20 25.02.2020
1986 Clouds 27 1012 39 10000 4.1 80 17:55 25.02.2020
1987 Clouds 27 1012 39 10000 4.1 80 17:36 25.02.2020
1988 Clouds 27 1012 39 10000 4.1 80 17:18 25.02.2020
1989 Clouds 28 1011 37 10000 3.6 50 16:55 25.02.2020
1990 Clouds 28 1011 37 10000 3.6 50 16:36 25.02.2020
1991 Clouds 28 1011 37 10000 3.6 50 16:18 25.02.2020
1992 Clouds 29 1011 39 10000 4.6 30 15:44 25.02.2020
1993 Clouds 29 1011 39 10000 4.6 30 15:20 25.02.2020
1994 Clouds 31 1011 38 10000 4.1 30 14:59 25.02.2020
1995 Clouds 31 1011 38 10000 4.1 30 14:39 25.02.2020
1996 Clouds 31 1011 38 10000 4.1 30 14:18 25.02.2020
1997 Clouds 31 1011 35 10000 5.1 340 13:58 25.02.2020
1998 Clouds 31 1011 35 10000 5.1 340 13:39 25.02.2020
1999 Clouds 31 1011 35 10000 5.1 340 13:20 25.02.2020
2000 Clouds 32 1011 40 10000 6.2 340 12:55 25.02.2020
2001 Clouds 32 1011 40 10000 6.2 340 12:37 25.02.2020
2002 Clouds 32 1011 40 10000 6.2 340 12:18 25.02.2020
2003 Clouds 33 1012 38 10000 5.7 330 11:42 25.02.2020
2004 Clouds 33 1012 38 10000 5.7 330 11:20 25.02.2020
2005 Clouds 33 1012 38 8000 5.1 330 10:59 25.02.2020
2006 Clouds 33 1013 29 10000 3.1 190 10:41 25.02.2020
2007 Clouds 33 1013 29 10000 3.1 190 10:22 25.02.2020
2008 Clouds 32 1014 31 10000 3.1 180 09:42 25.02.2020
2009 Clouds 32 1014 31 10000 3.1 180 09:23 25.02.2020
2010 Clouds 30 1015 42 10000 3.1 180 08:56 25.02.2020
2011 Clouds 30 1015 42 10000 3.1 180 08:37 25.02.2020
2012 Clouds 29 1015 42 10000 3.1 180 08:19 25.02.2020
2013 Clouds 27 1015 39 10000 2.6 120 07:41 25.02.2020
2014 Clouds 27 1015 39 10000 2.6 120 07:20 25.02.2020
2015 Clouds 24 1015 41 7000 2.6 80 06:41 25.02.2020
2016 Clouds 21 1015 56 8000 2.1 0 05:39 25.02.2020
2017 Clouds 20 1013 53 10000 2.1 120 03:44 25.02.2020
2018 Clouds 20 1012 50 10000 1.5 120 02:00 25.02.2020
2019 Clouds 21 1013 50 10000 2.1 90 00:48 25.02.2020
2020 Clouds 21 1013 50 10000 2.1 90 00:48 25.02.2020
2021 Clouds 21 1013 50 10000 2.1 90 00:29 25.02.2020
2022 Clouds 21 1013 47 10000 1 0 23:44 24.02.2020
2023 Clouds 21 1013 47 10000 1 0 23:21 24.02.2020
2024 Clouds 22 1014 47 10000 2.1 100 22:43 24.02.2020
2025 Clouds 22 1014 47 10000 2.1 100 22:21 24.02.2020
2026 Clouds 22 1014 50 10000 2.1 100 21:57 24.02.2020
2027 Clouds 22 1014 50 10000 2.1 100 21:57 24.02.2020
2028 Clouds 22 1014 50 10000 2.1 100 21:39 24.02.2020
2029 Clouds 22 1014 50 10000 2.1 100 21:20 24.02.2020
2030 Clouds 23 1014 53 10000 3.1 110 20:58 24.02.2020
2031 Clouds 23 1014 53 10000 3.1 110 20:40 24.02.2020
2032 Clouds 23 1014 53 10000 3.1 110 20:19 24.02.2020
2033 Clouds 24 1015 50 10000 2.6 60 19:57 24.02.2020
2034 Clouds 24 1015 50 10000 2.6 60 19:39 24.02.2020
2035 Clouds 24 1015 50 10000 2.6 60 19:20 24.02.2020
2036 Clouds 25 1015 50 10000 3.1 60 18:55 24.02.2020
2037 Clouds 25 1015 50 10000 3.1 60 18:37 24.02.2020
2038 Clouds 25 1015 50 10000 3.1 60 18:18 24.02.2020
2039 Clouds 25 1015 51 10000 3.1 30 17:40 24.02.2020
2040 Clouds 26 1015 51 10000 3.1 30 17:20 24.02.2020
2041 Clouds 26 1014 34 10000 3.6 20 16:58 24.02.2020
2042 Clouds 27 1014 34 10000 3.6 20 16:39 24.02.2020
2043 Clouds 27 1014 34 10000 3.6 20 16:20 24.02.2020
2044 Clouds 27 1014 34 10000 3.6 20 16:20 24.02.2020
2045 Clouds 28 1014 32 10000 3.6 30 15:58 24.02.2020
2046 Clouds 28 1014 32 10000 3.6 30 15:39 24.02.2020
2047 Clouds 28 1014 32 10000 3.6 30 15:21 24.02.2020
2048 Clouds 29 1013 37 10000 4.6 30 14:57 24.02.2020
2049 Clouds 29 1013 37 10000 4.6 30 14:38 24.02.2020
2050 Clouds 29 1013 37 10000 4.6 30 14:18 24.02.2020
2051 Clouds 30 1014 30 10000 4.1 30 13:56 24.02.2020
2052 Clouds 30 1014 30 10000 4.1 30 13:36 24.02.2020
2053 Clouds 30 1014 30 10000 4.1 30 13:18 24.02.2020
2054 Clouds 31 1014 33 10000 4.1 330 12:42 24.02.2020
2055 Clouds 31 1014 33 10000 4.1 330 12:42 24.02.2020
2056 Clouds 31 1014 33 10000 4.1 330 12:24 24.02.2020
2057 Clouds 31 1015 38 10000 5.1 350 11:56 24.02.2020
2058 Clouds 31 1015 38 10000 5.1 350 11:38 24.02.2020
2059 Clouds 31 1015 38 10000 5.1 350 11:19 24.02.2020
2060 Clouds 31 1015 38 10000 5.1 340 10:41 24.02.2020
2061 Clouds 31 1016 33 10000 1.5 0 10:22 24.02.2020
2062 Clouds 31 1016 33 10000 1.5 0 09:40 24.02.2020
2063 Clouds 31 1016 33 10000 1.5 0 09:19 24.02.2020
2064 Clouds 29 1017 39 10000 1.5 0 08:53 24.02.2020
2065 Clouds 28 1017 39 10000 1.5 0 08:30 24.02.2020
2066 Clouds 26 1017 54 10000 2.1 80 07:56 24.02.2020
2067 Clouds 26 1017 54 10000 2.1 80 07:36 24.02.2020
2068 Clouds 23 1017 61 10000 2.1 90 06:55 24.02.2020
2069 Clouds 24 1017 61 10000 2.1 90 06:28 24.02.2020
2070 Clouds 20 1017 73 7000 2.6 80 05:46 24.02.2020
2071 Clouds 21 1017 73 7000 2.6 80 05:27 24.02.2020
2072 Clouds 20 1015 78 8000 2.1 100 02:58 24.02.2020
2073 Clouds 20 1015 78 8000 2.1 100 02:31 24.02.2020
2074 Clouds 20 1015 78 10000 2.6 70 01:39 24.02.2020
2075 Clouds 21 1015 78 10000 2.1 50 00:50 24.02.2020
2076 Clouds 21 1015 78 10000 2.1 50 00:21 24.02.2020
2077 Clouds 21 1016 73 10000 2.1 70 23:55 23.02.2020
2078 Clouds 21 1016 73 10000 2.1 70 23:36 23.02.2020
2079 Clouds 21 1016 73 10000 2.1 70 23:18 23.02.2020
2080 Clouds 22 1016 73 10000 2.6 60 22:43 23.02.2020
2081 Clouds 22 1016 73 10000 2.6 60 22:22 23.02.2020
2082 Clouds 23 1017 65 10000 1.5 60 21:55 23.02.2020
2083 Clouds 23 1017 65 10000 1.5 60 21:37 23.02.2020
2084 Clouds 23 1017 65 10000 1.5 60 21:18 23.02.2020
2085 Clouds 23 1017 65 10000 1.5 60 21:18 23.02.2020
2086 Clouds 23 1017 65 10000 1.5 90 20:55 23.02.2020
2087 Clouds 23 1017 65 10000 1.5 90 20:37 23.02.2020
2088 Clouds 23 1017 65 10000 1.5 90 20:37 23.02.2020
2089 Clouds 23 1017 65 10000 1.5 90 20:18 23.02.2020
2090 Clouds 24 1017 61 10000 2.6 90 19:42 23.02.2020
2091 Clouds 24 1017 61 10000 2.6 90 19:20 23.02.2020
2092 Clouds 25 1017 61 10000 2.1 60 19:00 23.02.2020
2093 Clouds 25 1017 61 10000 2.1 60 18:41 23.02.2020
2094 Clouds 25 1017 61 10000 2.1 60 18:21 23.02.2020
2095 Clouds 25 1016 61 10000 3.1 40 17:58 23.02.2020
2096 Clouds 25 1016 61 10000 3.1 40 17:58 23.02.2020
2097 Clouds 25 1016 61 10000 3.1 40 17:40 23.02.2020
2098 Clouds 25 1016 61 10000 3.1 40 17:21 23.02.2020
2099 Clouds 26 1016 57 10000 3.6 30 16:56 23.02.2020
2100 Clouds 26 1016 57 10000 3.6 30 16:37 23.02.2020
2101 Clouds 26 1016 57 10000 3.6 30 16:18 23.02.2020
2102 Clouds 26 1016 57 10000 3.6 330 15:54 23.02.2020
2103 Clouds 27 1016 57 10000 3.6 330 15:36 23.02.2020
2104 Clouds 27 1016 57 10000 3.6 330 15:18 23.02.2020
2105 Clouds 27 1015 57 10000 5.1 340 14:41 23.02.2020
2106 Clear 27 1015 57 10000 5.1 340 14:23 23.02.2020
2107 Clear 28 1016 58 10000 5.1 340 13:59 23.02.2020
2108 Clear 28 1016 58 10000 5.1 340 13:41 23.02.2020
2109 Clear 28 1016 58 10000 5.1 340 13:22 23.02.2020
2110 Clear 28 1016 58 10000 5.1 340 13:22 23.02.2020
2111 Clear 28 1016 54 10000 5.7 340 12:59 23.02.2020
2112 Clear 28 1016 54 10000 5.7 340 12:38 23.02.2020
2113 Clear 28 1016 54 10000 5.7 340 12:19 23.02.2020
2114 Clear 28 1017 61 10000 5.7 340 11:38 23.02.2020
2115 Clear 28 1017 61 10000 5.7 340 11:20 23.02.2020
2116 Clear 29 1018 54 10000 5.1 350 10:56 23.02.2020
2117 Clear 29 1018 54 10000 5.1 350 10:38 23.02.2020
2118 Clear 29 1018 54 10000 5.1 350 10:20 23.02.2020
2119 Clear 29 1019 54 10000 2.1 300 09:54 23.02.2020
2120 Clear 28 1019 54 10000 2.1 300 09:36 23.02.2020
2121 Clear 28 1019 54 10000 2.1 300 09:36 23.02.2020
2122 Clear 28 1019 54 10000 2.1 300 09:18 23.02.2020
2123 Clear 27 1019 57 10000 2.1 230 08:42 23.02.2020
2124 Clear 27 1019 57 10000 2.1 230 08:23 23.02.2020
2125 Clear 26 1019 61 10000 3.6 190 07:41 23.02.2020
2126 Clear 26 1019 61 10000 3.6 190 07:18 23.02.2020
2127 Clear 24 1019 65 10000 3.1 180 06:19 23.02.2020
2128 Clear 20 1017 78 8000 3.1 110 04:49 23.02.2020
2129 Clear 20 1017 78 10000 3.1 80 03:50 23.02.2020
2130 Clear 21 1017 73 10000 3.6 90 02:38 23.02.2020
2131 Clear 21 1017 73 10000 3.6 90 01:27 23.02.2020
2132 Clear 22 1017 73 10000 4.1 90 00:55 23.02.2020
2133 Clear 22 1017 73 10000 4.1 90 00:36 23.02.2020
2134 Clear 22 1017 73 10000 4.1 90 00:18 23.02.2020
2135 Clear 21 1017 73 10000 3.1 90 23:41 22.02.2020
2136 Clear 22 1017 73 10000 3.1 90 23:19 22.02.2020
2137 Clear 23 1018 69 10000 3.6 90 22:44 22.02.2020
2138 Clear 23 1018 69 10000 3.6 90 22:19 22.02.2020
2139 Clear 23 1018 69 10000 3.1 80 21:43 22.02.2020
2140 Clear 23 1018 69 10000 3.1 80 21:24 22.02.2020
2141 Clear 23 1018 65 10000 3.1 80 20:57 22.02.2020
2142 Clear 23 1018 65 10000 3.1 80 20:38 22.02.2020
2143 Clear 23 1018 65 10000 3.1 80 20:20 22.02.2020
2144 Clear 23 1018 65 10000 3.6 60 19:42 22.02.2020
2145 Clear 23 1018 65 10000 3.6 60 19:22 22.02.2020
2146 Clear 23 1018 65 10000 3.6 50 18:54 22.02.2020
2147 Clear 23 1018 65 10000 3.6 50 18:54 22.02.2020
2148 Clear 24 1018 65 10000 3.6 50 18:36 22.02.2020
2149 Clear 24 1018 65 10000 3.6 50 18:18 22.02.2020
2150 Clear 24 1018 69 10000 3.1 30 17:43 22.02.2020
2151 Clear 24 1018 69 10000 3.1 30 17:25 22.02.2020
2152 Clear 25 1017 69 8000 3.1 30 16:58 22.02.2020
2153 Clear 25 1017 69 8000 3.1 30 16:39 22.02.2020
2154 Clear 25 1017 69 8000 3.1 30 16:20 22.02.2020
2155 Clear 25 1017 69 8000 3.1 30 16:20 22.02.2020
2156 Clear 25 1017 73 6000 4.1 340 15:45 22.02.2020
2157 Clear 25 1017 73 6000 4.1 340 15:45 22.02.2020
2158 Clear 25 1017 73 6000 4.1 340 15:27 22.02.2020
2159 Clear 26 1016 73 7000 5.1 330 14:57 22.02.2020
2160 Clear 26 1016 73 7000 5.1 330 14:39 22.02.2020
2161 Clear 26 1016 73 7000 5.1 330 14:19 22.02.2020
2162 Clear 27 1016 65 7000 7.2 10 13:41 22.02.2020
2163 Clouds 27 1016 65 7000 7.2 10 13:20 22.02.2020
2164 Clouds 29 1016 45 10000 1.5 0 12:48 22.02.2020
2165 Clouds 29 1016 45 10000 1.5 0 12:24 22.02.2020
2166 Clouds 29 1017 48 10000 3.1 0 11:56 22.02.2020
2167 Clouds 28 1017 48 10000 3.1 0 11:37 22.02.2020
2168 Clouds 28 1017 48 10000 3.1 0 11:18 22.02.2020
2169 Clouds 28 1018 54 10000 3.6 190 10:41 22.02.2020
2170 Clouds 28 1018 54 10000 3.6 190 10:20 22.02.2020
2171 Clouds 26 1019 61 10000 4.6 200 09:59 22.02.2020
2172 Clouds 26 1019 61 10000 4.6 200 09:39 22.02.2020
2173 Clouds 26 1019 61 10000 4.6 200 09:21 22.02.2020
2174 Clouds 26 1019 61 10000 4.6 200 09:21 22.02.2020
2175 Clouds 26 1020 57 10000 5.7 190 08:50 22.02.2020
2176 Clouds 25 1020 57 10000 5.7 190 08:28 22.02.2020
2177 Clouds 25 1020 57 10000 6.2 170 07:50 22.02.2020
2178 Clouds 24 1020 57 10000 6.2 170 07:20 22.02.2020
2179 Clouds 23 1019 64 10000 5.1 160 06:48 22.02.2020
2180 Clouds 22 1019 64 10000 5.1 160 06:29 22.02.2020
2181 Clouds 20 1017 73 10000 3.6 110 04:33 22.02.2020
2182 Clouds 20 1017 73 10000 2.1 90 03:24 22.02.2020
2183 Clouds 20 1016 78 10000 2.6 90 02:31 22.02.2020
2184 Rain 20 1015 73 7000 4.1 30 01:46 22.02.2020
2185 Rain 20 1015 73 7000 4.1 30 01:25 22.02.2020
2186 Clouds 20 1016 88 6000 2.1 350 00:45 22.02.2020
2187 Clouds 20 1016 88 6000 2.1 350 00:26 22.02.2020
2188 Clouds 20 1016 88 7000 2.1 330 23:47 21.02.2020
2189 Clouds 20 1016 88 7000 2.1 330 23:22 21.02.2020
2190 Clear 21 1016 88 7000 2.1 360 22:55 21.02.2020
2191 Clear 21 1016 88 7000 2.1 360 22:37 21.02.2020
2192 Clear 21 1016 88 7000 2.1 360 22:18 21.02.2020
2193 Clear 21 1016 83 7000 2.1 350 21:42 21.02.2020
2194 Clear 21 1016 83 7000 2.1 350 21:42 21.02.2020
2195 Clear 21 1016 83 7000 2.1 350 21:23 21.02.2020
2196 Clear 21 1016 83 7000 2.1 350 21:23 21.02.2020
2197 Clear 21 1016 83 7000 2.1 350 21:23 21.02.2020
2198 Clear 22 1016 78 8000 1.5 360 20:49 21.02.2020
2199 Clear 22 1016 78 8000 1.5 360 20:29 21.02.2020
2200 Clear 22 1016 78 9000 1.5 360 19:57 21.02.2020
2201 Clear 22 1016 78 9000 1.5 360 19:37 21.02.2020
2202 Clear 22 1016 78 9000 1.5 360 19:18 21.02.2020
2203 Clouds 22 1016 83 10000 1.5 50 18:40 21.02.2020
2204 Clouds 22 1016 83 10000 1.5 50 18:22 21.02.2020
2205 Clouds 22 1015 78 10000 2.1 40 17:42 21.02.2020
2206 Clouds 22 1015 78 10000 2.1 40 17:24 21.02.2020
2207 Clear 23 1015 78 10000 4.1 350 16:58 21.02.2020
2208 Clear 23 1015 78 10000 4.1 350 16:40 21.02.2020
2209 Clear 23 1015 78 10000 4.1 350 16:21 21.02.2020
2210 Clear 23 1015 78 10000 4.1 350 16:21 21.02.2020
2211 Clear 24 1014 73 10000 5.7 330 15:56 21.02.2020
2212 Clear 24 1014 73 10000 5.7 330 15:38 21.02.2020
2213 Clear 24 1014 73 10000 5.7 330 15:18 21.02.2020
2214 Clear 25 1013 69 10000 5.7 320 14:42 21.02.2020
2215 Clear 25 1013 69 10000 5.7 320 14:19 21.02.2020
2216 Clear 26 1013 65 10000 5.1 320 13:44 21.02.2020
2217 Clear 26 1013 65 10000 5.1 320 13:24 21.02.2020
2218 Clear 27 1013 57 10000 5.7 320 12:55 21.02.2020
2219 Clear 27 1013 57 10000 5.7 320 12:37 21.02.2020
2220 Clear 27 1013 57 10000 5.7 320 12:18 21.02.2020
2221 Clear 28 1013 51 10000 3.6 330 11:42 21.02.2020
2222 Clear 28 1013 51 10000 3.6 330 11:22 21.02.2020
2223 Clear 28 1014 47 10000 2.6 310 10:57 21.02.2020
2224 Clear 28 1014 47 10000 2.6 310 10:39 21.02.2020
2225 Clear 28 1014 47 10000 2.6 310 10:19 21.02.2020
2226 Clear 27 1015 34 10000 2.1 200 09:57 21.02.2020
2227 Clear 27 1015 34 10000 2.1 200 09:57 21.02.2020
2228 Clear 26 1015 34 10000 2.1 200 09:38 21.02.2020
2229 Clear 26 1015 34 10000 2.1 200 09:19 21.02.2020
2230 Clear 26 1015 36 10000 3.1 180 08:43 21.02.2020
2231 Clear 25 1015 36 10000 3.1 180 08:22 21.02.2020
2232 Clouds 24 1015 50 10000 2.6 190 07:59 21.02.2020
2233 Clouds 24 1015 50 10000 2.6 190 07:40 21.02.2020
2234 Clouds 24 1015 50 10000 2.6 190 07:19 21.02.2020
2235 Clouds 23 1015 56 10000 2.6 230 06:52 21.02.2020
2236 Clouds 22 1015 56 10000 2.6 230 06:30 21.02.2020
2237 Clouds 20 1014 53 10000 2.1 240 05:43 21.02.2020
2238 Clouds 20 1013 53 10000 2.6 170 04:38 21.02.2020
2239 Clouds 20 1013 53 10000 2.6 170 04:18 21.02.2020
2240 Clouds 21 1012 53 10000 1 0 03:39 21.02.2020
2241 Clouds 21 1011 47 10000 2.1 330 02:29 21.02.2020
2242 Clouds 20 1011 46 10000 1.5 160 01:24 21.02.2020
2243 Clouds 20 1011 49 10000 1.5 150 00:45 21.02.2020
2244 Clouds 20 1011 49 10000 1.5 150 00:23 21.02.2020
2245 Clouds 20 1011 47 10000 1 0 23:46 20.02.2020
2246 Clouds 20 1011 47 10000 1 0 23:46 20.02.2020
2247 Clouds 20 1011 47 10000 1 0 23:46 20.02.2020
2248 Clouds 20 1011 47 10000 1 0 23:46 20.02.2020
2249 Clouds 21 1011 47 10000 1 0 23:25 20.02.2020
2250 Clouds 21 1011 47 10000 2.1 130 22:57 20.02.2020
2251 Clouds 21 1011 47 10000 2.1 130 22:38 20.02.2020
2252 Clouds 21 1011 47 10000 2.1 130 22:20 20.02.2020
2253 Clouds 22 1012 44 10000 3.1 110 21:56 20.02.2020
2254 Clouds 22 1012 44 10000 3.1 110 21:37 20.02.2020
2255 Clouds 22 1012 44 10000 3.1 110 21:37 20.02.2020
2256 Clouds 22 1012 44 10000 3.1 110 21:37 20.02.2020
2257 Clouds 22 1012 44 10000 3.1 110 21:19 20.02.2020
2258 Clouds 22 1012 44 10000 3.1 110 21:19 20.02.2020
2259 Clouds 22 1012 53 10000 2.6 100 20:54 20.02.2020
2260 Clouds 22 1012 53 10000 2.6 100 20:36 20.02.2020
2261 Clouds 22 1012 53 10000 2.6 100 20:18 20.02.2020
2262 Clouds 22 1012 53 10000 2.1 100 19:57 20.02.2020
2263 Clouds 22 1012 53 10000 2.1 100 19:39 20.02.2020
2264 Clouds 22 1012 53 10000 2.1 100 19:20 20.02.2020
2265 Clouds 24 1012 44 10000 2.1 70 18:39 20.02.2020
2266 Clouds 24 1012 44 10000 2.1 70 18:20 20.02.2020
2267 Clouds 24 1011 47 10000 1 0 17:42 20.02.2020
2268 Clouds 24 1011 47 10000 1 0 17:23 20.02.2020
2269 Clouds 24 1011 53 10000 4.1 340 17:22 20.02.2020
2270 Clouds 25 1011 53 10000 4.1 340 16:59 20.02.2020
2271 Clouds 25 1011 53 10000 4.1 340 16:40 20.02.2020
2272 Clouds 25 1011 53 10000 4.1 340 16:21 20.02.2020
2273 Clouds 26 1011 47 10000 7.2 320 15:59 20.02.2020
2274 Clouds 26 1011 47 10000 7.2 320 15:41 20.02.2020
2275 Clouds 26 1011 47 10000 7.2 320 15:20 20.02.2020
2276 Clouds 29 1010 32 10000 4.6 0 14:54 20.02.2020
2277 Clouds 29 1010 32 10000 4.6 0 14:36 20.02.2020
2278 Clear 29 1010 32 10000 4.6 0 14:18 20.02.2020
2279 Clear 29 1010 32 10000 4.6 0 14:18 20.02.2020
2280 Clear 31 1010 25 10000 4.6 300 13:44 20.02.2020
2281 Clear 31 1010 25 10000 4.6 300 13:19 20.02.2020
2282 Clear 31 1010 23 10000 5.1 280 12:56 20.02.2020
2283 Clear 31 1010 23 10000 5.1 280 12:37 20.02.2020
2284 Clear 31 1011 22 10000 4.6 290 12:18 20.02.2020
2285 Clear 31 1011 22 10000 4.6 290 11:42 20.02.2020
2286 Clear 31 1011 22 10000 4.6 290 11:22 20.02.2020
2287 Clear 31 1012 20 10000 4.1 240 10:57 20.02.2020
2288 Clear 31 1012 20 10000 4.1 240 10:39 20.02.2020
2289 Clear 31 1012 20 10000 4.1 240 10:21 20.02.2020
2290 Clear 30 1012 22 10000 4.1 210 09:46 20.02.2020
2291 Clear 30 1012 22 10000 4.1 210 09:25 20.02.2020
2292 Clear 29 1013 25 10000 4.6 190 08:59 20.02.2020
2293 Clear 28 1013 25 10000 4.6 190 08:38 20.02.2020
2294 Clouds 28 1013 25 10000 4.6 190 08:20 20.02.2020
2295 Clouds 25 1013 29 10000 3.6 190 07:45 20.02.2020
2296 Clouds 25 1013 29 10000 3.6 190 07:23 20.02.2020
2297 Clouds 23 1013 31 10000 3.1 200 06:53 20.02.2020
2298 Clouds 23 1013 31 10000 3.1 200 06:26 20.02.2020
2299 Clouds 20 1012 40 10000 1 0 05:46 20.02.2020
2300 Clouds 19 1011 37 10000 2.1 140 04:54 20.02.2020
2301 Clouds 18 1011 37 10000 2.1 140 04:19 20.02.2020
2302 Clouds 17 1011 56 10000 2.1 180 03:29 20.02.2020
2303 Clouds 18 1011 56 10000 2.6 110 02:25 20.02.2020
2304 Clouds 19 1011 68 10000 1.5 140 00:59 20.02.2020
2305 Clouds 19 1011 68 10000 1.5 140 00:32 20.02.2020
2306 Clouds 19 1012 78 10000 2.6 340 23:49 19.02.2020
2307 Clouds 19 1012 78 10000 2.6 340 23:22 19.02.2020
2308 Clouds 19 1012 69 10000 2.1 340 22:54 19.02.2020
2309 Clouds 19 1012 69 10000 2.1 340 22:36 19.02.2020
2310 Clouds 19 1012 69 10000 2.1 340 22:18 19.02.2020
2311 Clouds 20 1012 44 10000 2.1 230 21:41 19.02.2020
2312 Clouds 21 1012 44 10000 2.1 230 21:19 19.02.2020
2313 Clouds 22 1012 41 10000 1 200 20:58 19.02.2020
2314 Clouds 22 1012 41 10000 1 200 20:58 19.02.2020
2315 Clouds 22 1012 41 10000 1 200 20:40 19.02.2020
2316 Clouds 22 1012 41 10000 1 200 20:20 19.02.2020
2317 Clouds 22 1012 41 10000 2.1 120 19:59 19.02.2020
2318 Clouds 22 1012 41 10000 2.1 120 19:39 19.02.2020
2319 Clouds 22 1012 41 10000 2.1 120 19:21 19.02.2020
2320 Clouds 23 1012 38 10000 2.1 70 18:59 19.02.2020
2321 Clouds 22 1012 38 10000 2.1 70 18:40 19.02.2020
2322 Clouds 23 1012 38 10000 2.1 70 18:22 19.02.2020
2323 Clouds 24 1012 34 10000 2.1 30 17:59 19.02.2020
2324 Clouds 24 1012 34 10000 2.1 30 17:41 19.02.2020
2325 Clouds 24 1012 34 10000 2.1 30 17:19 19.02.2020
2326 Clouds 25 1012 44 10000 2.1 30 16:43 19.02.2020
2327 Clouds 25 1012 44 10000 2.1 30 16:19 19.02.2020
2328 Clouds 26 1012 36 10000 3.1 320 15:57 19.02.2020
2329 Clouds 26 1012 36 10000 3.1 320 15:57 19.02.2020
2330 Clouds 26 1012 36 10000 3.1 320 15:38 19.02.2020
2331 Clouds 26 1012 36 10000 3.1 320 15:19 19.02.2020
2332 Clouds 27 1012 42 10000 4.1 330 14:41 19.02.2020
2333 Clouds 27 1012 42 10000 4.1 330 14:23 19.02.2020
2334 Clear 28 1012 45 10000 4.6 340 13:55 19.02.2020
2335 Clear 28 1012 45 10000 4.6 340 13:37 19.02.2020
2336 Clear 28 1012 45 10000 4.6 340 13:18 19.02.2020
2337 Clear 29 1012 42 10000 5.1 340 12:39 19.02.2020
2338 Clear 29 1013 32 10000 3.6 330 12:19 19.02.2020
2339 Clear 29 1013 32 10000 3.6 330 11:55 19.02.2020
2340 Clear 29 1013 32 10000 3.6 330 11:37 19.02.2020
2341 Clear 29 1013 32 10000 3.6 330 11:18 19.02.2020
2342 Clear 30 1014 23 10000 1.5 0 10:55 19.02.2020
2343 Clear 30 1014 23 10000 1.5 0 10:36 19.02.2020
2344 Clear 28 1016 21 10000 1 0 10:18 19.02.2020
2345 Clear 28 1016 21 10000 1 0 09:41 19.02.2020
2346 Clear 28 1016 21 10000 1 0 09:20 19.02.2020
2347 Clear 26 1017 34 8000 1.5 140 08:48 19.02.2020
2348 Clear 25 1017 34 8000 1.5 140 08:24 19.02.2020
2349 Clear 25 1017 34 8000 1.5 140 08:24 19.02.2020
2350 Clear 25 1017 34 8000 1.5 140 08:24 19.02.2020
2351 Clear 23 1017 41 8000 2.1 50 07:59 19.02.2020
2352 Clear 23 1017 41 8000 2.1 50 07:39 19.02.2020
2353 Clear 23 1017 41 8000 2.1 50 07:20 19.02.2020
2354 Clear 20 1017 46 10000 2.6 90 06:45 19.02.2020
2355 Clear 16 1016 64 8000 2.1 110 05:26 19.02.2020
2356 Clear 16 1015 68 10000 1 0 03:53 19.02.2020
2357 Clear 17 1015 68 10000 1 0 02:36 19.02.2020
2358 Clouds 17 1015 68 10000 2.1 0 01:44 19.02.2020
2359 Clouds 17 1015 68 10000 2.1 0 01:23 19.02.2020
2360 Clouds 17 1015 60 10000 1.5 100 00:41 19.02.2020
2361 Clouds 17 1015 60 10000 1.5 100 00:41 19.02.2020
2362 Clouds 17 1015 60 10000 1.5 100 00:19 19.02.2020
2363 Clouds 18 1016 56 10000 1.5 100 23:40 18.02.2020
2364 Clouds 18 1016 56 10000 1.5 100 23:20 18.02.2020
2365 Clouds 18 1016 56 10000 3.1 110 22:55 18.02.2020
2366 Clouds 18 1016 56 10000 3.1 110 22:37 18.02.2020
2367 Clouds 18 1016 56 10000 3.1 110 22:19 18.02.2020
2368 Clouds 19 1016 53 10000 2.1 100 21:54 18.02.2020
2369 Clouds 19 1016 53 10000 2.1 100 21:36 18.02.2020
2370 Clouds 19 1016 53 10000 2.1 100 21:18 18.02.2020
2371 Clouds 20 1017 46 10000 1.5 80 20:40 18.02.2020
2372 Clouds 20 1017 46 10000 1.5 80 20:22 18.02.2020
2373 Clouds 20 1017 43 10000 1.5 40 19:59 18.02.2020
2374 Clouds 20 1017 43 10000 1.5 40 19:41 18.02.2020
2375 Clouds 20 1017 43 10000 1.5 40 19:19 18.02.2020
2376 Clouds 21 1017 41 10000 2.1 50 18:55 18.02.2020
2377 Clouds 22 1017 41 10000 2.1 50 18:37 18.02.2020
2378 Clouds 21 1017 41 10000 2.1 50 18:18 18.02.2020
2379 Clouds 22 1017 38 10000 2.6 40 17:40 18.02.2020
2380 Clouds 22 1017 38 10000 2.6 40 17:19 18.02.2020
2381 Clouds 24 1016 36 10000 2.6 30 16:40 18.02.2020
2382 Clouds 24 1016 36 10000 2.6 30 16:21 18.02.2020
2383 Clouds 24 1016 33 10000 3.6 340 15:55 18.02.2020
2384 Clouds 25 1016 33 10000 3.6 340 15:36 18.02.2020
2385 Clouds 25 1016 33 10000 3.6 340 15:18 18.02.2020
2386 Clouds 26 1016 39 10000 4.1 340 14:55 18.02.2020
2387 Clouds 26 1016 39 10000 4.1 340 14:36 18.02.2020
2388 Clouds 26 1016 39 10000 4.1 340 14:18 18.02.2020
2389 Clouds 26 1016 44 8000 5.1 340 13:41 18.02.2020
2390 Clouds 27 1016 44 8000 5.1 340 13:21 18.02.2020
2391 Clouds 27 1016 44 8000 5.7 340 12:49 18.02.2020
2392 Clouds 27 1016 44 8000 5.7 340 12:30 18.02.2020
2393 Clouds 28 1017 34 8000 4.6 340 11:59 18.02.2020
2394 Clouds 28 1017 34 8000 4.6 340 11:59 18.02.2020
2395 Clouds 28 1017 34 8000 4.6 340 11:41 18.02.2020
2396 Clouds 28 1017 34 8000 4.6 340 11:22 18.02.2020
2397 Clouds 28 1018 32 8000 2.6 280 10:45 18.02.2020
2398 Clouds 28 1018 32 8000 2.6 280 10:24 18.02.2020
2399 Clouds 26 1019 39 7000 2.1 240 09:57 18.02.2020
2400 Clouds 26 1019 39 7000 2.1 240 09:39 18.02.2020
2401 Clouds 26 1019 39 7000 2.1 240 09:39 18.02.2020
2402 Clouds 26 1019 39 7000 2.1 240 09:39 18.02.2020
2403 Clouds 26 1019 39 7000 2.1 240 09:20 18.02.2020
2404 Clouds 25 1020 41 8000 3.1 180 08:58 18.02.2020
2405 Clouds 25 1020 41 8000 3.1 180 08:39 18.02.2020
2406 Clouds 25 1020 41 8000 3.1 180 08:19 18.02.2020
2407 Clouds 23 1019 46 10000 3.1 190 07:51 18.02.2020
2408 Clouds 22 1019 46 10000 3.1 190 07:26 18.02.2020
2409 Clouds 20 1019 46 10000 3.6 200 06:55 18.02.2020
2410 Clouds 20 1019 46 10000 3.6 200 06:29 18.02.2020
2411 Clouds 18 1018 34 10000 2.1 0 05:49 18.02.2020
2412 Clouds 17 1018 34 10000 2.1 0 05:22 18.02.2020
2413 Clouds 15 1016 39 10000 1.5 80 03:54 18.02.2020
2414 Clouds 16 1016 39 10000 2.6 90 02:58 18.02.2020
2415 Clouds 17 1016 24 10000 2.1 100 01:27 18.02.2020
2416 Clouds 18 1016 22 10000 4.1 90 00:43 18.02.2020
2417 Clouds 18 1016 22 10000 4.1 90 00:18 18.02.2020
2418 Clouds 18 1017 22 10000 1.5 70 23:40 17.02.2020
2419 Clouds 18 1017 22 10000 1.5 70 23:21 17.02.2020
2420 Clouds 19 1017 20 10000 2.6 110 22:58 17.02.2020
2421 Clouds 19 1017 20 10000 2.6 110 22:58 17.02.2020
2422 Clouds 19 1017 20 10000 2.6 110 22:40 17.02.2020
2423 Clouds 19 1017 20 10000 2.6 110 22:19 17.02.2020
2424 Clouds 20 1017 20 10000 1.5 70 21:39 17.02.2020
2425 Clouds 20 1017 20 10000 1.5 70 21:19 17.02.2020
2426 Clouds 21 1017 17 10000 2.1 70 20:57 17.02.2020
2427 Clouds 21 1017 17 10000 2.1 70 20:38 17.02.2020
2428 Clouds 21 1017 17 10000 2.1 70 20:19 17.02.2020
2429 Clouds 22 1018 16 10000 3.6 70 19:43 17.02.2020
2430 Clouds 22 1018 16 10000 3.6 70 19:22 17.02.2020
2431 Clouds 23 1018 48 10000 3.6 70 18:57 17.02.2020
2432 Clouds 23 1018 48 10000 3.6 70 18:36 17.02.2020
2433 Clouds 23 1018 48 10000 3.6 70 18:18 17.02.2020
2434 Clouds 23 1017 60 10000 4.6 40 17:38 17.02.2020
2435 Clouds 23 1017 60 10000 4.6 40 17:20 17.02.2020
2436 Clouds 24 1017 36 10000 3.1 20 16:59 17.02.2020
2437 Clouds 24 1017 36 10000 3.1 20 16:41 17.02.2020
2438 Clouds 25 1017 36 10000 3.1 20 16:22 17.02.2020
2439 Clouds 26 1016 28 8000 4.6 360 15:48 17.02.2020
2440 Clouds 26 1016 28 8000 4.6 360 15:29 17.02.2020
2441 Clouds 28 1015 25 8000 4.1 350 15:00 17.02.2020
2442 Clouds 28 1015 25 8000 4.1 350 14:41 17.02.2020
2443 Clouds 28 1015 25 8000 4.1 350 14:22 17.02.2020
2444 Clouds 28 1015 26 8000 4.6 360 13:57 17.02.2020
2445 Clouds 28 1015 26 8000 4.6 360 13:57 17.02.2020
2446 Clouds 28 1015 26 8000 4.6 360 13:38 17.02.2020
2447 Clouds 28 1015 26 8000 4.6 360 13:18 17.02.2020
2448 Clouds 30 1015 35 8000 5.1 340 12:43 17.02.2020
2449 Clouds 30 1015 35 8000 5.1 340 12:24 17.02.2020
2450 Clouds 31 1016 33 8000 5.1 310 11:58 17.02.2020
2451 Clouds 31 1016 33 8000 5.1 310 11:39 17.02.2020
2452 Clouds 31 1016 33 8000 5.1 310 11:39 17.02.2020
2453 Clouds 31 1016 33 8000 5.1 310 11:20 17.02.2020
2454 Clouds 31 1017 12 10000 3.1 90 10:54 17.02.2020
2455 Clouds 30 1017 12 10000 3.1 90 10:36 17.02.2020
2456 Clouds 30 1017 12 10000 3.1 90 10:18 17.02.2020
2457 Clouds 29 1018 32 10000 4.1 120 09:41 17.02.2020
2458 Clouds 29 1018 32 10000 4.1 120 09:21 17.02.2020
2459 Clouds 27 1019 17 8000 3.6 100 08:57 17.02.2020
2460 Clouds 27 1019 17 8000 3.6 100 08:39 17.02.2020
2461 Clouds 27 1019 17 8000 3.6 100 08:19 17.02.2020
2462 Clouds 23 1019 27 6000 3.6 90 07:43 17.02.2020
2463 Clouds 23 1019 27 6000 3.6 90 07:23 17.02.2020
2464 Clouds 19 1019 37 6000 2.6 80 06:51 17.02.2020
2465 Clouds 19 1019 37 6000 2.6 80 06:32 17.02.2020
2466 Clouds 16 1019 52 6000 2.1 90 05:41 17.02.2020
2467 Clouds 16 1018 48 7000 1.5 350 04:59 17.02.2020
2468 Clouds 16 1017 48 8000 1 0 03:20 17.02.2020
2469 Clouds 17 1016 42 8000 4.1 120 01:47 17.02.2020
2470 Clouds 17 1016 42 8000 4.1 120 01:47 17.02.2020
2471 Clouds 18 1017 42 7000 2.1 160 00:42 17.02.2020
2472 Clouds 18 1017 42 7000 2.1 160 00:19 17.02.2020
2473 Clouds 18 1017 42 7000 1.5 80 23:53 16.02.2020
2474 Clouds 18 1017 42 7000 1.5 80 23:30 16.02.2020
2475 Clouds 18 1017 37 7000 1.5 50 22:57 16.02.2020
2476 Clouds 18 1017 37 7000 1.5 50 22:39 16.02.2020
2477 Clouds 18 1017 37 7000 1.5 50 22:20 16.02.2020
2478 Clouds 19 1017 35 8000 1.5 90 21:57 16.02.2020
2479 Clouds 20 1017 35 8000 1.5 90 21:38 16.02.2020
2480 Clouds 20 1017 35 8000 1.5 90 21:38 16.02.2020
2481 Clouds 20 1017 35 8000 1.5 90 21:20 16.02.2020
2482 Clouds 20 1017 31 8000 3.6 110 20:57 16.02.2020
2483 Clouds 20 1017 31 8000 3.6 110 20:38 16.02.2020
2484 Clouds 20 1017 31 8000 3.6 110 20:20 16.02.2020
2485 Clouds 21 1017 31 7000 2.6 90 19:57 16.02.2020
2486 Clouds 21 1017 31 7000 2.6 90 19:37 16.02.2020
2487 Clouds 21 1017 31 7000 2.6 90 19:18 16.02.2020
2488 Clouds 22 1017 46 8000 3.1 90 18:42 16.02.2020
2489 Clouds 22 1017 46 8000 3.1 90 18:23 16.02.2020
2490 Clouds 22 1017 50 7000 3.6 50 17:47 16.02.2020
2491 Clear 22 1017 50 7000 3.6 50 17:21 16.02.2020
2492 Clear 23 1017 47 8000 2.6 10 16:59 16.02.2020
2493 Clear 24 1017 47 8000 2.6 10 16:39 16.02.2020
2494 Clear 24 1017 47 8000 2.6 10 16:21 16.02.2020
2495 Clear 24 1017 47 8000 2.6 10 16:21 16.02.2020
2496 Clear 25 1016 36 8000 3.6 10 15:59 16.02.2020
2497 Clear 25 1016 36 8000 3.6 10 15:39 16.02.2020
2498 Clear 25 1016 36 8000 3.6 10 15:21 16.02.2020
2499 Clear 25 1016 36 8000 3.6 10 15:21 16.02.2020
2500 Clear 26 1016 39 7000 4.1 360 14:41 16.02.2020
2501 Clear 26 1016 39 7000 4.1 360 14:23 16.02.2020
2502 Clear 26 1016 44 7000 4.1 360 13:48 16.02.2020
2503 Clouds 26 1016 44 7000 4.1 360 13:25 16.02.2020
2504 Clouds 26 1016 47 8000 6.2 320 12:58 16.02.2020
2505 Clouds 26 1016 47 8000 6.2 320 12:39 16.02.2020
2506 Clouds 26 1016 47 8000 6.2 320 12:19 16.02.2020
2507 Clouds 26 1016 50 8000 5.1 330 11:40 16.02.2020
2508 Clear 26 1016 50 8000 5.1 330 11:19 16.02.2020
2509 Clear 27 1018 30 10000 2.1 0 10:58 16.02.2020
2510 Clear 27 1018 30 10000 2.1 0 10:39 16.02.2020
2511 Clear 27 1018 30 10000 2.1 0 10:39 16.02.2020
2512 Clear 27 1018 30 10000 2.1 0 10:21 16.02.2020
2513 Clear 27 1018 30 10000 2.1 0 10:21 16.02.2020
2514 Clear 25 1018 36 10000 3.1 90 09:58 16.02.2020
2515 Clear 24 1018 36 10000 3.1 90 09:37 16.02.2020
2516 Clear 24 1018 36 10000 3.1 90 09:19 16.02.2020
2517 Clear 22 1019 50 10000 3.6 80 08:49 16.02.2020
2518 Clear 21 1019 50 10000 3.6 80 08:22 16.02.2020
2519 Haze 18 1020 73 5000 2.1 70 07:56 16.02.2020
2520 Haze 18 1020 73 5000 2.1 70 07:38 16.02.2020
2521 Clear 16 1020 77 6000 2.1 130 06:36 16.02.2020
2522 Haze 14 1019 82 5000 1.5 120 05:37 16.02.2020
2523 Fog 14 1019 100 2000 2.1 120 04:30 16.02.2020
2524 Clear 14 1018 88 8000 2.1 110 02:37 16.02.2020
2525 Clear 15 1018 88 8000 2.6 110 01:57 16.02.2020
2526 Clear 15 1018 88 8000 2.6 110 01:37 16.02.2020
2527 Clear 15 1018 88 8000 2.6 110 01:18 16.02.2020
2528 Clear 16 1018 82 10000 2.1 100 00:40 16.02.2020
2529 Clear 16 1018 82 10000 2.1 100 00:19 16.02.2020
2530 Clear 16 1018 82 10000 1.5 100 23:42 15.02.2020
2531 Clear 16 1018 82 10000 1.5 100 23:23 15.02.2020
2532 Clear 17 1018 77 10000 2.1 360 22:56 15.02.2020
2533 Clear 17 1018 77 10000 2.1 360 22:38 15.02.2020
2534 Clear 17 1018 77 10000 2.1 360 22:18 15.02.2020
2535 Clear 18 1019 77 10000 1.5 360 21:43 15.02.2020
2536 Clear 18 1019 77 10000 1.5 360 21:23 15.02.2020
2537 Clear 17 1019 77 10000 3.1 360 20:55 15.02.2020
2538 Clear 18 1019 77 10000 3.1 360 20:36 15.02.2020
2539 Clear 18 1019 77 10000 3.1 360 20:18 15.02.2020
2540 Clear 18 1019 72 10000 1.5 350 19:40 15.02.2020
2541 Clear 19 1019 72 10000 1.5 350 19:21 15.02.2020
2542 Clear 19 1019 73 10000 2.1 330 18:40 15.02.2020
2543 Clear 19 1019 73 10000 2.1 330 18:20 15.02.2020
2544 Clear 20 1018 73 10000 2.6 340 17:55 15.02.2020
2545 Clear 20 1018 73 10000 2.6 340 17:37 15.02.2020
2546 Clear 20 1018 73 10000 2.6 340 17:18 15.02.2020
2547 Clear 20 1018 73 10000 3.6 340 16:40 15.02.2020
2548 Clear 21 1018 73 10000 3.6 340 16:20 15.02.2020
2549 Clouds 21 1018 64 10000 3.6 330 15:49 15.02.2020
2550 Clouds 21 1018 64 10000 3.6 330 15:31 15.02.2020
2551 Clouds 22 1017 64 10000 4.6 320 14:57 15.02.2020
2552 Clouds 22 1017 64 10000 4.6 320 14:38 15.02.2020
2553 Clouds 22 1017 64 10000 4.6 320 14:18 15.02.2020
2554 Clouds 22 1017 56 10000 4.1 330 13:41 15.02.2020
2555 Clouds 22 1017 56 10000 4.1 330 13:22 15.02.2020
2556 Clouds 22 1018 60 10000 3.6 290 12:56 15.02.2020
2557 Clouds 22 1018 60 10000 3.6 290 12:38 15.02.2020
2558 Clouds 22 1018 60 10000 3.6 290 12:19 15.02.2020
2559 Clouds 23 1018 60 10000 5.1 300 11:45 15.02.2020
2560 Clouds 23 1018 60 10000 5.1 300 11:25 15.02.2020
2561 Clouds 23 1019 56 10000 4.6 310 10:47 15.02.2020
2562 Clouds 23 1019 56 10000 4.6 310 10:29 15.02.2020
2563 Clear 22 1019 56 10000 1.5 0 09:55 15.02.2020
2564 Clear 22 1019 56 10000 1.5 0 09:36 15.02.2020
2565 Clear 22 1019 56 10000 1.5 0 09:18 15.02.2020
2566 Clear 20 1020 64 10000 2.1 0 08:41 15.02.2020
2567 Clear 20 1020 64 10000 2.1 0 08:22 15.02.2020
2568 Clear 18 1020 72 10000 3.1 210 07:44 15.02.2020
2569 Clear 18 1020 72 10000 3.1 210 07:25 15.02.2020
2570 Clear 18 1020 72 10000 3.1 210 07:25 15.02.2020
2571 Clear 16 1020 77 10000 3.1 200 06:40 15.02.2020
2572 Clear 16 1020 77 10000 3.1 200 06:21 15.02.2020
2573 Clear 13 1020 82 10000 3.1 190 05:30 15.02.2020
2574 Clear 13 1019 76 10000 1.5 160 04:44 15.02.2020
2575 Clear 12 1018 82 10000 2.1 160 03:21 15.02.2020
2576 Clear 13 1018 82 10000 2.1 200 02:41 15.02.2020
2577 Clear 13 1018 82 10000 2.1 200 02:19 15.02.2020
2578 Clear 14 1018 72 10000 2.6 170 01:38 15.02.2020
2579 Clear 15 1018 72 10000 2.6 190 00:36 15.02.2020
2580 Clear 15 1018 72 10000 2.6 190 00:18 15.02.2020
2581 Clear 15 1019 72 10000 2.6 190 23:39 14.02.2020
2582 Clear 15 1019 72 10000 2.6 190 23:18 14.02.2020
2583 Clear 16 1019 68 10000 2.1 210 22:43 14.02.2020
2584 Clear 17 1019 68 10000 2.1 210 22:22 14.02.2020
2585 Clear 17 1019 63 10000 2.1 0 21:50 14.02.2020
2586 Clear 17 1019 63 10000 2.1 0 21:31 14.02.2020
2587 Clear 17 1020 63 10000 2.1 270 20:58 14.02.2020
2588 Clear 17 1020 63 10000 2.1 270 20:38 14.02.2020
2589 Clear 17 1020 63 10000 2.1 270 20:38 14.02.2020
2590 Clear 17 1020 63 10000 2.1 270 20:19 14.02.2020
2591 Clear 18 1020 60 10000 4.6 300 19:42 14.02.2020
2592 Clear 18 1020 60 10000 4.6 300 19:42 14.02.2020
2593 Clear 18 1020 60 10000 4.6 300 19:24 14.02.2020
2594 Clear 19 1020 64 10000 2.6 280 18:58 14.02.2020
2595 Clear 19 1020 64 10000 2.6 280 18:40 14.02.2020
2596 Clear 19 1020 64 10000 2.6 280 18:20 14.02.2020
2597 Clear 19 1020 52 10000 3.6 300 17:44 14.02.2020
2598 Clear 19 1020 52 10000 3.6 300 17:44 14.02.2020
2599 Clear 19 1020 52 10000 3.6 300 17:23 14.02.2020
2600 Clear 19 1020 52 10000 3.6 280 16:59 14.02.2020
2601 Clear 19 1020 52 10000 3.6 280 16:41 14.02.2020
2602 Clear 19 1020 52 10000 3.6 280 16:23 14.02.2020
2603 Clear 20 1019 52 10000 4.6 300 15:56 14.02.2020
2604 Clear 21 1019 52 10000 4.6 300 15:38 14.02.2020
2605 Clear 21 1019 52 10000 4.6 300 15:38 14.02.2020
2606 Clear 21 1019 52 10000 4.6 300 15:20 14.02.2020
2607 Clear 21 1019 49 10000 5.1 320 14:59 14.02.2020
2608 Clear 21 1019 49 10000 5.1 320 14:40 14.02.2020
2609 Clear 21 1019 49 10000 5.1 320 14:22 14.02.2020
2610 Clear 22 1019 43 10000 4.1 330 13:55 14.02.2020
2611 Clear 22 1019 43 10000 4.1 330 13:55 14.02.2020
2612 Clear 22 1019 43 10000 4.1 330 13:37 14.02.2020
2613 Clear 22 1019 43 10000 4.1 330 13:19 14.02.2020
2614 Clear 22 1020 43 10000 3.6 310 12:56 14.02.2020
2615 Clear 22 1020 43 10000 3.6 310 12:56 14.02.2020
2616 Clear 22 1020 43 10000 3.6 310 12:38 14.02.2020
2617 Clear 22 1020 43 10000 3.6 310 12:38 14.02.2020
2618 Clear 22 1020 46 10000 4.6 290 12:19 14.02.2020
2619 Clear 22 1020 46 10000 4.6 290 11:55 14.02.2020
2620 Clear 22 1020 46 10000 4.6 290 11:36 14.02.2020
2621 Clear 22 1020 46 10000 4.6 290 11:18 14.02.2020
2622 Clear 22 1021 46 10000 4.6 340 10:41 14.02.2020
2623 Clear 22 1021 46 10000 4.6 340 10:22 14.02.2020
2624 Clear 22 1022 46 10000 3.1 290 09:44 14.02.2020
2625 Clear 21 1022 46 10000 3.1 290 09:23 14.02.2020
2626 Clear 21 1022 49 10000 3.1 0 08:57 14.02.2020
2627 Clear 20 1022 49 10000 3.1 0 08:38 14.02.2020
2628 Clear 23 1022 49 10000 3.1 0 08:20 14.02.2020
2629 Clear 22 1023 59 10000 2.1 240 07:49 14.02.2020
2630 Clear 22 1023 59 10000 2.1 240 07:49 14.02.2020
2631 Clear 22 1023 59 10000 2.1 240 07:29 14.02.2020
2632 Clear 21 1000 26 6000 4.1 200 06:38 14.02.2020
2633 Clear 21 1022 67 10000 1.5 190 06:18 14.02.2020
2634 Clear 12 1022 71 10000 1.5 0 05:28 14.02.2020
2635 Clear 12 1021 76 10000 1.5 170 03:46 14.02.2020
2636 Clear 12 1020 72 10000 1.5 170 02:56 14.02.2020
2637 Clear 13 1021 72 10000 1.5 180 01:56 14.02.2020
2638 Clear 14 1021 67 10000 1.5 190 00:45 14.02.2020
2639 Clear 14 1021 67 10000 1.5 190 00:26 14.02.2020
2640 Clear 14 1021 67 10000 1.5 170 23:56 13.02.2020
2641 Clear 13 1021 67 10000 1.5 170 23:37 13.02.2020
2642 Clear 14 1021 67 10000 1.5 170 23:18 13.02.2020
2643 Clear 15 1022 59 10000 1.5 170 22:38 13.02.2020
2644 Clear 15 1022 59 10000 1.5 170 22:19 13.02.2020
2645 Clear 15 1023 59 10000 1.5 10 21:55 13.02.2020
2646 Clear 16 1023 59 10000 1.5 10 21:37 13.02.2020
2647 Clear 16 1023 59 10000 1.5 10 21:19 13.02.2020
2648 Clear 16 1023 55 10000 2.1 340 20:42 13.02.2020
2649 Clear 16 1023 55 10000 2.1 340 20:22 13.02.2020
2650 Clear 16 1023 55 10000 2.1 340 20:22 13.02.2020
2651 Clear 17 1023 55 10000 3.1 340 19:57 13.02.2020
2652 Clear 17 1023 55 10000 3.1 340 19:37 13.02.2020
2653 Clear 17 1023 55 10000 3.1 340 19:19 13.02.2020
2654 Clear 18 1024 55 10000 2.6 320 18:56 13.02.2020
2655 Clear 18 1024 55 10000 2.6 320 18:37 13.02.2020
2656 Clear 18 1024 55 10000 2.6 320 18:19 13.02.2020
2657 Clear 18 1023 55 10000 3.6 340 17:54 13.02.2020
2658 Clear 18 1023 55 10000 3.6 340 17:36 13.02.2020
2659 Clear 18 1023 55 10000 3.6 340 17:18 13.02.2020
2660 Clear 18 1023 55 10000 4.6 330 16:40 13.02.2020
2661 Clear 18 1023 55 10000 4.6 330 16:20 13.02.2020
2662 Clouds 19 1023 52 10000 5.1 320 15:57 13.02.2020
2663 Clouds 19 1023 52 10000 5.1 320 15:39 13.02.2020
2664 Clouds 19 1023 52 10000 5.1 320 15:19 13.02.2020
2665 Clouds 20 1023 52 10000 5.1 310 14:58 13.02.2020
2666 Clouds 20 1023 52 10000 5.1 310 14:39 13.02.2020
2667 Clouds 20 1023 52 10000 5.1 310 14:39 13.02.2020
2668 Clouds 20 1023 52 10000 5.1 310 14:21 13.02.2020
2669 Clouds 20 1023 52 10000 5.1 310 14:21 13.02.2020
2670 Clouds 20 1023 49 10000 5.1 290 13:48 13.02.2020
2671 Clouds 20 1023 49 10000 5.1 290 13:19 13.02.2020
2672 Clouds 20 1023 52 10000 4.6 280 12:56 13.02.2020
2673 -273 0 0 0 0 0 12:56 13.02.2020
2674 Clouds 20 1023 52 10000 4.6 280 12:38 13.02.2020
2675 Clouds 20 1023 52 10000 4.6 280 12:38 13.02.2020
2676 Clouds 20 1023 52 10000 4.6 280 12:38 13.02.2020
2677 Clouds 20 1023 52 10000 4.6 280 12:19 13.02.2020
2678 Clouds 20 1023 52 10000 4.6 270 11:45 13.02.2020
2679 Clouds 20 1023 52 10000 4.6 270 11:20 13.02.2020
2680 Clouds 20 1024 49 10000 5.1 280 10:55 13.02.2020
2681 Clouds 20 1024 49 10000 5.1 280 10:37 13.02.2020
2682 Clouds 20 1024 49 10000 5.1 280 10:19 13.02.2020
2683 Clouds 20 1025 49 10000 5.7 280 09:41 13.02.2020
2684 Clouds 20 1025 49 10000 5.7 280 09:22 13.02.2020
2685 Clouds 19 1026 49 10000 5.7 300 08:42 13.02.2020
2686 Clear 19 1026 49 10000 5.7 300 08:19 13.02.2020
2687 Clear 18 1026 55 10000 4.1 190 07:41 13.02.2020
2688 Clear 17 1026 55 10000 4.1 190 07:22 13.02.2020
2689 Clear 17 1026 55 10000 4.1 190 07:21 13.02.2020
2690 Clouds 16 1026 67 10000 4.6 200 06:44 13.02.2020
2691 Clouds 15 1026 67 10000 4.6 200 06:21 13.02.2020
2692 Clouds 14 1025 71 10000 4.1 200 05:37 13.02.2020
2693 Clouds 13 1024 71 10000 3.1 180 04:26 13.02.2020
2694 Clouds 13 1023 71 10000 3.6 160 03:52 13.02.2020
2695 Clouds 13 1023 71 10000 3.6 160 03:26 13.02.2020
2696 Clouds 14 1023 67 10000 3.1 160 02:52 13.02.2020
2697 Clouds 14 1023 67 10000 3.1 160 02:19 13.02.2020
2698 Clouds 14 1023 67 10000 3.6 160 01:35 13.02.2020
2699 Clouds 15 1023 55 10000 4.1 0 00:40 13.02.2020
2700 Clouds 15 1023 55 10000 4.1 0 00:21 13.02.2020
2701 Clouds 16 1024 59 10000 3.6 280 23:40 12.02.2020
2702 Clouds 16 1024 59 10000 3.6 280 23:22 12.02.2020
2703 Clouds 16 1024 55 10000 3.6 280 22:45 12.02.2020
2704 Clouds 16 1024 55 10000 3.6 280 22:27 12.02.2020
2705 Clouds 16 1024 59 10000 5.1 270 21:59 12.02.2020
2706 Clouds 16 1024 59 10000 5.1 270 21:40 12.02.2020
2707 Clouds 16 1024 59 10000 5.1 270 21:20 12.02.2020
2708 Clouds 16 1024 59 10000 5.1 280 20:58 12.02.2020
2709 Clouds 16 1024 59 10000 5.1 280 20:39 12.02.2020
2710 Clouds 16 1024 59 10000 5.1 280 20:20 12.02.2020
2711 Clouds 16 1024 59 10000 6.2 270 19:55 12.02.2020
2712 Clouds 16 1024 59 10000 6.2 270 19:55 12.02.2020
2713 Clouds 16 1024 59 10000 6.2 270 19:36 12.02.2020
2714 Clouds 16 1024 59 10000 6.2 270 19:36 12.02.2020
2715 Clouds 16 1024 59 10000 6.2 270 19:18 12.02.2020
2716 Clouds 17 1024 59 10000 5.7 280 18:45 12.02.2020
2717 Clouds 17 1024 59 10000 5.7 280 18:19 12.02.2020
2718 Clouds 17 1024 59 10000 7.2 280 17:43 12.02.2020
2719 Clouds 17 1024 59 10000 7.2 280 17:22 12.02.2020
2720 Clouds 17 1023 59 10000 7.2 290 16:59 12.02.2020
2721 Clouds 17 1023 59 10000 7.2 290 16:40 12.02.2020
2722 Clouds 17 1023 59 10000 7.2 290 16:20 12.02.2020
2723 Clouds 17 1023 55 10000 8.2 290 15:43 12.02.2020
2724 Clouds 17 1023 55 10000 8.2 290 15:43 12.02.2020
2725 Clouds 17 1023 55 10000 8.2 290 15:24 12.02.2020
2726 Clouds 18 1022 55 10000 9.3 290 14:57 12.02.2020
2727 Clouds 18 1022 55 10000 9.3 290 14:39 12.02.2020
2728 Clouds 18 1022 55 10000 9.3 290 14:20 12.02.2020
2729 Clouds 18 1022 52 10000 8.2 300 13:57 12.02.2020
2730 Clouds 18 1022 52 10000 8.2 300 13:39 12.02.2020
2731 Clouds 18 1022 52 10000 8.2 300 13:20 12.02.2020
2732 Clouds 18 1022 52 10000 8.7 300 12:57 12.02.2020
2733 Clouds 18 1022 55 10000 9.3 300 12:38 12.02.2020
2734 Clouds 18 1022 55 10000 9.3 300 12:18 12.02.2020
2735 Clouds 19 1022 52 10000 9.3 310 11:57 12.02.2020
2736 Clouds 19 1022 52 10000 9.3 310 11:38 12.02.2020
2737 Clouds 19 1022 52 10000 9.3 310 11:20 12.02.2020
2738 Clouds 19 1023 52 10000 8.7 310 10:55 12.02.2020
2739 Clouds 19 1023 52 10000 8.7 310 10:36 12.02.2020
2740 Clouds 19 1023 52 10000 8.7 310 10:18 12.02.2020
2741 Clouds 19 1023 52 10000 8.7 310 10:18 12.02.2020
2742 Clouds 18 1023 52 10000 9.3 300 09:42 12.02.2020
2743 Clouds 18 1023 52 10000 9.3 300 09:42 12.02.2020
2744 Clouds 18 1023 52 10000 9.3 300 09:22 12.02.2020
2745 Clouds 19 1024 52 10000 8.7 320 08:57 12.02.2020
2746 Clouds 19 1024 52 10000 8.7 320 08:38 12.02.2020
2747 Clouds 19 1024 52 10000 8.7 320 08:19 12.02.2020
2748 Clouds 18 1024 52 10000 7.7 310 07:44 12.02.2020
2749 Clouds 18 1024 52 10000 7.7 310 07:44 12.02.2020
2750 Clouds 18 1024 52 10000 7.7 310 07:23 12.02.2020
2751 Clouds 18 1023 55 10000 7.2 300 06:56 12.02.2020
2752 Clouds 18 1023 55 10000 7.2 300 06:23 12.02.2020
2753 Clouds 18 1022 55 10000 7.7 310 05:38 12.02.2020
2754 Clouds 18 1021 55 10000 8.7 320 04:58 12.02.2020
2755 Clouds 18 1021 55 10000 8.7 320 04:39 12.02.2020
2756 Clouds 18 1020 48 10000 6.7 300 03:33 12.02.2020
2757 Clouds 18 1020 52 10000 8.7 310 02:58 12.02.2020
2758 Clouds 18 1020 52 10000 8.7 310 02:30 12.02.2020
2759 Rain 19 1019 48 10000 8.7 310 01:51 12.02.2020
2760 Rain 19 1019 45 10000 8.2 310 00:45 12.02.2020
2761 Rain 19 1019 45 10000 8.2 310 00:26 12.02.2020
2762 Rain 20 1019 49 10000 8.7 310 23:56 11.02.2020
2763 Rain 20 1019 49 10000 8.7 310 23:38 11.02.2020
2764 Rain 20 1019 49 10000 8.7 310 23:20 11.02.2020
2765 Rain 20 1019 46 10000 8.7 310 22:55 11.02.2020
2766 Rain 20 1019 46 10000 8.7 310 22:37 11.02.2020
2767 Rain 20 1019 46 10000 8.7 310 22:37 11.02.2020
2768 Rain 20 1019 46 10000 8.7 310 22:18 11.02.2020
2769 Rain 20 1019 52 10000 6.7 300 21:55 11.02.2020
2770 Rain 20 1019 52 10000 6.7 300 21:37 11.02.2020
2771 Rain 20 1019 52 10000 6.7 300 21:18 11.02.2020
2772 Rain 20 1019 49 10000 6.7 300 20:40 11.02.2020
2773 Rain 20 1019 49 10000 6.7 300 20:20 11.02.2020
2774 Clouds 20 1019 52 10000 6.7 310 19:59 11.02.2020
2775 Clouds 20 1019 52 10000 6.7 310 19:41 11.02.2020
2776 Clouds 20 1019 52 10000 6.7 310 19:23 11.02.2020
2777 Rain 20 1018 52 10000 5.1 300 18:55 11.02.2020
2778 Rain 20 1018 52 10000 5.1 300 18:37 11.02.2020
2779 Rain 20 1018 52 10000 5.1 300 18:19 11.02.2020
2780 Rain 20 1018 56 10000 5.7 310 17:55 11.02.2020
2781 Rain 20 1018 56 10000 5.7 310 17:36 11.02.2020
2782 Rain 20 1018 56 10000 5.7 310 17:18 11.02.2020
2783 Rain 20 1018 56 10000 5.7 310 17:18 11.02.2020
2784 Clouds 21 1017 49 10000 6.7 310 16:55 11.02.2020
2785 Clouds 21 1017 49 10000 6.7 310 16:36 11.02.2020
2786 Clouds 21 1017 49 10000 6.7 310 16:18 11.02.2020
2787 Rain 21 1016 49 10000 7.7 320 15:43 11.02.2020
2788 Rain 21 1016 49 10000 7.7 320 15:23 11.02.2020
2789 Clouds 22 1015 46 10000 9.3 320 14:44 11.02.2020
2790 Clouds 22 1015 46 10000 9.3 320 14:20 11.02.2020
2791 Clouds 23 1015 43 10000 9.3 310 13:59 11.02.2020
2792 Clouds 23 1015 43 10000 9.3 310 13:40 11.02.2020
2793 Clouds 23 1015 43 10000 9.3 310 13:21 11.02.2020
2794 Clouds 23 1015 46 10000 8.7 320 12:57 11.02.2020
2795 Clouds 23 1015 49 10000 8.7 330 12:39 11.02.2020
2796 Clouds 23 1015 49 10000 8.7 330 12:20 11.02.2020
2797 Clouds 23 1015 56 10000 7.2 310 11:41 11.02.2020
2798 Clouds 23 1015 56 10000 7.2 310 11:20 11.02.2020
2799 Clouds 23 1016 56 10000 7.2 310 10:56 11.02.2020
2800 Clouds 23 1016 56 10000 7.2 310 10:37 11.02.2020
2801 Clouds 23 1016 56 10000 7.2 310 10:19 11.02.2020
2802 Clouds 22 1016 56 10000 5.7 310 09:55 11.02.2020
2803 Clouds 22 1016 56 10000 5.7 310 09:37 11.02.2020
2804 Clouds 22 1016 56 10000 5.7 310 09:19 11.02.2020
2805 Clouds 23 1016 60 10000 4.1 320 08:42 11.02.2020
2806 Clouds 23 1016 60 10000 4.1 320 08:23 11.02.2020
2807 Clouds 22 1016 64 10000 5.1 340 07:48 11.02.2020
2808 Clouds 22 1016 64 10000 5.1 340 07:26 11.02.2020
2809 Clouds 21 1016 73 10000 4.6 330 06:44 11.02.2020
2810 Clouds 21 1016 73 10000 4.6 330 06:22 11.02.2020
2811 Clouds 21 1015 83 8000 3.1 340 05:54 11.02.2020
2812 Clouds 21 1015 83 8000 3.1 340 05:24 11.02.2020
2813 Clouds 21 1014 83 8000 2.1 330 04:39 11.02.2020
2814 Clouds 21 1014 88 8000 4.1 320 03:20 11.02.2020
2815 Clouds 21 1013 88 8000 3.1 320 02:32 11.02.2020
2816 Clouds 21 1013 88 10000 2.1 350 01:38 11.02.2020
2817 Clouds 21 1013 88 10000 2.1 340 00:40 11.02.2020
2818 Clouds 21 1013 83 10000 1 0 23:57 10.02.2020
2819 Clouds 21 1013 83 10000 1 0 23:38 10.02.2020
2820 Clouds 21 1013 83 10000 1 0 23:20 10.02.2020
2821 Clouds 21 1013 83 10000 1 0 23:20 10.02.2020
2822 Clouds 21 1013 88 10000 2.6 90 22:40 10.02.2020
2823 Clouds 21 1013 88 10000 2.6 90 22:20 10.02.2020
2824 Clouds 21 1014 88 10000 2.1 20 21:46 10.02.2020
2825 Clouds 21 1014 88 10000 2.1 20 21:27 10.02.2020
2826 Clouds 21 1014 83 10000 2.1 350 20:58 10.02.2020
2827 Clouds 21 1014 83 10000 2.1 350 20:40 10.02.2020
2828 Clouds 21 1014 83 10000 2.1 350 20:21 10.02.2020
2829 Clouds 21 1014 83 10000 2.1 350 20:21 10.02.2020
2830 Clouds 22 1014 73 10000 3.1 290 19:59 10.02.2020
2831 Clouds 22 1014 73 10000 3.1 290 19:39 10.02.2020
2832 Clouds 22 1014 73 10000 3.1 290 19:19 10.02.2020
2833 Clouds 22 1014 69 10000 3.1 280 18:59 10.02.2020
2834 Clouds 22 1014 69 10000 3.1 280 18:40 10.02.2020
2835 Clouds 22 1014 69 10000 3.1 280 18:21 10.02.2020
2836 Clouds 23 1013 60 10000 3.1 290 17:58 10.02.2020
2837 Clouds 23 1013 60 10000 3.1 290 17:38 10.02.2020
2838 Clouds 23 1013 60 10000 3.1 290 17:19 10.02.2020
2839 Clouds 24 1013 57 10000 3.6 290 16:59 10.02.2020
2840 Clouds 24 1013 57 10000 3.6 290 16:40 10.02.2020
2841 Clouds 24 1013 57 10000 3.6 290 16:40 10.02.2020
2842 Clouds 24 1013 57 10000 3.6 290 16:20 10.02.2020
2843 Clouds 25 1013 41 10000 4.1 280 15:56 10.02.2020
2844 Clouds 25 1013 41 10000 4.1 280 15:56 10.02.2020
2845 Clouds 25 1013 41 10000 4.1 280 15:38 10.02.2020
2846 Clouds 25 1013 41 10000 4.1 280 15:20 10.02.2020
2847 Clouds 26 1013 36 10000 4.6 280 14:56 10.02.2020
2848 Clouds 26 1013 36 10000 4.6 280 14:37 10.02.2020
2849 Clouds 26 1013 36 10000 4.6 280 14:18 10.02.2020
2850 Clouds 27 1013 41 10000 4.6 280 13:42 10.02.2020
2851 Clouds 27 1013 41 10000 4.6 280 13:24 10.02.2020
2852 Clouds 27 1013 41 10000 4.6 280 13:24 10.02.2020
2853 Clouds 27 1013 42 10000 4.6 270 12:51 10.02.2020
2854 Clouds 27 1013 42 10000 4.6 270 12:27 10.02.2020
2855 Clouds 27 1014 42 10000 4.6 230 11:56 10.02.2020
2856 Clouds 27 1014 42 10000 4.6 230 11:38 10.02.2020
2857 Clouds 27 1014 42 10000 4.6 230 11:20 10.02.2020
2858 Clouds 26 1015 47 9000 5.1 230 10:47 10.02.2020
2859 Clouds 26 1015 47 9000 5.1 230 10:28 10.02.2020
2860 Clouds 26 1016 47 10000 5.7 230 09:48 10.02.2020
2861 Clouds 26 1016 47 10000 5.7 230 09:48 10.02.2020
2862 Clouds 26 1016 47 10000 5.7 230 09:27 10.02.2020
2863 Clouds 25 1016 50 10000 5.7 180 08:58 10.02.2020
2864 Clouds 25 1016 50 10000 5.7 180 08:38 10.02.2020
2865 Clouds 25 1016 50 10000 5.7 180 08:19 10.02.2020
2866 Clouds 23 1017 56 10000 4.6 180 07:51 10.02.2020
2867 Clouds 23 1017 56 10000 4.6 180 07:31 10.02.2020
2868 Clouds 22 1016 60 10000 4.6 200 06:23 10.02.2020
2869 Clouds 21 1015 56 10000 5.1 180 04:46 10.02.2020
2870 Clouds 21 1014 64 10000 4.1 160 03:45 10.02.2020
2871 Clouds 20 1014 68 10000 2.6 140 02:55 10.02.2020
2872 Clear 20 1014 68 10000 2.6 140 01:59 10.02.2020
2873 Clear 20 1015 68 10000 3.1 110 00:52 10.02.2020
2874 Clear 20 1015 68 10000 3.1 110 00:31 10.02.2020
2875 Clear 21 1015 68 10000 3.1 110 23:57 09.02.2020
2876 Clear 21 1015 68 10000 3.1 110 23:39 09.02.2020
2877 Clear 21 1015 68 10000 3.1 110 23:19 09.02.2020
2878 Clear 21 1015 64 10000 2.6 100 22:41 09.02.2020
2879 Clear 21 1015 64 10000 2.6 100 22:21 09.02.2020
2880 Clear 21 1016 64 10000 2.6 90 21:44 09.02.2020
2881 Clear 21 1016 64 10000 2.6 90 21:25 09.02.2020
2882 Clear 22 1016 69 10000 3.6 110 20:56 09.02.2020
2883 Clear 22 1016 69 10000 3.6 110 20:38 09.02.2020
2884 Clear 22 1016 69 10000 3.6 110 20:18 09.02.2020
2885 Clear 22 1016 64 10000 3.6 100 19:40 09.02.2020
2886 Clear 22 1016 64 10000 3.6 100 19:21 09.02.2020
2887 Clear 23 1016 60 10000 4.6 100 18:57 09.02.2020
2888 Clear 23 1016 60 10000 4.6 100 18:39 09.02.2020
2889 Clear 23 1016 60 10000 4.6 100 18:21 09.02.2020
2890 Clear 23 1016 57 10000 4.6 80 17:42 09.02.2020
2891 Clear 23 1016 57 10000 4.6 80 17:23 09.02.2020
2892 Clear 24 1016 47 10000 5.1 50 16:56 09.02.2020
2893 Clear 24 1016 47 10000 5.1 50 16:38 09.02.2020
2894 Clear 24 1016 47 10000 5.1 50 16:18 09.02.2020
2895 Clear 24 1016 47 7000 5.1 40 15:56 09.02.2020
2896 Clear 25 1016 47 7000 5.1 40 15:38 09.02.2020
2897 Clear 25 1016 47 7000 5.1 40 15:19 09.02.2020
2898 Clear 27 1016 50 7000 6.2 20 14:42 09.02.2020
2899 Clear 27 1016 50 7000 6.2 20 14:23 09.02.2020
2900 Clear 28 1016 42 7000 6.2 350 13:47 09.02.2020
2901 Clear 28 1016 42 7000 6.2 350 13:29 09.02.2020
2902 Clear 29 1015 30 10000 3.1 200 12:58 09.02.2020
2903 Clear 29 1015 30 10000 3.1 200 12:40 09.02.2020
2904 Clear 29 1015 30 10000 3.1 200 12:19 09.02.2020
2905 Clear 29 1016 30 10000 4.6 190 11:56 09.02.2020
2906 Clear 29 1016 30 10000 4.6 190 11:36 09.02.2020
2907 Clear 29 1016 30 10000 4.6 190 11:18 09.02.2020
2908 Clear 28 1017 32 10000 4.6 190 10:42 09.02.2020
2909 Clear 28 1017 32 10000 4.6 190 10:22 09.02.2020
2910 Clear 27 1018 34 8000 5.7 180 09:48 09.02.2020
2911 Clear 27 1018 34 8000 5.7 180 09:28 09.02.2020
2912 Dust 26 1019 34 5000 6.7 180 08:55 09.02.2020
2913 Dust 25 1019 34 5000 6.7 180 08:37 09.02.2020
2914 Dust 25 1019 34 5000 6.7 180 08:19 09.02.2020
2915 Dust 24 1019 36 5000 6.7 180 07:49 09.02.2020
2916 Clear 22 1018 35 7000 5.7 190 06:54 09.02.2020
2917 Clear 22 1018 35 7000 5.7 190 06:36 09.02.2020
2918 Clear 20 1017 49 10000 5.7 180 05:45 09.02.2020
2919 Clear 20 1017 49 10000 5.7 180 05:20 09.02.2020
2920 Clear 18 1017 72 10000 2.6 120 03:58 09.02.2020
2921 Clear 18 1016 77 10000 1 0 02:47 09.02.2020
2922 Clear 18 1016 77 10000 1 0 02:27 09.02.2020
2923 Clouds 17 1016 77 10000 3.1 140 01:35 09.02.2020
2924 Clouds 18 1016 72 10000 2.6 90 00:52 09.02.2020
2925 Clouds 18 1016 72 10000 2.6 90 00:28 09.02.2020
2926 Clouds 18 1016 68 10000 2.1 80 23:45 08.02.2020
2927 Clouds 18 1016 68 10000 2.1 80 23:22 08.02.2020
2928 Clear 18 1017 73 10000 3.1 110 22:55 08.02.2020
2929 Clear 19 1017 73 10000 3.1 110 22:37 08.02.2020
2930 Clear 19 1017 73 10000 3.1 110 22:19 08.02.2020
2931 Clear 19 1017 60 10000 3.1 130 21:42 08.02.2020
2932 Clear 20 1017 60 10000 3.1 130 21:24 08.02.2020
2933 Clear 20 1017 64 10000 2.6 100 20:58 08.02.2020
2934 Clear 20 1017 64 10000 2.6 100 20:39 08.02.2020
2935 Clear 20 1017 64 10000 2.6 100 20:19 08.02.2020
2936 Clear 21 1018 64 10000 1.5 80 19:56 08.02.2020
2937 Clear 21 1018 64 10000 1.5 80 19:38 08.02.2020
2938 Clear 21 1018 64 10000 1.5 80 19:19 08.02.2020
2939 Clear 21 1018 64 10000 1.5 80 19:19 08.02.2020
2940 Clear 21 1018 64 10000 3.1 50 18:43 08.02.2020
2941 Clear 21 1018 64 10000 3.1 50 18:24 08.02.2020
2942 Clear 22 1018 64 10000 3.1 40 17:44 08.02.2020
2943 Clear 22 1018 64 10000 3.1 40 17:23 08.02.2020
2944 Clear 23 1017 53 10000 3.1 30 16:59 08.02.2020
2945 Clear 24 1017 53 10000 3.1 30 16:40 08.02.2020
2946 Clear 24 1017 53 10000 3.1 30 16:21 08.02.2020
2947 Clear 25 1017 54 10000 3.1 330 15:44 08.02.2020
2948 Clear 25 1017 54 10000 3.1 330 15:20 08.02.2020
2949 Clear 26 1016 47 10000 2.6 330 14:59 08.02.2020
2950 Clear 26 1016 47 10000 2.6 330 14:41 08.02.2020
2951 Clear 26 1016 47 10000 2.6 330 14:19 08.02.2020
2952 Clear 27 1016 50 10000 5.1 330 13:43 08.02.2020
2953 Clear 27 1016 50 10000 5.1 330 13:23 08.02.2020
2954 Clear 28 1016 47 10000 5.1 330 12:57 08.02.2020
2955 Clear 28 1016 47 10000 5.1 330 12:38 08.02.2020
2956 Clear 28 1016 47 10000 5.1 330 12:38 08.02.2020
2957 Clear 28 1016 47 10000 5.1 330 12:19 08.02.2020
2958 Clear 28 1017 32 10000 3.1 250 11:43 08.02.2020
2959 Clear 28 1017 32 10000 3.1 250 11:22 08.02.2020
2960 Clear 27 1018 34 10000 2.1 0 10:57 08.02.2020
2961 Clear 27 1018 34 10000 2.1 0 10:38 08.02.2020
2962 Clear 27 1018 34 10000 2.1 0 10:20 08.02.2020
2963 Clear 25 1020 38 10000 3.1 170 09:49 08.02.2020
2964 Clear 25 1020 38 10000 3.1 170 09:24 08.02.2020
2965 Clear 24 1021 41 10000 4.1 150 08:46 08.02.2020
2966 Clear 23 1021 41 10000 4.1 150 08:24 08.02.2020
2967 Clear 22 1020 60 8000 3.6 90 07:53 08.02.2020
2968 Clear 21 1020 60 8000 3.6 90 07:34 08.02.2020
2969 Haze 19 1020 73 5000 3.1 100 06:54 08.02.2020
2970 Haze 18 1020 73 5000 3.1 100 06:21 08.02.2020
2971 Haze 15 1019 82 3500 2.1 80 05:34 08.02.2020
2972 Haze 15 1019 88 2500 0.5 0 04:54 08.02.2020
2973 Haze 15 1019 88 2500 0.5 0 04:24 08.02.2020
2974 Haze 16 1018 82 3500 1.5 90 03:37 08.02.2020
2975 Haze 15 1017 88 3000 1.5 120 02:29 08.02.2020
2976 Haze 16 1017 82 3000 2.6 90 01:33 08.02.2020
2977 Haze 15 1017 88 3000 2.6 100 00:47 08.02.2020
2978 Haze 15 1017 88 3000 2.6 100 00:25 08.02.2020
2979 Haze 16 1018 88 4000 2.1 100 23:58 07.02.2020
2980 Haze 16 1018 88 4000 2.1 100 23:39 07.02.2020
2981 Haze 16 1018 88 4000 2.1 100 23:20 07.02.2020
2982 Haze 17 1018 82 4000 2.1 100 22:42 07.02.2020
2983 Haze 17 1018 82 4000 2.1 100 22:42 07.02.2020
2984 Haze 17 1018 82 4000 2.1 100 22:20 07.02.2020
2985 Haze 17 1018 82 4000 2.6 110 21:59 07.02.2020
2986 Haze 17 1018 82 4000 2.6 110 21:40 07.02.2020
2987 Haze 17 1018 82 4000 2.6 110 21:20 07.02.2020
2988 Haze 18 1019 77 4500 2.1 90 20:39 07.02.2020
2989 Haze 18 1019 77 4500 2.1 90 20:20 07.02.2020
2990 Clear 19 1019 73 6000 1.5 0 19:55 07.02.2020
2991 Clear 19 1019 73 6000 1.5 0 19:37 07.02.2020
2992 Clear 19 1019 73 6000 1.5 0 19:18 07.02.2020
2993 Clear 20 1019 64 7000 2.1 10 18:44 07.02.2020
2994 Clear 20 1019 64 7000 2.1 10 18:44 07.02.2020
2995 Clear 20 1019 64 7000 2.1 10 18:44 07.02.2020
2996 Clear 20 1019 64 7000 2.1 10 18:25 07.02.2020
2997 Clear 20 1018 68 7000 2.1 20 17:55 07.02.2020
2998 Clear 20 1018 68 7000 2.1 20 17:37 07.02.2020
2999 Clear 20 1018 68 7000 2.1 20 17:19 07.02.2020
3000 Clear 21 1017 73 8000 3.1 340 16:43 07.02.2020
3001 Clear 21 1017 73 8000 3.1 340 16:23 07.02.2020
3002 Clear 23 1017 60 10000 3.6 340 15:54 07.02.2020
3003 Clear 23 1017 60 10000 3.6 340 15:28 07.02.2020
3004 Clear 24 1017 50 10000 3.6 340 14:55 07.02.2020
3005 Clear 24 1017 50 10000 3.6 340 14:37 07.02.2020
3006 Clear 24 1017 50 10000 3.6 340 14:19 07.02.2020
3007 Clear 24 1017 47 10000 3.6 340 13:56 07.02.2020
3008 Clear 24 1017 47 10000 3.6 340 13:38 07.02.2020
3009 Clear 24 1017 47 10000 3.6 340 13:19 07.02.2020
3010 Clear 24 1017 53 10000 4.6 340 12:41 07.02.2020
3011 Clear 24 1017 53 10000 4.6 340 12:23 07.02.2020
3012 Clear 25 1017 50 10000 4.1 320 11:45 07.02.2020
3013 Clear 25 1017 50 10000 4.1 320 11:23 07.02.2020
3014 Clear 24 1018 50 10000 1.5 0 10:58 07.02.2020
3015 Clear 24 1018 50 10000 1.5 0 10:38 07.02.2020
3016 Clear 24 1018 50 10000 1.5 0 10:19 07.02.2020
3017 Clear 23 1020 57 7000 1.5 0 09:41 07.02.2020
3018 Clear 23 1020 57 7000 1.5 0 09:22 07.02.2020
3019 Clear 22 1020 68 6000 2.6 40 08:47 07.02.2020
3020 Clear 21 1020 68 6000 2.6 40 08:24 07.02.2020
3021 Clear 20 1021 88 6000 1.5 110 07:55 07.02.2020
3022 Clear 19 1021 88 6000 1.5 110 07:33 07.02.2020
3023 Haze 17 1020 77 3000 2.6 90 06:59 07.02.2020
3024 Haze 17 1020 77 3000 2.6 90 06:40 07.02.2020
3025 Haze 17 1020 77 3000 2.6 90 06:19 07.02.2020
3026 Mist 15 1019 88 2000 1 0 05:37 07.02.2020
3027 Mist 15 1018 88 2500 2.1 110 03:51 07.02.2020
3028 Haze 16 1017 88 3000 1 0 02:23 07.02.2020
3029 Haze 16 1017 88 3500 1.5 160 01:21 07.02.2020
3030 Haze 17 1018 88 4000 2.1 140 00:28 07.02.2020
3031 Haze 17 1018 82 4000 1.5 140 23:39 06.02.2020
3032 Haze 17 1018 82 4000 1.5 140 23:39 06.02.2020
3033 Haze 17 1018 82 4000 1.5 140 23:19 06.02.2020
3034 Haze 18 1018 88 4500 2.6 180 22:48 06.02.2020
3035 Haze 18 1018 88 4500 2.6 180 22:27 06.02.2020
3036 Fog 18 1019 93 3000 2.6 140 21:59 06.02.2020
3037 Clouds 18 1019 82 7000 2.6 130 21:36 06.02.2020
3038 Clouds 18 1019 82 7000 2.6 130 21:18 06.02.2020
3039 Clouds 19 1019 77 10000 1 0 20:55 06.02.2020
3040 Clouds 19 1019 77 10000 1 0 20:36 06.02.2020
3041 Clouds 19 1019 77 10000 1 0 20:18 06.02.2020
3042 Clouds 19 1019 77 10000 2.1 20 19:56 06.02.2020
3043 Clouds 19 1019 77 10000 2.1 20 19:37 06.02.2020
3044 Clouds 19 1019 77 10000 2.1 20 19:19 06.02.2020
3045 Clouds 19 1019 77 10000 2.1 330 18:42 06.02.2020
3046 Clouds 19 1019 77 10000 2.1 330 18:24 06.02.2020
3047 Clouds 20 1019 77 10000 2.6 350 17:58 06.02.2020
3048 Clouds 20 1019 77 10000 2.6 350 17:58 06.02.2020
3049 Clouds 20 1019 77 10000 3.1 340 17:40 06.02.2020
3050 Clouds 20 1019 77 10000 3.1 340 17:20 06.02.2020
3051 Clouds 21 1018 77 10000 4.1 330 16:43 06.02.2020
3052 Clouds 21 1018 77 10000 4.1 330 16:25 06.02.2020
3053 Clear 21 1018 77 10000 5.7 320 15:44 06.02.2020
3054 Clear 21 1018 77 10000 5.7 320 15:24 06.02.2020
3055 Clear 22 1017 68 10000 5.1 340 14:58 06.02.2020
3056 Clear 22 1017 68 10000 5.1 340 14:40 06.02.2020
3057 Clear 22 1017 68 10000 5.1 340 14:22 06.02.2020
3058 Clear 23 1017 53 10000 5.7 330 13:43 06.02.2020
3059 Clear 23 1017 53 10000 5.7 330 13:25 06.02.2020
3060 Clear 24 1018 53 10000 4.1 330 12:45 06.02.2020
3061 Clear 24 1018 53 10000 4.1 330 12:20 06.02.2020
3062 Clear 24 1018 60 10000 4.1 340 11:58 06.02.2020
3063 Clear 24 1018 60 10000 4.1 340 11:40 06.02.2020
3064 Clear 24 1018 60 10000 4.1 340 11:21 06.02.2020
3065 Clear 24 1019 57 10000 4.1 340 10:57 06.02.2020
3066 Clear 24 1019 57 10000 4.1 340 10:39 06.02.2020
3067 Clear 24 1019 57 10000 4.1 340 10:21 06.02.2020
3068 Clear 23 1020 50 10000 3.1 360 09:57 06.02.2020
3069 Clear 23 1020 50 10000 3.1 360 09:37 06.02.2020
3070 Clear 23 1020 50 10000 3.1 360 09:19 06.02.2020
3071 Clear 22 1021 60 10000 1.5 60 08:41 06.02.2020
3072 Clear 21 1021 60 10000 1.5 60 08:22 06.02.2020
3073 Clear 20 1021 72 10000 2.1 110 07:51 06.02.2020
3074 Clear 19 1021 72 10000 2.1 110 07:28 06.02.2020
3075 Clear 17 1021 77 6000 1.5 150 06:37 06.02.2020
3076 Clear 17 1021 77 6000 1.5 150 06:37 06.02.2020
3077 Clear 17 1021 77 6000 1.5 150 06:37 06.02.2020
3078 Clear 17 1021 77 6000 1.5 150 06:18 06.02.2020
3079 Haze 14 1020 82 4000 1.5 200 04:53 06.02.2020
3080 Haze 14 1019 87 5000 1.5 150 03:21 06.02.2020
3081 Haze 14 1019 87 5000 1.5 150 03:21 06.02.2020
3082 Clear 14 1019 82 6000 1.5 130 02:37 06.02.2020
3083 Clear 14 1019 82 6000 2.6 130 01:37 06.02.2020
3084 Clear 15 1019 82 8000 2.6 110 00:58 06.02.2020
3085 Clear 15 1019 82 8000 2.6 110 00:26 06.02.2020
3086 Clear 15 1019 82 8000 1.5 170 23:47 05.02.2020
3087 Clear 16 1019 82 8000 1.5 170 23:29 05.02.2020
3088 Clear 16 1019 82 10000 2.1 210 22:58 05.02.2020
3089 Clear 16 1019 82 10000 2.1 210 22:40 05.02.2020
3090 Clear 16 1019 82 10000 2.1 210 22:22 05.02.2020
3091 Clear 16 1019 82 10000 2.1 210 22:22 05.02.2020
3092 Clear 16 1019 82 10000 2.1 210 22:22 05.02.2020
3093 Clear 17 1019 77 10000 1.5 220 21:54 05.02.2020
3094 Clear 17 1019 77 10000 1.5 220 21:36 05.02.2020
3095 Clear 17 1019 77 10000 1.5 220 21:18 05.02.2020
3096 Clear 18 1020 77 10000 1 0 20:39 05.02.2020
3097 Clear 18 1020 77 10000 1 0 20:39 05.02.2020
3098 Clear 18 1020 77 10000 1 0 20:19 05.02.2020
3099 Clear 18 1020 77 10000 2.6 230 19:57 05.02.2020
3100 Clear 18 1020 77 10000 2.6 230 19:38 05.02.2020
3101 Clear 18 1020 77 10000 2.6 230 19:19 05.02.2020
3102 Clear 18 1020 77 10000 2.6 230 19:19 05.02.2020
3103 Clear 18 1020 77 10000 2.6 230 19:19 05.02.2020
3104 Clear 19 1020 72 10000 1 0 18:46 05.02.2020
3105 Clear 19 1020 72 10000 1 0 18:22 05.02.2020
3106 Clear 19 1019 72 10000 2.1 360 17:59 05.02.2020
3107 Clear 19 1019 72 10000 2.1 360 17:38 05.02.2020
3108 Clear 19 1019 72 10000 2.1 360 17:18 05.02.2020
3109 Clear 19 1019 72 10000 2.6 350 16:56 05.02.2020
3110 Clear 20 1019 72 10000 2.6 350 16:37 05.02.2020
3111 Clear 20 1019 72 10000 2.6 350 16:18 05.02.2020
3112 Clear 20 1018 64 10000 5.1 340 15:42 05.02.2020
3113 Clear 20 1018 64 10000 5.1 340 15:19 05.02.2020
3114 Clear 21 1018 52 10000 5.1 330 14:55 05.02.2020
3115 Clear 21 1018 52 10000 5.1 330 14:37 05.02.2020
3116 Clear 21 1018 52 10000 5.1 330 14:19 05.02.2020
3117 Clear 22 1017 43 10000 5.7 330 13:41 05.02.2020
3118 Clear 22 1017 43 10000 5.7 330 13:22 05.02.2020
3119 Clear 23 1017 36 10000 3.6 320 12:44 05.02.2020
3120 Clear 23 1017 36 10000 3.6 320 12:25 05.02.2020
3121 Clear 23 1018 46 10000 3.6 320 11:59 05.02.2020
3122 Clear 23 1018 46 10000 3.6 320 11:40 05.02.2020
3123 Clear 23 1018 46 10000 3.6 320 11:21 05.02.2020
3124 Clear 23 1018 38 10000 1.5 0 10:43 05.02.2020
3125 Clear 23 1018 38 10000 1.5 0 10:25 05.02.2020
3126 Clear 22 1020 46 10000 1.5 70 09:59 05.02.2020
3127 Clear 21 1020 46 10000 1.5 70 09:38 05.02.2020
3128 Clear 20 1020 52 10000 2.1 140 09:20 05.02.2020
3129 Clear 20 1020 52 10000 2.1 140 08:45 05.02.2020
3130 Clear 20 1020 52 10000 2.1 140 08:24 05.02.2020
3131 Clear 18 1020 63 10000 1.5 190 07:55 05.02.2020
3132 Clear 18 1020 63 10000 1.5 190 07:34 05.02.2020
3133 Clear 16 1020 67 10000 2.6 200 06:50 05.02.2020
3134 Clear 16 1020 67 10000 2.6 200 06:23 05.02.2020
3135 Clear 15 1019 72 10000 1.5 170 05:58 05.02.2020
3136 Clear 13 1018 72 10000 2.1 170 05:19 05.02.2020
3137 Clear 13 1018 72 10000 2.1 170 04:52 05.02.2020
3138 Clear 13 1017 72 10000 2.1 200 03:52 05.02.2020
3139 Clear 13 1017 72 10000 2.1 210 02:26 05.02.2020
3140 Clear 14 1017 77 10000 1.5 170 01:46 05.02.2020
3141 Clear 15 1017 72 10000 1 0 00:43 05.02.2020
3142 Clear 18 1016 53 0 1.45 219 23:57 04.02.2020
3143 Clear 16 1018 77 0 2.24 0 23:38 04.02.2020
3144 Clear 16 1018 59 10000 2.1 200 23:18 04.02.2020
3145 Clear 16 1018 59 10000 2.1 200 22:54 04.02.2020
3146 Clear 17 1018 59 10000 2.1 200 22:36 04.02.2020
3147 Clear 17 1018 59 10000 2.1 200 22:18 04.02.2020
3148 Clear 17 1018 59 10000 2.1 230 21:41 04.02.2020
3149 Clear 17 1018 59 10000 2.1 230 21:19 04.02.2020
3150 Clear 18 1018 56 10000 2.6 270 20:59 04.02.2020
3151 Clear 18 1018 56 10000 2.6 270 20:41 04.02.2020
3152 Clear 18 1018 56 10000 2.6 270 20:20 04.02.2020
3153 Clear 19 1018 60 10000 2.6 270 19:57 04.02.2020
3154 Clear 19 1018 60 10000 2.6 270 19:39 04.02.2020
3155 Clear 19 1018 60 10000 2.6 270 19:39 04.02.2020
3156 Clear 19 1018 60 10000 2.6 270 19:21 04.02.2020
3157 Clear 19 1018 56 10000 3.6 300 18:55 04.02.2020
3158 Clear 19 1018 56 10000 3.6 300 18:37 04.02.2020
3159 Clear 19 1018 56 10000 3.6 300 18:18 04.02.2020
3160 Clear 19 1018 60 10000 2.6 270 17:42 04.02.2020
3161 Clear 19 1018 60 10000 2.6 270 17:21 04.02.2020
3162 Clear 19 1018 60 10000 2.6 270 17:21 04.02.2020
3163 Clear 20 1018 52 10000 4.1 300 16:55 04.02.2020
3164 Clear 20 1018 52 10000 4.1 300 16:36 04.02.2020
3165 Clear 20 1018 52 10000 4.1 300 16:18 04.02.2020
3166 Clear 21 1017 52 10000 5.7 320 15:55 04.02.2020
3167 Clear 21 1017 52 10000 5.7 320 15:37 04.02.2020
3168 Clear 21 1017 52 10000 5.7 320 15:18 04.02.2020
3169 Clear 21 1017 49 10000 5.7 310 14:42 04.02.2020
3170 Clear 21 1017 49 10000 5.7 310 14:23 04.02.2020
3171 Clear 22 1016 49 10000 5.1 310 13:57 04.02.2020
3172 Clear 22 1016 49 10000 5.1 310 13:39 04.02.2020
3173 Clear 22 1016 49 10000 5.1 310 13:19 04.02.2020
3174 Clear 22 1016 46 10000 5.1 320 12:43 04.02.2020
3175 Clear 22 1016 46 10000 5.1 320 12:25 04.02.2020
3176 Clouds 22 1017 46 10000 5.1 300 11:57 04.02.2020
3177 Clouds 22 1017 46 10000 5.1 300 11:57 04.02.2020
3178 Clouds 22 1017 46 10000 5.1 300 11:39 04.02.2020
3179 Clouds 22 1017 46 10000 5.1 300 11:19 04.02.2020
3180 Clouds 23 1017 43 10000 6.2 290 10:49 04.02.2020
3181 Clear 23 1018 33 10000 3.6 30 10:27 04.02.2020
3182 Clear 22 1019 38 10000 2.1 70 09:58 04.02.2020
3183 Clear 22 1019 38 10000 2.1 70 09:39 04.02.2020
3184 Clear 22 1019 38 10000 2.1 70 09:21 04.02.2020
3185 Clear 21 1019 46 10000 1.5 0 08:47 04.02.2020
3186 Clear 21 1019 46 10000 1.5 0 08:28 04.02.2020
3187 Clear 20 1020 52 10000 2.1 150 07:56 04.02.2020
3188 Clear 19 1020 52 10000 2.1 150 07:37 04.02.2020
3189 Clear 19 1020 52 10000 2.1 150 07:37 04.02.2020
3190 Clear 19 1020 52 10000 2.1 150 07:18 04.02.2020
3191 Clear 17 1019 59 10000 1 0 07:18 04.02.2020
3192 Clear 17 1019 59 10000 1 0 06:41 04.02.2020
3193 Clear 14 1019 67 10000 1.5 0 05:35 04.02.2020
3194 Clear 14 1018 67 10000 2.1 160 04:41 04.02.2020
3195 Clear 14 1018 67 10000 2.1 160 03:49 04.02.2020
3196 Clear 14 1018 67 10000 2.1 160 03:30 04.02.2020
3197 Clear 15 1018 67 10000 2.1 180 02:48 04.02.2020
3198 Clear 15 1018 67 10000 2.1 180 02:27 04.02.2020
3199 Clouds 16 1018 63 10000 2.1 170 01:46 04.02.2020
3200 Clouds 16 1018 63 10000 2.1 170 01:19 04.02.2020
3201 Clouds 17 1018 52 10000 3.1 320 00:23 04.02.2020
3202 Clouds 17 1018 52 10000 3.6 300 23:49 03.02.2020
3203 Clouds 18 1018 52 10000 3.6 300 23:30 03.02.2020
3204 Clouds 18 1019 52 10000 5.1 320 22:58 03.02.2020
3205 Clouds 18 1019 52 10000 5.1 320 22:38 03.02.2020
3206 Clouds 18 1019 52 10000 5.1 320 22:19 03.02.2020
3207 Clouds 18 1019 52 10000 4.1 300 21:42 03.02.2020
3208 Clouds 18 1019 52 10000 4.1 300 21:20 03.02.2020
3209 Clouds 18 1019 52 10000 4.1 300 21:20 03.02.2020
3210 Clouds 19 1020 45 10000 4.6 290 20:56 03.02.2020
3211 Clouds 19 1020 45 10000 4.6 290 20:38 03.02.2020
3212 Clouds 19 1020 45 10000 4.6 290 20:18 03.02.2020
3213 Clouds 19 1020 49 10000 6.2 310 19:41 03.02.2020
3214 Clouds 19 1020 49 10000 6.2 310 19:22 03.02.2020
3215 Clouds 19 1020 49 10000 5.7 300 18:57 03.02.2020
3216 Clouds 19 1020 49 10000 5.7 300 18:39 03.02.2020
3217 Clouds 19 1020 49 10000 5.7 300 18:21 03.02.2020
3218 Clouds 19 1020 45 10000 7.2 290 17:57 03.02.2020
3219 Clouds 19 1020 45 10000 7.2 290 17:38 03.02.2020
3220 Clouds 19 1020 45 10000 7.2 290 17:19 03.02.2020
3221 Clouds 20 1019 45 10000 8.2 300 16:40 03.02.2020
3222 Clouds 20 1019 45 10000 8.2 300 16:21 03.02.2020
3223 Clouds 20 1019 49 10000 7.7 290 15:56 03.02.2020
3224 Clouds 20 1019 49 10000 7.7 290 15:38 03.02.2020
3225 Clouds 20 1019 49 10000 7.7 290 15:19 03.02.2020
3226 Clear 21 1019 43 10000 7.7 280 14:56 03.02.2020
3227 Clear 21 1019 43 10000 7.7 280 14:37 03.02.2020
3228 Clear 21 1019 43 10000 7.7 280 14:19 03.02.2020
3229 Clear 21 1019 40 10000 8.7 300 13:41 03.02.2020
3230 Clear 21 1019 40 10000 8.7 300 13:21 03.02.2020
3231 Clear 22 1019 37 10000 9.3 290 12:57 03.02.2020
3232 Clear 22 1019 37 10000 9.3 290 12:38 03.02.2020
3233 Clear 22 1019 37 10000 9.3 290 12:20 03.02.2020
3234 Clouds 22 1019 40 10000 7.7 290 11:40 03.02.2020
3235 Clouds 22 1019 40 10000 7.7 290 11:20 03.02.2020
3236 Clouds 22 1020 40 10000 7.7 280 10:58 03.02.2020
3237 Clouds 22 1020 40 10000 7.7 280 10:40 03.02.2020
3238 Clouds 22 1020 40 10000 7.7 280 10:40 03.02.2020
3239 Clouds 22 1020 40 10000 7.7 280 10:21 03.02.2020
3240 Clouds 22 1021 43 10000 7.7 290 09:42 03.02.2020
3241 Clouds 22 1021 43 10000 7.7 290 09:21 03.02.2020
3242 Clouds 22 1021 40 10000 7.7 280 08:42 03.02.2020
3243 Clouds 21 1021 40 10000 7.7 280 08:23 03.02.2020
3244 Clouds 21 1021 46 10000 7.2 290 07:58 03.02.2020
3245 Clouds 20 1021 46 10000 7.2 290 07:39 03.02.2020
3246 Clouds 20 1021 46 10000 7.2 290 07:20 03.02.2020
3247 Clouds 20 1021 46 10000 7.2 290 07:20 03.02.2020
3248 Clouds 18 1021 63 10000 2.6 210 06:47 03.02.2020
3249 Clouds 18 1021 63 10000 2.6 210 06:27 03.02.2020
3250 Clouds 15 1020 77 10000 4.1 0 05:36 03.02.2020
3251 Clouds 15 1020 87 8000 3.1 190 04:56 03.02.2020
3252 Clouds 15 1018 87 10000 2.6 190 02:58 03.02.2020
3253 Clouds 15 1018 87 10000 2.6 190 02:33 03.02.2020
3254 Clouds 16 1018 82 8000 1.5 0 01:30 03.02.2020
3255 Clouds 16 1019 88 6000 2.6 240 00:46 03.02.2020
3256 Clouds 16 1019 88 6000 2.6 240 00:22 03.02.2020
3257 Haze 16 1019 88 5000 2.6 230 23:38 02.02.2020
3258 Haze 16 1019 88 5000 2.6 230 23:20 02.02.2020
3259 Clouds 17 1019 82 6000 3.1 200 22:57 02.02.2020
3260 Clouds 17 1019 82 6000 3.1 200 22:37 02.02.2020
3261 Clouds 17 1019 82 6000 3.1 200 22:37 02.02.2020
3262 Clouds 17 1019 82 6000 3.1 200 22:19 02.02.2020
3263 Clouds 17 1020 88 7000 2.6 220 21:42 02.02.2020
3264 Clouds 18 1020 88 7000 2.6 220 21:24 02.02.2020
3265 Clouds 18 1020 82 10000 2.6 220 20:58 02.02.2020
3266 Clouds 18 1020 82 10000 2.6 220 20:39 02.02.2020
3267 Clouds 18 1020 82 10000 2.6 220 20:21 02.02.2020
3268 Clouds 18 1020 72 10000 2.6 230 19:59 02.02.2020
3269 Clouds 18 1020 72 10000 2.6 230 19:41 02.02.2020
3270 Clouds 18 1020 72 10000 2.6 230 19:23 02.02.2020
3271 Clouds 19 1020 72 10000 2.1 230 18:58 02.02.2020
3272 Clouds 19 1020 72 10000 2.1 230 18:38 02.02.2020
3273 Clouds 19 1020 72 10000 2.1 230 18:20 02.02.2020
3274 Clouds 20 1020 68 10000 2.6 280 17:58 02.02.2020
3275 Clouds 20 1020 68 10000 2.6 280 17:38 02.02.2020
3276 Clouds 20 1020 68 10000 2.6 280 17:18 02.02.2020
3277 Clouds 20 1019 68 10000 3.6 290 16:58 02.02.2020
3278 Clouds 20 1019 68 10000 3.6 290 16:38 02.02.2020
3279 Clouds 20 1019 68 10000 3.6 290 16:19 02.02.2020
3280 Clouds 21 1018 64 10000 5.1 320 15:57 02.02.2020
3281 Clouds 21 1018 64 10000 5.1 320 15:38 02.02.2020
3282 Clouds 21 1018 64 10000 5.1 320 15:19 02.02.2020
3283 Clouds 21 1018 64 10000 5.1 320 15:19 02.02.2020
3284 Clouds 21 1018 68 10000 5.1 300 14:45 02.02.2020
3285 Clouds 21 1018 68 10000 5.1 300 14:20 02.02.2020
3286 Clouds 22 1018 60 10000 5.7 320 13:59 02.02.2020
3287 Clouds 22 1018 60 10000 5.7 320 13:41 02.02.2020
3288 Clouds 22 1018 60 10000 5.7 320 13:23 02.02.2020
3289 Clouds 22 1018 46 10000 4.6 300 12:58 02.02.2020
3290 Clouds 22 1018 46 10000 4.6 300 12:40 02.02.2020
3291 Clouds 22 1018 46 10000 4.6 300 12:22 02.02.2020
3292 Clouds 23 1018 43 10000 4.6 300 11:54 02.02.2020
3293 Clouds 23 1018 43 10000 4.6 300 11:36 02.02.2020
3294 Clear 23 1018 43 10000 4.6 300 11:18 02.02.2020
3295 Clear 23 1019 43 10000 5.1 290 10:54 02.02.2020
3296 Clear 23 1019 43 10000 5.1 290 10:36 02.02.2020
3297 Clear 23 1019 35 10000 3.6 280 10:18 02.02.2020
3298 Clear 23 1019 35 10000 3.6 280 09:40 02.02.2020
3299 Clear 22 1019 35 10000 3.6 280 09:21 02.02.2020
3300 Clear 21 1020 49 10000 3.1 280 08:49 02.02.2020
3301 Clear 21 1020 49 10000 3.1 280 08:30 02.02.2020
3302 Clouds 19 1019 52 10000 2.1 140 07:49 02.02.2020
3303 Clouds 19 1019 52 10000 2.1 140 07:49 02.02.2020
3304 Clouds 19 1019 52 10000 2.1 140 07:31 02.02.2020
3305 Clouds 17 1019 63 8000 1 0 06:57 02.02.2020
3306 Clouds 17 1019 63 8000 1 0 06:38 02.02.2020
3307 Clouds 17 1019 63 8000 1 0 06:18 02.02.2020
3308 Clouds 15 1018 67 10000 1.5 200 05:20 02.02.2020
3309 Clouds 15 1017 63 10000 1 0 04:21 02.02.2020
3310 Clouds 14 1017 63 10000 1 0 03:23 02.02.2020
3311 Clouds 15 1016 63 10000 2.1 90 02:20 02.02.2020
3312 Clouds 15 1016 59 10000 2.6 90 01:50 02.02.2020
3313 Clouds 15 1017 63 10000 2.6 140 00:51 02.02.2020
3314 Clouds 15 1017 63 10000 2.6 140 00:29 02.02.2020
3315 Clouds 15 1017 63 10000 0.5 0 23:58 01.02.2020
3316 Clouds 15 1017 63 10000 0.5 0 23:39 01.02.2020
3317 Clear 15 1017 63 10000 0.5 0 23:21 01.02.2020
3318 Clear 15 1018 63 10000 1.5 230 22:43 01.02.2020
3319 Clear 15 1018 63 10000 1.5 230 22:19 01.02.2020
3320 Clear 16 1018 63 10000 1 190 21:42 01.02.2020
3321 Clear 16 1018 63 10000 1 190 21:19 01.02.2020
3322 Clear 16 1018 55 10000 2.1 150 20:56 01.02.2020
3323 Clear 16 1018 55 10000 2.1 150 20:37 01.02.2020
3324 Clear 16 1018 55 10000 2.1 150 20:18 01.02.2020
3325 Clear 17 1018 55 10000 3.1 100 19:55 01.02.2020
3326 Clear 17 1018 55 10000 3.1 100 19:37 01.02.2020
3327 Clear 17 1018 55 10000 3.1 100 19:18 01.02.2020
3328 Clear 17 1018 52 10000 2.1 360 18:55 01.02.2020
3329 Clear 18 1018 52 10000 2.1 360 18:36 01.02.2020
3330 Clear 18 1018 52 10000 2.1 360 18:18 01.02.2020
3331 Clear 19 1018 56 10000 3.6 330 17:54 01.02.2020
3332 Clear 19 1018 56 10000 3.6 330 17:36 01.02.2020
3333 Clear 19 1018 56 10000 3.6 330 17:18 01.02.2020
3334 Clear 19 1017 52 10000 4.6 340 16:39 01.02.2020
3335 Clear 19 1017 52 10000 4.6 340 16:21 01.02.2020
3336 Clear 20 1017 46 10000 5.1 310 15:46 01.02.2020
3337 Clear 20 1017 46 10000 5.1 310 15:27 01.02.2020
3338 Clear 21 1016 49 10000 6.7 340 14:58 01.02.2020
3339 Clear 21 1016 49 10000 6.7 340 14:39 01.02.2020
3340 Clear 21 1016 49 10000 6.7 340 14:20 01.02.2020
3341 Clear 22 1016 46 10000 5.1 330 13:45 01.02.2020
3342 Clear 22 1016 46 10000 5.1 330 13:21 01.02.2020
3343 Clear 23 1016 43 10000 6.2 330 12:44 01.02.2020
3344 Clear 23 1016 43 10000 6.2 330 12:26 01.02.2020
3345 Clear 23 1016 43 10000 5.1 320 11:57 01.02.2020
3346 Clear 23 1016 31 10000 3.1 240 11:38 01.02.2020
3347 Clear 23 1016 31 10000 3.1 240 11:19 01.02.2020
3348 Clear 22 1017 35 10000 2.1 200 10:55 01.02.2020
3349 Clear 22 1017 35 10000 2.1 200 10:37 01.02.2020
3350 Clear 22 1017 35 10000 2.1 200 10:37 01.02.2020
3351 Clear 22 1017 35 10000 2.1 200 10:19 01.02.2020
3352 Clear 22 1018 40 10000 1.5 0 09:42 01.02.2020
3353 Clear 21 1018 40 10000 1.5 0 09:23 01.02.2020
3354 Clear 21 1019 46 10000 1.5 160 09:00 01.02.2020
3355 Clear 20 1019 46 10000 1.5 160 08:38 01.02.2020
3356 Clear 19 1019 59 10000 2.6 240 07:47 01.02.2020
3357 Clear 18 1019 59 10000 2.6 240 07:25 01.02.2020
3358 Clear 18 1019 59 10000 2.6 240 07:25 01.02.2020
3359 Clear 18 1019 59 10000 2.6 240 07:25 01.02.2020
3360 Clear 16 1018 67 10000 2.1 170 06:50 01.02.2020
3361 Clear 16 1018 67 10000 2.1 170 06:19 01.02.2020
3362 Clear 13 1018 72 10000 2.1 190 05:51 01.02.2020
3363 Clear 13 1016 72 10000 1.5 180 03:43 01.02.2020
3364 Clear 13 1016 72 10000 1.5 180 03:20 01.02.2020
3365 Clear 14 1016 72 10000 1 0 02:43 01.02.2020
3366 Clear 14 1016 72 10000 1 0 02:22 01.02.2020
3367 Clear 15 1016 72 10000 1.5 180 01:48 01.02.2020
3368 Clear 15 1016 72 10000 1.5 180 01:28 01.02.2020
3369 Clear 15 1016 67 10000 2.1 210 00:25 01.02.2020
3370 Clear 15 1016 67 10000 1 200 23:42 31.01.2020
3371 Clear 15 1016 67 10000 1 200 23:19 31.01.2020
3372 Clear 16 1016 55 10000 1.5 160 22:58 31.01.2020
3373 Clear 16 1016 55 10000 1.5 160 22:58 31.01.2020
3374 Clear 16 1016 55 10000 1.5 160 22:40 31.01.2020
3375 Clear 16 1016 55 10000 1.5 160 22:21 31.01.2020
3376 Clear 16 1016 55 10000 2.1 80 21:55 31.01.2020
3377 Clear 16 1016 55 10000 2.1 80 21:37 31.01.2020
3378 Clear 16 1016 55 10000 2.1 80 21:19 31.01.2020
3379 Clear 17 1017 52 10000 1.5 50 20:55 31.01.2020
3380 Clear 17 1017 52 10000 1.5 50 20:37 31.01.2020
3381 Clear 17 1017 52 10000 2.1 360 20:18 31.01.2020
3382 Clear 18 1017 52 10000 2.1 360 19:54 31.01.2020
3383 Clear 18 1017 52 10000 2.1 360 19:36 31.01.2020
3384 Clear 18 1017 52 10000 2.1 360 19:18 31.01.2020
3385 Clear 18 1017 56 10000 2.6 350 18:38 31.01.2020
3386 Clear 18 1017 56 10000 2.6 350 18:20 31.01.2020
3387 Clear 19 1017 56 10000 3.1 340 17:46 31.01.2020
3388 Clear 19 1017 56 10000 3.1 340 17:46 31.01.2020
3389 Clear 19 1017 56 10000 3.1 340 17:27 31.01.2020
3390 Clear 19 1017 56 10000 3.6 340 16:57 31.01.2020
3391 Clear 19 1017 56 10000 3.6 340 16:38 31.01.2020
3392 Clear 20 1017 56 10000 3.6 340 16:19 31.01.2020
3393 Clear 20 1016 52 10000 5.1 340 15:58 31.01.2020
3394 Clear 20 1016 52 10000 5.1 340 15:39 31.01.2020
3395 Clear 20 1016 52 10000 5.1 340 15:20 31.01.2020
3396 Clear 21 1016 49 10000 5.1 340 14:44 31.01.2020
3397 Clear 21 1016 49 10000 5.1 340 14:24 31.01.2020
3398 Clear 22 1016 49 10000 5.1 350 13:56 31.01.2020
3399 Clear 22 1016 49 10000 5.1 350 13:37 31.01.2020
3400 Clear 22 1016 49 10000 5.1 350 13:18 31.01.2020
3401 Clear 22 1016 53 10000 4.1 340 12:43 31.01.2020
3402 Clear 22 1016 53 10000 4.1 340 12:23 31.01.2020
3403 Clouds 23 1017 49 10000 4.1 330 11:55 31.01.2020
3404 Clouds 23 1017 49 10000 4.1 330 11:37 31.01.2020
3405 Clouds 23 1017 49 10000 4.1 330 11:18 31.01.2020
3406 Clouds 23 1018 46 10000 1.5 0 10:43 31.01.2020
3407 Clouds 22 1018 46 10000 1.5 0 10:22 31.01.2020
3408 Clouds 21 1019 52 10000 2.1 160 09:57 31.01.2020
3409 Clouds 21 1019 52 10000 2.1 160 09:39 31.01.2020
3410 Clouds 21 1019 52 10000 2.1 160 09:39 31.01.2020
3411 Clouds 21 1019 52 10000 2.1 160 09:19 31.01.2020
3412 Clouds 21 1019 52 10000 2.1 160 09:19 31.01.2020
3413 Clouds 20 1020 60 10000 2.6 200 08:52 31.01.2020
3414 Clouds 20 1020 60 10000 2.6 200 08:27 31.01.2020
3415 Clear 19 1021 68 10000 2.1 180 07:53 31.01.2020
3416 Clear 18 1021 68 10000 2.1 180 07:25 31.01.2020
3417 Clear 16 1020 77 8000 1.5 180 06:49 31.01.2020
3418 Clear 16 1020 77 8000 1.5 180 06:19 31.01.2020
3419 Clear 14 1020 82 7000 1.5 160 05:48 31.01.2020
3420 Haze 13 1020 82 5000 2.1 180 04:56 31.01.2020
3421 Clear 14 1018 82 8000 1.5 160 02:58 31.01.2020
3422 Clear 13 1018 82 8000 2.1 170 01:38 31.01.2020
3423 Clear 15 1018 77 8000 1.5 130 00:46 31.01.2020
3424 Clear 15 1018 77 8000 1.5 130 00:26 31.01.2020
3425 Clear 15 1018 77 8000 2.1 120 23:57 30.01.2020
3426 Clear 15 1018 77 8000 2.1 120 23:24 30.01.2020
3427 Clear 16 1018 72 10000 2.6 190 22:57 30.01.2020
3428 Clear 16 1018 72 10000 2.6 190 22:57 30.01.2020
3429 Clear 16 1018 72 10000 2.6 190 22:36 30.01.2020
3430 Clear 16 1018 72 10000 2.6 190 22:18 30.01.2020
3431 Clear 16 1019 68 10000 2.6 200 21:55 30.01.2020
3432 Clear 17 1019 68 10000 2.6 200 21:36 30.01.2020
3433 Clear 17 1019 68 10000 2.6 200 21:18 30.01.2020
3434 Clear 17 1019 63 10000 2.1 190 20:40 30.01.2020
3435 Clear 17 1019 63 10000 2.1 190 20:21 30.01.2020
3436 Clear 18 1019 56 10000 2.6 260 19:56 30.01.2020
3437 Clear 18 1019 56 10000 2.6 260 19:38 30.01.2020
3438 Clear 18 1019 56 10000 2.6 260 19:18 30.01.2020
3439 Clear 19 1019 52 10000 2.6 280 18:41 30.01.2020
3440 Clear 19 1019 52 10000 2.6 280 18:21 30.01.2020
3441 Clear 19 1018 60 10000 3.1 300 17:56 30.01.2020
3442 Clear 19 1018 60 10000 3.1 300 17:37 30.01.2020
3443 Clear 19 1018 60 10000 3.1 300 17:18 30.01.2020
3444 Clear 19 1018 56 10000 3.6 300 16:56 30.01.2020
3445 Clear 19 1018 56 10000 3.6 300 16:56 30.01.2020
3446 Clear 19 1018 56 10000 3.6 300 16:37 30.01.2020
3447 Clear 19 1018 56 10000 3.6 300 16:19 30.01.2020
3448 Clear 20 1018 49 10000 5.1 320 15:43 30.01.2020
3449 Clear 20 1018 49 10000 5.1 320 15:19 30.01.2020
3450 Clear 21 1018 49 10000 5.7 310 14:50 30.01.2020
3451 Clear 21 1018 49 10000 5.7 310 14:50 30.01.2020
3452 Clear 21 1018 49 10000 5.7 310 14:27 30.01.2020
3453 Clear 21 1018 52 10000 6.2 330 13:54 30.01.2020
3454 Clear 21 1018 49 10000 5.1 270 13:36 30.01.2020
3455 Clear 21 1018 49 10000 5.1 270 13:18 30.01.2020
3456 Clear 22 1018 40 10000 4.1 300 12:41 30.01.2020
3457 Clear 22 1018 40 10000 4.1 300 12:22 30.01.2020
3458 Clear 22 1018 40 10000 5.1 280 11:56 30.01.2020
3459 Clear 22 1018 40 10000 5.1 280 11:38 30.01.2020
3460 Clear 22 1018 40 10000 5.1 280 11:38 30.01.2020
3461 Clear 22 1018 40 10000 5.1 280 11:19 30.01.2020
3462 Clouds 22 1019 43 10000 4.1 280 10:42 30.01.2020
3463 Clouds 22 1019 43 10000 4.1 280 10:22 30.01.2020
3464 Clouds 21 1021 43 10000 3.6 300 09:48 30.01.2020
3465 Clouds 21 1021 43 10000 3.6 300 09:30 30.01.2020
3466 Clouds 21 1021 52 10000 2.6 280 08:59 30.01.2020
3467 Clouds 21 1021 52 10000 2.6 280 08:39 30.01.2020
3468 Clouds 20 1021 52 10000 2.6 280 08:20 30.01.2020
3469 Clouds 20 1021 60 8000 1.5 240 07:49 30.01.2020
3470 Clouds 19 1021 60 8000 1.5 240 07:28 30.01.2020
3471 Clear 17 1021 72 7000 3.1 210 06:47 30.01.2020
3472 Clear 17 1021 72 7000 3.1 210 06:28 30.01.2020
3473 Clouds 15 1020 77 8000 2.6 180 05:44 30.01.2020
3474 Clouds 15 1020 77 8000 2.6 180 05:20 30.01.2020
3475 Clear 15 1019 77 10000 1.5 210 03:54 30.01.2020
3476 Clear 15 1019 77 10000 1.5 210 03:36 30.01.2020
3477 Clear 15 1018 72 10000 1.5 210 02:22 30.01.2020
3478 Clear 16 1018 68 10000 1 0 00:42 30.01.2020
3479 Clear 16 1018 68 10000 1 0 00:20 30.01.2020
3480 Clear 16 1018 68 10000 1.5 30 23:46 29.01.2020
3481 Clear 16 1018 68 10000 1.5 30 23:21 29.01.2020
3482 Clear 17 1019 64 10000 1.5 60 22:57 29.01.2020
3483 Clear 17 1019 64 10000 1.5 60 22:38 29.01.2020
3484 Clear 17 1019 64 10000 1.5 60 22:19 29.01.2020
3485 Clear 17 1019 64 10000 2.1 50 21:57 29.01.2020
3486 Clear 17 1019 64 10000 2.1 50 21:38 29.01.2020
3487 Clear 17 1019 64 10000 2.1 50 21:19 29.01.2020
3488 Clear 18 1019 64 10000 2.1 20 20:57 29.01.2020
3489 Clear 18 1019 64 10000 2.1 20 20:38 29.01.2020
3490 Clear 18 1019 64 10000 2.1 20 20:38 29.01.2020
3491 Clouds 18 1019 64 10000 2.1 20 20:19 29.01.2020
3492 Clouds 18 1019 64 10000 2.1 20 19:55 29.01.2020
3493 Clouds 18 1019 64 10000 2.1 20 19:37 29.01.2020
3494 Clouds 18 1019 64 10000 2.1 20 19:37 29.01.2020
3495 Clouds 18 1019 64 10000 2.1 20 19:18 29.01.2020
3496 Clouds 18 1019 64 10000 2.1 50 18:42 29.01.2020
3497 Clouds 19 1019 64 10000 2.1 50 18:19 29.01.2020
3498 Clouds 19 1019 60 10000 3.1 40 17:55 29.01.2020
3499 Clouds 19 1019 60 10000 3.1 40 17:37 29.01.2020
3500 Clouds 19 1019 60 10000 3.1 40 17:18 29.01.2020
3501 Clouds 20 1018 46 10000 3.1 20 16:40 29.01.2020
3502 Clouds 20 1018 46 10000 3.1 20 16:22 29.01.2020
3503 Clouds 21 1018 49 10000 4.6 350 15:41 29.01.2020
3504 Clouds 21 1018 49 10000 4.6 350 15:22 29.01.2020
3505 Clouds 22 1018 49 10000 5.1 340 14:58 29.01.2020
3506 Clouds 22 1018 49 10000 5.1 340 14:40 29.01.2020
3507 Clouds 22 1018 49 10000 5.1 340 14:19 29.01.2020
3508 Clouds 22 1018 49 10000 6.7 340 13:41 29.01.2020
3509 Clouds 22 1018 49 10000 6.7 340 13:22 29.01.2020
3510 Clouds 22 1017 49 10000 6.2 350 12:57 29.01.2020
3511 Clouds 22 1017 49 10000 6.2 350 12:39 29.01.2020
3512 Clouds 22 1017 49 10000 6.2 350 12:21 29.01.2020
3513 Clouds 23 1018 33 10000 2.1 0 11:56 29.01.2020
3514 Clouds 23 1018 33 10000 2.1 0 11:37 29.01.2020
3515 Clouds 23 1018 33 10000 2.1 0 11:19 29.01.2020
3516 Clouds 23 1019 38 10000 2.1 0 10:45 29.01.2020
3517 Clouds 22 1020 40 10000 1.5 0 10:22 29.01.2020
3518 Clouds 22 1020 40 10000 1.5 0 09:40 29.01.2020
3519 Clouds 22 1020 40 10000 1.5 0 09:40 29.01.2020
3520 Clouds 22 1020 40 10000 1.5 0 09:22 29.01.2020
3521 Clouds 21 1021 43 10000 2.6 0 08:58 29.01.2020
3522 Clear 21 1021 43 10000 2.6 0 08:39 29.01.2020
3523 Clear 21 1021 43 10000 2.6 0 08:20 29.01.2020
3524 Clear 19 1021 49 10000 4.1 10 07:45 29.01.2020
3525 Clear 18 1021 49 10000 4.1 10 07:25 29.01.2020
3526 Clear 16 1020 63 7000 2.6 50 06:55 29.01.2020
3527 Clear 16 1020 63 7000 2.6 50 06:37 29.01.2020
3528 Clear 16 1020 63 7000 2.6 50 06:18 29.01.2020
3529 Clear 13 1020 72 7000 1.5 80 05:45 29.01.2020
3530 Clear 13 1020 72 7000 1.5 80 05:26 29.01.2020
3531 Clear 13 1018 77 9000 3.1 100 04:38 29.01.2020
3532 Clear 13 1018 72 10000 3.1 110 03:49 29.01.2020
3533 Clear 14 1018 72 10000 1.5 170 02:33 29.01.2020
3534 Clear 14 1018 72 10000 1.5 120 00:43 29.01.2020
3535 Clear 14 1018 72 10000 1.5 120 00:25 29.01.2020
3536 Clear 15 1019 67 10000 1.5 90 23:58 28.01.2020
3537 Clear 15 1019 67 10000 1.5 90 23:37 28.01.2020
3538 Clear 15 1019 67 10000 1.5 90 23:18 28.01.2020
3539 Clear 15 1019 63 10000 1.5 70 22:40 28.01.2020
3540 Clear 15 1019 63 10000 1.5 70 22:21 28.01.2020
3541 Clear 15 1019 63 10000 2.6 90 21:42 28.01.2020
3542 Clear 15 1019 63 10000 2.6 90 21:23 28.01.2020
3543 Clear 15 1019 63 10000 2.6 90 21:23 28.01.2020
3544 Clear 17 1020 55 10000 3.1 110 20:58 28.01.2020
3545 Clear 17 1020 55 10000 3.1 110 20:40 28.01.2020
3546 Clear 17 1020 55 10000 3.1 110 20:21 28.01.2020
3547 Clear 17 1020 52 10000 1.5 40 19:39 28.01.2020
3548 Clear 17 1020 52 10000 1.5 40 19:20 28.01.2020
3549 Clear 18 1020 56 10000 2.1 350 18:58 28.01.2020
3550 Clear 17 1020 56 10000 2.1 350 18:40 28.01.2020
3551 Clear 18 1020 56 10000 2.1 350 18:21 28.01.2020
3552 Clear 18 1020 56 10000 2.1 350 18:21 28.01.2020
3553 Clear 18 1019 56 10000 3.6 350 17:57 28.01.2020
3554 Clear 19 1019 56 10000 3.6 350 17:37 28.01.2020
3555 Clear 19 1019 56 10000 3.6 350 17:19 28.01.2020
3556 Clear 19 1019 56 10000 4.1 350 16:54 28.01.2020
3557 Clear 19 1019 56 10000 4.1 350 16:36 28.01.2020
3558 Clear 19 1019 56 10000 4.1 350 16:18 28.01.2020
3559 Clear 20 1019 46 10000 4.1 350 15:41 28.01.2020
3560 Clear 20 1019 46 10000 4.1 350 15:19 28.01.2020
3561 Clear 20 1019 46 10000 4.1 350 15:19 28.01.2020
3562 Clear 21 1018 46 10000 6.2 330 14:46 28.01.2020
3563 Clear 21 1018 46 10000 6.2 330 14:20 28.01.2020
3564 Clear 22 1018 43 10000 5.7 350 13:58 28.01.2020
3565 Clear 22 1018 43 10000 5.7 350 13:39 28.01.2020
3566 Clear 22 1018 43 10000 5.7 350 13:20 28.01.2020
3567 Clear 22 1018 37 10000 5.1 340 12:42 28.01.2020
3568 Clear 22 1018 37 10000 5.1 340 12:23 28.01.2020
3569 Clear 23 1019 28 10000 2.6 120 11:48 28.01.2020
3570 Clear 23 1019 28 10000 2.6 120 11:23 28.01.2020
3571 Clear 22 1020 28 10000 1 0 10:58 28.01.2020
3572 Clear 22 1020 28 10000 1 0 10:39 28.01.2020
3573 Clear 22 1020 28 10000 1 0 10:20 28.01.2020
3574 Clear 21 1021 37 10000 1.5 0 09:43 28.01.2020
3575 Clear 20 1021 37 10000 1.5 0 09:21 28.01.2020
3576 Clear 20 1022 49 10000 2.6 170 08:57 28.01.2020
3577 Clear 19 1022 49 10000 2.6 170 08:39 28.01.2020
3578 Clear 19 1022 49 10000 2.6 170 08:18 28.01.2020
3579 Clear 17 1022 63 10000 3.1 180 07:37 28.01.2020
3580 Clear 17 1022 63 10000 3.1 180 07:37 28.01.2020
3581 Clear 15 1022 72 10000 3.1 170 06:50 28.01.2020
3582 Clear 15 1022 72 10000 3.1 170 06:26 28.01.2020
3583 Clear 13 1021 76 10000 1.5 170 05:54 28.01.2020
3584 Clear 13 1021 76 10000 1.5 170 05:26 28.01.2020
3585 Clouds 13 1019 76 10000 1 0 03:59 28.01.2020
3586 Clouds 13 1019 76 10000 1.5 140 02:58 28.01.2020
3587 Clouds 13 1019 76 10000 1.5 140 02:25 28.01.2020
3588 Clouds 14 1019 72 10000 2.1 160 01:57 28.01.2020
3589 Clouds 14 1019 72 10000 2.1 160 01:23 28.01.2020
3590 Clouds 14 1019 72 10000 1.5 170 00:45 28.01.2020
3591 Clouds 14 1019 72 10000 1.5 170 00:24 28.01.2020
3592 Clouds 15 1019 72 10000 2.1 160 23:48 27.01.2020
3593 Clouds 15 1019 72 10000 2.1 160 23:29 27.01.2020
3594 Clouds 16 1019 55 10000 1.5 220 22:54 27.01.2020
3595 Clouds 16 1019 55 10000 1.5 220 22:36 27.01.2020
3596 Clouds 16 1019 55 10000 1.5 220 22:18 27.01.2020
3597 Clouds 16 1019 55 10000 2.1 260 21:40 27.01.2020
3598 Clouds 16 1019 55 10000 2.1 260 21:19 27.01.2020
3599 Clouds 17 1020 45 10000 2.6 270 20:59 27.01.2020
3600 Clouds 17 1020 45 10000 2.6 270 20:40 27.01.2020
3601 Clouds 17 1020 45 10000 2.6 270 20:21 27.01.2020
3602 Clouds 18 1020 52 10000 3.1 270 19:58 27.01.2020
3603 Clouds 18 1020 52 10000 3.1 270 19:40 27.01.2020
3604 Clouds 18 1020 52 10000 3.1 270 19:21 27.01.2020
3605 Clouds 18 1020 48 10000 3.6 280 18:55 27.01.2020
3606 Clouds 18 1020 48 10000 3.6 280 18:37 27.01.2020
3607 Clouds 18 1020 48 10000 3.6 280 18:19 27.01.2020
3608 Clear 18 1019 52 0 4.47 250 17:39 27.01.2020
3609 Clouds 19 1019 45 10000 5.1 300 17:19 27.01.2020
3610 Clouds 19 1019 45 10000 5.1 300 16:57 27.01.2020
3611 Clouds 19 1019 45 10000 5.1 300 16:39 27.01.2020
3612 Clouds 19 1019 45 10000 5.1 300 16:21 27.01.2020
3613 Clear 19 1019 49 10000 6.2 280 15:54 27.01.2020
3614 Clear 19 1019 49 10000 6.2 280 15:36 27.01.2020
3615 Clear 19 1019 49 10000 6.2 280 15:18 27.01.2020
3616 Clouds 20 1018 46 10000 6.7 300 14:40 27.01.2020
3617 Clouds 20 1018 46 10000 6.7 300 14:21 27.01.2020
3618 Clouds 20 1018 49 10000 8.2 310 13:54 27.01.2020
3619 Clouds 20 1018 49 10000 8.2 310 13:36 27.01.2020
3620 Clouds 20 1018 49 10000 8.2 310 13:18 27.01.2020
3621 Clouds 21 1018 52 10000 7.2 280 12:41 27.01.2020
3622 Clouds 21 1018 52 10000 7.2 280 12:22 27.01.2020
3623 Clouds 21 1019 52 10000 8.2 300 11:43 27.01.2020
3624 Clouds 21 1019 52 10000 8.2 300 11:23 27.01.2020
3625 Clouds 21 1020 43 10000 4.6 290 10:57 27.01.2020
3626 Clouds 21 1020 43 10000 4.6 290 10:57 27.01.2020
3627 Clouds 21 1020 43 10000 4.6 290 10:39 27.01.2020
3628 Clouds 21 1020 43 10000 4.6 290 10:20 27.01.2020
3629 Clouds 21 1020 46 10000 5.1 300 09:40 27.01.2020
3630 Clouds 21 1020 46 10000 5.1 300 09:19 27.01.2020
3631 Clear 20 1021 63 10000 3.1 200 09:19 27.01.2020
3632 Clear 20 1021 63 10000 3.1 200 08:57 27.01.2020
3633 Clear 19 1021 63 10000 3.1 200 08:39 27.01.2020
3634 Clear 19 1021 63 10000 3.1 200 08:19 27.01.2020
3635 Clouds 18 1021 67 10000 2.6 190 07:47 27.01.2020
3636 Clouds 18 1021 67 10000 2.6 190 07:47 27.01.2020
3637 Clouds 18 1021 67 10000 2.6 190 07:29 27.01.2020
3638 Clouds 16 1021 67 10000 3.1 170 06:38 27.01.2020
3639 Clouds 14 1020 76 10000 3.6 200 05:51 27.01.2020
3640 Clouds 14 1020 76 10000 3.6 200 05:18 27.01.2020
3641 Clouds 13 1019 76 10000 2.6 180 03:35 27.01.2020
3642 Clouds 15 1018 63 10000 2.6 150 01:56 27.01.2020
3643 Clouds 15 1018 63 10000 2.6 150 01:27 27.01.2020
3644 Clouds 16 1018 48 10000 4.1 320 00:42 27.01.2020
3645 Clouds 16 1018 48 10000 4.1 320 00:22 27.01.2020
3646 Clouds 16 1018 52 10000 4.1 320 23:46 26.01.2020
3647 Clouds 16 1018 52 10000 4.1 320 23:27 26.01.2020
3648 Clouds 17 1018 45 10000 5.1 320 22:59 26.01.2020
3649 Clouds 17 1018 45 10000 5.1 320 22:39 26.01.2020
3650 Clouds 17 1018 45 10000 5.1 320 22:20 26.01.2020
3651 Clouds 17 1018 45 10000 6.2 320 21:58 26.01.2020
3652 Clouds 17 1018 45 10000 6.2 320 21:39 26.01.2020
3653 Clouds 17 1018 45 10000 6.2 320 21:21 26.01.2020
3654 Clouds 17 1018 45 10000 6.2 320 21:21 26.01.2020
3655 Clouds 18 1019 48 10000 6.2 310 20:58 26.01.2020
3656 Clouds 18 1019 48 10000 6.2 310 20:38 26.01.2020
3657 Clouds 18 1019 48 10000 6.2 310 20:19 26.01.2020
3658 Clouds 17 1019 52 10000 8.2 300 19:58 26.01.2020
3659 Clouds 17 1019 52 10000 8.2 300 19:38 26.01.2020
3660 Clouds 17 1019 52 10000 8.2 300 19:38 26.01.2020
3661 Clouds 18 1019 52 10000 8.2 300 19:20 26.01.2020
3662 Clouds 17 1018 52 10000 8.2 300 18:56 26.01.2020
3663 Clouds 17 1018 52 10000 8.2 300 18:38 26.01.2020
3664 Clouds 17 1018 52 10000 8.2 300 18:20 26.01.2020
3665 Clouds 17 1018 55 10000 8.2 300 17:55 26.01.2020
3666 Clouds 17 1018 55 10000 8.2 300 17:36 26.01.2020
3667 Clouds 17 1018 55 10000 8.2 300 17:18 26.01.2020
3668 Clouds 17 1018 55 10000 8.2 290 16:56 26.01.2020
3669 Clouds 17 1018 55 10000 8.2 290 16:56 26.01.2020
3670 Clouds 17 1018 67 10000 5.1 270 16:37 26.01.2020
3671 Clouds 16 1018 67 10000 5.1 270 16:18 26.01.2020
3672 Rain 18 1020 45 0 9.39 280 15:43 26.01.2020
3673 Rain 18 1020 45 0 9.39 280 15:21 26.01.2020
3674 Rain 18 1020 45 0 9.39 280 14:56 26.01.2020
3675 Rain 18 1020 45 0 9.39 280 14:38 26.01.2020
3676 Rain 18 1020 45 0 9.39 280 14:18 26.01.2020
3677 Rain 18 1020 45 0 9.39 280 13:39 26.01.2020
3678 Rain 18 1020 45 0 9.39 280 13:18 26.01.2020
3679 Rain 18 1020 45 0 9.39 280 12:54 26.01.2020
3680 Rain 18 1020 45 0 9.39 280 12:36 26.01.2020
3681 Rain 18 1020 45 0 9.39 280 12:18 26.01.2020
3682 Rain 18 1020 45 0 9.39 280 11:56 26.01.2020
3683 Dust 19 1020 45 4000 9.8 280 11:36 26.01.2020
3684 Clouds 19 1018 37 10000 8.2 270 11:18 26.01.2020
3685 Clouds 19 1018 37 10000 8.2 270 10:39 26.01.2020
3686 Clouds 19 1018 37 10000 8.2 270 10:21 26.01.2020
3687 Clouds 19 1019 42 10000 8.2 270 09:59 26.01.2020
3688 Clouds 19 1019 42 10000 8.2 270 09:41 26.01.2020
3689 Clouds 19 1019 42 10000 8.2 270 09:22 26.01.2020
3690 Clouds 20 1019 49 10000 9.3 280 08:55 26.01.2020
3691 Clouds 20 1019 49 10000 9.3 280 08:37 26.01.2020
3692 Clouds 20 1019 49 10000 9.3 280 08:18 26.01.2020
3693 Clouds 20 1019 46 10000 6.7 0 07:45 26.01.2020
3694 Clouds 19 1019 49 10000 8.2 280 07:22 26.01.2020
3695 Clouds 19 1019 56 10000 7.2 280 06:32 26.01.2020
3696 Clouds 18 1018 52 10000 5.1 280 05:37 26.01.2020
3697 Clouds 17 1018 56 10000 5.7 280 04:58 26.01.2020
3698 Clouds 16 1017 63 10000 2.6 230 03:22 26.01.2020
3699 Clear 16 1017 72 10000 1.5 230 01:59 26.01.2020
3700 Clear 16 1017 72 10000 1.5 230 01:39 26.01.2020
3701 Clear 16 1017 72 10000 1.5 230 01:19 26.01.2020
3702 Clear 16 1017 72 10000 1.5 200 00:39 26.01.2020
3703 Clear 17 1017 72 10000 1.5 200 00:20 26.01.2020
3704 Clear 20 1018 46 0 3.13 278 23:38 25.01.2020
3705 Clear 20 1018 46 0 3.13 278 23:19 25.01.2020
3706 Clear 20 1018 46 0 3.13 278 22:43 25.01.2020
3707 Clear 20 1018 46 0 3.13 278 22:20 25.01.2020
3708 Clear 20 1018 46 0 3.13 278 21:58 25.01.2020
3709 Clear 20 1018 46 0 3.13 278 21:39 25.01.2020
3710 Clear 20 1018 46 0 3.13 278 21:21 25.01.2020
3711 Clear 20 1018 46 0 3.13 278 20:45 25.01.2020
3712 Clear 20 1017 52 0 4.93 272 20:26 25.01.2020
3713 Clear 20 1017 52 0 4.93 272 20:26 25.01.2020
3714 Clear 20 1018 46 0 3.13 278 19:57 25.01.2020
3715 Clear 20 1018 43 0 2.24 310 19:38 25.01.2020
3716 Clear 20 1018 43 0 2.24 310 19:19 25.01.2020
3717 Clear 21 1018 43 0 2.24 310 19:19 25.01.2020
3718 Clear 21 1018 43 0 2.24 310 18:56 25.01.2020
3719 Clear 21 1018 43 0 2.24 310 18:37 25.01.2020
3720 Clear 20 1018 43 0 2.24 310 18:18 25.01.2020
3721 Clear 21 1018 43 0 2.24 310 17:39 25.01.2020
3722 Clear 22 1018 43 0 2.24 310 17:19 25.01.2020
3723 Clear 20 1018 48 0 3.39 303 16:56 25.01.2020
3724 Clear 22 1018 43 0 2.24 310 16:38 25.01.2020
3725 Clear 22 1018 43 0 2.24 310 16:19 25.01.2020
3726 Clear 22 1018 43 0 2.24 310 15:42 25.01.2020
3727 Clear 22 1018 43 0 2.24 310 15:24 25.01.2020
3728 Clear 22 1018 43 0 2.24 310 14:47 25.01.2020
3729 Clear 22 1018 43 0 2.24 310 14:20 25.01.2020
3730 Clear 22 1018 43 0 2.24 310 13:58 25.01.2020
3731 Clear 22 1018 43 0 2.24 310 13:39 25.01.2020
3732 Clear 22 1018 43 0 2.24 310 13:20 25.01.2020
3733 Clear 22 1018 43 0 2.24 310 12:43 25.01.2020
3734 Clear 23 1018 38 10000 4.1 320 12:21 25.01.2020
3735 Clear 23 1018 38 10000 4.1 320 11:45 25.01.2020
3736 Clear 22 1018 38 10000 4.1 320 11:21 25.01.2020
3737 Clear 22 1019 53 10000 4.1 350 10:57 25.01.2020
3738 Clear 22 1019 53 10000 4.1 350 10:39 25.01.2020
3739 Clear 22 1019 53 10000 4.1 350 10:20 25.01.2020
3740 Clear 21 1020 53 10000 3.6 350 09:41 25.01.2020
3741 Clear 21 1020 53 10000 3.6 350 09:22 25.01.2020
3742 Clouds 21 1021 56 10000 3.1 20 08:44 25.01.2020
3743 Clouds 20 1021 56 10000 3.1 20 08:21 25.01.2020
3744 Clear 19 1021 64 10000 2.6 170 07:43 25.01.2020
3745 Clear 17 1021 68 10000 2.1 150 06:51 25.01.2020
3746 Clear 17 1021 68 10000 2.1 150 06:27 25.01.2020
3747 Clear 15 1020 77 10000 2.6 170 05:45 25.01.2020
3748 Clear 14 1019 77 10000 2.1 190 04:26 25.01.2020
3749 Clear 14 1019 77 10000 1.5 180 03:50 25.01.2020
3750 Clear 15 1018 77 10000 1 0 02:53 25.01.2020
3751 Clear 15 1018 68 10000 1.5 270 01:59 25.01.2020
3752 Clear 15 1018 68 10000 1.5 270 01:59 25.01.2020
3753 Clear 15 1018 68 10000 1.5 270 01:37 25.01.2020
3754 Clear 15 1018 68 10000 1.5 270 01:37 25.01.2020
3755 Clear 17 1019 68 10000 2.1 0 00:42 25.01.2020
3756 Clear 17 1019 68 10000 2.1 0 00:23 25.01.2020
3757 Clear 16 1019 72 10000 1 0 23:57 24.01.2020
3758 Clear 16 1019 72 10000 1 0 23:38 24.01.2020
3759 Clear 16 1019 72 10000 1 0 23:38 24.01.2020
3760 Clear 16 1019 72 10000 1 0 23:38 24.01.2020
3761 Clear 16 1019 72 10000 1 0 23:19 24.01.2020
3762 Clear 17 1019 72 10000 2.1 190 22:42 24.01.2020
3763 Clear 17 1019 72 10000 2.1 190 22:23 24.01.2020
3764 Clear 17 1019 63 10000 2.6 260 21:41 24.01.2020
3765 Clear 18 1019 63 10000 2.6 260 21:20 24.01.2020
3766 Clear 18 1019 63 10000 2.1 250 20:55 24.01.2020
3767 Clear 18 1019 63 10000 2.1 250 20:37 24.01.2020
3768 Clouds 18 1019 63 10000 2.1 250 20:18 24.01.2020
3769 Clouds 18 1019 63 10000 2.1 250 19:55 24.01.2020
3770 Clouds 18 1019 63 10000 2.1 250 19:37 24.01.2020
3771 Clouds 18 1019 63 10000 2.1 250 19:19 24.01.2020
3772 Clouds 18 1019 63 10000 2.1 250 19:19 24.01.2020
3773 Clouds 19 1019 64 10000 3.1 260 18:42 24.01.2020
3774 Clouds 19 1019 64 10000 3.1 260 18:22 24.01.2020
3775 Clouds 19 1019 64 10000 2.6 260 17:45 24.01.2020
3776 Clouds 19 1019 64 10000 2.6 260 17:22 24.01.2020
3777 Clouds 19 1018 64 10000 3.1 280 16:57 24.01.2020
3778 Clouds 19 1018 64 10000 3.1 280 16:38 24.01.2020
3779 Clouds 19 1018 64 10000 3.1 280 16:19 24.01.2020
3780 Clouds 20 1017 64 10000 4.1 300 15:41 24.01.2020
3781 Clouds 20 1017 64 10000 4.1 300 15:21 24.01.2020
3782 Clouds 20 1018 60 10000 4.1 290 14:42 24.01.2020
3783 Clouds 20 1018 60 10000 4.1 290 14:24 24.01.2020
3784 Clouds 20 1017 60 10000 5.7 300 13:59 24.01.2020
3785 Clouds 20 1017 60 10000 5.7 300 13:40 24.01.2020
3786 Clouds 20 1017 60 10000 5.7 300 13:21 24.01.2020
3787 Clouds 21 1017 64 10000 5.1 310 12:42 24.01.2020
3788 Clouds 21 1017 64 10000 5.1 310 12:20 24.01.2020
3789 Clouds 21 1018 60 10000 5.1 280 11:44 24.01.2020
3790 Clouds 21 1018 60 10000 5.1 280 11:19 24.01.2020
3791 Clouds 21 1019 60 10000 7.2 300 10:44 24.01.2020
3792 Clouds 21 1019 60 10000 7.2 300 10:23 24.01.2020
3793 Clouds 21 1019 64 10000 4.1 290 10:00 24.01.2020
3794 Clouds 21 1019 64 10000 4.1 290 09:40 24.01.2020
3795 Clouds 21 1019 64 10000 4.1 290 09:22 24.01.2020
3796 Clouds 21 1019 64 10000 2.6 270 08:41 24.01.2020
3797 Clouds 21 1019 64 10000 2.6 270 08:20 24.01.2020
3798 Clouds 20 1019 64 10000 5.1 280 07:53 24.01.2020
3799 Clouds 20 1019 64 10000 5.1 280 07:35 24.01.2020
3800 Clouds 20 1019 72 10000 4.1 260 06:52 24.01.2020
3801 Clouds 20 1019 72 10000 4.1 260 06:33 24.01.2020
3802 Clouds 20 1018 68 10000 4.1 260 05:59 24.01.2020
3803 Clouds 20 1018 68 10000 4.1 260 05:18 24.01.2020
3804 Clouds 20 1016 73 10000 4.1 280 02:54 24.01.2020
3805 Clouds 20 1016 73 10000 4.1 280 02:26 24.01.2020
3806 Drizzle 20 1016 73 10000 4.6 290 01:49 24.01.2020
3807 Drizzle 20 1016 73 10000 4.6 290 01:31 24.01.2020
3808 Clouds 21 1016 73 10000 5.1 320 00:26 24.01.2020
3809 Clouds 21 1016 77 10000 5.1 320 23:51 23.01.2020
3810 Clouds 21 1016 77 10000 5.1 320 23:31 23.01.2020
3811 Clouds 20 1017 73 10000 3.1 330 22:59 23.01.2020
3812 Clouds 20 1017 73 10000 3.1 330 22:38 23.01.2020
3813 Clouds 20 1017 73 10000 3.1 330 22:38 23.01.2020
3814 Clouds 20 1017 73 10000 3.1 330 22:19 23.01.2020
3815 Clouds 21 1017 73 10000 4.6 340 21:57 23.01.2020
3816 Clouds 21 1017 73 10000 4.6 340 21:39 23.01.2020
3817 Clouds 21 1017 73 10000 4.6 340 21:20 23.01.2020
3818 Clouds 21 1017 73 10000 6.2 330 20:58 23.01.2020
3819 Clouds 21 1017 73 10000 6.2 330 20:38 23.01.2020
3820 Clouds 21 1017 73 10000 6.2 330 20:38 23.01.2020
3821 Clouds 21 1017 73 10000 6.2 330 20:19 23.01.2020
3822 Clouds 21 1017 73 10000 6.2 330 20:19 23.01.2020
3823 Clouds 21 1017 78 10000 5.7 340 19:56 23.01.2020
3824 Clouds 21 1017 78 10000 5.7 340 19:38 23.01.2020
3825 Clouds 21 1017 78 10000 5.7 340 19:19 23.01.2020
3826 Clouds 22 1017 78 10000 6.2 330 18:42 23.01.2020
3827 Clouds 22 1017 78 10000 6.2 330 18:21 23.01.2020
3828 Clouds 22 1017 78 10000 6.2 330 18:21 23.01.2020
3829 Clouds 22 1016 64 10000 6.7 310 17:58 23.01.2020
3830 Clouds 22 1016 64 10000 6.7 310 17:40 23.01.2020
3831 Clouds 22 1016 64 10000 6.7 310 17:20 23.01.2020
3832 Clouds 22 1015 69 9000 6.2 310 16:56 23.01.2020
3833 Clouds 22 1015 69 9000 6.2 310 16:36 23.01.2020
3834 Clouds 22 1015 69 9000 6.2 310 16:18 23.01.2020
3835 Dust 24 1015 69 5000 4.6 290 15:54 23.01.2020
3836 Clouds 24 1015 64 4500 6.2 300 15:36 23.01.2020
3837 Clouds 24 1015 64 4500 6.2 300 15:18 23.01.2020
3838 Clouds 24 1015 64 4500 6.2 300 15:18 23.01.2020
3839 Clouds 25 1014 61 6000 5.1 290 14:54 23.01.2020
3840 Clouds 25 1014 61 6000 5.1 290 14:36 23.01.2020
3841 Clouds 25 1014 61 6000 5.1 290 14:18 23.01.2020
3842 Dust 27 1014 39 5000 4.6 220 13:39 23.01.2020
3843 Dust 27 1014 39 5000 4.6 220 13:39 23.01.2020
3844 Dust 27 1014 39 5000 4.6 220 13:20 23.01.2020
3845 Clouds 27 1014 42 6000 6.2 220 12:47 23.01.2020
3846 Clouds 27 1014 42 6000 6.2 220 12:25 23.01.2020
3847 Clouds 26 1015 50 7000 5.1 220 11:59 23.01.2020
3848 Clouds 26 1015 50 7000 5.1 220 11:39 23.01.2020
3849 Clouds 26 1015 50 7000 5.1 220 11:19 23.01.2020
3850 Clouds 25 1016 50 8000 4.6 210 10:45 23.01.2020
3851 Clouds 25 1016 50 8000 4.6 210 10:23 23.01.2020
3852 Clouds 25 1017 53 10000 5.7 200 09:59 23.01.2020
3853 Clouds 25 1017 53 10000 5.7 200 09:38 23.01.2020
3854 Clouds 25 1017 53 10000 5.7 200 09:20 23.01.2020
3855 Clouds 24 1018 57 10000 4.6 200 08:41 23.01.2020
3856 Rain 24 1018 57 10000 4.6 200 08:22 23.01.2020
3857 Rain 22 1018 64 10000 5.7 180 07:45 23.01.2020
3858 Rain 22 1018 64 10000 5.7 180 07:26 23.01.2020
3859 Rain 21 1018 68 10000 4.1 160 06:54 23.01.2020
3860 Rain 21 1018 68 10000 4.1 160 06:23 23.01.2020
3861 Rain 20 1018 68 10000 3.1 140 05:58 23.01.2020
3862 Rain 20 1017 68 10000 3.1 170 04:24 23.01.2020
3863 Rain 20 1015 56 10000 5.1 180 02:35 23.01.2020
3864 Clear 20 1015 56 10000 7.2 140 01:41 23.01.2020
3865 Clear 19 1016 68 10000 6.2 130 00:28 23.01.2020
3866 Clear 18 1016 68 10000 5.7 120 23:48 22.01.2020
3867 Clear 18 1016 68 10000 5.7 120 23:30 22.01.2020
3868 Clear 19 1016 64 10000 4.6 110 22:59 22.01.2020
3869 Clear 19 1016 64 10000 4.6 110 22:41 22.01.2020
3870 Clear 19 1016 64 10000 4.6 110 22:23 22.01.2020
3871 Clear 19 1017 64 10000 3.1 110 21:41 22.01.2020
3872 Clear 19 1017 64 10000 3.1 110 21:22 22.01.2020
3873 Clear 19 1017 64 10000 2.6 90 20:58 22.01.2020
3874 Clear 19 1017 64 10000 2.6 90 20:39 22.01.2020
3875 Clear 19 1017 64 10000 2.6 90 20:21 22.01.2020
3876 Clear 20 1017 64 10000 2.6 60 19:57 22.01.2020
3877 Clear 20 1017 64 10000 2.6 60 19:38 22.01.2020
3878 Clear 20 1017 64 10000 2.6 60 19:19 22.01.2020
3879 Clear 20 1017 68 10000 2.1 20 18:56 22.01.2020
3880 Clear 20 1017 68 10000 2.1 20 18:38 22.01.2020
3881 Clear 20 1017 68 10000 2.1 20 18:19 22.01.2020
3882 Clear 21 1017 64 10000 3.6 30 17:54 22.01.2020
3883 Clear 21 1017 64 10000 3.6 30 17:36 22.01.2020
3884 Clear 21 1017 64 10000 3.6 30 17:18 22.01.2020
3885 Clear 21 1017 64 10000 3.6 30 17:18 22.01.2020
3886 Clear 22 1016 60 10000 3.6 20 16:43 22.01.2020
3887 Clear 22 1016 60 10000 3.6 20 16:22 22.01.2020
3888 Clear 23 1015 56 10000 3.6 10 15:58 22.01.2020
3889 Clear 23 1015 56 10000 3.6 10 15:39 22.01.2020
3890 Clear 23 1015 56 10000 3.6 10 15:21 22.01.2020
3891 Clear 24 1015 53 10000 4.6 10 14:54 22.01.2020
3892 Clear 24 1015 53 10000 4.6 10 14:36 22.01.2020
3893 Clear 25 1015 50 10000 5.7 350 14:18 22.01.2020
3894 Clear 25 1015 50 10000 5.7 350 13:38 22.01.2020
3895 Clear 25 1015 50 10000 5.7 350 13:20 22.01.2020
3896 Clear 25 1015 57 10000 6.2 330 12:58 22.01.2020
3897 Clear 25 1015 57 10000 6.2 330 12:40 22.01.2020
3898 Clear 26 1016 36 10000 1 0 12:20 22.01.2020
3899 Clear 26 1016 36 10000 1 0 11:58 22.01.2020
3900 Clear 26 1016 36 10000 1 0 11:40 22.01.2020
3901 Clear 26 1016 36 10000 1 0 11:19 22.01.2020
3902 Clear 26 1016 36 10000 1 0 11:19 22.01.2020
3903 Clear 25 1017 41 10000 3.1 180 10:59 22.01.2020
3904 Clear 25 1017 41 10000 3.1 180 10:41 22.01.2020
3905 Clear 25 1017 41 10000 3.1 180 10:18 22.01.2020
3906 Clear 24 1018 36 10000 3.6 150 09:42 22.01.2020
3907 Clear 24 1018 36 10000 3.6 150 09:42 22.01.2020
3908 Clear 24 1018 36 10000 3.6 150 09:24 22.01.2020
3909 Clear 22 1019 49 10000 3.1 100 08:57 22.01.2020
3910 Clear 21 1019 49 10000 3.1 100 08:38 22.01.2020
3911 Clear 21 1019 49 10000 3.1 100 08:20 22.01.2020
3912 Clear 20 1019 49 10000 2.6 80 07:46 22.01.2020
3913 Clear 19 1019 49 10000 2.6 80 07:27 22.01.2020
3914 Clear 16 1019 55 10000 2.1 80 06:38 22.01.2020
3915 Clear 16 1019 55 10000 2.1 80 06:20 22.01.2020
3916 Clear 14 1018 59 10000 1 0 05:21 22.01.2020
3917 Clear 14 1017 63 10000 1.5 120 03:30 22.01.2020
3918 Clear 14 1017 67 10000 1 190 02:50 22.01.2020
3919 Clear 14 1017 59 10000 1.5 160 01:42 22.01.2020
3920 Clear 15 1017 59 10000 1.5 0 00:43 22.01.2020
3921 Clear 15 1017 59 10000 1.5 0 00:25 22.01.2020
3922 Clear 15 1017 55 10000 1.5 160 23:38 21.01.2020
3923 Clear 15 1017 55 10000 1.5 160 23:20 21.01.2020
3924 Clear 16 1017 52 10000 2.6 160 22:55 21.01.2020
3925 Clear 16 1017 52 10000 2.6 160 22:36 21.01.2020
3926 Clear 16 1017 52 10000 2.6 160 22:36 21.01.2020
3927 Clear 16 1017 52 10000 2.6 160 22:18 21.01.2020
3928 Clear 17 1017 52 10000 2.6 150 21:55 21.01.2020
3929 Clear 17 1017 52 10000 2.6 150 21:36 21.01.2020
3930 Clear 17 1017 52 10000 2.6 150 21:18 21.01.2020
3931 Clear 18 1018 52 10000 1.5 200 20:39 21.01.2020
3932 Clear 18 1018 52 10000 1.5 200 20:20 21.01.2020
3933 Clear 18 1018 46 10000 2.1 260 19:59 21.01.2020
3934 Clear 18 1018 46 10000 2.1 260 19:40 21.01.2020
3935 Clear 19 1018 46 10000 2.1 260 19:21 21.01.2020
3936 Clear 20 1017 46 10000 1.5 270 18:57 21.01.2020
3937 Clear 20 1017 46 10000 1.5 270 18:57 21.01.2020
3938 Clear 20 1017 46 10000 1.5 270 18:39 21.01.2020
3939 Clear 20 1017 46 10000 1.5 270 18:21 21.01.2020
3940 Clear 20 1017 46 10000 2.6 270 17:59 21.01.2020
3941 Clear 20 1017 46 10000 2.6 270 17:40 21.01.2020
3942 Clear 20 1017 46 10000 2.6 270 17:18 21.01.2020
3943 Clear 20 1017 46 10000 2.6 270 17:18 21.01.2020
3944 Clear 20 1016 43 10000 3.1 280 16:38 21.01.2020
3945 Clear 21 1016 43 10000 3.1 280 16:20 21.01.2020
3946 Clear 22 1016 40 10000 4.1 280 15:59 21.01.2020
3947 Clear 22 1016 40 10000 4.1 280 15:39 21.01.2020
3948 Clear 22 1016 40 10000 4.1 280 15:19 21.01.2020
3949 Clear 22 1016 40 10000 4.1 280 15:19 21.01.2020
3950 Clear 22 1015 35 10000 4.6 280 14:40 21.01.2020
3951 Clear 22 1015 35 10000 4.6 280 14:22 21.01.2020
3952 Clear 23 1015 38 10000 4.6 290 13:55 21.01.2020
3953 Clear 23 1015 38 10000 4.6 290 13:37 21.01.2020
3954 Clear 23 1015 38 10000 4.6 290 13:18 21.01.2020
3955 Clear 23 1015 40 10000 4.6 280 12:42 21.01.2020
3956 Clear 23 1015 40 10000 4.6 280 12:24 21.01.2020
3957 Clear 23 1015 40 10000 3.6 290 11:56 21.01.2020
3958 Clear 23 1015 40 10000 3.6 290 11:38 21.01.2020
3959 Clear 23 1015 40 10000 3.6 290 11:19 21.01.2020
3960 Clouds 23 1016 43 10000 4.1 260 10:43 21.01.2020
3961 Clouds 23 1016 43 10000 4.1 260 10:23 21.01.2020
3962 Clouds 22 1017 43 10000 4.6 280 09:56 21.01.2020
3963 Clouds 22 1017 43 10000 4.6 280 09:38 21.01.2020
3964 Clouds 22 1017 43 10000 4.6 280 09:19 21.01.2020
3965 Clouds 22 1018 49 10000 3.6 190 08:41 21.01.2020
3966 Clouds 22 1018 49 10000 3.6 190 08:22 21.01.2020
3967 Clouds 21 1018 60 10000 2.6 190 07:43 21.01.2020
3968 Clouds 21 1018 60 10000 2.6 190 07:43 21.01.2020
3969 Clouds 20 1018 60 10000 2.6 190 07:24 21.01.2020
3970 Clouds 19 1017 72 10000 2.1 160 06:57 21.01.2020
3971 Clouds 18 1017 72 10000 2.1 160 06:38 21.01.2020
3972 Clouds 17 1017 77 8000 2.6 150 05:53 21.01.2020
3973 Clouds 17 1017 77 8000 2.6 150 05:32 21.01.2020
3974 Clouds 16 1016 88 8000 2.6 160 04:37 21.01.2020
3975 Clear 17 1014 88 8000 2.6 190 02:27 21.01.2020
3976 Clouds 18 1015 82 9000 1.5 230 01:36 21.01.2020
3977 Clouds 18 1015 88 7000 1.5 180 00:41 21.01.2020
3978 Clouds 18 1015 88 7000 1.5 180 00:22 21.01.2020
3979 Clouds 18 1015 88 7000 2.1 220 23:41 20.01.2020
3980 Clouds 18 1015 88 7000 2.1 220 23:19 20.01.2020
3981 Clouds 18 1016 82 10000 3.1 200 23:00 20.01.2020
3982 Clouds 18 1016 82 10000 3.1 200 22:39 20.01.2020
3983 Clouds 18 1016 82 10000 3.1 200 22:21 20.01.2020
3984 Clouds 19 1016 77 10000 2.6 190 21:58 20.01.2020
3985 Clouds 19 1016 77 10000 2.6 190 21:38 20.01.2020
3986 Clouds 19 1016 77 10000 2.6 190 21:20 20.01.2020
3987 Clouds 19 1017 82 10000 2.6 220 20:58 20.01.2020
3988 Clouds 19 1017 82 10000 2.6 220 20:39 20.01.2020
3989 Clouds 19 1017 82 10000 2.6 220 20:19 20.01.2020
3990 Clouds 19 1017 82 10000 2.6 220 20:19 20.01.2020
3991 Clear 20 1017 73 10000 2.6 240 19:57 20.01.2020
3992 Clear 20 1017 73 10000 2.6 240 19:38 20.01.2020
3993 Clear 20 1017 73 10000 2.6 240 19:19 20.01.2020
3994 Clear 20 1016 77 10000 3.6 270 18:45 20.01.2020
3995 Clear 20 1016 77 10000 3.6 270 18:24 20.01.2020
3996 Clear 21 1016 64 10000 2.6 270 17:59 20.01.2020
3997 Clear 21 1016 64 10000 2.6 270 17:37 20.01.2020
3998 Clear 21 1016 64 10000 2.6 270 17:18 20.01.2020
3999 Clear 21 1016 64 10000 3.6 280 16:44 20.01.2020
4000 Clear 22 1016 64 10000 3.6 280 16:25 20.01.2020
4001 Clear 23 1015 53 10000 4.1 270 15:58 20.01.2020
4002 Clear 23 1015 53 10000 4.1 270 15:39 20.01.2020
4003 Clear 23 1015 53 10000 4.1 270 15:21 20.01.2020
4004 Clear 24 1015 47 10000 5.7 280 14:44 20.01.2020
4005 Clear 24 1015 47 10000 5.7 280 14:25 20.01.2020
4006 Clear 25 1015 36 10000 6.7 280 13:59 20.01.2020
4007 Clear 25 1015 36 10000 6.7 280 13:40 20.01.2020
4008 Clear 25 1015 36 10000 6.7 280 13:22 20.01.2020
4009 Clouds 26 1015 36 10000 5.1 270 12:48 20.01.2020
4010 Clouds 26 1015 36 10000 5.1 270 12:29 20.01.2020
4011 Clouds 26 1015 36 10000 5.1 270 12:29 20.01.2020
4012 Clouds 26 1016 36 10000 5.1 290 11:59 20.01.2020
4013 Clouds 26 1016 36 10000 5.1 290 11:40 20.01.2020
4014 Clouds 26 1016 36 10000 5.1 290 11:22 20.01.2020
4015 Clear 26 1016 39 10000 5.1 290 10:57 20.01.2020
4016 Clear 26 1017 36 10000 5.1 250 10:39 20.01.2020
4017 Clear 26 1017 36 10000 5.1 250 10:19 20.01.2020
4018 Clear 25 1017 41 10000 4.6 240 10:19 20.01.2020
4019 Clear 25 1017 41 10000 4.6 240 10:19 20.01.2020
4020 Clear 25 1017 41 10000 4.6 240 09:41 20.01.2020
4021 Clear 25 1017 41 10000 4.6 240 09:21 20.01.2020
4022 Clear 23 1018 46 10000 3.6 210 08:49 20.01.2020
4023 Clear 23 1018 46 10000 3.6 210 08:30 20.01.2020
4024 Clear 21 1018 52 10000 3.1 180 07:53 20.01.2020
4025 Clear 20 1018 52 10000 3.1 180 07:30 20.01.2020
4026 Clear 19 1018 63 10000 2.1 180 06:59 20.01.2020
4027 Clear 18 1018 63 10000 2.1 180 06:30 20.01.2020
4028 Clear 16 1017 77 10000 2.1 150 05:44 20.01.2020
4029 Clear 16 1017 77 10000 2.1 150 05:25 20.01.2020
4030 Clear 16 1017 72 10000 1.5 120 04:49 20.01.2020
4031 Clear 15 1016 72 10000 1 150 02:59 20.01.2020
4032 Clear 15 1016 72 10000 1 150 02:59 20.01.2020
4033 Clear 16 1016 68 10000 1 0 01:57 20.01.2020
4034 Clear 16 1016 68 10000 1 0 01:37 20.01.2020
4035 Clear 16 1016 63 10000 2.1 120 00:45 20.01.2020
4036 Clear 16 1016 63 10000 2.1 120 00:25 20.01.2020
4037 Clear 16 1016 63 10000 2.1 110 23:40 19.01.2020
4038 Clear 16 1016 63 10000 2.1 110 23:20 19.01.2020
4039 Clear 16 1017 55 10000 2.6 100 22:57 19.01.2020
4040 Clear 16 1017 55 10000 2.6 100 22:39 19.01.2020
4041 Clear 16 1017 55 10000 2.6 100 22:21 19.01.2020
4042 Clear 16 1017 55 10000 2.6 100 22:21 19.01.2020
4043 Clear 17 1017 56 10000 2.6 100 21:57 19.01.2020
4044 Clear 17 1017 56 10000 2.6 100 21:57 19.01.2020
4045 Clear 17 1017 56 10000 2.6 100 21:39 19.01.2020
4046 Clear 17 1017 56 10000 2.6 100 21:21 19.01.2020
4047 Clear 18 1018 56 10000 2.6 110 20:58 19.01.2020
4048 Clear 18 1018 56 10000 2.6 110 20:39 19.01.2020
4049 Clear 18 1018 56 10000 2.6 110 20:21 19.01.2020
4050 Clear 18 1018 60 10000 3.1 110 19:58 19.01.2020
4051 Clear 18 1018 60 10000 3.1 110 19:39 19.01.2020
4052 Clear 18 1018 60 10000 3.1 110 19:39 19.01.2020
4053 Clear 18 1018 60 10000 3.1 110 19:21 19.01.2020
4054 Clear 19 1018 49 10000 1 0 18:59 19.01.2020
4055 Clear 19 1018 49 10000 1 0 18:41 19.01.2020
4056 Clear 19 1018 49 10000 1 0 18:41 19.01.2020
4057 Clear 19 1018 49 10000 1 0 18:21 19.01.2020
4058 Clear 20 1017 49 10000 1.5 340 17:59 19.01.2020
4059 Clear 20 1017 49 10000 1.5 340 17:40 19.01.2020
4060 Clear 20 1017 49 10000 1.5 340 17:21 19.01.2020
4061 Clear 21 1017 43 10000 2.6 330 16:59 19.01.2020
4062 Clear 22 1017 43 10000 2.6 330 16:40 19.01.2020
4063 Clear 21 1017 43 10000 2.6 330 16:40 19.01.2020
4064 Clear 22 1017 43 10000 2.6 330 16:21 19.01.2020
4065 Clear 22 1016 38 10000 4.6 320 15:59 19.01.2020
4066 Clear 23 1016 38 10000 4.6 320 15:39 19.01.2020
4067 Clear 23 1016 38 10000 4.6 320 15:20 19.01.2020
4068 Clear 24 1016 33 10000 5.1 280 14:58 19.01.2020
4069 Clear 24 1016 33 10000 5.1 280 14:39 19.01.2020
4070 Clouds 24 1016 33 10000 5.1 280 14:18 19.01.2020
4071 Clouds 26 1016 31 10000 5.1 280 13:58 19.01.2020
4072 Clouds 26 1016 31 10000 5.1 280 13:38 19.01.2020
4073 Clouds 26 1016 31 10000 5.1 280 13:20 19.01.2020
4074 Clouds 26 1016 29 10000 4.1 280 12:55 19.01.2020
4075 Clouds 26 1016 29 10000 4.1 280 12:37 19.01.2020
4076 Clouds 26 1016 29 10000 4.1 280 12:37 19.01.2020
4077 Clouds 26 1016 29 10000 4.1 280 12:19 19.01.2020
4078 Clouds 26 1017 26 10000 3.1 260 11:42 19.01.2020
4079 Clear 26 1017 26 10000 3.1 260 11:21 19.01.2020
4080 Clear 25 1018 27 10000 3.6 250 10:57 19.01.2020
4081 Clear 25 1018 27 10000 3.6 250 10:39 19.01.2020
4082 Clear 25 1018 27 10000 3.6 250 10:19 19.01.2020
4083 Clear 25 1019 33 10000 3.1 220 09:56 19.01.2020
4084 Clear 25 1019 33 10000 3.1 220 09:56 19.01.2020
4085 Clear 25 1019 33 10000 3.1 220 09:56 19.01.2020
4086 Clear 25 1019 33 10000 3.1 220 09:56 19.01.2020
4087 Clear 25 1019 33 10000 3.1 220 09:56 19.01.2020
4088 Clear 25 1019 33 10000 3.1 220 09:37 19.01.2020
4089 Clear 25 1019 33 10000 3.1 220 09:19 19.01.2020
4090 Clear 23 1019 40 10000 3.1 170 08:52 19.01.2020
4091 Clear 22 1019 40 10000 3.1 170 08:30 19.01.2020
4092 Clouds 20 1019 49 10000 3.1 170 07:45 19.01.2020
4093 Clouds 20 1019 49 10000 3.1 170 07:26 19.01.2020
4094 Clouds 17 1019 59 10000 2.6 0 06:54 19.01.2020
4095 Clouds 17 1019 59 10000 2.6 0 06:21 19.01.2020
4096 Clouds 14 1017 77 10000 1.5 80 03:28 19.01.2020
4097 Clouds 15 1017 72 10000 1 0 02:26 19.01.2020
4098 Clear 15 1017 68 10000 3.1 120 01:29 19.01.2020
4099 Clouds 15 1017 68 10000 3.1 130 00:54 19.01.2020
4100 Clouds 16 1017 68 10000 3.1 100 00:31 19.01.2020
4101 Clouds 16 1017 68 10000 3.1 100 23:59 18.01.2020
4102 Clouds 16 1017 68 10000 3.1 100 23:41 18.01.2020
4103 Clear 16 1017 68 10000 3.1 100 23:23 18.01.2020
4104 Clear 16 1017 68 10000 3.1 100 23:23 18.01.2020
4105 Clear 16 1017 59 10000 1.5 140 22:56 18.01.2020
4106 Clear 16 1017 59 10000 1.5 140 22:38 18.01.2020
4107 Clear 16 1017 59 10000 1.5 140 22:19 18.01.2020
4108 Clear 17 1018 59 10000 1 0 21:57 18.01.2020
4109 Clear 17 1018 59 10000 1 0 21:38 18.01.2020
4110 Clear 17 1018 59 10000 1 0 21:20 18.01.2020
4111 Clear 18 1018 60 10000 2.6 100 20:43 18.01.2020
4112 Clouds 18 1018 60 10000 2.6 100 20:21 18.01.2020
4113 Clouds 18 1018 60 10000 2.6 90 19:58 18.01.2020
4114 Clouds 18 1018 60 10000 2.6 90 19:40 18.01.2020
4115 Clouds 18 1018 60 10000 2.6 90 19:22 18.01.2020
4116 Clouds 19 1018 56 10000 2.6 90 18:42 18.01.2020
4117 Clouds 19 1018 56 10000 2.6 90 18:22 18.01.2020
4118 Clouds 20 1018 53 10000 3.1 50 17:55 18.01.2020
4119 Clouds 20 1018 53 10000 3.1 50 17:37 18.01.2020
4120 Clouds 20 1018 53 10000 3.1 50 17:19 18.01.2020
4121 Clouds 20 1018 53 10000 2.6 50 16:55 18.01.2020
4122 Clouds 21 1018 53 10000 2.6 50 16:36 18.01.2020
4123 Clouds 21 1018 53 10000 2.6 50 16:18 18.01.2020
4124 Clouds 22 1017 46 10000 3.6 360 15:41 18.01.2020
4125 Clouds 22 1017 46 10000 3.6 360 15:23 18.01.2020
4126 Clouds 24 1016 44 10000 4.6 340 14:55 18.01.2020
4127 Clouds 24 1016 44 10000 4.6 340 14:37 18.01.2020
4128 Clouds 24 1016 44 10000 4.6 340 14:18 18.01.2020
4129 Clouds 25 1016 38 10000 4.6 340 13:43 18.01.2020
4130 Clouds 25 1016 38 10000 4.6 340 13:24 18.01.2020
4131 Clouds 25 1016 29 10000 2.6 300 12:57 18.01.2020
4132 Clouds 25 1016 29 10000 2.6 300 12:38 18.01.2020
4133 Clouds 25 1016 29 10000 2.6 300 12:19 18.01.2020
4134 Clouds 25 1017 29 10000 2.6 210 11:44 18.01.2020
4135 Clouds 25 1017 29 10000 2.6 210 11:21 18.01.2020
4136 Clouds 24 1017 31 10000 1.5 0 10:56 18.01.2020
4137 Clouds 24 1017 31 10000 1.5 0 10:38 18.01.2020
4138 Clouds 24 1017 31 10000 1.5 0 10:19 18.01.2020
4139 Clouds 23 1019 38 10000 2.6 160 09:42 18.01.2020
4140 Clouds 23 1019 38 10000 2.6 160 09:24 18.01.2020
4141 Clouds 22 1020 43 10000 4.1 120 08:55 18.01.2020
4142 Clouds 21 1020 43 10000 4.1 120 08:37 18.01.2020
4143 Clouds 21 1020 43 10000 4.1 120 08:18 18.01.2020
4144 Clouds 21 1020 43 10000 4.1 120 08:18 18.01.2020
4145 Clouds 19 1020 52 10000 3.6 110 07:44 18.01.2020
4146 Clouds 19 1020 52 10000 3.6 110 07:25 18.01.2020
4147 Clouds 16 1020 55 10000 3.1 100 06:46 18.01.2020
4148 Clouds 13 1020 67 10000 2.1 80 05:55 18.01.2020
4149 Clear 12 1019 71 10000 2.1 100 04:29 18.01.2020
4150 Clear 13 1018 67 10000 2.1 90 02:50 18.01.2020
4151 Clouds 13 1018 63 10000 3.1 90 01:51 18.01.2020
4152 Clouds 14 1018 63 10000 3.1 110 00:40 18.01.2020
4153 Clouds 14 1018 63 10000 3.1 110 00:21 18.01.2020
4154 Clouds 15 1019 59 10000 2.6 100 23:59 17.01.2020
4155 Clouds 15 1019 59 10000 2.6 100 23:40 17.01.2020
4156 Clear 15 1019 59 10000 2.6 100 23:19 17.01.2020
4157 Clear 15 1019 59 10000 2.6 90 22:43 17.01.2020
4158 Clear 15 1019 59 10000 2.6 90 22:21 17.01.2020
4159 Clear 16 1020 55 10000 2.6 80 21:57 17.01.2020
4160 Clear 16 1020 55 10000 2.6 80 21:39 17.01.2020
4161 Clear 16 1020 55 10000 2.6 80 21:20 17.01.2020
4162 Clear 16 1020 55 10000 3.1 90 20:55 17.01.2020
4163 Clear 16 1020 55 10000 3.1 90 20:36 17.01.2020
4164 Clear 16 1020 55 10000 3.1 90 20:18 17.01.2020
4165 Clear 16 1020 55 10000 3.1 90 20:18 17.01.2020
4166 Clear 17 1020 52 10000 3.1 70 19:54 17.01.2020
4167 Clear 17 1020 52 10000 3.1 70 19:54 17.01.2020
4168 Clear 17 1020 52 10000 3.1 70 19:36 17.01.2020
4169 Clear 17 1020 52 10000 3.1 70 19:18 17.01.2020
4170 Clear 17 1020 45 10000 3.6 60 18:44 17.01.2020
4171 Clear 18 1020 45 10000 3.6 60 18:26 17.01.2020
4172 Clear 18 1020 45 10000 4.6 50 17:56 17.01.2020
4173 Clear 19 1020 45 10000 4.6 50 17:38 17.01.2020
4174 Clear 19 1020 45 10000 4.6 50 17:19 17.01.2020
4175 Clear 19 1019 46 10000 4.1 40 16:42 17.01.2020
4176 Clear 20 1019 46 10000 4.1 40 16:20 17.01.2020
4177 Clear 21 1019 43 10000 4.1 20 15:48 17.01.2020
4178 Clear 21 1019 43 10000 4.1 20 15:27 17.01.2020
4179 Clear 22 1019 43 10000 5.1 20 14:56 17.01.2020
4180 Clear 22 1019 43 10000 5.1 20 14:38 17.01.2020
4181 Clear 22 1019 43 10000 5.1 20 14:19 17.01.2020
4182 Clear 23 1019 33 10000 3.1 70 13:39 17.01.2020
4183 Clear 24 1019 33 10000 3.1 70 13:20 17.01.2020
4184 Clear 23 1019 33 10000 2.6 0 12:45 17.01.2020
4185 Clear 23 1019 33 10000 2.6 0 12:23 17.01.2020
4186 Clear 23 1020 35 10000 3.1 90 11:41 17.01.2020
4187 Clear 23 1020 35 10000 3.1 90 11:19 17.01.2020
4188 Clear 22 1021 37 10000 3.6 90 10:54 17.01.2020
4189 Clear 22 1021 37 10000 3.6 90 10:36 17.01.2020
4190 Clear 22 1021 37 10000 3.6 90 10:18 17.01.2020
4191 Clear 22 1022 40 10000 3.6 110 09:41 17.01.2020
4192 Clear 21 1022 40 10000 3.6 110 09:20 17.01.2020
4193 Clear 21 1023 37 10000 3.6 50 08:55 17.01.2020
4194 Clear 20 1023 37 10000 3.6 50 08:36 17.01.2020
4195 Clear 20 1023 37 10000 3.6 50 08:18 17.01.2020
4196 Clear 18 1023 42 10000 3.6 60 07:42 17.01.2020
4197 Clear 18 1023 42 10000 3.6 60 07:24 17.01.2020
4198 Clear 15 1023 55 10000 2.1 80 06:43 17.01.2020
4199 Clear 15 1023 55 10000 2.1 80 06:20 17.01.2020
4200 Clear 13 1022 76 0 2.24 90 04:25 17.01.2020
4201 Clear 13 1022 76 0 2.24 90 02:55 17.01.2020
4202 Clear 13 1022 76 0 2.24 90 02:30 17.01.2020
4203 Clear 13 1022 76 0 2.24 90 01:32 17.01.2020
4204 Clear 13 1022 76 0 2.24 90 00:59 17.01.2020
4205 Clear 13 1022 76 0 2.24 90 00:35 17.01.2020
4206 Clear 14 1022 59 10000 2.1 90 23:56 16.01.2020
4207 Clear 14 1022 59 10000 2.1 90 23:38 16.01.2020
4208 Clear 14 1022 59 10000 2.1 90 23:19 16.01.2020
4209 Clear 14 1022 59 10000 2.6 80 22:40 16.01.2020
4210 Clear 14 1022 59 10000 2.6 80 22:21 16.01.2020
4211 Clear 14 1022 59 10000 2.6 100 21:57 16.01.2020
4212 Clear 15 1022 59 10000 2.6 100 21:37 16.01.2020
4213 Clear 15 1022 59 10000 2.6 100 21:19 16.01.2020
4214 Clear 15 1023 55 10000 2.1 90 20:56 16.01.2020
4215 Clear 15 1023 55 10000 2.1 90 20:37 16.01.2020
4216 Clear 16 1023 55 10000 2.1 90 20:18 16.01.2020
4217 Clear 16 1023 52 10000 2.1 70 19:55 16.01.2020
4218 Clear 17 1023 52 10000 2.1 70 19:36 16.01.2020
4219 Clear 17 1023 52 10000 2.1 70 19:18 16.01.2020
4220 Clear 17 1023 49 10000 2.1 30 18:55 16.01.2020
4221 Clear 17 1023 49 10000 2.1 30 18:36 16.01.2020
4222 Clear 17 1023 49 10000 2.1 30 18:18 16.01.2020
4223 Clear 18 1022 45 10000 2.1 360 17:41 16.01.2020
4224 Clear 18 1022 45 10000 2.1 360 17:22 16.01.2020
4225 Clear 18 1022 45 10000 2.1 350 16:57 16.01.2020
4226 Clear 18 1022 45 10000 2.1 350 16:38 16.01.2020
4227 Clear 19 1022 45 10000 2.1 350 16:19 16.01.2020
4228 Clear 19 1021 45 10000 5.1 340 15:44 16.01.2020
4229 Clear 19 1021 45 10000 5.1 340 15:22 16.01.2020
4230 Clear 20 1021 43 10000 5.7 340 14:56 16.01.2020
4231 Clear 20 1021 43 10000 5.7 340 14:37 16.01.2020
4232 Clear 20 1021 43 10000 5.7 340 14:19 16.01.2020
4233 Clear 21 1021 40 10000 5.1 350 13:44 16.01.2020
4234 Clear 21 1021 40 10000 5.1 350 13:25 16.01.2020
4235 Clear 21 1021 33 10000 5.1 10 12:46 16.01.2020
4236 Clear 21 1021 33 10000 5.1 10 12:28 16.01.2020
4237 Clear 21 1021 30 10000 5.1 350 11:57 16.01.2020
4238 Clear 21 1021 30 10000 5.1 350 11:39 16.01.2020
4239 Clear 21 1021 30 10000 5.1 350 11:21 16.01.2020
4240 Clear 21 1022 35 10000 2.1 60 10:39 16.01.2020
4241 Clear 21 1022 35 10000 2.1 60 10:21 16.01.2020
4242 Clear 21 1023 35 10000 2.6 70 09:58 16.01.2020
4243 Clear 21 1023 35 10000 2.6 70 09:39 16.01.2020
4244 Clear 21 1023 35 10000 2.6 70 09:21 16.01.2020
4245 Clear 20 1024 37 10000 2.1 80 08:52 16.01.2020
4246 Clear 19 1024 37 10000 2.1 80 08:34 16.01.2020
4247 Clear 18 1024 45 10000 1 0 07:59 16.01.2020
4248 Clear 18 1024 45 10000 1 0 07:39 16.01.2020
4249 Clear 18 1024 45 10000 1 0 07:20 16.01.2020
4250 Clear 16 1024 48 10000 2.1 100 06:43 16.01.2020
4251 Clear 15 1024 48 10000 2.1 100 06:21 16.01.2020
4252 Clear 13 1024 51 10000 1.5 0 05:45 16.01.2020
4253 Clear 11 1023 66 10000 1.5 80 04:40 16.01.2020
4254 Clear 11 1023 62 10000 1.5 90 03:28 16.01.2020
4255 Clear 11 1022 62 10000 2.6 70 02:43 16.01.2020
4256 Clear 13 1022 45 10000 3.6 90 01:24 16.01.2020
4257 Clear 13 1023 48 10000 3.1 90 00:24 16.01.2020
4258 Clear 13 1023 58 10000 1.5 70 23:56 15.01.2020
4259 Clear 13 1023 58 10000 1.5 70 23:37 15.01.2020
4260 Clear 13 1023 58 10000 1.5 70 23:18 15.01.2020
4261 Clear 13 1023 55 10000 2.1 80 22:42 15.01.2020
4262 Clear 13 1023 55 10000 2.1 80 22:20 15.01.2020
4263 Clear 14 1023 55 10000 3.1 100 21:59 15.01.2020
4264 Clear 14 1023 55 10000 3.1 100 21:40 15.01.2020
4265 Clear 14 1023 55 10000 3.1 100 21:22 15.01.2020
4266 Clear 14 1023 45 10000 4.1 110 20:58 15.01.2020
4267 Clear 14 1023 45 10000 4.1 110 20:40 15.01.2020
4268 Clear 14 1023 45 10000 4.1 110 20:22 15.01.2020
4269 Clouds 15 1023 51 10000 3.6 110 19:57 15.01.2020
4270 Clouds 15 1023 51 10000 3.6 110 19:38 15.01.2020
4271 Clouds 15 1023 51 10000 3.6 110 19:20 15.01.2020
4272 Clouds 15 1023 51 10000 3.6 110 19:20 15.01.2020
4273 Clouds 16 1023 52 10000 3.1 80 18:57 15.01.2020
4274 Clouds 16 1023 52 10000 3.1 80 18:57 15.01.2020
4275 Clouds 16 1023 52 10000 3.1 80 18:38 15.01.2020
4276 Clouds 16 1023 52 10000 3.1 80 18:20 15.01.2020
4277 Clouds 16 1023 52 10000 3.1 70 17:58 15.01.2020
4278 Clouds 17 1023 52 10000 3.1 70 17:40 15.01.2020
4279 Clouds 17 1023 52 10000 3.1 70 17:21 15.01.2020
4280 Clouds 17 1023 45 10000 4.1 40 16:55 15.01.2020
4281 Clouds 17 1023 45 10000 4.1 40 16:55 15.01.2020
4282 Clouds 17 1023 45 10000 4.1 40 16:36 15.01.2020
4283 Clouds 17 1023 45 10000 4.1 40 16:18 15.01.2020
4284 Clouds 18 1022 42 10000 4.6 50 15:42 15.01.2020
4285 Clouds 19 1022 42 10000 4.6 50 15:20 15.01.2020
4286 Clouds 19 1021 45 10000 3.1 0 14:45 15.01.2020
4287 Clouds 19 1021 45 10000 3.1 0 14:23 15.01.2020
4288 Clouds 20 1021 42 10000 5.1 40 13:58 15.01.2020
4289 Clouds 20 1020 37 10000 4.1 80 13:40 15.01.2020
4290 Clouds 20 1020 37 10000 4.1 80 13:40 15.01.2020
4291 Clouds 20 1020 37 10000 4.1 80 13:22 15.01.2020
4292 Clouds 20 1020 37 10000 5.1 0 12:55 15.01.2020
4293 Clouds 20 1020 37 10000 5.1 0 12:55 15.01.2020
4294 Clouds 20 1020 37 10000 4.6 60 12:37 15.01.2020
4295 Clouds 20 1020 37 10000 4.6 60 12:18 15.01.2020
4296 Clouds 20 1020 40 10000 5.1 60 11:38 15.01.2020
4297 Clouds 20 1021 49 10000 4.1 60 11:20 15.01.2020
4298 Clouds 20 1021 49 10000 4.1 60 10:48 15.01.2020
4299 Clouds 19 1021 49 10000 4.1 60 10:29 15.01.2020
4300 Clouds 19 1021 52 10000 6.2 90 09:59 15.01.2020
4301 Clouds 18 1021 52 10000 6.2 90 09:41 15.01.2020
4302 Clouds 18 1021 52 10000 6.2 90 09:21 15.01.2020
4303 Clouds 18 1022 55 10000 6.2 110 08:44 15.01.2020
4304 Clouds 18 1022 55 10000 6.2 110 08:44 15.01.2020
4305 Clouds 18 1022 55 10000 6.2 110 08:26 15.01.2020
4306 Clouds 17 1022 67 10000 4.1 130 07:54 15.01.2020
4307 Clouds 16 1022 67 10000 4.1 130 07:33 15.01.2020
4308 Clouds 15 1021 72 10000 3.1 110 06:54 15.01.2020
4309 Clouds 15 1021 72 10000 3.1 110 06:28 15.01.2020
4310 Clouds 13 1019 82 10000 1 0 04:57 15.01.2020
4311 Clouds 14 1019 87 10000 5.1 80 03:20 15.01.2020
4312 Rain 13 1017 93 8000 2.6 110 01:48 15.01.2020
4313 Rain 13 1017 93 8000 2.6 110 01:21 15.01.2020
4314 Rain 14 1017 87 6000 3.6 360 00:37 15.01.2020
4315 Rain 14 1017 87 6000 3.6 360 00:19 15.01.2020
4316 Rain 14 1017 82 7000 6.7 350 23:46 14.01.2020
4317 Rain 14 1017 93 4500 3.1 0 23:24 14.01.2020
4318 Rain 14 1017 82 4000 6.2 290 22:57 14.01.2020
4319 Clouds 14 1016 87 10000 1.5 40 22:39 14.01.2020
4320 Clouds 15 1016 87 10000 1.5 40 22:18 14.01.2020
4321 Rain 15 1017 82 8000 6.7 300 21:56 14.01.2020
4322 Rain 15 1017 82 8000 6.7 300 21:37 14.01.2020
4323 Rain 15 1017 82 8000 6.7 300 21:19 14.01.2020
4324 Rain 16 1017 77 4000 5.1 280 20:42 14.01.2020
4325 Clouds 17 1017 48 10000 3.6 250 20:22 14.01.2020
4326 Clouds 17 1017 48 10000 3.6 250 19:57 14.01.2020
4327 Clouds 17 1017 48 10000 3.6 250 19:57 14.01.2020
4328 Clouds 17 1017 48 10000 3.6 250 19:38 14.01.2020
4329 Clouds 18 1017 48 10000 3.6 250 19:20 14.01.2020
4330 Clouds 18 1016 45 10000 4.6 230 18:59 14.01.2020
4331 Rain 18 1017 52 0 5.36 250 18:40 14.01.2020
4332 Clouds 18 1017 42 10000 6.2 270 18:19 14.01.2020
4333 Clouds 18 1017 42 10000 6.2 270 17:39 14.01.2020
4334 Clouds 19 1017 42 10000 6.2 270 17:20 14.01.2020
4335 Clouds 19 1016 49 10000 7.2 280 16:59 14.01.2020
4336 Clouds 19 1016 49 10000 7.2 280 16:41 14.01.2020
4337 Clouds 19 1016 49 10000 7.2 280 16:21 14.01.2020
4338 Clouds 19 1016 52 10000 6.2 270 15:55 14.01.2020
4339 Clouds 19 1016 52 10000 6.2 270 15:37 14.01.2020
4340 Clouds 19 1016 52 10000 6.2 270 15:18 14.01.2020
4341 Clouds 20 1015 52 10000 4.6 280 14:43 14.01.2020
4342 Clouds 20 1015 52 10000 4.6 280 14:20 14.01.2020
4343 Rain 20 1015 56 10000 5.1 270 13:43 14.01.2020
4344 Rain 20 1015 56 10000 5.1 270 13:20 14.01.2020
4345 Clouds 20 1015 52 10000 4.1 260 12:59 14.01.2020
4346 Clouds 20 1015 52 10000 4.1 260 12:40 14.01.2020
4347 Clouds 20 1015 52 10000 4.1 260 12:20 14.01.2020
4348 Clouds 20 1015 52 10000 4.1 260 12:20 14.01.2020
4349 Clouds 20 1015 52 10000 4.1 260 12:20 14.01.2020
4350 Clouds 20 1015 52 10000 4.1 260 12:20 14.01.2020
4351 Clouds 20 1016 49 10000 5.7 260 11:43 14.01.2020
4352 Clouds 20 1016 49 10000 5.7 260 11:23 14.01.2020
4353 Clouds 20 1016 46 10000 6.7 270 10:59 14.01.2020
4354 Clouds 20 1016 46 10000 6.7 270 10:39 14.01.2020
4355 Clouds 20 1016 46 10000 6.7 270 10:20 14.01.2020
4356 Clouds 20 1017 46 10000 6.7 250 09:57 14.01.2020
4357 Clouds 20 1017 46 10000 6.7 250 09:39 14.01.2020
4358 Clouds 20 1017 46 10000 6.7 250 09:20 14.01.2020
4359 Clouds 20 1018 43 10000 6.2 270 08:46 14.01.2020
4360 Clouds 24 1018 43 10000 6.2 270 08:24 14.01.2020
4361 Clouds 23 1018 45 10000 6.2 280 07:53 14.01.2020
4362 Clouds 23 1018 45 10000 6.2 280 07:31 14.01.2020
4363 Clear 21 1000 26 6000 4.1 200 06:51 14.01.2020
4364 Clouds 23 1017 52 10000 6.7 270 06:27 14.01.2020
4365 Clouds 15 1017 72 10000 2.6 200 05:25 14.01.2020
4366 Clouds 15 1016 67 10000 2.6 230 03:51 14.01.2020
4367 Clouds 15 1016 77 10000 2.6 190 02:42 14.01.2020
4368 Clouds 15 1016 72 10000 2.6 170 01:53 14.01.2020
4369 Clouds 15 1016 72 10000 1.5 190 00:49 14.01.2020
4370 Clouds 15 1016 72 10000 1.5 190 00:28 14.01.2020
4371 Clouds 16 1016 67 10000 1.5 180 23:54 13.01.2020
4372 Clouds 16 1016 67 10000 1.5 180 23:54 13.01.2020
4373 Clouds 16 1016 67 10000 1.5 180 23:36 13.01.2020
4374 Clouds 16 1016 67 10000 1.5 180 23:18 13.01.2020
4375 Clouds 17 1017 63 10000 3.6 190 22:41 13.01.2020
4376 Clouds 17 1017 63 10000 3.6 190 22:21 13.01.2020
4377 Clouds 17 1017 63 10000 1.5 180 21:56 13.01.2020
4378 Clouds 17 1017 63 10000 1.5 180 21:37 13.01.2020
4379 Clouds 17 1017 63 10000 1.5 180 21:18 13.01.2020
4380 Clouds 17 1017 52 10000 4.6 320 20:57 13.01.2020
4381 Clouds 17 1017 52 10000 4.6 320 20:38 13.01.2020
4382 Clouds 17 1017 52 10000 4.6 320 20:20 13.01.2020
4383 Clouds 17 1018 49 10000 2.6 260 19:58 13.01.2020
4384 Clouds 17 1018 49 10000 2.6 260 19:39 13.01.2020
4385 Clouds 18 1018 49 10000 2.6 260 19:19 13.01.2020
4386 Clouds 18 1018 49 10000 3.1 270 18:56 13.01.2020
4387 Clouds 18 1018 49 10000 3.1 270 18:37 13.01.2020
4388 Clouds 18 1018 49 10000 3.1 270 18:37 13.01.2020
4389 Clouds 18 1018 49 10000 3.1 270 18:18 13.01.2020
4390 Clouds 18 1017 52 10000 3.1 270 17:40 13.01.2020
4391 Clouds 19 1017 52 10000 3.1 270 17:22 13.01.2020
4392 Clouds 19 1017 52 10000 3.1 270 17:22 13.01.2020
4393 Clouds 19 1017 49 10000 4.6 290 16:56 13.01.2020
4394 Clear 21 1017 46 0 4.92 270 16:38 13.01.2020
4395 Clear 21 1017 46 0 4.92 270 16:19 13.01.2020
4396 Clear 21 1017 46 0 4.92 270 15:43 13.01.2020
4397 Clear 21 1017 46 0 4.92 270 15:23 13.01.2020
4398 Clear 21 1017 46 0 4.92 270 14:57 13.01.2020
4399 Clear 21 1017 46 0 4.92 270 14:37 13.01.2020
4400 Clear 21 1017 46 0 4.92 270 14:19 13.01.2020
4401 Clear 21 1017 46 0 4.92 270 13:41 13.01.2020
4402 Clear 21 1017 46 0 4.92 270 13:23 13.01.2020
4403 Clear 21 1017 46 0 4.92 270 12:59 13.01.2020
4404 Clear 21 1017 46 0 4.92 270 12:40 13.01.2020
4405 Clouds 21 1017 43 10000 5.7 320 12:22 13.01.2020
4406 Clouds 21 1017 43 10000 5.7 320 11:57 13.01.2020
4407 Clouds 21 1017 43 10000 5.7 320 11:37 13.01.2020
4408 Clouds 21 1017 43 10000 5.7 320 11:18 13.01.2020
4409 Clouds 21 1018 52 10000 6.2 290 10:55 13.01.2020
4410 Clouds 20 1018 43 10000 3.6 280 10:36 13.01.2020
4411 Clouds 20 1018 43 10000 3.6 280 10:18 13.01.2020
4412 Clouds 20 1019 56 10000 3.1 210 09:42 13.01.2020
4413 Clouds 20 1019 56 10000 3.1 210 09:23 13.01.2020
4414 Clouds 18 1020 63 10000 3.6 170 08:44 13.01.2020
4415 Clouds 18 1020 63 10000 3.6 170 08:22 13.01.2020
4416 Clouds 17 1020 63 10000 3.6 180 07:59 13.01.2020
4417 Clouds 17 1020 63 10000 3.6 180 07:59 13.01.2020
4418 Clouds 17 1020 63 10000 3.6 180 07:40 13.01.2020
4419 Clouds 15 1020 67 10000 3.1 170 07:18 13.01.2020
4420 -273 0 0 0 0 0 06:37 13.01.2020
4421 Clouds 14 1020 67 10000 3.1 170 06:37 13.01.2020
4422 Clouds 12 1020 76 8000 2.1 190 05:36 13.01.2020
4423 Clear 12 1019 76 10000 2.1 180 04:25 13.01.2020
4424 Clear 12 1018 76 10000 1.5 150 03:34 13.01.2020
4425 Clear 12 1017 71 10000 2.1 160 02:49 13.01.2020
4426 Clear 12 1017 71 10000 2.1 160 02:29 13.01.2020
4427 Clear 12 1017 71 10000 2.1 160 02:29 13.01.2020
4428 Clear 13 1017 67 10000 2.1 180 01:32 13.01.2020
4429 Clear 14 1017 67 10000 1.5 200 00:43 13.01.2020
4430 Clear 15 1017 67 10000 1.5 200 00:24 13.01.2020
4431 Clear 15 1018 48 10000 3.1 340 23:56 12.01.2020
4432 Clear 15 1018 48 10000 3.1 340 23:37 12.01.2020
4433 Clear 15 1018 48 10000 3.1 340 23:19 12.01.2020
4434 Clear 16 1018 42 10000 3.1 350 22:42 12.01.2020
4435 Clear 16 1018 42 10000 3.1 350 22:24 12.01.2020
4436 Clear 16 1018 42 10000 4.1 340 21:57 12.01.2020
4437 Clear 16 1018 42 10000 4.1 340 21:39 12.01.2020
4438 Clear 16 1018 42 10000 4.1 340 21:39 12.01.2020
4439 Clear 16 1018 42 10000 4.1 340 21:20 12.01.2020
4440 Clear 17 1018 39 10000 3.1 330 20:57 12.01.2020
4441 Clear 17 1018 39 10000 3.1 330 20:39 12.01.2020
4442 Clear 17 1018 39 10000 3.1 330 20:20 12.01.2020
4443 Clear 17 1018 42 10000 5.1 330 19:56 12.01.2020
4444 Clear 17 1018 42 10000 5.1 330 19:38 12.01.2020
4445 Clear 17 1018 42 10000 5.1 330 19:38 12.01.2020
4446 Clear 17 1018 42 10000 5.1 330 19:19 12.01.2020
4447 Clear 17 1018 42 10000 4.6 330 18:57 12.01.2020
4448 Clear 17 1018 42 10000 4.6 330 18:39 12.01.2020
4449 Clear 17 1018 42 10000 4.6 330 18:21 12.01.2020
4450 Clear 18 1018 42 10000 6.2 330 17:56 12.01.2020
4451 Clear 18 1018 42 10000 6.2 330 17:37 12.01.2020
4452 Clear 18 1018 42 10000 6.2 330 17:18 12.01.2020
4453 Clear 17 1017 39 10000 6.2 310 16:54 12.01.2020
4454 Clear 17 1017 39 10000 6.2 310 16:36 12.01.2020
4455 Clouds 18 1017 42 10000 7.2 320 16:18 12.01.2020
4456 Clouds 18 1017 42 10000 7.2 320 15:42 12.01.2020
4457 Clouds 18 1017 42 10000 7.2 320 15:23 12.01.2020
4458 Clouds 19 1015 42 10000 8.7 320 14:55 12.01.2020
4459 Clouds 19 1015 42 10000 8.7 320 14:36 12.01.2020
4460 Clouds 19 1015 42 10000 8.7 320 14:18 12.01.2020
4461 Clouds 19 1015 59 10000 8.7 320 13:42 12.01.2020
4462 Clouds 19 1015 59 10000 8.7 320 13:23 12.01.2020
4463 Clouds 18 1015 52 10000 8.2 300 12:58 12.01.2020
4464 Clouds 18 1015 52 10000 8.2 300 12:38 12.01.2020
4465 Clouds 18 1015 52 10000 8.2 300 12:19 12.01.2020
4466 Clouds 18 1017 72 10000 9.3 260 11:55 12.01.2020
4467 Rain 18 1015 68 10000 8.7 330 11:36 12.01.2020
4468 Rain 18 1015 68 10000 8.7 330 11:18 12.01.2020
4469 Clouds 18 1015 67 10000 4.1 290 10:41 12.01.2020
4470 Clouds 18 1015 67 10000 4.1 290 10:21 12.01.2020
4471 Clouds 16 1016 52 10000 9.3 300 09:55 12.01.2020
4472 Thunderstorm 16 1016 67 10000 11.3 300 09:37 12.01.2020
4473 Thunderstorm 16 1016 67 10000 11.3 300 09:18 12.01.2020
4474 Clouds 18 1017 56 10000 8.7 280 08:42 12.01.2020
4475 Clouds 17 1017 56 10000 8.7 280 08:19 12.01.2020
4476 Clouds 16 1017 72 10000 4.6 190 07:39 12.01.2020
4477 Clouds 16 1017 72 10000 4.6 190 07:21 12.01.2020
4478 Clouds 17 1017 55 10000 5.7 290 06:42 12.01.2020
4479 Clouds 16 1017 55 10000 5.7 290 06:18 12.01.2020
4480 Clouds 16 1016 55 10000 6.7 270 05:21 12.01.2020
4481 Clouds 16 1014 55 10000 5.7 280 03:45 12.01.2020
4482 Rain 16 1014 59 10000 6.7 270 02:59 12.01.2020
4483 Thunderstorm 15 1014 67 8000 7.2 270 02:30 12.01.2020
4484 Clouds 15 1014 63 10000 6.2 270 01:40 12.01.2020
4485 Clouds 15 1014 63 10000 6.2 270 01:21 12.01.2020
4486 Thunderstorm 16 1014 63 10000 9.3 310 00:40 12.01.2020
4487 Thunderstorm 16 1014 63 10000 9.3 310 00:18 12.01.2020
4488 Clouds 15 1013 52 10000 7.2 280 23:41 11.01.2020
4489 Clouds 15 1013 72 10000 3.6 290 23:19 11.01.2020
4490 Rain 15 1014 77 8000 7.7 300 22:57 11.01.2020
4491 Thunderstorm 16 1013 72 6000 11.8 290 22:39 11.01.2020
4492 Thunderstorm 16 1013 72 6000 11.8 290 22:20 11.01.2020
4493 Clouds 17 1013 67 10000 4.1 220 21:54 11.01.2020
4494 Rain 17 1013 52 10000 7.7 270 21:36 11.01.2020
4495 Rain 17 1013 52 10000 7.7 270 21:18 11.01.2020
4496 Clouds 18 1013 63 10000 3.6 250 20:40 11.01.2020
4497 Clouds 18 1013 63 10000 3.6 250 20:22 11.01.2020
4498 Rain 18 1013 63 8000 8.7 290 19:58 11.01.2020
4499 Clouds 19 1013 52 10000 6.7 290 19:38 11.01.2020
4500 Clouds 19 1013 52 10000 6.7 290 19:20 11.01.2020
4501 Clouds 19 1012 56 10000 3.6 270 18:57 11.01.2020
4502 Clouds 19 1012 56 10000 3.6 270 18:37 11.01.2020
4503 Clouds 19 1012 56 10000 3.6 270 18:19 11.01.2020
4504 Clouds 19 1012 49 10000 6.2 280 17:57 11.01.2020
4505 Clouds 20 1012 49 10000 6.2 280 17:39 11.01.2020
4506 Clouds 20 1012 49 10000 6.2 280 17:19 11.01.2020
4507 Clouds 20 1011 49 10000 6.2 290 16:44 11.01.2020
4508 Clouds 20 1011 49 10000 6.2 290 16:25 11.01.2020
4509 Clouds 20 1011 52 10000 7.7 300 15:57 11.01.2020
4510 Clouds 20 1011 52 10000 7.7 300 15:39 11.01.2020
4511 Clouds 21 1011 52 10000 7.7 300 15:20 11.01.2020
4512 Rain 21 1010 46 10000 6.7 290 14:47 11.01.2020
4513 Rain 21 1010 46 10000 6.7 290 14:26 11.01.2020
4514 Clouds 22 1009 46 10000 8.2 290 13:59 11.01.2020
4515 Clouds 22 1009 46 10000 8.2 290 13:38 11.01.2020
4516 Clouds 22 1009 46 10000 8.2 290 13:20 11.01.2020
4517 Clouds 22 1009 46 10000 7.7 280 12:56 11.01.2020
4518 Clouds 22 1009 46 10000 7.7 280 12:37 11.01.2020
4519 Clouds 22 1009 46 10000 7.7 280 12:19 11.01.2020
4520 Clouds 22 1009 53 10000 10.3 300 11:45 11.01.2020
4521 Clouds 22 1009 53 10000 10.3 300 11:24 11.01.2020
4522 Clouds 22 1009 50 10000 6.7 270 10:50 11.01.2020
4523 Clouds 22 1009 50 10000 6.7 270 10:30 11.01.2020
4524 Clouds 22 1009 53 10000 6.7 280 09:44 11.01.2020
4525 Clouds 22 1009 53 10000 6.7 280 09:21 11.01.2020
4526 Clouds 22 1009 53 10000 6.7 280 09:21 11.01.2020
4527 Clouds 21 1010 64 10000 5.1 280 08:59 11.01.2020
4528 Clouds 21 1010 64 10000 5.1 280 08:40 11.01.2020
4529 Clouds 21 1010 64 10000 5.1 280 08:19 11.01.2020
4530 Clouds 20 1010 94 10000 3.6 200 07:43 11.01.2020
4531 Clouds 20 1010 94 10000 3.6 200 07:24 11.01.2020
4532 Rain 19 1009 94 10000 3.6 220 06:43 11.01.2020
4533 Rain 19 1008 93 10000 4.1 190 05:30 11.01.2020
4534 Rain 18 1007 93 10000 3.6 190 04:42 11.01.2020
4535 Rain 18 1007 93 10000 3.6 190 04:24 11.01.2020
4536 Rain 18 1007 93 7000 6.2 200 02:48 11.01.2020
4537 Rain 20 1008 100 4000 5.1 210 01:47 11.01.2020
4538 Rain 20 1008 100 1300 9.8 280 01:27 11.01.2020
4539 Rain 21 1007 83 3500 5.7 210 00:52 11.01.2020
4540 Rain 21 1006 78 6000 7.2 190 00:29 11.01.2020
4541 Clouds 21 1006 83 10000 4.1 180 23:59 10.01.2020
4542 Clouds 21 1006 83 10000 4.1 180 23:39 10.01.2020
4543 Clouds 20 1006 83 10000 4.1 180 23:20 10.01.2020
4544 Rain 20 1007 88 8000 3.6 170 22:41 10.01.2020
4545 Rain 19 1007 93 4000 2.1 0 22:22 10.01.2020
4546 Rain 19 1008 93 4000 2.1 160 21:59 10.01.2020
4547 Rain 19 1008 88 4000 2.1 170 21:41 10.01.2020
4548 Rain 19 1008 88 4000 2.1 170 21:20 10.01.2020
4549 Thunderstorm 19 1009 88 6000 2.6 270 20:58 10.01.2020
4550 Thunderstorm 19 1009 88 6000 2.6 270 20:40 10.01.2020
4551 Thunderstorm 19 1009 88 6000 2.6 270 20:40 10.01.2020
4552 Thunderstorm 19 1009 88 6000 2.6 270 20:22 10.01.2020
4553 Thunderstorm 20 1008 77 10000 4.1 150 19:41 10.01.2020
4554 Thunderstorm 20 1008 77 10000 4.1 150 19:21 10.01.2020
4555 Clouds 20 1009 82 10000 4.1 130 18:57 10.01.2020
4556 Clouds 20 1009 82 10000 4.1 130 18:39 10.01.2020
4557 Clouds 20 1009 82 10000 4.1 130 18:18 10.01.2020
4558 Clouds 20 1009 82 10000 3.6 150 17:56 10.01.2020
4559 Clouds 20 1009 82 10000 3.6 150 17:38 10.01.2020
4560 Clouds 20 1009 82 10000 3.6 150 17:19 10.01.2020
4561 Clouds 20 1009 82 10000 3.6 150 17:19 10.01.2020
4562 Rain 21 1010 77 8000 3.6 150 16:43 10.01.2020
4563 Rain 21 1010 77 8000 3.6 150 16:22 10.01.2020
4564 Rain 20 1009 77 8000 3.1 140 15:58 10.01.2020
4565 Rain 20 1009 77 8000 3.1 140 15:39 10.01.2020
4566 Rain 21 1009 77 8000 3.1 140 15:20 10.01.2020
4567 Thunderstorm 21 1008 60 10000 2.1 180 14:59 10.01.2020
4568 Clouds 21 1008 60 10000 4.1 170 14:41 10.01.2020
4569 Clouds 21 1008 60 10000 4.1 170 14:20 10.01.2020
4570 Rain 21 1009 64 10000 5.7 160 13:58 10.01.2020
4571 Rain 20 1009 64 10000 5.7 160 13:39 10.01.2020
4572 Rain 20 1009 64 10000 5.7 160 13:21 10.01.2020
4573 Clouds 20 1009 64 10000 5.1 170 12:57 10.01.2020
4574 Clouds 20 1009 64 10000 5.1 170 12:38 10.01.2020
4575 Clouds 20 1009 64 10000 5.1 170 12:18 10.01.2020
4576 Clouds 20 1011 64 10000 9.3 180 11:42 10.01.2020
4577 Clouds 20 1011 64 10000 9.3 180 11:22 10.01.2020
4578 Clouds 20 1011 64 10000 9.3 180 11:22 10.01.2020
4579 Clouds 20 1012 64 10000 7.7 190 10:59 10.01.2020
4580 Clouds 20 1012 64 10000 7.7 190 10:39 10.01.2020
4581 Clouds 20 1012 64 10000 7.7 190 10:21 10.01.2020
4582 Clouds 20 1013 68 10000 6.7 180 09:55 10.01.2020
4583 Clouds 20 1013 68 10000 6.7 180 09:36 10.01.2020
4584 Clouds 20 1013 68 10000 6.7 180 09:18 10.01.2020
4585 Clouds 19 1014 77 10000 6.2 180 08:40 10.01.2020
4586 Clouds 19 1014 77 10000 6.2 180 08:21 10.01.2020
4587 Rain 19 1015 82 10000 4.1 170 07:44 10.01.2020
4588 Rain 19 1015 82 10000 4.1 170 07:23 10.01.2020
4589 Clouds 19 1014 88 10000 4.1 130 06:45 10.01.2020
4590 Clouds 19 1014 88 10000 4.1 130 06:25 10.01.2020
4591 Rain 19 1013 88 10000 4.1 110 05:44 10.01.2020
4592 Rain 19 1013 82 10000 1.5 130 03:35 10.01.2020
4593 Rain 19 1012 82 10000 4.1 110 02:58 10.01.2020
4594 Rain 19 1012 82 10000 4.1 110 02:37 10.01.2020
4595 Rain 18 1013 88 10000 2.6 90 01:38 10.01.2020
4596 Rain 18 1013 93 10000 2.6 100 00:57 10.01.2020
4597 Rain 18 1013 93 10000 2.6 100 00:38 10.01.2020
4598 Rain 18 1014 88 10000 2.6 120 23:57 09.01.2020
4599 Rain 18 1014 88 10000 2.6 120 23:38 09.01.2020
4600 Rain 18 1014 88 10000 2.6 120 23:38 09.01.2020
4601 Rain 18 1014 88 10000 2.6 120 23:19 09.01.2020
4602 Rain 18 1014 88 10000 2.6 120 23:19 09.01.2020
4603 Rain 19 1013 88 10000 4.1 110 22:56 09.01.2020
4604 Rain 19 1013 88 10000 4.1 110 22:37 09.01.2020
4605 Rain 19 1013 88 10000 4.1 110 22:18 09.01.2020
4606 Rain 19 1015 72 10000 2.6 100 21:56 09.01.2020
4607 Rain 19 1015 72 10000 2.6 100 21:37 09.01.2020
4608 Rain 19 1015 72 10000 2.6 100 21:18 09.01.2020
4609 Rain 19 1015 72 10000 1.5 60 20:55 09.01.2020
4610 Rain 19 1015 72 10000 1.5 60 20:37 09.01.2020
4611 Rain 19 1015 72 8000 1.5 360 20:18 09.01.2020
4612 Rain 19 1015 72 8000 1.5 360 20:18 09.01.2020
4613 Rain 20 1015 73 10000 1.5 40 19:39 09.01.2020
4614 Rain 21 1015 64 10000 2.6 150 19:21 09.01.2020
4615 Rain 21 1015 64 10000 3.1 120 18:57 09.01.2020
4616 Rain 21 1015 64 10000 3.1 120 18:39 09.01.2020
4617 Rain 21 1015 64 10000 3.1 120 18:21 09.01.2020
4618 Rain 22 1014 53 10000 3.6 60 17:42 09.01.2020
4619 Clouds 22 1014 53 10000 3.6 60 17:20 09.01.2020
4620 Clouds 23 1014 50 10000 4.1 350 16:59 09.01.2020
4621 Clouds 23 1014 50 10000 4.1 350 16:59 09.01.2020
4622 Clouds 23 1014 50 10000 4.1 350 16:41 09.01.2020
4623 Clouds 23 1014 50 10000 4.1 350 16:21 09.01.2020
4624 Rain 23 1013 47 10000 2.6 10 15:43 09.01.2020
4625 Rain 23 1013 47 10000 2.6 10 15:23 09.01.2020
4626 Clouds 24 1013 41 10000 4.1 340 14:59 09.01.2020
4627 Clouds 24 1013 41 10000 4.1 340 14:41 09.01.2020
4628 Clear 24 1013 41 10000 4.1 340 14:19 09.01.2020
4629 Clear 26 1013 41 10000 5.1 340 13:55 09.01.2020
4630 Clear 26 1013 41 10000 5.1 340 13:37 09.01.2020
4631 Clouds 26 1013 31 10000 3.6 210 13:19 09.01.2020
4632 Clouds 26 1013 31 10000 3.6 230 12:56 09.01.2020
4633 Clouds 26 1013 31 10000 3.6 230 12:38 09.01.2020
4634 Clouds 26 1014 30 10000 3.6 250 12:18 09.01.2020
4635 Clouds 26 1014 30 10000 3.6 250 11:42 09.01.2020
4636 Clouds 26 1014 30 10000 3.6 250 11:24 09.01.2020
4637 Clear 26 1014 30 10000 3.6 250 11:24 09.01.2020
4638 Clear 26 1014 34 10000 3.1 180 10:58 09.01.2020
4639 Clear 26 1014 34 10000 3.1 180 10:39 09.01.2020
4640 Clear 26 1014 34 10000 3.1 180 10:21 09.01.2020
4641 Clear 25 1016 36 10000 5.1 210 09:45 09.01.2020
4642 Clear 25 1016 36 10000 5.1 210 09:23 09.01.2020
4643 Clear 25 1016 36 10000 5.1 210 09:23 09.01.2020
4644 Clear 24 1017 50 10000 5.1 200 08:57 09.01.2020
4645 Clear 24 1017 50 10000 5.1 200 08:38 09.01.2020
4646 Clear 24 1017 50 10000 5.1 200 08:20 09.01.2020
4647 Clear 22 1018 53 10000 3.6 190 07:46 09.01.2020
4648 Clear 22 1018 53 10000 3.6 190 07:28 09.01.2020
4649 Clear 20 1017 52 10000 3.1 190 06:40 09.01.2020
4650 Clear 20 1017 52 10000 3.1 190 06:21 09.01.2020
4651 Clear 17 1016 52 10000 3.1 170 05:51 09.01.2020
4652 Clear 17 1016 52 10000 3.1 170 05:18 09.01.2020
4653 Clear 16 1016 55 10000 3.1 160 04:38 09.01.2020
4654 Clear 16 1015 52 10000 1.5 160 03:26 09.01.2020
4655 Clear 16 1015 52 10000 1 0 02:46 09.01.2020
4656 Clear 16 1015 52 10000 1.5 160 01:41 09.01.2020
4657 Clear 17 1016 48 10000 2.1 190 00:57 09.01.2020
4658 Clear 17 1016 48 10000 2.1 190 00:37 09.01.2020
4659 Clear 17 1016 48 10000 2.1 190 00:19 09.01.2020
4660 Clear 17 1016 45 10000 2.6 190 23:39 08.01.2020
4661 Clear 17 1016 45 10000 2.6 190 23:20 08.01.2020
4662 Clear 17 1016 48 10000 4.1 130 22:40 08.01.2020
4663 Clear 17 1016 48 10000 4.1 130 22:21 08.01.2020
4664 Clear 18 1016 45 10000 5.1 130 21:58 08.01.2020
4665 Clear 18 1016 45 10000 5.1 130 21:40 08.01.2020
4666 Clear 18 1016 45 10000 5.1 130 21:20 08.01.2020
4667 Clear 18 1016 45 10000 5.7 120 20:59 08.01.2020
4668 Clear 18 1016 45 10000 5.7 120 20:41 08.01.2020
4669 Clear 18 1016 45 10000 5.7 120 20:21 08.01.2020
4670 Clear 19 1017 43 10000 3.6 100 19:58 08.01.2020
4671 Clear 19 1017 43 10000 3.6 100 19:38 08.01.2020
4672 Clear 19 1017 43 10000 3.6 100 19:19 08.01.2020
4673 Clear 21 1016 43 10000 3.6 100 18:57 08.01.2020
4674 Clear 21 1016 43 10000 3.6 100 18:38 08.01.2020
4675 Clear 21 1016 43 10000 3.6 100 18:18 08.01.2020
4676 Clear 21 1016 40 10000 5.7 120 17:56 08.01.2020
4677 Clear 21 1016 40 10000 5.7 120 17:56 08.01.2020
4678 Clear 21 1016 40 10000 5.7 120 17:37 08.01.2020
4679 Clear 21 1016 40 10000 5.7 120 17:18 08.01.2020
4680 Clear 21 1016 40 10000 5.7 120 17:18 08.01.2020
4681 Clear 23 1016 38 10000 5.7 110 16:55 08.01.2020
4682 Clear 23 1016 38 10000 5.7 110 16:37 08.01.2020
4683 Clear 23 1016 38 10000 5.7 110 16:18 08.01.2020
4684 Clear 24 1015 36 10000 5.1 110 15:42 08.01.2020
4685 Clear 24 1015 36 10000 5.1 110 15:21 08.01.2020
4686 Clear 25 1015 38 10000 5.1 100 14:57 08.01.2020
4687 Clear 25 1015 38 10000 5.1 100 14:39 08.01.2020
4688 Clear 25 1015 44 10000 5.1 360 14:20 08.01.2020
4689 Clouds 26 1014 44 10000 6.7 330 13:40 08.01.2020
4690 Clouds 26 1014 44 10000 6.7 330 13:19 08.01.2020
4691 Clouds 26 1015 28 10000 3.6 120 12:43 08.01.2020
4692 Clouds 26 1015 28 10000 3.6 120 12:20 08.01.2020
4693 Clouds 26 1015 26 10000 5.7 140 11:59 08.01.2020
4694 Clouds 26 1015 26 10000 5.7 140 11:40 08.01.2020
4695 Clouds 26 1015 26 10000 5.7 140 11:19 08.01.2020
4696 Clear 26 1015 28 10000 5.1 170 10:56 08.01.2020
4697 Clear 26 1015 28 10000 5.1 170 10:37 08.01.2020
4698 Clear 25 1017 33 10000 5.7 120 10:19 08.01.2020
4699 Clear 25 1017 33 10000 5.7 120 09:42 08.01.2020
4700 Clear 25 1017 33 10000 5.7 120 09:20 08.01.2020
4701 Clear 23 1019 41 10000 5.1 100 08:57 08.01.2020
4702 Clear 23 1019 41 10000 5.1 100 08:37 08.01.2020
4703 Clear 23 1019 41 10000 5.1 100 08:19 08.01.2020
4704 Clear 21 1019 46 10000 4.6 100 07:49 08.01.2020
4705 Clear 21 1019 46 10000 4.6 100 07:30 08.01.2020
4706 Clear 21 1019 46 10000 4.6 100 07:30 08.01.2020
4707 Clear 18 1019 49 10000 3.6 100 06:48 08.01.2020
4708 Clear 18 1019 49 10000 3.6 100 06:24 08.01.2020
4709 Clear 14 1018 55 10000 3.1 90 05:53 08.01.2020
4710 Clear 13 1018 63 10000 1 110 04:57 08.01.2020
4711 Clear 13 1018 63 10000 1 110 04:25 08.01.2020
4712 Clear 13 1017 63 10000 2.6 60 02:45 08.01.2020
4713 Clear 13 1017 63 10000 2.6 60 02:22 08.01.2020
4714 Clear 14 1017 63 10000 1.5 0 01:48 08.01.2020
4715 Clear 14 1017 63 10000 1.5 0 01:19 08.01.2020
4716 Clear 14 1017 55 10000 1.5 70 00:28 08.01.2020
4717 Clear 14 1017 55 10000 1.5 70 00:28 08.01.2020
4718 Clear 15 1018 59 10000 1 60 23:57 07.01.2020
4719 Clear 15 1018 59 10000 1 60 23:39 07.01.2020
4720 Clear 15 1018 59 10000 1 60 23:20 07.01.2020
4721 Clear 15 1018 59 10000 1 60 23:20 07.01.2020
4722 Clear 15 1018 59 10000 3.6 110 22:40 07.01.2020
4723 Clear 15 1018 59 10000 3.6 110 22:20 07.01.2020
4724 Clear 16 1018 59 10000 2.6 100 21:56 07.01.2020
4725 Clear 16 1018 59 10000 2.6 100 21:38 07.01.2020
4726 Clear 16 1018 59 10000 2.6 100 21:20 07.01.2020
4727 Clear 17 1018 49 10000 3.1 70 20:55 07.01.2020
4728 Clear 17 1018 49 10000 3.1 70 20:36 07.01.2020
4729 Clear 17 1018 49 10000 3.1 70 20:18 07.01.2020
4730 Clear 18 1018 52 10000 2.1 50 19:38 07.01.2020
4731 Clear 18 1018 52 10000 2.1 50 19:20 07.01.2020
4732 Clear 19 1019 49 10000 2.1 40 18:58 07.01.2020
4733 Clear 19 1019 49 10000 2.1 40 18:40 07.01.2020
4734 Clear 19 1019 49 10000 2.1 40 18:19 07.01.2020
4735 Clear 20 1018 49 10000 2.6 30 17:58 07.01.2020
4736 Clear 20 1018 49 10000 2.6 30 17:39 07.01.2020
4737 Clear 20 1018 49 10000 2.6 30 17:20 07.01.2020
4738 Clear 21 1018 53 10000 3.6 30 16:56 07.01.2020
4739 Clear 21 1018 53 10000 3.6 30 16:37 07.01.2020
4740 Clear 21 1018 53 10000 3.6 30 16:19 07.01.2020
4741 Clear 22 1017 53 10000 5.1 10 15:57 07.01.2020
4742 Clear 22 1017 53 10000 5.1 10 15:37 07.01.2020
4743 Clear 22 1017 53 10000 5.1 10 15:18 07.01.2020
4744 Clear 23 1017 49 10000 5.1 20 14:42 07.01.2020
4745 Clouds 23 1017 49 10000 5.1 20 14:23 07.01.2020
4746 Clear 23 1017 49 10000 5.1 20 14:23 07.01.2020
4747 Clouds 23 1017 41 10000 6.7 20 13:56 07.01.2020
4748 Clouds 23 1017 41 10000 6.7 20 13:56 07.01.2020
4749 Clouds 23 1017 41 10000 6.7 20 13:37 07.01.2020
4750 Clouds 23 1017 41 10000 6.7 20 13:18 07.01.2020
4751 Clouds 24 1017 38 10000 5.1 20 12:40 07.01.2020
4752 Clouds 24 1017 38 10000 5.1 20 12:40 07.01.2020
4753 Clouds 24 1017 38 10000 5.1 20 12:19 07.01.2020
4754 Clouds 24 1017 36 10000 3.6 350 11:44 07.01.2020
4755 Clear 24 1017 36 10000 3.6 350 11:23 07.01.2020
4756 Clear 24 1017 36 10000 3.6 350 11:23 07.01.2020
4757 Clear 23 1018 33 10000 2.6 100 10:59 07.01.2020
4758 Clear 23 1018 33 10000 2.6 100 10:40 07.01.2020
4759 Clear 23 1018 33 10000 2.6 100 10:40 07.01.2020
4760 Clear 23 1018 33 10000 2.6 100 10:22 07.01.2020
4761 Clear 23 1019 35 10000 3.1 0 09:56 07.01.2020
4762 Clear 23 1019 35 10000 3.1 0 09:37 07.01.2020
4763 Clear 23 1019 35 10000 3.1 0 09:37 07.01.2020
4764 Clear 23 1019 35 10000 3.1 0 09:19 07.01.2020
4765 Clear 22 1020 43 10000 2.1 130 08:41 07.01.2020
4766 Clear 22 1020 43 10000 2.1 130 08:41 07.01.2020
4767 Clear 22 1020 43 10000 2.1 130 08:20 07.01.2020
4768 Clear 20 1020 52 10000 1.5 170 07:49 07.01.2020
4769 Clear 20 1020 52 10000 1.5 170 07:25 07.01.2020
4770 Clear 17 1020 59 10000 2.1 180 06:52 07.01.2020
4771 Clear 17 1020 59 10000 2.1 180 06:32 07.01.2020
4772 Clear 15 1019 67 10000 2.1 160 05:42 07.01.2020
4773 Clear 14 1018 67 10000 2.1 190 03:52 07.01.2020
4774 Clear 14 1018 67 10000 2.1 190 03:25 07.01.2020
4775 Clear 15 1017 67 10000 1.5 170 02:20 07.01.2020
4776 Clear 15 1017 63 10000 2.1 170 01:45 07.01.2020
4777 Clear 15 1017 63 10000 2.1 170 01:18 07.01.2020
4778 Clouds 16 1017 63 10000 2.6 160 00:21 07.01.2020
4779 Clouds 17 1017 59 10000 2.1 140 23:58 06.01.2020
4780 Clouds 17 1017 59 10000 2.1 140 23:38 06.01.2020
4781 Clouds 17 1017 59 10000 2.1 140 23:20 06.01.2020
4782 Clouds 18 1017 49 10000 2.6 240 22:56 06.01.2020
4783 Clouds 18 1017 49 10000 2.6 240 22:37 06.01.2020
4784 Clouds 18 1017 49 10000 2.6 240 22:18 06.01.2020
4785 Clouds 19 1017 49 10000 4.6 290 21:54 06.01.2020
4786 Clouds 19 1017 49 10000 4.6 290 21:36 06.01.2020
4787 Clouds 19 1017 49 10000 4.6 290 21:18 06.01.2020
4788 Clouds 19 1018 46 10000 3.6 290 20:54 06.01.2020
4789 Clouds 19 1018 46 10000 3.6 290 20:36 06.01.2020
4790 Clouds 19 1018 46 10000 3.6 290 20:18 06.01.2020
4791 Clouds 19 1018 46 10000 3.6 290 20:18 06.01.2020
4792 Clouds 19 1018 49 10000 5.7 280 19:54 06.01.2020
4793 Clouds 19 1018 49 10000 5.7 280 19:36 06.01.2020
4794 Clouds 19 1018 49 10000 5.7 280 19:18 06.01.2020
4795 Clear 20 1017 46 10000 4.1 290 18:41 06.01.2020
4796 Clear 20 1017 46 10000 4.1 290 18:19 06.01.2020
4797 Clear 20 1017 46 10000 5.7 290 17:39 06.01.2020
4798 Clear 20 1017 46 10000 5.7 290 17:19 06.01.2020
4799 Clear 21 1017 46 10000 5.7 290 16:55 06.01.2020
4800 Clear 21 1017 46 10000 5.7 290 16:36 06.01.2020
4801 Clear 21 1017 46 10000 5.7 290 16:18 06.01.2020
4802 Clear 21 1017 46 10000 5.7 290 16:18 06.01.2020
4803 Clear 22 1016 46 10000 6.2 300 15:42 06.01.2020
4804 Clear 22 1016 46 10000 6.2 300 15:20 06.01.2020
4805 Clouds 23 1016 43 10000 6.7 290 14:59 06.01.2020
4806 Clouds 23 1016 43 10000 6.7 290 14:41 06.01.2020
4807 Clouds 23 1016 43 10000 6.7 290 14:41 06.01.2020
4808 Clouds 23 1016 43 10000 6.7 290 14:21 06.01.2020
4809 Clouds 23 1015 46 10000 7.7 320 13:58 06.01.2020
4810 Clouds 23 1015 46 10000 7.7 320 13:38 06.01.2020
4811 Clouds 23 1015 46 10000 7.7 320 13:19 06.01.2020
4812 Clouds 23 1015 44 10000 7.2 310 12:43 06.01.2020
4813 Clouds 23 1015 46 10000 6.2 300 12:21 06.01.2020
4814 Clouds 23 1015 46 10000 6.2 300 11:59 06.01.2020
4815 Clouds 23 1015 46 10000 6.2 300 11:39 06.01.2020
4816 Clouds 23 1015 46 10000 6.2 300 11:21 06.01.2020
4817 Clouds 23 1016 46 10000 5.1 310 10:57 06.01.2020
4818 Clouds 23 1016 46 10000 5.1 310 10:39 06.01.2020
4819 Clouds 23 1016 46 10000 5.1 310 10:20 06.01.2020
4820 Clouds 22 1016 46 10000 6.2 320 09:38 06.01.2020
4821 Clouds 22 1016 46 10000 6.2 320 09:19 06.01.2020
4822 Clouds 22 1017 53 10000 6.2 320 08:46 06.01.2020
4823 Clouds 22 1017 53 10000 6.2 320 08:26 06.01.2020
4824 Clouds 22 1017 56 10000 5.1 320 07:53 06.01.2020
4825 Clouds 22 1017 56 10000 5.1 320 07:32 06.01.2020
4826 Clouds 21 1017 64 10000 4.6 310 06:45 06.01.2020
4827 Clouds 21 1017 64 10000 4.6 310 06:20 06.01.2020
4828 Rain 20 1016 77 10000 5.7 320 05:45 06.01.2020
4829 Clouds 20 1015 73 10000 3.6 330 04:37 06.01.2020
4830 Clouds 20 1015 73 10000 3.6 330 04:18 06.01.2020
4831 Clouds 20 1014 73 10000 5.7 350 02:46 06.01.2020
4832 Clouds 20 1014 73 10000 5.7 350 02:23 06.01.2020
4833 Clouds 20 1013 68 10000 2.1 60 01:44 06.01.2020
4834 Clouds 20 1013 68 10000 2.1 60 01:24 06.01.2020
4835 Clouds 21 1014 77 10000 4.6 350 00:41 06.01.2020
4836 Clouds 20 1014 77 10000 4.6 350 00:21 06.01.2020
4837 Clouds 21 1013 73 10000 5.1 360 23:41 05.01.2020
4838 Clouds 21 1013 73 10000 5.1 360 23:22 05.01.2020
4839 Clouds 22 1013 64 10000 6.2 350 22:56 05.01.2020
4840 Clouds 22 1013 64 10000 6.2 350 22:38 05.01.2020
4841 Clouds 22 1013 64 10000 6.2 350 22:19 05.01.2020
4842 Clouds 23 1013 73 10000 5.7 350 21:54 05.01.2020
4843 Clouds 23 1013 73 10000 5.7 350 21:36 05.01.2020
4844 Clouds 23 1013 73 10000 5.7 350 21:18 05.01.2020
4845 Rain 23 1013 69 10000 3.1 340 20:55 05.01.2020
4846 Rain 23 1013 69 10000 3.1 340 20:55 05.01.2020
4847 Rain 23 1013 69 10000 3.1 340 20:36 05.01.2020
4848 Rain 23 1013 69 10000 3.1 340 20:18 05.01.2020
4849 Rain 23 1013 69 10000 3.6 340 19:54 05.01.2020
4850 Rain 23 1013 69 10000 3.6 340 19:54 05.01.2020
4851 Rain 23 1013 69 10000 3.6 340 19:36 05.01.2020
4852 Rain 23 1013 69 10000 3.6 340 19:18 05.01.2020
4853 Rain 23 1013 69 10000 3.6 330 18:54 05.01.2020
4854 Rain 23 1013 69 10000 3.6 330 18:36 05.01.2020
4855 Rain 23 1013 69 10000 3.6 330 18:18 05.01.2020
4856 Rain 24 1012 69 10000 3.1 350 17:39 05.01.2020
4857 Clouds 24 1012 69 10000 3.1 350 17:20 05.01.2020
4858 Clouds 24 1011 65 10000 5.1 330 16:58 05.01.2020
4859 Clouds 24 1011 65 10000 5.1 330 16:39 05.01.2020
4860 Clouds 24 1011 65 10000 5.1 330 16:20 05.01.2020
4861 Clouds 24 1011 53 8000 4.6 300 15:41 05.01.2020
4862 Clouds 24 1011 53 8000 4.6 300 15:22 05.01.2020
4863 Clouds 24 1011 53 8000 4.6 300 15:22 05.01.2020
4864 Clouds 24 1011 53 8000 4.6 300 15:22 05.01.2020
4865 Clouds 25 1010 57 8000 6.2 310 14:57 05.01.2020
4866 Clouds 25 1010 57 8000 6.2 310 14:39 05.01.2020
4867 Clouds 25 1010 57 8000 6.2 310 14:21 05.01.2020
4868 Dust 27 1010 50 5000 5.7 290 13:58 05.01.2020
4869 Dust 27 1010 50 5000 5.7 290 13:38 05.01.2020
4870 Dust 27 1010 50 5000 5.7 290 13:20 05.01.2020
4871 Dust 28 1010 42 4000 6.2 300 12:57 05.01.2020
4872 Dust 28 1010 42 4000 6.2 300 12:38 05.01.2020
4873 Dust 28 1010 42 4000 6.2 300 12:20 05.01.2020
4874 Dust 29 1010 35 3500 7.2 210 11:54 05.01.2020
4875 Dust 29 1010 35 3500 7.2 210 11:36 05.01.2020
4876 Dust 29 1010 35 3500 7.2 210 11:18 05.01.2020
4877 Dust 28 1011 42 4000 7.2 220 10:41 05.01.2020
4878 Dust 28 1011 42 4000 7.2 220 10:20 05.01.2020
4879 Dust 27 1012 44 4000 7.7 200 09:55 05.01.2020
4880 Dust 27 1012 44 4000 7.7 200 09:36 05.01.2020
4881 Dust 27 1012 44 4000 7.7 200 09:18 05.01.2020
4882 Clouds 26 1014 50 6000 6.2 210 08:44 05.01.2020
4883 Clouds 26 1014 50 6000 6.2 210 08:21 05.01.2020
4884 Clouds 24 1014 53 10000 6.7 190 07:44 05.01.2020
4885 Clouds 24 1014 53 10000 6.7 190 07:44 05.01.2020
4886 Clouds 24 1014 53 10000 6.7 190 07:26 05.01.2020
4887 Clouds 23 1014 53 10000 4.6 180 06:54 05.01.2020
4888 Clouds 21 1014 53 10000 4.1 190 05:43 05.01.2020
4889 Clouds 21 1013 53 10000 3.6 190 04:56 05.01.2020
4890 Clouds 21 1013 53 10000 3.6 190 04:19 05.01.2020
4891 Clouds 21 1013 53 10000 3.6 190 04:19 05.01.2020
4892 Clouds 20 1013 53 10000 1.5 200 03:38 05.01.2020
4893 Clouds 20 1012 49 10000 3.1 190 02:35 05.01.2020
4894 Clear 19 1012 52 10000 2.1 200 01:52 05.01.2020
4895 Clear 19 1012 52 10000 2.1 200 01:20 05.01.2020
4896 Clear 20 1012 46 10000 1.5 170 00:57 05.01.2020
4897 Clear 20 1012 46 10000 1.5 170 00:39 05.01.2020
4898 Clear 20 1012 46 10000 1.5 170 00:20 05.01.2020
4899 Clear 20 1012 49 10000 2.1 140 23:42 04.01.2020
4900 Clear 20 1012 49 10000 2.1 140 23:21 04.01.2020
4901 Clear 20 1013 49 10000 2.6 130 22:59 04.01.2020
4902 Clear 20 1013 49 10000 2.6 130 22:39 04.01.2020
4903 Clear 20 1013 49 10000 2.6 130 22:20 04.01.2020
4904 Clear 20 1014 49 10000 3.6 150 21:56 04.01.2020
4905 Clear 20 1014 49 10000 3.6 150 21:37 04.01.2020
4906 Clear 20 1014 49 10000 3.6 150 21:19 04.01.2020
4907 Clear 20 1015 56 10000 3.6 120 20:55 04.01.2020
4908 Clear 20 1015 56 10000 3.6 120 20:36 04.01.2020
4909 Clear 20 1015 56 10000 3.6 120 20:36 04.01.2020
4910 Clear 20 1015 56 10000 3.6 120 20:18 04.01.2020
4911 Clear 21 1015 53 10000 4.6 110 19:41 04.01.2020
4912 Clear 21 1015 53 10000 4.6 110 19:23 04.01.2020
4913 Clear 21 1015 53 10000 3.1 100 18:57 04.01.2020
4914 Clear 21 1015 53 10000 3.1 100 18:38 04.01.2020
4915 Clear 21 1015 53 10000 3.1 100 18:19 04.01.2020
4916 Clear 23 1015 53 10000 1.5 10 17:55 04.01.2020
4917 Clear 23 1015 53 10000 1.5 10 17:37 04.01.2020
4918 Clear 23 1015 53 10000 1.5 10 17:18 04.01.2020
4919 Clear 24 1014 50 10000 3.1 340 16:40 04.01.2020
4920 Clear 24 1014 50 10000 3.1 340 16:22 04.01.2020
4921 Clear 24 1014 50 10000 3.1 340 16:22 04.01.2020
4922 Clear 25 1014 41 10000 5.1 320 15:56 04.01.2020
4923 Clear 25 1014 41 10000 5.1 320 15:38 04.01.2020
4924 Clear 25 1014 41 10000 5.1 320 15:19 04.01.2020
4925 Clear 28 1013 28 10000 5.1 290 14:55 04.01.2020
4926 Clear 28 1013 28 10000 5.1 290 14:55 04.01.2020
4927 Clear 28 1013 28 10000 5.1 290 14:36 04.01.2020
4928 Clear 28 1013 28 10000 5.1 290 14:18 04.01.2020
4929 Clear 28 1013 30 10000 5.7 290 13:39 04.01.2020
4930 Clear 28 1013 30 10000 5.7 290 13:20 04.01.2020
4931 Clear 29 1013 28 10000 6.2 290 12:59 04.01.2020
4932 Clear 29 1013 28 10000 6.2 290 12:41 04.01.2020
4933 Clear 29 1013 28 10000 6.2 290 12:19 04.01.2020
4934 Clear 29 1013 28 10000 5.7 290 11:57 04.01.2020
4935 Clear 29 1013 28 10000 5.7 290 11:38 04.01.2020
4936 Clear 29 1014 23 10000 5.1 230 11:19 04.01.2020
4937 Clear 29 1015 28 10000 4.6 210 10:42 04.01.2020
4938 Clear 29 1015 28 10000 4.6 210 10:23 04.01.2020
4939 Clear 28 1016 30 10000 3.1 250 09:57 04.01.2020
4940 Clear 28 1016 30 10000 3.1 250 09:39 04.01.2020
4941 Clear 28 1016 30 10000 3.1 250 09:20 04.01.2020
4942 Clear 27 1017 36 10000 2.6 190 08:40 04.01.2020
4943 Clear 27 1017 36 10000 2.6 190 08:20 04.01.2020
4944 Clear 24 1017 47 10000 2.1 180 07:42 04.01.2020
4945 Clear 23 1017 47 10000 2.1 180 07:19 04.01.2020
4946 Clear 21 1017 53 10000 2.6 160 06:33 04.01.2020
4947 Clear 18 1017 56 10000 1.5 150 05:19 04.01.2020
4948 Clear 17 1016 64 10000 1 0 04:34 04.01.2020
4949 Clear 17 1015 64 10000 2.1 150 03:43 04.01.2020
4950 Clear 17 1015 64 10000 2.1 150 03:18 04.01.2020
4951 Clear 18 1015 56 10000 1.5 130 02:21 04.01.2020
4952 Clear 18 1015 52 10000 1.5 170 01:55 04.01.2020
4953 Clear 18 1015 52 10000 1.5 170 01:31 04.01.2020
4954 Clear 18 1016 56 10000 1.5 170 00:43 04.01.2020
4955 Clear 18 1016 56 10000 1.5 170 00:23 04.01.2020
4956 Clear 18 1016 53 10000 1.5 170 23:44 03.01.2020
4957 Clear 18 1016 53 10000 1.5 170 23:25 03.01.2020
4958 Clear 18 1017 53 10000 2.6 110 22:41 03.01.2020
4959 Clear 18 1017 53 10000 2.6 110 22:20 03.01.2020
4960 Clear 19 1017 53 10000 2.1 100 21:59 03.01.2020
4961 Clear 19 1017 53 10000 2.1 100 21:38 03.01.2020
4962 Clear 19 1017 53 10000 2.1 100 21:19 03.01.2020
4963 Clear 19 1018 49 10000 1.5 100 20:58 03.01.2020
4964 Clear 19 1018 49 10000 1.5 100 20:40 03.01.2020
4965 Clear 19 1018 49 10000 1.5 100 20:18 03.01.2020
4966 Clear 20 1018 49 10000 2.1 90 19:56 03.01.2020
4967 Clear 20 1018 49 10000 2.1 90 19:37 03.01.2020
4968 Clear 20 1018 49 10000 2.1 90 19:19 03.01.2020
4969 Clear 21 1018 47 10000 2.1 80 18:43 03.01.2020
4970 Clear 21 1018 47 10000 2.1 80 18:24 03.01.2020
4971 Clear 22 1018 44 10000 2.1 50 17:55 03.01.2020
4972 Clear 22 1018 44 10000 2.1 50 17:37 03.01.2020
4973 Clear 22 1018 44 10000 2.1 50 17:37 03.01.2020
4974 Clear 22 1018 44 10000 2.1 50 17:18 03.01.2020
4975 Clear 22 1018 44 10000 2.1 50 17:18 03.01.2020
4976 Clear 24 1018 36 10000 2.6 50 16:42 03.01.2020
4977 Clear 24 1018 36 10000 2.6 50 16:23 03.01.2020
4978 Clear 25 1017 41 10000 3.1 30 15:44 03.01.2020
4979 Clear 25 1017 41 10000 3.1 30 15:19 03.01.2020
4980 Clear 27 1017 39 10000 4.1 350 14:59 03.01.2020
4981 Clear 27 1017 39 10000 4.1 350 14:38 03.01.2020
4982 Clouds 27 1017 39 10000 4.1 350 14:19 03.01.2020
4983 Clouds 27 1017 34 10000 4.6 350 13:44 03.01.2020
4984 Clouds 28 1017 34 10000 4.6 350 13:24 03.01.2020
4985 Clouds 28 1016 37 10000 3.6 320 12:58 03.01.2020
4986 Clouds 28 1016 37 10000 3.6 320 12:39 03.01.2020
4987 Clouds 28 1017 37 10000 2.6 310 12:21 03.01.2020
4988 Clouds 28 1017 37 10000 2.6 310 11:44 03.01.2020
4989 Clouds 28 1017 37 10000 2.6 310 11:21 03.01.2020
4990 Clouds 28 1018 37 10000 1.5 0 10:44 03.01.2020
4991 Clouds 28 1018 37 10000 1.5 0 10:26 03.01.2020
4992 Clouds 27 1019 42 10000 2.1 100 09:58 03.01.2020
4993 Clouds 27 1019 42 10000 2.1 100 09:39 03.01.2020
4994 Clouds 27 1019 42 10000 2.1 100 09:21 03.01.2020
4995 Clouds 25 1020 50 10000 3.6 90 08:56 03.01.2020
4996 Clouds 25 1020 50 10000 3.6 90 08:38 03.01.2020
4997 Clouds 25 1020 50 10000 3.6 90 08:19 03.01.2020
4998 Clouds 23 1021 60 10000 2.1 120 07:40 03.01.2020
4999 Clouds 23 1021 60 10000 2.1 120 07:18 03.01.2020
5000 Clouds 20 1020 68 10000 1.5 130 06:49 03.01.2020
5001 Clouds 20 1020 68 10000 1.5 130 06:30 03.01.2020
5002 Clouds 17 1020 77 8000 1.5 140 05:39 03.01.2020
5003 Clouds 17 1019 77 8000 3.6 110 04:22 03.01.2020
5004 Clouds 18 1018 77 8000 1.5 130 02:56 03.01.2020
5005 Clouds 18 1018 77 8000 1.5 130 02:56 03.01.2020
5006 Clouds 18 1018 77 8000 1.5 130 02:33 03.01.2020
5007 Clouds 18 1018 73 10000 1.5 140 01:42 03.01.2020
5008 Clouds 18 1018 73 10000 1.5 140 01:42 03.01.2020
5009 Clouds 19 1018 73 10000 2.1 230 00:50 03.01.2020
5010 Clouds 19 1018 73 10000 2.1 230 00:30 03.01.2020
5011 Clouds 19 1018 73 10000 2.1 230 23:55 02.01.2020
5012 Clouds 19 1018 73 10000 2.1 230 23:37 02.01.2020
5013 Clouds 19 1018 73 10000 2.1 230 23:18 02.01.2020
5014 Clouds 21 1018 69 10000 2.1 160 22:45 02.01.2020
5015 Clouds 21 1018 69 10000 2.1 160 22:45 02.01.2020
5016 Clouds 21 1018 69 10000 2.1 160 22:21 02.01.2020
5017 Clouds 21 1019 69 10000 3.1 110 21:59 02.01.2020
5018 Clouds 21 1019 69 10000 3.1 110 21:41 02.01.2020
5019 Clouds 21 1019 69 10000 3.1 110 21:23 02.01.2020
5020 Clouds 21 1019 64 10000 2.6 110 20:58 02.01.2020
5021 Clouds 21 1019 64 10000 2.6 110 20:39 02.01.2020
5022 Clouds 21 1019 64 10000 2.6 110 20:39 02.01.2020
5023 Clouds 21 1019 64 10000 2.6 110 20:21 02.01.2020
5024 Clouds 22 1019 64 10000 2.1 10 19:55 02.01.2020
5025 Clouds 22 1019 64 10000 2.1 10 19:55 02.01.2020
5026 Clouds 22 1019 64 10000 2.1 10 19:55 02.01.2020
5027 Clouds 22 1019 64 10000 2.1 10 19:37 02.01.2020
5028 Clouds 22 1019 64 10000 2.1 10 19:19 02.01.2020
5029 Clouds 21 1019 64 10000 2.1 10 18:57 02.01.2020
5030 Clouds 21 1019 64 10000 2.1 10 18:38 02.01.2020
5031 Clouds 22 1019 64 10000 2.1 10 18:20 02.01.2020
5032 Clouds 22 1019 64 10000 2.6 350 17:56 02.01.2020
5033 Clouds 22 1019 64 10000 2.6 350 17:36 02.01.2020
5034 Clouds 22 1019 64 10000 2.6 350 17:18 02.01.2020
5035 Clouds 23 1018 64 10000 3.1 350 16:56 02.01.2020
5036 Clouds 23 1018 64 10000 3.1 350 16:38 02.01.2020
5037 Clouds 23 1018 64 10000 3.1 350 16:19 02.01.2020
5038 Clouds 24 1017 64 10000 4.1 340 15:45 02.01.2020
5039 Clouds 24 1017 64 10000 4.1 340 15:24 02.01.2020
5040 Clouds 25 1017 61 10000 4.6 310 14:58 02.01.2020
5041 Clouds 25 1017 61 10000 4.6 310 14:38 02.01.2020
5042 Clouds 25 1017 61 10000 4.6 310 14:20 02.01.2020
5043 Clouds 26 1016 57 10000 4.1 320 13:58 02.01.2020
5044 Clouds 26 1016 57 10000 4.1 320 13:40 02.01.2020
5045 Clouds 26 1016 57 10000 4.1 320 13:19 02.01.2020
5046 Clouds 26 1016 57 10000 4.1 330 12:42 02.01.2020
5047 Clouds 26 1016 54 10000 3.1 310 12:21 02.01.2020
5048 Clouds 26 1016 54 10000 3.1 310 11:42 02.01.2020
5049 Clouds 26 1016 54 10000 3.1 310 11:22 02.01.2020
5050 Clouds 26 1017 50 10000 2.1 10 10:46 02.01.2020
5051 Clouds 26 1017 50 10000 2.1 10 10:28 02.01.2020
5052 Clouds 25 1018 57 10000 1.5 0 09:58 02.01.2020
5053 Clouds 25 1018 57 10000 1.5 0 09:36 02.01.2020
5054 Clouds 24 1019 69 8000 3.1 200 08:59 02.01.2020
5055 Clouds 24 1019 69 8000 3.1 200 08:40 02.01.2020
5056 Clouds 24 1019 69 8000 3.1 200 08:21 02.01.2020
5057 Clouds 22 1019 73 8000 3.1 190 07:47 02.01.2020
5058 Clouds 22 1019 73 8000 3.1 190 07:27 02.01.2020
5059 Clouds 20 1019 68 10000 2.6 170 06:41 02.01.2020
5060 Clouds 18 1018 68 10000 3.1 200 05:42 02.01.2020
5061 Clouds 18 1017 68 10000 3.6 190 04:36 02.01.2020
5062 Clouds 18 1016 63 10000 3.1 180 03:44 02.01.2020
5063 Clouds 18 1016 59 10000 3.1 200 02:21 02.01.2020
5064 Clouds 18 1015 59 10000 2.6 190 01:57 02.01.2020
5065 Clouds 18 1015 59 10000 2.6 190 01:26 02.01.2020
5066 Clouds 18 1015 59 10000 3.6 200 00:49 02.01.2020
5067 Clouds 18 1015 59 10000 3.6 200 00:26 02.01.2020
5068 Clouds 18 1015 56 10000 2.6 200 23:43 01.01.2020
5069 Clouds 18 1015 56 10000 2.6 200 23:23 01.01.2020
5070 Clouds 19 1015 52 10000 2.6 200 22:39 01.01.2020
5071 Clouds 19 1015 52 10000 2.6 200 22:21 01.01.2020
5072 Clouds 20 1015 52 10000 2.6 200 21:58 01.01.2020
5073 Clouds 20 1015 52 10000 2.6 200 21:40 01.01.2020
5074 Clouds 20 1015 52 10000 2.6 200 21:20 01.01.2020
5075 Clouds 20 1016 49 10000 1.5 210 20:58 01.01.2020
5076 Clouds 20 1016 49 10000 1.5 210 20:38 01.01.2020
5077 Clouds 20 1016 49 10000 1.5 210 20:20 01.01.2020
5078 Clouds 21 1016 49 10000 1.5 220 19:57 01.01.2020
5079 Clouds 21 1016 49 10000 1.5 220 19:38 01.01.2020
5080 Clouds 21 1016 49 10000 1.5 220 19:20 01.01.2020
5081 Clouds 22 1015 49 10000 1.5 220 18:57 01.01.2020
5082 Clouds 22 1015 49 10000 1.5 220 18:38 01.01.2020
5083 Clouds 22 1015 49 10000 1.5 220 18:20 01.01.2020
5084 Clouds 23 1015 49 10000 1.5 240 17:57 01.01.2020
5085 Clouds 23 1015 49 10000 1.5 240 17:39 01.01.2020
5086 Clouds 23 1015 49 10000 1.5 240 17:19 01.01.2020
5087 Clouds 24 1014 44 10000 3.1 280 16:57 01.01.2020
5088 Clouds 24 1014 44 10000 3.1 280 16:37 01.01.2020
5089 Clouds 24 1014 44 10000 3.1 280 16:37 01.01.2020
5090 Clouds 24 1014 44 10000 3.1 280 16:19 01.01.2020
5091 Clouds 24 1014 44 10000 3.1 280 16:19 01.01.2020
5092 Clouds 24 1014 33 10000 3.6 280 15:54 01.01.2020
5093 Clouds 24 1014 33 10000 3.6 280 15:36 01.01.2020
5094 Clouds 24 1014 33 10000 3.6 280 15:36 01.01.2020
5095 Clouds 24 1014 33 10000 3.6 280 15:36 01.01.2020
5096 Clouds 24 1014 33 10000 3.6 280 15:18 01.01.2020
5097 Clouds 25 1013 29 10000 2.1 0 14:42 01.01.2020
5098 Clouds 25 1013 29 10000 2.1 0 14:24 01.01.2020
5099 Clouds 26 1013 29 10000 3.6 250 13:57 01.01.2020
5100 Clouds 26 1013 29 10000 3.6 250 13:38 01.01.2020
5101 Clouds 26 1013 29 10000 3.6 250 13:19 01.01.2020
5102 Clouds 26 1013 31 10000 4.6 290 12:58 01.01.2020
5103 Clouds 26 1013 31 10000 4.6 290 12:40 01.01.2020
5104 Clouds 26 1013 31 10000 4.6 290 12:19 01.01.2020
5105 Clouds 26 1013 30 10000 3.6 280 11:56 01.01.2020
5106 Clouds 26 1013 30 10000 3.6 280 11:38 01.01.2020
5107 Clouds 26 1013 30 10000 3.6 280 11:19 01.01.2020
5108 Clouds 25 1014 44 10000 4.1 240 10:54 01.01.2020
5109 Clouds 25 1014 44 10000 4.1 240 10:36 01.01.2020
5110 Clouds 25 1014 44 10000 4.1 240 10:18 01.01.2020
5111 Clouds 24 1015 57 10000 3.6 210 09:39 01.01.2020
5112 Clouds 24 1015 57 10000 3.6 210 09:19 01.01.2020
5113 Clouds 24 1015 57 10000 3.6 210 09:19 01.01.2020
5114 Clouds 22 1016 68 10000 3.6 200 08:56 01.01.2020
5115 Clouds 22 1016 68 10000 3.6 200 08:37 01.01.2020
5116 Clouds 22 1016 68 10000 3.6 200 08:19 01.01.2020
5117 Clouds 20 1016 77 7000 4.6 210 07:55 01.01.2020
5118 Clouds 20 1016 77 7000 4.6 210 07:37 01.01.2020
5119 Clouds 20 1016 77 7000 4.6 210 07:37 01.01.2020
5120 Haze 18 1016 82 5000 4.1 190 06:45 01.01.2020
5121 Haze 18 1016 82 5000 4.1 190 06:22 01.01.2020
5122 Haze 15 1015 87 3500 3.6 190 05:23 01.01.2020
5123 Clouds 16 1013 88 7000 3.1 210 03:47 01.01.2020
5124 Clouds 16 1013 88 7000 3.1 210 03:24 01.01.2020
5125 Clouds 16 1013 82 6000 3.1 190 02:57 01.01.2020
5126 Clouds 16 1013 82 6000 3.1 190 02:37 01.01.2020
5127 Clouds 18 1013 77 7000 2.6 200 01:59 01.01.2020
5128 Clouds 18 1013 77 7000 2.6 200 01:38 01.01.2020
5129 Clouds 18 1013 77 7000 2.6 200 01:20 01.01.2020
5130 Clouds 17 1013 82 9000 2.1 180 00:44 01.01.2020
5131 Clouds 18 1013 82 9000 2.1 180 00:25 01.01.2020
5132 Clouds 19 1013 73 10000 3.1 190 23:41 31.12.2019
5133 Clouds 19 1013 73 10000 3.1 190 23:22 31.12.2019
5134 Clouds 19 1013 68 10000 2.6 200 22:58 31.12.2019
5135 Clouds 19 1013 68 10000 2.6 200 22:39 31.12.2019
5136 Clouds 19 1013 68 10000 2.6 200 22:20 31.12.2019
5137 Clouds 20 1014 68 10000 2.1 190 21:58 31.12.2019
5138 Clouds 20 1014 68 10000 2.1 190 21:40 31.12.2019
5139 Clouds 20 1014 68 10000 2.1 190 21:21 31.12.2019
5140 Clouds 21 1015 56 10000 2.1 230 20:56 31.12.2019
5141 Clouds 21 1015 56 10000 2.1 230 20:37 31.12.2019
5142 Clear 21 1015 56 10000 2.1 230 20:19 31.12.2019
5143 Clear 22 1015 53 10000 3.6 260 19:54 31.12.2019
5144 Clear 22 1015 53 10000 3.6 260 19:36 31.12.2019
5145 Clear 22 1015 53 10000 3.6 260 19:18 31.12.2019
5146 Clouds 22 1015 53 10000 3.6 290 18:54 31.12.2019
5147 Clouds 22 1015 53 10000 3.6 290 18:36 31.12.2019
5148 Clouds 22 1015 53 10000 3.6 290 18:18 31.12.2019
5149 Clouds 22 1015 53 10000 3.6 290 18:18 31.12.2019
5150 Clouds 23 1015 53 10000 3.6 290 17:54 31.12.2019
5151 Clouds 23 1015 53 10000 3.6 290 17:36 31.12.2019
5152 Clouds 23 1015 53 10000 3.6 290 17:18 31.12.2019
5153 Clouds 23 1015 53 10000 5.7 300 16:54 31.12.2019
5154 Clouds 23 1015 53 10000 5.7 300 16:36 31.12.2019
5155 Clouds 23 1015 53 10000 5.7 300 16:18 31.12.2019
5156 Clouds 23 1015 53 10000 5.7 300 16:18 31.12.2019
5157 Clouds 24 1014 53 10000 5.7 290 15:54 31.12.2019
5158 Clouds 24 1014 53 10000 5.7 290 15:36 31.12.2019
5159 Clouds 24 1014 53 10000 5.7 290 15:36 31.12.2019
5160 Clouds 24 1014 53 10000 5.7 290 15:18 31.12.2019
5161 Clouds 24 1014 50 10000 5.7 280 14:54 31.12.2019
5162 Clouds 24 1014 50 10000 5.7 280 14:36 31.12.2019
5163 Clouds 24 1014 50 10000 5.7 280 14:18 31.12.2019
5164 Clouds 25 1014 47 10000 6.2 290 13:54 31.12.2019
5165 Clouds 25 1014 47 10000 6.2 290 13:36 31.12.2019
5166 Clouds 25 1014 47 10000 6.2 290 13:18 31.12.2019
5167 Clouds 25 1014 47 10000 5.7 300 12:40 31.12.2019
5168 Clouds 25 1014 47 10000 5.7 300 12:40 31.12.2019
5169 Clouds 25 1014 47 10000 5.7 300 12:20 31.12.2019
5170 Clouds 25 1015 53 10000 5.7 290 11:57 31.12.2019
5171 Clouds 25 1015 53 10000 5.7 290 11:39 31.12.2019
5172 Clouds 25 1015 53 10000 5.7 290 11:20 31.12.2019
5173 Clouds 25 1015 53 10000 4.1 270 10:58 31.12.2019
5174 Clouds 25 1015 53 10000 4.1 270 10:38 31.12.2019
5175 Clouds 25 1015 53 10000 4.1 270 10:20 31.12.2019
5176 Clouds 25 1017 53 10000 3.1 210 09:59 31.12.2019
5177 Clouds 25 1017 53 10000 3.1 210 09:39 31.12.2019
5178 Clouds 25 1017 53 10000 3.1 210 09:39 31.12.2019
5179 Clouds 25 1017 53 10000 3.1 210 09:39 31.12.2019
5180 Clouds 25 1017 53 10000 3.1 210 09:21 31.12.2019
5181 Clouds 23 1018 60 10000 2.6 170 08:57 31.12.2019
5182 Clouds 23 1018 60 10000 2.6 170 08:39 31.12.2019
5183 Clouds 23 1018 60 10000 2.6 170 08:19 31.12.2019
5184 Clouds 21 1018 68 10000 3.1 180 07:43 31.12.2019
5185 Clouds 21 1018 68 10000 3.1 180 07:21 31.12.2019
5186 Clouds 18 1018 77 8000 3.1 160 06:50 31.12.2019
5187 Clouds 17 1017 82 7000 2.1 180 05:58 31.12.2019
5188 Clear 16 1017 82 6000 2.1 170 04:30 31.12.2019
5189 Clear 16 1016 82 7000 2.1 180 03:38 31.12.2019
5190 Clear 17 1016 77 9000 1.5 160 02:55 31.12.2019
5191 Clear 17 1016 77 9000 1.5 160 02:19 31.12.2019
5192 Clear 18 1016 82 10000 1.5 170 01:48 31.12.2019
5193 Clear 18 1016 82 10000 1.5 170 01:27 31.12.2019
5194 Clear 18 1016 77 10000 1.5 0 00:46 31.12.2019
5195 Clear 18 1016 77 10000 1.5 0 00:22 31.12.2019
5196 Clear 18 1016 77 10000 1.5 200 23:56 30.12.2019
5197 Clear 18 1016 77 10000 1.5 200 23:38 30.12.2019
5198 Clear 18 1016 77 10000 1.5 200 23:20 30.12.2019
5199 Clear 18 1017 73 10000 2.1 180 22:57 30.12.2019
5200 Clear 18 1017 73 10000 2.1 180 22:38 30.12.2019
5201 Clear 18 1017 73 10000 2.1 180 22:20 30.12.2019
5202 Clouds 19 1017 56 10000 2.6 320 21:56 30.12.2019
5203 Clouds 19 1017 56 10000 2.6 320 21:38 30.12.2019
5204 Clouds 19 1017 56 10000 2.6 320 21:38 30.12.2019
5205 Clouds 19 1017 56 10000 2.6 320 21:18 30.12.2019
5206 Clouds 20 1017 56 10000 3.1 330 20:56 30.12.2019
5207 Clouds 20 1017 56 10000 3.1 330 20:56 30.12.2019
5208 Clouds 20 1017 56 10000 3.1 330 20:38 30.12.2019
5209 Clouds 20 1017 56 10000 3.1 330 20:20 30.12.2019
5210 Clouds 22 1017 50 10000 4.1 320 19:57 30.12.2019
5211 Clouds 22 1017 50 10000 4.1 320 19:37 30.12.2019
5212 Clouds 22 1017 50 10000 4.1 320 19:19 30.12.2019
5213 Clouds 21 1017 53 10000 3.6 290 18:56 30.12.2019
5214 Clouds 21 1017 53 10000 3.6 290 18:38 30.12.2019
5215 Clouds 22 1017 53 10000 3.6 290 18:20 30.12.2019
5216 Clouds 22 1017 57 10000 3.1 300 17:55 30.12.2019
5217 Clouds 22 1017 57 10000 3.1 300 17:36 30.12.2019
5218 Clouds 22 1017 57 10000 3.1 300 17:36 30.12.2019
5219 Clouds 22 1017 57 10000 3.1 300 17:18 30.12.2019
5220 Clouds 23 1017 53 10000 4.6 280 16:55 30.12.2019
5221 Clouds 23 1017 53 10000 4.6 280 16:36 30.12.2019
5222 Clouds 23 1017 53 10000 4.6 280 16:18 30.12.2019
5223 Clouds 24 1016 69 10000 4.1 280 15:54 30.12.2019
5224 Clouds 24 1016 69 10000 4.1 280 15:36 30.12.2019
5225 Clouds 24 1016 69 10000 4.1 280 15:18 30.12.2019
5226 Clouds 24 1016 61 10000 4.6 280 14:42 30.12.2019
5227 Clouds 24 1016 61 10000 4.6 280 14:19 30.12.2019
5228 Clouds 25 1016 57 10000 4.6 280 13:55 30.12.2019
5229 Clouds 25 1016 57 10000 4.6 280 13:37 30.12.2019
5230 Clouds 25 1016 57 10000 4.6 280 13:18 30.12.2019
5231 Clouds 25 1016 53 10000 4.6 320 12:42 30.12.2019
5232 Clouds 25 1016 53 10000 4.6 320 12:20 30.12.2019
5233 Clouds 26 1016 54 10000 4.1 290 11:58 30.12.2019
5234 Clouds 26 1016 54 10000 4.1 290 11:40 30.12.2019
5235 Clouds 26 1016 54 10000 4.1 290 11:19 30.12.2019
5236 Clouds 26 1017 54 10000 3.6 280 10:44 30.12.2019
5237 Clouds 26 1017 54 10000 3.6 280 10:21 30.12.2019
5238 Clouds 24 1018 64 10000 2.6 0 09:58 30.12.2019
5239 Clouds 24 1018 64 10000 2.6 0 09:39 30.12.2019
5240 Clouds 24 1018 64 10000 2.6 0 09:19 30.12.2019
5241 Clear 23 1019 73 8000 3.6 190 08:50 30.12.2019
5242 Clear 23 1019 73 8000 3.6 190 08:50 30.12.2019
5243 Clear 23 1019 73 8000 3.6 190 08:23 30.12.2019
5244 Clear 22 1020 73 6000 3.1 190 07:55 30.12.2019
5245 Clear 21 1020 73 6000 3.1 190 07:34 30.12.2019
5246 Haze 19 1019 82 5000 3.1 190 06:52 30.12.2019
5247 Haze 17 1018 88 2500 2.1 160 04:56 30.12.2019
5248 Haze 17 1017 88 4000 2.6 200 03:55 30.12.2019
5249 Haze 17 1017 88 4000 3.1 200 02:56 30.12.2019
5250 Haze 17 1017 88 4000 3.1 200 02:37 30.12.2019
5251 Haze 17 1017 88 4000 1.5 170 01:50 30.12.2019
5252 Haze 17 1017 88 4000 1.5 170 01:20 30.12.2019
5253 Haze 18 1017 88 4500 2.1 180 00:44 30.12.2019
5254 Haze 18 1017 88 4500 2.1 180 00:18 30.12.2019
5255 Haze 18 1017 82 5000 2.1 160 23:39 29.12.2019
5256 Haze 18 1017 82 5000 2.1 160 23:21 29.12.2019
5257 Clouds 19 1017 88 6000 3.6 200 22:42 29.12.2019
5258 Clouds 19 1017 88 6000 3.6 200 22:23 29.12.2019
5259 Clouds 20 1017 83 6000 3.1 190 21:59 29.12.2019
5260 Clouds 20 1017 83 6000 3.1 190 21:41 29.12.2019
5261 Clouds 20 1017 83 6000 3.1 190 21:20 29.12.2019
5262 Clouds 20 1017 83 6000 3.1 190 21:20 29.12.2019
5263 Clear 20 1017 78 7000 2.1 220 20:57 29.12.2019
5264 Clear 20 1017 78 7000 2.1 220 20:39 29.12.2019
5265 Clear 20 1017 78 7000 2.1 220 20:20 29.12.2019
5266 Clouds 20 1017 78 10000 2.1 220 19:58 29.12.2019
5267 Clouds 20 1017 78 10000 2.1 220 19:39 29.12.2019
5268 Clouds 20 1017 78 10000 2.1 220 19:20 29.12.2019
5269 Clouds 21 1017 73 10000 2.1 250 18:57 29.12.2019
5270 Clouds 21 1017 73 10000 2.1 250 18:38 29.12.2019
5271 Clouds 21 1017 73 10000 2.1 250 18:19 29.12.2019
5272 Clouds 22 1017 73 10000 2.1 260 17:57 29.12.2019
5273 Clouds 22 1017 73 10000 2.1 260 17:39 29.12.2019
5274 Clouds 22 1017 73 10000 2.1 260 17:20 29.12.2019
5275 Clouds 23 1017 73 10000 3.6 280 16:56 29.12.2019
5276 Clouds 23 1017 73 10000 3.6 280 16:37 29.12.2019
5277 Clouds 23 1017 73 10000 3.6 280 16:19 29.12.2019
5278 Clouds 23 1016 69 10000 3.6 270 15:57 29.12.2019
5279 Clouds 23 1016 69 10000 3.6 270 15:38 29.12.2019
5280 Clouds 23 1016 69 10000 3.6 270 15:19 29.12.2019
5281 Clouds 24 1016 60 10000 5.1 300 14:56 29.12.2019
5282 Clouds 24 1016 60 10000 5.1 300 14:38 29.12.2019
5283 Clouds 24 1016 60 10000 5.1 300 14:18 29.12.2019
5284 Clouds 25 1016 53 10000 5.7 330 13:57 29.12.2019
5285 Clouds 25 1016 53 10000 5.7 330 13:37 29.12.2019
5286 Clouds 25 1016 53 10000 5.7 330 13:37 29.12.2019
5287 Clouds 25 1016 53 10000 5.7 330 13:19 29.12.2019
5288 Clouds 25 1016 50 10000 4.6 320 12:45 29.12.2019
5289 Clouds 25 1016 57 10000 4.1 290 12:26 29.12.2019
5290 Clouds 25 1016 57 10000 4.1 290 11:56 29.12.2019
5291 Clouds 25 1016 57 10000 4.1 290 11:38 29.12.2019
5292 Clouds 25 1016 57 10000 4.1 290 11:38 29.12.2019
5293 Clouds 25 1016 57 10000 4.1 290 11:20 29.12.2019
5294 Clouds 25 1017 53 10000 3.6 320 10:42 29.12.2019
5295 Clouds 25 1017 53 10000 3.6 320 10:23 29.12.2019
5296 Clouds 24 1018 53 10000 3.1 280 09:57 29.12.2019
5297 Clouds 24 1018 53 10000 3.1 280 09:38 29.12.2019
5298 Clouds 24 1018 53 10000 3.1 280 09:20 29.12.2019
5299 Clear 24 1019 57 10000 2.1 260 08:47 29.12.2019
5300 Clear 24 1019 57 10000 2.1 260 08:24 29.12.2019
5301 Clear 22 1019 60 10000 2.1 190 07:55 29.12.2019
5302 Clear 22 1019 60 10000 2.1 190 07:28 29.12.2019
5303 Clear 19 1018 64 9000 2.1 0 06:55 29.12.2019
5304 Clear 19 1018 64 9000 2.1 0 06:25 29.12.2019
5305 Clear 16 1018 68 8000 2.1 170 05:51 29.12.2019
5306 Clear 15 1017 68 8000 2.1 170 04:36 29.12.2019
5307 Clear 15 1017 68 10000 2.1 160 03:54 29.12.2019
5308 Clear 15 1017 68 10000 2.1 160 03:20 29.12.2019
5309 Clear 15 1016 68 10000 1.5 190 02:20 29.12.2019
5310 Clear 15 1016 68 10000 1.5 160 01:31 29.12.2019
5311 Clear 15 1016 68 10000 1.5 160 01:31 29.12.2019
5312 Clear 16 1016 63 10000 1.5 160 00:58 29.12.2019
5313 Clear 16 1016 63 10000 1.5 160 00:40 29.12.2019
5314 Clear 16 1016 63 10000 1.5 160 00:21 29.12.2019
5315 Clear 16 1017 63 10000 1.5 150 23:43 28.12.2019
5316 Clear 17 1017 63 10000 1.5 150 23:18 28.12.2019
5317 Clear 16 1017 64 10000 2.1 160 22:39 28.12.2019
5318 Clear 16 1017 64 10000 2.1 160 22:20 28.12.2019
5319 Clear 17 1017 60 10000 2.6 90 21:58 28.12.2019
5320 Clear 17 1017 60 10000 2.6 90 21:39 28.12.2019
5321 Clear 17 1017 60 10000 2.6 90 21:21 28.12.2019
5322 Clear 17 1017 60 10000 2.6 90 21:21 28.12.2019
5323 Clear 19 1017 56 10000 2.6 350 20:57 28.12.2019
5324 Clear 19 1017 56 10000 2.6 350 20:37 28.12.2019
5325 Clear 19 1017 56 10000 2.6 350 20:19 28.12.2019
5326 Clear 19 1017 56 10000 2.1 360 19:56 28.12.2019
5327 Clear 19 1017 56 10000 2.1 360 19:38 28.12.2019
5328 Clear 19 1017 56 10000 2.1 360 19:19 28.12.2019
5329 Clear 19 1017 56 10000 2.6 350 18:56 28.12.2019
5330 Clear 19 1017 56 10000 2.6 350 18:56 28.12.2019
5331 Clear 19 1017 56 10000 2.6 350 18:38 28.12.2019
5332 Clear 19 1017 56 10000 2.6 350 18:18 28.12.2019
5333 Clear 20 1016 53 10000 2.6 340 17:43 28.12.2019
5334 Clear 20 1016 53 10000 2.6 340 17:22 28.12.2019
5335 Clear 21 1016 49 10000 3.6 340 16:59 28.12.2019
5336 Clear 21 1016 49 10000 3.6 340 16:41 28.12.2019
5337 Clear 21 1016 49 10000 3.6 340 16:23 28.12.2019
5338 Clear 22 1015 53 10000 4.1 340 15:43 28.12.2019
5339 Clear 22 1015 53 10000 4.1 340 15:23 28.12.2019
5340 Clouds 23 1015 53 10000 4.1 340 14:56 28.12.2019
5341 Clouds 23 1015 53 10000 4.1 340 14:37 28.12.2019
5342 Clouds 23 1015 53 10000 4.1 340 14:19 28.12.2019
5343 Clouds 24 1014 53 10000 6.7 320 13:42 28.12.2019
5344 Clouds 24 1014 53 10000 6.7 320 13:21 28.12.2019
5345 Clouds 24 1014 53 10000 6.7 320 13:21 28.12.2019
5346 Clouds 24 1014 50 10000 5.1 320 12:58 28.12.2019
5347 Clouds 24 1014 50 10000 5.1 320 12:40 28.12.2019
5348 Clouds 24 1014 50 10000 5.1 320 12:21 28.12.2019
5349 Clear 25 1014 44 10000 5.1 340 11:40 28.12.2019
5350 Clear 25 1014 44 10000 5.1 340 11:22 28.12.2019
5351 Clear 25 1015 38 10000 2.6 0 10:59 28.12.2019
5352 Clear 25 1015 38 10000 2.6 0 10:41 28.12.2019
5353 Clear 25 1015 38 10000 2.6 0 10:20 28.12.2019
5354 Clouds 24 1016 47 10000 2.1 270 09:55 28.12.2019
5355 Clouds 24 1016 47 10000 2.1 270 09:36 28.12.2019
5356 Clouds 24 1016 47 10000 2.1 270 09:36 28.12.2019
5357 Clouds 24 1016 47 10000 2.1 270 09:18 28.12.2019
5358 Clear 23 1017 49 10000 1.5 170 08:42 28.12.2019
5359 Clear 23 1017 49 10000 1.5 170 08:23 28.12.2019
5360 Clear 21 1017 64 10000 2.6 170 07:47 28.12.2019
5361 Clear 21 1017 64 10000 2.6 170 07:22 28.12.2019
5362 Clear 15 1017 77 6000 1.5 150 05:46 28.12.2019
5363 Clear 14 1015 72 10000 2.6 160 03:48 28.12.2019
5364 Clear 14 1015 68 10000 2.1 170 02:51 28.12.2019
5365 Clear 14 1015 68 10000 2.1 170 02:20 28.12.2019
5366 Clear 15 1015 68 10000 1.5 180 01:55 28.12.2019
5367 Clear 15 1015 68 10000 1.5 180 01:23 28.12.2019
5368 Clear 15 1016 72 10000 1 180 00:48 28.12.2019
5369 Clear 15 1016 72 10000 1 180 00:30 28.12.2019
5370 Clear 16 1016 72 10000 1 0 23:58 27.12.2019
5371 Clear 16 1016 72 10000 1 0 23:58 27.12.2019
5372 Clear 16 1016 72 10000 1 0 23:38 27.12.2019
5373 Clear 16 1016 72 10000 1 0 23:18 27.12.2019
5374 Clear 17 1016 68 10000 1.5 180 22:55 27.12.2019
5375 Clear 17 1016 68 10000 1.5 180 22:37 27.12.2019
5376 Clear 17 1016 68 10000 1.5 180 22:19 27.12.2019
5377 Clear 17 1016 64 10000 2.6 170 21:43 27.12.2019
5378 Clear 17 1016 64 10000 2.6 170 21:24 27.12.2019
5379 Clear 20 1017 60 10000 2.6 160 20:45 27.12.2019
5380 Clear 19 1017 60 10000 2.6 160 20:26 27.12.2019
5381 Clear 19 1017 60 10000 1 0 19:59 27.12.2019
5382 Clear 19 1017 60 10000 1 0 19:40 27.12.2019
5383 Clear 19 1017 60 10000 1 0 19:20 27.12.2019
5384 Clear 20 1016 56 10000 3.6 290 18:56 27.12.2019
5385 Clear 20 1016 56 10000 3.6 290 18:37 27.12.2019
5386 Clear 20 1016 56 10000 3.6 290 18:18 27.12.2019
5387 Clear 20 1016 56 10000 3.1 280 17:55 27.12.2019
5388 Clear 20 1016 56 10000 3.1 280 17:37 27.12.2019
5389 Clear 20 1016 56 10000 3.1 280 17:18 27.12.2019
5390 Clear 22 1015 53 10000 3.6 290 16:43 27.12.2019
5391 Clear 22 1015 53 10000 3.6 290 16:23 27.12.2019
5392 Clouds 22 1015 53 10000 4.1 280 15:58 27.12.2019
5393 Clouds 23 1015 53 10000 4.1 280 15:37 27.12.2019
5394 Clouds 23 1015 53 10000 4.1 280 15:19 27.12.2019
5395 Clear 24 1015 47 10000 5.1 300 14:56 27.12.2019
5396 Clear 24 1015 47 10000 5.1 300 14:38 27.12.2019
5397 Clear 24 1015 47 10000 5.1 300 14:19 27.12.2019
5398 Clear 24 1014 41 10000 3.6 290 13:47 27.12.2019
5399 Clear 24 1014 41 10000 3.6 290 13:24 27.12.2019
5400 Clear 24 1014 38 10000 4.6 280 12:56 27.12.2019
5401 Clear 24 1014 38 10000 4.6 280 12:37 27.12.2019
5402 Clear 24 1014 38 10000 4.6 280 12:18 27.12.2019
5403 Clear 25 1014 36 10000 2.6 0 11:42 27.12.2019
5404 Clear 25 1014 36 10000 2.6 0 11:20 27.12.2019
5405 Clouds 24 1015 38 10000 1 0 10:47 27.12.2019
5406 Clouds 24 1015 38 10000 1 0 10:24 27.12.2019
5407 Clouds 24 1017 36 10000 3.6 240 09:59 27.12.2019
5408 Clouds 24 1017 36 10000 3.6 240 09:39 27.12.2019
5409 Clouds 24 1017 36 10000 3.6 240 09:21 27.12.2019
5410 Clouds 23 1018 43 10000 2.1 210 08:49 27.12.2019
5411 Clouds 23 1018 43 10000 2.1 210 08:30 27.12.2019
5412 Clouds 21 1018 53 10000 1.5 180 07:48 27.12.2019
5413 Clouds 21 1018 53 10000 1.5 180 07:26 27.12.2019
5414 Clouds 19 1018 59 10000 2.1 150 06:33 27.12.2019
5415 Clear 15 1017 67 10000 1 0 04:58 27.12.2019
5416 Clear 15 1016 55 10000 1.5 160 02:49 27.12.2019
5417 Clouds 15 1016 55 10000 1 0 01:56 27.12.2019
5418 Clouds 15 1016 55 10000 1 0 01:23 27.12.2019
5419 Clouds 16 1016 59 10000 1 170 00:53 27.12.2019
5420 Clouds 16 1016 59 10000 1 170 00:34 27.12.2019
5421 Clouds 17 1017 52 10000 2.1 180 23:59 26.12.2019
5422 Clouds 17 1017 52 10000 2.1 180 23:40 26.12.2019
5423 Clouds 17 1017 52 10000 2.1 180 23:21 26.12.2019
5424 Clouds 18 1016 49 10000 2.6 180 22:43 26.12.2019
5425 Clouds 18 1016 49 10000 2.6 180 22:21 26.12.2019
5426 Clouds 18 1017 46 10000 2.6 170 21:56 26.12.2019
5427 Clouds 18 1017 46 10000 2.6 170 21:37 26.12.2019
5428 Clouds 18 1017 46 10000 2.6 170 21:19 26.12.2019
5429 Clouds 18 1017 49 10000 1.5 150 20:45 26.12.2019
5430 Clear 18 1017 49 10000 1.5 150 20:22 26.12.2019
5431 Clear 20 1017 43 10000 2.6 350 19:58 26.12.2019
5432 Clear 20 1017 43 10000 2.6 350 19:39 26.12.2019
5433 Clear 20 1017 43 10000 2.6 350 19:20 26.12.2019
5434 Clear 20 1017 43 10000 2.6 340 18:57 26.12.2019
5435 Clear 20 1017 43 10000 2.6 340 18:38 26.12.2019
5436 Clear 20 1017 43 10000 2.6 340 18:19 26.12.2019
5437 Clear 21 1017 38 10000 3.6 330 17:42 26.12.2019
5438 Clear 21 1017 38 10000 3.6 330 17:22 26.12.2019
5439 Clear 22 1016 38 10000 3.1 350 16:58 26.12.2019
5440 Clear 22 1016 38 10000 3.1 350 16:39 26.12.2019
5441 Clear 22 1016 38 10000 3.1 350 16:20 26.12.2019
5442 Clear 23 1016 38 10000 4.6 340 15:41 26.12.2019
5443 Clear 23 1016 38 10000 4.6 340 15:21 26.12.2019
5444 Clear 24 1016 31 10000 5.1 340 14:58 26.12.2019
5445 Clear 24 1016 31 10000 5.1 340 14:38 26.12.2019
5446 Clear 24 1016 31 10000 5.1 340 14:20 26.12.2019
5447 Clear 25 1016 31 10000 6.2 330 13:43 26.12.2019
5448 Clear 25 1016 31 10000 6.2 330 13:20 26.12.2019
5449 Clear 26 1016 26 10000 5.7 290 12:56 26.12.2019
5450 Clear 26 1016 26 10000 5.7 290 12:56 26.12.2019
5451 Clear 26 1016 26 10000 5.7 290 12:37 26.12.2019
5452 Clear 26 1016 26 10000 5.7 290 12:19 26.12.2019
5453 Clear 26 1016 26 10000 5.1 280 11:56 26.12.2019
5454 -273 0 0 0 0 0 11:37 26.12.2019
5455 Clear 26 1016 26 10000 5.1 280 11:37 26.12.2019
5456 Clear 26 1016 26 10000 5.1 280 11:19 26.12.2019
5457 Clear 25 1017 31 10000 3.1 270 10:41 26.12.2019
5458 Clear 25 1017 31 10000 3.1 270 10:41 26.12.2019
5459 Clear 25 1017 31 10000 3.1 270 10:18 26.12.2019
5460 Clear 25 1018 36 10000 1.5 0 09:43 26.12.2019
5461 Clear 25 1018 36 10000 1.5 0 09:25 26.12.2019
5462 Clear 23 1019 38 10000 2.1 160 08:42 26.12.2019
5463 Clear 23 1019 38 10000 2.1 160 08:24 26.12.2019
5464 Clear 22 1019 49 10000 3.6 110 07:52 26.12.2019
5465 Clear 22 1019 49 10000 3.6 110 07:26 26.12.2019
5466 Clear 17 1019 52 10000 4.1 100 06:52 26.12.2019
5467 Clear 17 1019 52 10000 4.1 100 06:31 26.12.2019
5468 Clear 14 1019 59 10000 1.5 140 05:45 26.12.2019
5469 Clear 14 1018 63 10000 1.5 90 04:48 26.12.2019
5470 Clear 14 1018 63 10000 1.5 90 04:29 26.12.2019
5471 Clear 15 1017 59 10000 1.5 150 02:54 26.12.2019
5472 Clear 15 1017 59 10000 1.5 150 02:34 26.12.2019
5473 Clear 15 1017 55 10000 1 0 01:46 26.12.2019
5474 Clear 15 1017 55 10000 1 0 01:27 26.12.2019
5475 Clear 15 1018 52 10000 3.6 100 00:48 26.12.2019
5476 Clear 15 1018 52 10000 3.6 100 00:25 26.12.2019
5477 Clear 15 1018 52 10000 3.1 110 23:58 25.12.2019
5478 Clear 15 1018 52 10000 3.1 110 23:38 25.12.2019
5479 Clear 15 1018 52 10000 3.1 110 23:20 25.12.2019
5480 Clear 16 1018 52 10000 2.1 100 22:58 25.12.2019
5481 Clear 16 1018 52 10000 2.1 100 22:38 25.12.2019
5482 Clear 16 1018 52 10000 2.1 100 22:19 25.12.2019
5483 Clear 17 1018 49 10000 2.6 80 21:57 25.12.2019
5484 Clear 17 1018 49 10000 2.6 80 21:39 25.12.2019
5485 Clear 17 1018 49 10000 2.6 80 21:19 25.12.2019
5486 Clear 19 1018 43 10000 3.1 70 20:41 25.12.2019
5487 Clear 19 1018 43 10000 3.1 70 20:23 25.12.2019
5488 Clear 19 1018 43 10000 3.1 70 20:22 25.12.2019
5489 Clear 19 1019 37 10000 3.6 90 19:59 25.12.2019
5490 Clear 19 1019 37 10000 3.6 90 19:41 25.12.2019
5491 Clear 19 1019 37 10000 3.6 90 19:22 25.12.2019
5492 Clear 20 1019 40 10000 4.1 80 18:54 25.12.2019
5493 Clear 20 1019 40 10000 4.1 80 18:36 25.12.2019
5494 Clear 20 1019 40 10000 4.1 80 18:18 25.12.2019
5495 Clear 21 1018 53 10000 4.1 50 17:40 25.12.2019
5496 Clear 21 1018 53 10000 4.1 50 17:18 25.12.2019
5497 Clear 22 1018 47 10000 3.6 40 16:55 25.12.2019
5498 Clear 22 1018 47 10000 3.6 40 16:37 25.12.2019
5499 Clear 22 1018 47 10000 3.6 40 16:18 25.12.2019
5500 Clear 23 1017 53 10000 4.1 20 15:56 25.12.2019
5501 Clear 23 1017 53 10000 4.1 20 15:37 25.12.2019
5502 Clear 23 1017 53 10000 4.1 20 15:18 25.12.2019
5503 Clear 24 1017 44 10000 4.6 10 14:56 25.12.2019
5504 Clear 24 1017 44 10000 4.6 10 14:37 25.12.2019
5505 Clear 24 1017 44 10000 4.6 10 14:18 25.12.2019
5506 Clear 25 1017 39 10000 5.7 10 13:42 25.12.2019
5507 Clear 25 1017 39 10000 5.7 10 13:21 25.12.2019
5508 Clear 26 1017 31 10000 5.1 360 12:44 25.12.2019
5509 Clear 26 1017 24 10000 2.6 120 12:23 25.12.2019
5510 Clear 26 1018 24 10000 3.1 160 11:58 25.12.2019
5511 Clear 26 1018 24 10000 3.1 160 11:40 25.12.2019
5512 Clear 26 1018 24 10000 3.1 160 11:21 25.12.2019
5513 Clear 25 1018 26 10000 2.6 120 10:41 25.12.2019
5514 Clear 25 1018 26 10000 2.6 120 10:22 25.12.2019
5515 Clear 24 1020 36 10000 3.6 80 09:59 25.12.2019
5516 Clear 24 1020 36 10000 3.6 80 09:41 25.12.2019
5517 Clear 24 1020 36 10000 3.6 80 09:23 25.12.2019
5518 Clear 23 1021 41 10000 4.1 90 08:44 25.12.2019
5519 Clear 21 1021 46 10000 3.1 90 08:24 25.12.2019
5520 Clear 21 1021 46 10000 3.1 90 07:44 25.12.2019
5521 Clear 21 1021 46 10000 3.1 90 07:23 25.12.2019
5522 Clear 18 1021 49 10000 2.1 100 06:41 25.12.2019
5523 Clear 18 1021 49 10000 2.1 100 06:21 25.12.2019
5524 Clear 14 1019 59 10000 1.5 80 04:47 25.12.2019
5525 Clear 14 1019 59 10000 1.5 80 04:25 25.12.2019
5526 Clear 13 1018 63 10000 1 80 03:52 25.12.2019
5527 Clear 13 1018 63 10000 1 80 03:32 25.12.2019
5528 Clear 14 1018 63 10000 1 0 02:32 25.12.2019
5529 Clear 15 1018 59 10000 3.1 90 01:54 25.12.2019
5530 Clear 15 1018 59 10000 3.1 90 01:24 25.12.2019
5531 Clear 15 1018 59 10000 2.1 80 00:45 25.12.2019
5532 Clear 15 1018 59 10000 2.1 80 00:26 25.12.2019
5533 Clear 16 1018 56 10000 2.6 70 23:40 24.12.2019
5534 Clear 16 1018 56 10000 2.6 70 23:21 24.12.2019
5535 Clear 17 1018 60 10000 2.6 80 22:58 24.12.2019
5536 Clear 17 1018 60 10000 2.6 80 22:37 24.12.2019
5537 Clear 17 1018 60 10000 2.6 80 22:19 24.12.2019
5538 Clear 17 1018 60 10000 2.1 70 21:41 24.12.2019
5539 Clear 17 1018 60 10000 2.1 70 21:22 24.12.2019
5540 Clear 18 1019 60 10000 1.5 70 20:43 24.12.2019
5541 Clear 18 1019 60 10000 1.5 70 20:24 24.12.2019
5542 Clear 19 1019 56 10000 2.1 60 19:57 24.12.2019
5543 Clear 19 1019 56 10000 2.1 60 19:37 24.12.2019
5544 Clear 19 1019 56 10000 2.1 60 19:18 24.12.2019
5545 Clear 20 1019 56 10000 2.6 60 18:42 24.12.2019
5546 Clear 20 1019 56 10000 2.6 60 18:19 24.12.2019
5547 Clear 20 1018 49 10000 3.1 30 17:45 24.12.2019
5548 Clear 20 1018 49 10000 3.1 30 17:23 24.12.2019
5549 Clear 21 1018 46 10000 3.1 20 16:58 24.12.2019
5550 Clear 21 1018 46 10000 3.1 20 16:58 24.12.2019
5551 Clear 21 1018 46 10000 3.1 20 16:40 24.12.2019
5552 Clear 21 1018 46 10000 3.1 20 16:22 24.12.2019
5553 Clear 22 1017 43 10000 4.1 10 15:58 24.12.2019
5554 Clear 22 1017 43 10000 4.1 10 15:38 24.12.2019
5555 Clear 22 1017 43 10000 4.1 10 15:19 24.12.2019
5556 Clear 23 1017 38 10000 5.7 340 14:58 24.12.2019
5557 Clear 23 1017 38 10000 5.7 340 14:40 24.12.2019
5558 Clear 23 1017 38 10000 5.7 340 14:22 24.12.2019
5559 Clear 24 1017 36 10000 5.7 350 13:56 24.12.2019
5560 Clear 24 1017 36 10000 5.7 350 13:38 24.12.2019
5561 Clear 24 1017 36 10000 5.7 350 13:20 24.12.2019
5562 Clouds 24 1017 36 10000 5.7 350 12:57 24.12.2019
5563 Clouds 24 1017 36 10000 5.7 350 12:38 24.12.2019
5564 Clouds 25 1018 38 10000 5.1 340 12:19 24.12.2019
5565 Clouds 25 1018 38 10000 5.1 340 11:57 24.12.2019
5566 Clouds 25 1018 38 10000 5.1 340 11:37 24.12.2019
5567 Clouds 25 1018 38 10000 5.1 340 11:19 24.12.2019
5568 Clouds 25 1018 31 10000 1.5 0 10:56 24.12.2019
5569 Clouds 25 1018 31 10000 1.5 0 10:38 24.12.2019
5570 Clouds 25 1018 31 10000 1.5 0 10:20 24.12.2019
5571 Clouds 24 1019 36 10000 2.1 30 09:56 24.12.2019
5572 Clouds 24 1019 36 10000 2.1 30 09:38 24.12.2019
5573 Clouds 23 1020 43 10000 3.1 90 09:20 24.12.2019
5574 Clouds 23 1020 43 10000 3.1 90 08:47 24.12.2019
5575 Clouds 23 1020 43 10000 3.1 90 08:24 24.12.2019
5576 Clouds 22 1021 43 10000 3.1 100 07:55 24.12.2019
5577 Clouds 22 1021 43 10000 3.1 100 07:37 24.12.2019
5578 Clouds 22 1021 43 10000 3.1 100 07:18 24.12.2019
5579 Clouds 19 1020 49 10000 3.1 100 06:39 24.12.2019
5580 Clouds 19 1020 49 10000 3.1 100 06:19 24.12.2019
5581 Clear 16 1020 52 10000 2.6 0 05:50 24.12.2019
5582 Clear 15 1020 52 10000 2.6 0 05:19 24.12.2019
5583 Clear 14 1019 67 10000 1.5 110 04:21 24.12.2019
5584 Clear 14 1018 67 10000 1.5 130 03:45 24.12.2019
5585 Clear 14 1017 63 10000 1 140 02:28 24.12.2019
5586 Clouds 15 1017 63 10000 1.5 170 01:54 24.12.2019
5587 Clouds 15 1017 63 10000 1.5 170 01:25 24.12.2019
5588 Clouds 15 1017 55 10000 2.1 150 00:56 24.12.2019
5589 Clouds 16 1017 55 10000 2.1 150 00:37 24.12.2019
5590 Clouds 16 1017 55 10000 2.1 150 00:19 24.12.2019
5591 Clouds 16 1017 55 10000 2.1 150 00:19 24.12.2019
5592 Clouds 16 1017 55 10000 1 0 23:41 23.12.2019
5593 Clouds 16 1017 55 10000 1 0 23:23 23.12.2019
5594 Clouds 17 1017 49 10000 3.6 120 22:56 23.12.2019
5595 Clouds 17 1017 49 10000 3.6 120 22:37 23.12.2019
5596 Clouds 17 1017 49 10000 3.6 120 22:37 23.12.2019
5597 Clouds 17 1017 49 10000 3.6 120 22:19 23.12.2019
5598 Clouds 18 1017 43 10000 4.1 120 21:56 23.12.2019
5599 Clouds 18 1017 43 10000 4.1 120 21:36 23.12.2019
5600 Clouds 18 1017 43 10000 4.1 120 21:36 23.12.2019
5601 Clouds 18 1017 43 10000 4.1 120 21:18 23.12.2019
5602 Clouds 18 1017 43 10000 4.1 120 21:18 23.12.2019
5603 Clouds 18 1017 46 10000 2.1 90 20:57 23.12.2019
5604 Clouds 18 1017 46 10000 2.1 90 20:39 23.12.2019
5605 Clouds 18 1017 46 10000 2.1 90 20:39 23.12.2019
5606 Clear 18 1017 46 10000 2.1 90 20:18 23.12.2019
5607 Clear 19 1017 43 10000 2.6 360 19:56 23.12.2019
5608 Clear 19 1017 43 10000 2.6 360 19:38 23.12.2019
5609 Clear 19 1017 43 10000 2.6 360 19:19 23.12.2019
5610 Clear 19 1017 46 10000 3.1 350 18:58 23.12.2019
5611 Clear 19 1017 46 10000 3.1 350 18:58 23.12.2019
5612 Clear 19 1017 46 10000 3.1 350 18:38 23.12.2019
5613 Clear 20 1017 46 10000 3.1 350 18:20 23.12.2019
5614 Clear 21 1017 40 10000 2.6 350 17:56 23.12.2019
5615 Clear 21 1017 40 10000 2.6 350 17:38 23.12.2019
5616 Clear 21 1017 40 10000 2.6 350 17:19 23.12.2019
5617 Clear 21 1017 40 10000 2.6 350 17:19 23.12.2019
5618 Clear 21 1017 40 10000 3.6 340 16:55 23.12.2019
5619 Clear 21 1017 40 10000 3.6 340 16:55 23.12.2019
5620 Clear 21 1017 40 10000 3.6 340 16:36 23.12.2019
5621 Clear 21 1017 40 10000 3.6 340 16:18 23.12.2019
5622 Clear 21 1017 40 10000 3.6 340 16:18 23.12.2019
5623 Clear 22 1016 35 10000 4.6 350 15:55 23.12.2019
5624 Clear 22 1016 35 10000 4.6 350 15:36 23.12.2019
5625 Clear 22 1016 35 10000 4.6 350 15:18 23.12.2019
5626 Clear 23 1016 36 10000 5.1 350 14:45 23.12.2019
5627 Clear 23 1016 36 10000 5.1 350 14:26 23.12.2019
5628 Clear 23 1016 36 10000 5.1 350 14:26 23.12.2019
5629 Clouds 24 1016 33 10000 5.7 340 13:59 23.12.2019
5630 Clouds 24 1016 33 10000 5.7 340 13:41 23.12.2019
5631 Clouds 24 1016 33 10000 5.7 340 13:22 23.12.2019
5632 Clouds 24 1016 31 10000 6.2 360 12:59 23.12.2019
5633 Clouds 24 1016 31 10000 6.2 360 12:40 23.12.2019
5634 Clouds 25 1016 31 10000 6.7 340 12:21 23.12.2019
5635 Clouds 25 1016 31 10000 6.7 340 11:55 23.12.2019
5636 Clouds 25 1016 31 10000 6.7 340 11:37 23.12.2019
5637 Clear 25 1016 31 10000 6.7 340 11:18 23.12.2019
5638 Clear 25 1017 29 10000 2.6 0 10:54 23.12.2019
5639 Clear 25 1017 29 10000 2.6 0 10:36 23.12.2019
5640 Clear 25 1017 29 10000 2.6 0 10:18 23.12.2019
5641 Clear 24 1018 31 10000 1.5 0 09:40 23.12.2019
5642 Clear 24 1018 31 10000 1.5 0 09:22 23.12.2019
5643 Clear 23 1019 33 10000 1.5 130 08:59 23.12.2019
5644 Clear 23 1019 33 10000 1.5 130 08:40 23.12.2019
5645 Clear 23 1019 33 10000 1.5 130 08:22 23.12.2019
5646 Clear 21 1020 37 10000 2.1 130 07:48 23.12.2019
5647 Clear 21 1020 37 10000 2.1 130 07:21 23.12.2019
5648 Clear 19 1019 40 10000 1 0 06:57 23.12.2019
5649 Clear 19 1019 40 10000 1 0 06:27 23.12.2019
5650 Clear 15 1019 45 10000 1 0 05:56 23.12.2019
5651 Clear 15 1019 45 10000 1 0 05:29 23.12.2019
5652 Clouds 14 1018 48 10000 1 210 04:39 23.12.2019
5653 Clear 14 1018 45 10000 2.6 110 03:28 23.12.2019
5654 Clear 14 1018 45 10000 2.1 110 02:43 23.12.2019
5655 Clear 14 1018 45 10000 2.1 110 02:19 23.12.2019
5656 Clear 15 1018 45 10000 2.1 100 01:44 23.12.2019
5657 Clear 15 1018 45 10000 2.1 100 01:26 23.12.2019
5658 Clear 15 1018 37 10000 2.1 70 00:44 23.12.2019
5659 Clear 15 1018 37 10000 2.1 70 00:44 23.12.2019
5660 Clear 15 1018 37 10000 2.1 70 00:24 23.12.2019
5661 Clear 15 1018 42 10000 2.1 60 23:40 22.12.2019
5662 Clear 15 1018 42 10000 2.1 60 23:22 22.12.2019
5663 Clear 17 1018 40 10000 2.6 60 22:58 22.12.2019
5664 Clear 17 1018 40 10000 2.6 60 22:40 22.12.2019
5665 Clear 17 1018 40 10000 2.6 60 22:22 22.12.2019
5666 Clear 18 1018 37 10000 2.6 60 21:58 22.12.2019
5667 Clear 18 1018 37 10000 2.6 60 21:40 22.12.2019
5668 Clear 18 1018 37 10000 2.6 60 21:21 22.12.2019
5669 Clear 18 1018 37 10000 2.6 60 21:21 22.12.2019
5670 Clear 19 1019 37 10000 2.6 80 20:58 22.12.2019
5671 Clear 19 1019 37 10000 2.6 80 20:39 22.12.2019
5672 Clear 19 1019 37 10000 2.6 80 20:19 22.12.2019
5673 Clear 19 1019 35 10000 2.6 60 19:57 22.12.2019
5674 Clear 19 1019 35 10000 2.6 60 19:38 22.12.2019
5675 Clear 19 1019 35 10000 2.6 60 19:19 22.12.2019
5676 Clear 20 1018 43 10000 3.6 60 18:42 22.12.2019
5677 Clear 20 1018 43 10000 3.6 60 18:23 22.12.2019
5678 Clear 21 1018 46 10000 4.1 50 17:56 22.12.2019
5679 Clear 21 1018 46 10000 4.1 50 17:38 22.12.2019
5680 Clear 21 1018 46 10000 4.1 50 17:19 22.12.2019
5681 Clear 22 1018 40 10000 3.6 50 16:57 22.12.2019
5682 Clear 22 1018 40 10000 3.6 50 16:38 22.12.2019
5683 Clear 22 1018 40 10000 3.6 50 16:20 22.12.2019
5684 Clear 23 1017 38 10000 4.6 30 15:56 22.12.2019
5685 Clear 23 1017 38 10000 4.6 30 15:37 22.12.2019
5686 Clear 23 1017 38 10000 4.6 30 15:19 22.12.2019
5687 Clear 24 1017 34 10000 7.2 30 14:55 22.12.2019
5688 Clear 24 1017 34 10000 7.2 30 14:36 22.12.2019
5689 Clear 24 1017 34 10000 7.2 30 14:18 22.12.2019
5690 Clear 25 1017 36 10000 5.1 10 13:55 22.12.2019
5691 Clear 25 1017 36 10000 5.1 10 13:36 22.12.2019
5692 Clear 25 1017 36 10000 5.1 10 13:18 22.12.2019
5693 Clear 25 1017 36 10000 5.1 10 13:18 22.12.2019
5694 Clear 26 1017 26 10000 2.6 80 12:55 22.12.2019
5695 Clear 26 1017 26 10000 2.6 80 12:37 22.12.2019
5696 Clear 26 1017 26 10000 2.6 80 12:18 22.12.2019
5697 Clear 26 1017 26 10000 2.6 80 12:18 22.12.2019
5698 Clouds 26 1017 26 10000 2.1 0 11:54 22.12.2019
5699 Clouds 26 1017 26 10000 2.1 0 11:36 22.12.2019
5700 Clouds 26 1017 26 10000 2.1 0 11:18 22.12.2019
5701 Clouds 26 1019 27 10000 4.1 120 10:54 22.12.2019
5702 Clouds 25 1019 27 10000 4.1 120 10:36 22.12.2019
5703 Clouds 25 1019 27 10000 4.1 120 10:18 22.12.2019
5704 Clouds 25 1020 29 10000 4.6 90 09:40 22.12.2019
5705 Clouds 25 1020 29 10000 4.6 90 09:22 22.12.2019
5706 Clouds 24 1021 31 10000 3.6 80 08:59 22.12.2019
5707 Clouds 24 1021 31 10000 3.6 80 08:38 22.12.2019
5708 Clouds 24 1021 31 10000 3.6 80 08:18 22.12.2019
5709 Clouds 24 1021 31 10000 3.6 80 08:18 22.12.2019
5710 Clouds 21 1021 35 10000 2.6 0 07:38 22.12.2019
5711 Clouds 21 1021 35 10000 2.6 0 07:20 22.12.2019
5712 Clear 18 1021 35 10000 2.6 90 06:40 22.12.2019
5713 Clear 15 1020 42 10000 1.5 80 05:54 22.12.2019
5714 Clear 15 1020 42 10000 1.5 80 05:21 22.12.2019
5715 Clear 13 1020 45 10000 1 0 04:29 22.12.2019
5716 Clear 13 1019 42 10000 2.6 90 03:52 22.12.2019
5717 Clear 14 1019 39 10000 2.6 100 02:40 22.12.2019
5718 Clear 13 1019 45 10000 1.5 100 01:42 22.12.2019
5719 Clear 13 1019 45 10000 1.5 100 01:22 22.12.2019
5720 Clear 14 1019 42 10000 2.1 90 00:45 22.12.2019
5721 Clear 14 1019 42 10000 2.1 90 00:22 22.12.2019
5722 Clear 15 1019 39 10000 2.1 70 23:55 21.12.2019
5723 Clear 14 1019 39 10000 2.1 70 23:37 21.12.2019
5724 Clear 15 1019 39 10000 2.1 70 23:18 21.12.2019
5725 Clear 16 1019 34 10000 2.6 80 22:40 21.12.2019
5726 Clear 16 1019 34 10000 2.6 80 22:40 21.12.2019
5727 Clear 16 1019 34 10000 2.6 80 22:19 21.12.2019
5728 Clear 16 1019 37 10000 2.6 80 21:57 21.12.2019
5729 Clear 16 1019 37 10000 2.6 80 21:37 21.12.2019
5730 Clear 16 1019 37 10000 2.6 80 21:19 21.12.2019
5731 Clear 16 1019 37 10000 2.6 90 20:58 21.12.2019
5732 Clear 16 1019 37 10000 2.6 90 20:39 21.12.2019
5733 Clear 16 1019 37 10000 2.6 90 20:39 21.12.2019
5734 Clear 16 1019 37 10000 2.6 90 20:21 21.12.2019
5735 Clear 18 1020 37 10000 2.6 80 19:58 21.12.2019
5736 Clear 18 1020 37 10000 2.6 80 19:40 21.12.2019
5737 Clear 18 1020 37 10000 2.6 80 19:19 21.12.2019
5738 Clear 18 1020 37 10000 2.6 80 19:19 21.12.2019
5739 Clear 19 1020 40 10000 2.1 60 18:45 21.12.2019
5740 Clear 19 1020 40 10000 2.1 60 18:24 21.12.2019
5741 Clear 20 1019 37 10000 3.6 50 17:57 21.12.2019
5742 Clear 20 1019 37 10000 3.6 50 17:57 21.12.2019
5743 Clear 20 1019 37 10000 3.6 50 17:39 21.12.2019
5744 Clear 20 1019 37 10000 3.6 50 17:21 21.12.2019
5745 Clear 21 1019 35 10000 4.1 40 16:58 21.12.2019
5746 Clear 21 1019 35 10000 4.1 40 16:40 21.12.2019
5747 Clear 21 1019 35 10000 4.1 40 16:18 21.12.2019
5748 Clear 22 1018 33 10000 5.1 20 15:57 21.12.2019
5749 Clear 22 1018 33 10000 5.1 20 15:38 21.12.2019
5750 Clear 22 1018 33 10000 5.1 20 15:19 21.12.2019
5751 Clear 23 1018 33 10000 6.2 10 14:56 21.12.2019
5752 Clear 23 1018 33 10000 6.2 10 14:37 21.12.2019
5753 Clear 23 1018 33 10000 6.2 10 14:18 21.12.2019
5754 Clear 24 1018 31 10000 6.7 10 13:55 21.12.2019
5755 Clear 24 1018 31 10000 6.7 10 13:37 21.12.2019
5756 Clear 24 1018 31 10000 6.7 10 13:18 21.12.2019
5757 Clear 24 1018 31 10000 6.2 10 12:54 21.12.2019
5758 Clear 25 1018 31 10000 6.2 10 12:36 21.12.2019
5759 Clear 25 1018 29 10000 7.7 30 12:18 21.12.2019
5760 Clear 25 1018 29 10000 7.7 30 11:41 21.12.2019
5761 Clear 25 1018 29 10000 7.7 30 11:23 21.12.2019
5762 Clear 24 1019 25 10000 3.6 70 10:54 21.12.2019
5763 Clear 24 1019 25 10000 3.6 70 10:36 21.12.2019
5764 Clear 24 1019 25 10000 3.6 70 10:18 21.12.2019
5765 Clear 24 1020 27 10000 3.6 70 09:42 21.12.2019
5766 Clear 24 1020 27 10000 3.6 70 09:20 21.12.2019
5767 Clear 24 1021 27 10000 4.6 40 08:56 21.12.2019
5768 Clear 24 1021 27 10000 4.6 40 08:37 21.12.2019
5769 Clear 24 1021 27 10000 4.6 40 08:18 21.12.2019
5770 Clouds 22 1021 31 10000 3.1 70 07:41 21.12.2019
5771 Clouds 22 1021 31 10000 3.1 70 07:21 21.12.2019
5772 Clouds 19 1021 33 10000 2.6 80 06:43 21.12.2019
5773 Clouds 19 1021 33 10000 2.6 80 06:25 21.12.2019
5774 Clouds 15 1020 42 10000 2.6 70 05:47 21.12.2019
5775 Clouds 14 1020 48 10000 1.5 90 04:58 21.12.2019
5776 Clear 14 1019 45 10000 2.1 80 03:57 21.12.2019
5777 Clear 14 1019 42 10000 2.1 60 02:51 21.12.2019
5778 Clear 15 1019 48 10000 1.5 110 01:57 21.12.2019
5779 Clear 15 1019 48 10000 1.5 110 01:27 21.12.2019
5780 Clear 15 1019 48 10000 2.1 110 00:52 21.12.2019
5781 Clear 15 1019 48 10000 2.1 110 00:32 21.12.2019
5782 Clear 16 1019 45 10000 1.5 70 23:57 20.12.2019
5783 Clear 16 1019 45 10000 1.5 70 23:37 20.12.2019
5784 Clear 16 1019 45 10000 1.5 70 23:18 20.12.2019
5785 Clear 16 1019 45 10000 2.6 90 22:40 20.12.2019
5786 Clear 16 1019 45 10000 2.6 90 22:21 20.12.2019
5787 Clear 18 1019 43 10000 3.6 80 21:57 20.12.2019
5788 Clear 18 1019 43 10000 3.6 80 21:39 20.12.2019
5789 Clear 18 1019 43 10000 3.6 80 21:19 20.12.2019
5790 Clear 19 1020 40 10000 3.6 60 20:39 20.12.2019
5791 Clear 19 1020 40 10000 3.6 60 20:19 20.12.2019
5792 Clear 20 1019 40 10000 5.7 40 19:58 20.12.2019
5793 Clear 20 1019 40 10000 5.7 40 19:40 20.12.2019
5794 Clear 20 1019 40 10000 5.7 40 19:19 20.12.2019
5795 Clear 21 1019 40 10000 5.7 20 18:42 20.12.2019
5796 Clear 21 1019 40 10000 5.7 20 18:24 20.12.2019
5797 Clear 20 1019 46 10000 3.6 20 17:59 20.12.2019
5798 Clear 20 1019 46 10000 3.6 20 17:41 20.12.2019
5799 Clear 20 1019 46 10000 3.6 20 17:21 20.12.2019
5800 Clear 21 1019 43 10000 4.6 40 16:59 20.12.2019
5801 Clear 21 1019 43 10000 4.6 40 16:39 20.12.2019
5802 Clear 21 1019 43 10000 4.6 40 16:20 20.12.2019
5803 Clear 22 1018 38 10000 6.7 40 15:56 20.12.2019
5804 Clear 22 1018 38 10000 6.7 40 15:38 20.12.2019
5805 Clear 22 1018 38 10000 6.7 40 15:19 20.12.2019
5806 Clear 22 1018 38 10000 6.7 40 15:19 20.12.2019
5807 Clear 23 1018 36 10000 5.7 30 14:54 20.12.2019
5808 Clear 24 1018 36 10000 5.7 30 14:36 20.12.2019
5809 Clear 24 1018 36 10000 5.7 30 14:18 20.12.2019
5810 Clear 24 1018 29 10000 7.2 30 13:41 20.12.2019
5811 Clear 24 1018 29 10000 7.2 30 13:20 20.12.2019
5812 Clear 24 1017 31 10000 7.7 30 12:57 20.12.2019
5813 Clear 24 1017 31 10000 7.7 30 12:38 20.12.2019
5814 Clear 24 1017 31 10000 7.7 30 12:19 20.12.2019
5815 Clear 24 1017 36 10000 8.2 40 11:58 20.12.2019
5816 Clear 24 1017 36 10000 8.2 40 11:39 20.12.2019
5817 Clear 24 1017 36 10000 8.2 40 11:19 20.12.2019
5818 Clear 24 1018 33 10000 8.7 40 10:57 20.12.2019
5819 Clear 24 1018 33 10000 8.7 40 10:57 20.12.2019
5820 Clear 24 1018 33 10000 8.7 40 10:38 20.12.2019
5821 Clear 24 1018 33 10000 8.7 40 10:20 20.12.2019
5822 Clear 24 1020 33 10000 7.7 50 09:44 20.12.2019
5823 Clear 24 1020 33 10000 7.7 50 09:22 20.12.2019
5824 Clear 23 1020 38 10000 7.7 40 08:59 20.12.2019
5825 Clear 23 1020 38 10000 7.7 40 08:41 20.12.2019
5826 Clear 23 1020 38 10000 7.7 40 08:21 20.12.2019
5827 Clear 21 1021 43 10000 7.7 50 07:58 20.12.2019
5828 Clear 21 1021 43 10000 7.7 50 07:39 20.12.2019
5829 Clear 21 1021 43 10000 7.7 50 07:18 20.12.2019
5830 Clouds 20 1021 49 10000 3.1 40 06:48 20.12.2019
5831 Clouds 20 1021 49 10000 3.1 40 06:30 20.12.2019
5832 Clouds 17 1020 63 10000 1.5 90 05:49 20.12.2019
5833 Clouds 17 1020 63 10000 1.5 90 05:49 20.12.2019
5834 Clouds 17 1020 63 10000 1.5 90 05:21 20.12.2019
5835 Clear 17 1018 63 10000 1.5 180 03:50 20.12.2019
5836 Clear 17 1018 63 10000 1.5 180 03:28 20.12.2019
5837 Clear 17 1018 63 10000 1.5 200 02:33 20.12.2019
5838 Clear 17 1018 52 10000 2.1 0 01:36 20.12.2019
5839 Clouds 19 1018 40 10000 3.1 360 00:58 20.12.2019
5840 Clouds 19 1018 40 10000 3.1 360 00:39 20.12.2019
5841 Rain 19 1018 43 10000 2.6 360 23:59 19.12.2019
5842 Rain 19 1018 43 10000 2.6 360 23:40 19.12.2019
5843 Clear 19 1018 43 10000 2.6 360 23:21 19.12.2019
5844 Clear 20 1019 43 10000 2.6 340 22:40 19.12.2019
5845 Clear 20 1019 43 10000 2.6 340 22:40 19.12.2019
5846 Clear 20 1019 43 10000 2.6 340 22:22 19.12.2019
5847 Clouds 21 1019 46 10000 3.6 310 21:59 19.12.2019
5848 Clouds 21 1019 46 10000 3.6 310 21:41 19.12.2019
5849 Clouds 21 1019 46 10000 3.6 310 21:20 19.12.2019
5850 Clear 21 1020 46 10000 4.6 320 20:58 19.12.2019
5851 Clear 21 1020 46 10000 4.6 320 20:38 19.12.2019
5852 Clear 21 1020 46 10000 4.6 320 20:20 19.12.2019
5853 Clear 22 1020 46 10000 4.1 300 19:59 19.12.2019
5854 Clear 22 1020 46 10000 4.1 300 19:59 19.12.2019
5855 Clear 22 1020 46 10000 4.1 300 19:40 19.12.2019
5856 Clear 22 1020 46 10000 4.1 300 19:20 19.12.2019
5857 Clear 22 1020 44 10000 4.1 300 18:59 19.12.2019
5858 Clear 22 1020 44 10000 4.1 300 18:40 19.12.2019
5859 Clear 22 1020 44 10000 4.1 300 18:20 19.12.2019
5860 Clear 23 1019 44 10000 5.1 320 17:56 19.12.2019
5861 Clear 23 1019 44 10000 5.1 320 17:38 19.12.2019
5862 Clear 23 1019 44 10000 5.1 320 17:18 19.12.2019
5863 Clear 23 1019 47 10000 5.1 320 16:56 19.12.2019
5864 Clear 23 1019 47 10000 5.1 320 16:56 19.12.2019
5865 Clear 23 1019 47 10000 5.1 320 16:56 19.12.2019
5866 Clear 23 1019 47 10000 5.1 320 16:38 19.12.2019
5867 Clear 23 1019 47 10000 5.1 320 16:19 19.12.2019
5868 Clear 23 1019 47 10000 5.1 320 16:19 19.12.2019
5869 Clouds 23 1018 47 10000 6.2 310 15:58 19.12.2019
5870 Clouds 23 1018 47 10000 6.2 310 15:38 19.12.2019
5871 Clouds 23 1018 47 10000 6.2 310 15:19 19.12.2019
5872 Clouds 24 1018 50 10000 5.7 310 14:57 19.12.2019
5873 Clouds 24 1018 50 10000 5.7 310 14:39 19.12.2019
5874 Clouds 24 1018 50 10000 5.7 310 14:18 19.12.2019
5875 Clouds 24 1018 47 10000 6.2 310 13:39 19.12.2019
5876 Clouds 24 1018 47 10000 6.2 310 13:20 19.12.2019
5877 Clouds 24 1018 47 10000 6.2 310 13:20 19.12.2019
5878 Clouds 25 1018 47 10000 5.7 300 12:58 19.12.2019
5879 Clouds 25 1018 47 10000 5.7 300 12:40 19.12.2019
5880 Clouds 25 1018 47 10000 5.7 300 12:19 19.12.2019
5881 Clouds 25 1018 50 10000 4.6 320 11:59 19.12.2019
5882 Clouds 25 1018 50 10000 4.6 320 11:41 19.12.2019
5883 Clouds 25 1018 50 10000 4.6 320 11:18 19.12.2019
5884 Clouds 25 1019 47 10000 5.1 310 10:59 19.12.2019
5885 Clouds 25 1019 47 10000 5.1 310 10:38 19.12.2019
5886 Clouds 25 1019 47 10000 5.1 310 10:38 19.12.2019
5887 Clouds 25 1019 47 10000 5.1 310 10:20 19.12.2019
5888 Clouds 25 1020 50 10000 5.1 320 09:56 19.12.2019
5889 Clouds 24 1020 50 10000 5.1 320 09:37 19.12.2019
5890 Clouds 24 1020 50 10000 5.1 320 09:19 19.12.2019
5891 Clouds 24 1021 53 10000 5.1 320 08:55 19.12.2019
5892 Clouds 24 1021 53 10000 5.1 320 08:36 19.12.2019
5893 Clouds 24 1021 53 10000 5.1 320 08:18 19.12.2019
5894 Clouds 24 1021 57 10000 5.1 300 07:40 19.12.2019
5895 Clouds 24 1021 57 10000 5.1 300 07:22 19.12.2019
5896 Clouds 24 1021 60 10000 5.1 320 06:54 19.12.2019
5897 Clouds 24 1021 60 10000 5.1 320 06:36 19.12.2019
5898 Clouds 23 1021 60 10000 5.7 320 06:18 19.12.2019
5899 Clouds 23 1021 60 10000 5.7 320 05:41 19.12.2019
5900 Clouds 23 1021 60 10000 5.7 320 05:18 19.12.2019
5901 Clouds 23 1019 64 10000 5.1 320 03:51 19.12.2019
5902 Clouds 23 1019 60 10000 4.6 300 02:25 19.12.2019
5903 Clouds 23 1019 64 10000 4.6 310 01:24 19.12.2019
5904 Clouds 23 1019 64 10000 4.6 290 00:55 19.12.2019
5905 Clouds 23 1019 64 10000 4.6 290 00:36 19.12.2019
5906 Clouds 23 1019 64 10000 4.6 290 00:18 19.12.2019
5907 Clouds 23 1019 69 10000 5.7 300 23:43 18.12.2019
5908 Clouds 23 1019 69 10000 5.7 300 23:43 18.12.2019
5909 Clouds 23 1019 69 10000 5.7 300 23:19 18.12.2019
5910 Clouds 23 1019 73 10000 4.6 310 22:56 18.12.2019
5911 Clouds 23 1019 73 10000 4.6 310 22:38 18.12.2019
5912 Clouds 23 1019 73 10000 4.6 310 22:20 18.12.2019
5913 Clouds 23 1019 73 10000 2.1 360 21:58 18.12.2019
5914 Clouds 23 1019 73 10000 2.1 360 21:39 18.12.2019
5915 Clouds 23 1019 73 10000 2.1 360 21:20 18.12.2019
5916 Clouds 23 1020 78 10000 1.5 0 20:56 18.12.2019
5917 Clouds 23 1020 78 10000 1.5 0 20:38 18.12.2019
5918 Clouds 23 1020 78 10000 1.5 0 20:19 18.12.2019
5919 Clouds 23 1020 73 10000 3.6 340 19:56 18.12.2019
5920 Clouds 23 1020 73 10000 3.6 340 19:37 18.12.2019
5921 Clouds 23 1020 73 10000 3.6 340 19:18 18.12.2019
5922 Clouds 23 1020 73 10000 3.6 340 19:18 18.12.2019
5923 Rain 23 1020 73 10000 3.1 350 18:45 18.12.2019
5924 Rain 23 1020 73 10000 3.1 350 18:25 18.12.2019
5925 Rain 23 1019 78 10000 3.6 330 17:57 18.12.2019
5926 Rain 24 1019 78 10000 3.6 330 17:39 18.12.2019
5927 Rain 24 1019 78 10000 3.6 330 17:39 18.12.2019
5928 Rain 24 1019 78 10000 3.6 330 17:20 18.12.2019
5929 Rain 24 1019 69 10000 3.6 350 16:58 18.12.2019
5930 Rain 24 1019 69 10000 3.6 350 16:39 18.12.2019
5931 Rain 24 1019 69 10000 3.6 350 16:20 18.12.2019
5932 Clouds 24 1018 78 10000 2.6 10 15:56 18.12.2019
5933 Clouds 24 1018 78 10000 2.6 10 15:37 18.12.2019
5934 Clouds 24 1018 78 10000 2.6 10 15:19 18.12.2019
5935 Clouds 24 1017 78 10000 5.7 330 14:43 18.12.2019
5936 Clouds 24 1017 78 10000 5.7 330 14:22 18.12.2019
5937 Rain 25 1017 69 10000 9.3 320 13:57 18.12.2019
5938 Rain 25 1017 69 10000 9.3 320 13:39 18.12.2019
5939 Rain 25 1017 69 10000 9.3 320 13:20 18.12.2019
5940 Clouds 27 1017 57 10000 7.2 280 12:59 18.12.2019
5941 Clouds 27 1017 57 10000 7.2 280 12:39 18.12.2019
5942 Clouds 27 1017 57 10000 7.2 280 12:20 18.12.2019
5943 Clouds 28 1017 57 10000 6.7 290 11:56 18.12.2019
5944 Clouds 28 1017 57 10000 6.7 290 11:38 18.12.2019
5945 Clouds 28 1017 57 10000 6.7 290 11:38 18.12.2019
5946 Clouds 28 1017 57 10000 6.7 290 11:19 18.12.2019
5947 Clouds 28 1017 48 10000 5.7 230 10:56 18.12.2019
5948 Clouds 28 1017 48 10000 5.7 230 10:56 18.12.2019
5949 Clouds 28 1017 48 10000 5.7 230 10:38 18.12.2019
5950 Clouds 28 1017 48 10000 5.7 230 10:20 18.12.2019
5951 Clouds 27 1018 54 10000 4.6 230 09:50 18.12.2019
5952 Clouds 27 1018 54 10000 4.6 230 09:50 18.12.2019
5953 Clouds 27 1018 54 10000 4.6 230 09:19 18.12.2019
5954 Clouds 26 1020 54 10000 5.1 220 08:41 18.12.2019
5955 Clouds 26 1020 54 10000 5.1 220 08:23 18.12.2019
5956 Clouds 25 1020 57 10000 5.1 210 07:55 18.12.2019
5957 Clouds 25 1020 57 10000 5.1 210 07:36 18.12.2019
5958 Clouds 25 1020 57 10000 5.1 210 07:18 18.12.2019
5959 Clouds 24 1020 60 10000 4.1 190 06:49 18.12.2019
5960 Clouds 24 1020 60 10000 4.1 190 06:22 18.12.2019
5961 Clouds 23 1019 60 10000 4.6 200 05:22 18.12.2019
5962 Clouds 23 1017 60 10000 4.6 180 03:31 18.12.2019
5963 Clouds 23 1017 73 10000 3.6 170 02:38 18.12.2019
5964 Clouds 23 1017 73 10000 3.6 170 02:20 18.12.2019
5965 Rain 22 1017 78 10000 2.6 80 01:42 18.12.2019
5966 Rain 22 1017 78 10000 2.6 80 01:23 18.12.2019
5967 Rain 22 1017 73 10000 2.1 100 00:42 18.12.2019
5968 Rain 22 1017 73 10000 2.1 100 00:23 18.12.2019
5969 Rain 22 1018 73 10000 2.1 100 23:57 17.12.2019
5970 Rain 22 1018 73 10000 2.1 100 23:39 17.12.2019
5971 Rain 22 1018 73 10000 2.1 100 23:19 17.12.2019
5972 Rain 23 1018 78 10000 3.1 90 22:56 17.12.2019
5973 Rain 23 1018 78 10000 3.1 90 22:38 17.12.2019
5974 Rain 23 1018 78 10000 3.1 90 22:19 17.12.2019
5975 Rain 23 1018 73 10000 3.1 70 21:55 17.12.2019
5976 Rain 23 1018 73 10000 3.1 70 21:37 17.12.2019
5977 Rain 23 1018 73 10000 3.1 70 21:19 17.12.2019
5978 Rain 24 1018 69 8000 3.1 70 20:57 17.12.2019
5979 Clouds 24 1018 69 8000 3.1 70 20:38 17.12.2019
5980 Rain 24 1018 69 8000 3.1 70 20:18 17.12.2019
5981 Clouds 24 1018 69 10000 3.6 70 19:56 17.12.2019
5982 Clouds 24 1018 69 10000 3.6 70 19:37 17.12.2019
5983 Clouds 24 1018 69 10000 3.6 70 19:18 17.12.2019
5984 Clouds 25 1018 65 10000 3.6 80 18:43 17.12.2019
5985 Clouds 25 1018 65 10000 3.6 80 18:43 17.12.2019
5986 Clouds 25 1018 65 10000 3.6 80 18:23 17.12.2019
5987 Clouds 26 1018 61 10000 2.6 30 17:59 17.12.2019
5988 Clouds 26 1018 61 10000 2.6 30 17:41 17.12.2019
5989 Clouds 26 1018 61 10000 2.6 30 17:41 17.12.2019
5990 Clouds 26 1018 61 10000 2.6 30 17:19 17.12.2019
5991 Clouds 26 1018 57 10000 4.1 330 16:56 17.12.2019
5992 Clouds 26 1018 57 10000 4.1 330 16:38 17.12.2019
5993 Clouds 26 1018 57 10000 4.1 330 16:37 17.12.2019
5994 Clouds 26 1018 57 10000 4.1 330 16:19 17.12.2019
5995 Clouds 27 1017 61 8000 6.2 330 15:56 17.12.2019
5996 Clouds 27 1017 61 8000 6.2 330 15:37 17.12.2019
5997 Clouds 27 1017 61 8000 6.2 330 15:19 17.12.2019
5998 Clouds 28 1016 39 8000 3.1 250 14:55 17.12.2019
5999 Clouds 28 1016 39 8000 3.1 250 14:37 17.12.2019
6000 Clouds 28 1016 39 8000 3.1 250 14:18 17.12.2019
6001 Clouds 29 1015 40 10000 3.6 220 13:55 17.12.2019
6002 Clouds 29 1015 40 10000 3.6 220 13:37 17.12.2019
6003 Clouds 29 1015 40 10000 3.6 220 13:18 17.12.2019
6004 Clouds 29 1015 37 10000 3.6 200 12:41 17.12.2019
6005 Clouds 29 1015 37 10000 3.6 200 12:19 17.12.2019
6006 Clouds 29 1015 37 10000 3.6 200 12:19 17.12.2019
6007 Clouds 29 1015 40 10000 4.6 210 11:59 17.12.2019
6008 Clouds 29 1015 40 10000 4.6 210 11:37 17.12.2019
6009 Clouds 29 1015 40 10000 4.6 210 11:19 17.12.2019
6010 Clouds 28 1016 39 10000 5.7 200 10:59 17.12.2019
6011 Clouds 28 1016 39 10000 5.7 200 10:41 17.12.2019
6012 Clouds 28 1016 39 10000 5.7 200 10:41 17.12.2019
6013 Clouds 28 1016 39 10000 5.7 200 10:22 17.12.2019
6014 Clouds 28 1017 42 7000 6.2 190 09:59 17.12.2019
6015 Clouds 28 1017 42 7000 6.2 190 09:41 17.12.2019
6016 Clouds 28 1017 42 7000 6.2 190 09:20 17.12.2019
6017 Clouds 27 1018 44 10000 6.7 190 08:56 17.12.2019
6018 Clouds 26 1018 44 10000 6.7 190 08:38 17.12.2019
6019 Clouds 26 1018 44 10000 6.7 190 08:19 17.12.2019
6020 Clouds 25 1018 50 10000 5.7 160 07:46 17.12.2019
6021 Clouds 25 1018 50 10000 5.7 160 07:26 17.12.2019
6022 Clouds 24 1018 60 10000 4.1 190 06:56 17.12.2019
6023 Clouds 24 1018 60 10000 4.1 190 06:35 17.12.2019
6024 Clouds 23 1017 57 10000 3.6 190 05:53 17.12.2019
6025 Clouds 23 1017 57 10000 3.6 190 05:35 17.12.2019
6026 Clouds 23 1016 57 10000 3.1 180 04:30 17.12.2019
6027 Clouds 24 1016 65 10000 2.6 180 02:34 17.12.2019
6028 Clouds 24 1015 65 10000 7.2 110 01:55 17.12.2019
6029 Clouds 24 1015 61 10000 6.2 110 00:58 17.12.2019
6030 Clouds 24 1015 61 10000 6.2 110 00:37 17.12.2019
6031 Clouds 24 1016 57 10000 5.7 120 00:19 17.12.2019
6032 Clouds 24 1016 57 10000 5.7 120 23:41 16.12.2019
6033 Clouds 24 1016 57 10000 5.7 120 23:19 16.12.2019
6034 Clouds 24 1015 61 10000 6.2 130 22:56 16.12.2019
6035 Clouds 24 1015 61 10000 6.2 130 22:37 16.12.2019
6036 Clouds 24 1015 61 10000 6.2 130 22:19 16.12.2019
6037 Clouds 24 1015 65 10000 6.2 120 21:55 16.12.2019
6038 Clouds 24 1015 65 10000 6.2 120 21:37 16.12.2019
6039 Clouds 24 1015 65 10000 6.2 120 21:19 16.12.2019
6040 Clouds 24 1016 78 10000 3.1 90 20:57 16.12.2019
6041 Clouds 24 1016 78 10000 3.1 90 20:37 16.12.2019
6042 Rain 24 1016 78 10000 3.1 90 20:19 16.12.2019
6043 Rain 23 1016 78 10000 3.6 70 19:55 16.12.2019
6044 Rain 23 1016 78 10000 3.6 70 19:55 16.12.2019
6045 Rain 23 1016 78 10000 3.6 70 19:36 16.12.2019
6046 Rain 23 1016 78 10000 3.6 70 19:18 16.12.2019
6047 Rain 24 1016 78 10000 4.6 60 18:55 16.12.2019
6048 Rain 24 1016 78 10000 4.6 60 18:37 16.12.2019
6049 Rain 24 1016 78 10000 4.6 60 18:37 16.12.2019
6050 Rain 24 1016 78 10000 4.6 60 18:19 16.12.2019
6051 Rain 24 1016 78 10000 5.7 50 17:57 16.12.2019
6052 Rain 24 1016 78 10000 5.7 50 17:37 16.12.2019
6053 Rain 24 1016 78 10000 5.7 50 17:19 16.12.2019
6054 Rain 24 1015 78 10000 6.7 50 16:55 16.12.2019
6055 Rain 24 1015 78 10000 6.7 50 16:37 16.12.2019
6056 Rain 24 1015 78 10000 6.7 50 16:18 16.12.2019
6057 Rain 24 1015 78 10000 6.7 50 15:55 16.12.2019
6058 Rain 24 1015 78 10000 6.7 50 15:37 16.12.2019
6059 Rain 24 1015 78 10000 6.7 50 15:19 16.12.2019
6060 Rain 25 1015 69 10000 6.2 30 14:54 16.12.2019
6061 Rain 25 1015 69 10000 6.2 30 14:36 16.12.2019
6062 Rain 25 1015 69 10000 6.2 30 14:18 16.12.2019
6063 Rain 26 1014 57 10000 6.2 30 13:38 16.12.2019
6064 Rain 26 1014 57 10000 6.2 30 13:20 16.12.2019
6065 Rain 26 1014 57 10000 6.2 20 12:59 16.12.2019
6066 Rain 26 1014 57 10000 6.2 20 12:41 16.12.2019
6067 Rain 26 1014 57 10000 6.2 20 12:20 16.12.2019
6068 Rain 27 1015 54 10000 4.6 360 11:59 16.12.2019
6069 Rain 27 1015 54 10000 4.6 360 11:41 16.12.2019
6070 Clouds 27 1015 54 10000 4.6 360 11:22 16.12.2019
6071 Clouds 27 1016 54 10000 4.1 350 10:59 16.12.2019
6072 Clouds 27 1016 54 10000 4.1 350 10:40 16.12.2019
6073 Clouds 27 1016 54 10000 4.1 350 10:21 16.12.2019
6074 Clouds 27 1016 57 10000 4.1 360 09:55 16.12.2019
6075 Clouds 27 1016 57 10000 4.1 360 09:37 16.12.2019
6076 Clouds 27 1016 57 10000 4.1 360 09:19 16.12.2019
6077 Clouds 26 1017 50 10000 2.6 0 08:39 16.12.2019
6078 Clouds 26 1017 50 10000 2.6 0 08:19 16.12.2019
6079 Clouds 24 1017 65 8000 3.6 100 07:51 16.12.2019
6080 Clouds 24 1017 65 8000 3.6 100 07:31 16.12.2019
6081 Clouds 24 1017 65 8000 3.6 100 07:31 16.12.2019
6082 Clouds 23 1017 69 7000 2.6 80 06:48 16.12.2019
6083 Clouds 22 1017 69 7000 2.6 80 06:26 16.12.2019
6084 Clouds 22 1017 69 8000 2.1 40 05:56 16.12.2019
6085 Clouds 22 1017 69 8000 2.1 40 05:35 16.12.2019
6086 Rain 22 1016 73 7000 1.5 80 04:33 16.12.2019
6087 Clouds 22 1015 78 8000 1.5 60 02:50 16.12.2019
6088 Clouds 22 1014 78 10000 4.6 130 01:45 16.12.2019
6089 Clouds 22 1015 73 10000 2.6 150 00:55 16.12.2019
6090 Clouds 22 1015 73 10000 2.6 150 00:36 16.12.2019
6091 Clouds 22 1015 73 10000 2.6 150 00:18 16.12.2019
6092 Clouds 22 1016 73 10000 1.5 50 23:40 15.12.2019
6093 Clouds 22 1016 73 10000 1.5 50 23:21 15.12.2019
6094 Clouds 22 1017 73 10000 1.5 70 22:56 15.12.2019
6095 Clouds 22 1017 73 10000 1.5 70 22:38 15.12.2019
6096 Clouds 22 1017 73 10000 1.5 70 22:18 15.12.2019
6097 Clouds 22 1017 69 10000 1.5 40 21:57 15.12.2019
6098 Clouds 22 1017 69 10000 1.5 40 21:38 15.12.2019
6099 Clouds 22 1017 69 10000 1.5 40 21:19 15.12.2019
6100 Clouds 22 1017 69 10000 2.6 20 20:56 15.12.2019
6101 Clouds 22 1017 69 10000 2.6 20 20:37 15.12.2019
6102 Clouds 22 1017 69 10000 2.6 20 20:19 15.12.2019
6103 Clouds 22 1017 69 10000 2.6 70 19:57 15.12.2019
6104 Clouds 22 1017 69 10000 2.6 70 19:39 15.12.2019
6105 Clouds 22 1017 69 10000 2.6 70 19:18 15.12.2019
6106 Clouds 22 1017 64 10000 1.5 70 18:56 15.12.2019
6107 Clouds 22 1017 64 10000 1.5 70 18:56 15.12.2019
6108 Clouds 22 1017 64 10000 1.5 70 18:38 15.12.2019
6109 Clouds 22 1017 64 10000 1.5 70 18:38 15.12.2019
6110 Clouds 22 1017 64 10000 1.5 70 18:18 15.12.2019
6111 Clouds 23 1017 65 10000 2.6 20 17:56 15.12.2019
6112 Clouds 23 1017 65 10000 2.6 20 17:37 15.12.2019
6113 Clouds 23 1017 65 10000 2.6 20 17:18 15.12.2019
6114 Clouds 23 1016 65 10000 2.1 120 16:55 15.12.2019
6115 Clouds 23 1016 65 10000 2.1 120 16:55 15.12.2019
6116 Clouds 23 1016 65 10000 2.1 120 16:37 15.12.2019
6117 Clouds 23 1016 65 10000 2.1 120 16:19 15.12.2019
6118 Clouds 24 1016 57 10000 1.5 20 15:54 15.12.2019
6119 Clouds 24 1016 57 10000 1.5 20 15:54 15.12.2019
6120 Clouds 24 1016 57 10000 1.5 20 15:36 15.12.2019
6121 Clouds 24 1016 57 10000 1.5 20 15:18 15.12.2019
6122 Clouds 25 1016 47 10000 6.2 20 14:55 15.12.2019
6123 Clouds 25 1016 47 10000 6.2 20 14:36 15.12.2019
6124 Clouds 25 1016 47 10000 6.2 20 14:18 15.12.2019
6125 Clouds 25 1016 50 10000 4.1 340 13:54 15.12.2019
6126 Clouds 25 1016 50 10000 4.1 340 13:36 15.12.2019
6127 Clouds 25 1016 50 10000 4.1 340 13:18 15.12.2019
6128 Clouds 25 1016 44 10000 1.5 120 12:55 15.12.2019
6129 Clouds 25 1016 44 10000 1.5 120 12:37 15.12.2019
6130 Clouds 25 1016 50 10000 2.6 90 12:19 15.12.2019
6131 Clouds 25 1016 50 10000 2.6 90 11:38 15.12.2019
6132 Clouds 25 1016 50 10000 2.6 90 11:19 15.12.2019
6133 Clouds 25 1017 57 10000 2.1 140 10:56 15.12.2019
6134 Clouds 25 1017 57 10000 2.1 140 10:38 15.12.2019
6135 Clouds 25 1017 57 10000 2.1 140 10:19 15.12.2019
6136 Rain 25 1017 50 8000 2.6 350 09:58 15.12.2019
6137 Rain 25 1017 50 8000 2.6 350 09:37 15.12.2019
6138 Rain 26 1019 65 4500 7.2 330 09:19 15.12.2019
6139 Clouds 25 1018 61 8000 4.6 50 08:54 15.12.2019
6140 Clouds 25 1018 61 8000 4.6 50 08:36 15.12.2019
6141 Clouds 25 1018 61 8000 4.6 50 08:18 15.12.2019
6142 Clouds 25 1018 57 9000 5.7 20 07:43 15.12.2019
6143 Clouds 24 1018 61 10000 3.6 80 07:25 15.12.2019
6144 Clouds 21 1018 73 7000 2.6 110 06:26 15.12.2019
6145 Haze 19 1017 78 5000 2.1 90 05:42 15.12.2019
6146 Haze 19 1017 78 5000 2.1 90 05:21 15.12.2019
6147 Haze 19 1017 83 4500 3.1 90 04:20 15.12.2019
6148 Clouds 19 1016 78 8000 2.6 110 02:50 15.12.2019
6149 Clouds 19 1016 78 8000 2.6 110 02:31 15.12.2019
6150 Clouds 20 1016 73 10000 2.6 100 01:40 15.12.2019
6151 Clouds 20 1016 73 10000 2.6 100 01:18 15.12.2019
6152 Clouds 19 1017 78 10000 1.5 90 00:49 15.12.2019
6153 Clouds 20 1017 78 10000 1.5 90 00:31 15.12.2019
6154 Clouds 21 1017 73 10000 1.5 90 23:41 14.12.2019
6155 Clouds 21 1017 73 10000 1.5 90 23:22 14.12.2019
6156 Clouds 21 1017 69 10000 2.6 110 22:59 14.12.2019
6157 Clouds 21 1017 69 10000 2.6 110 22:41 14.12.2019
6158 Clouds 21 1017 69 10000 2.6 110 22:22 14.12.2019
6159 Clouds 21 1017 69 10000 3.1 90 21:57 14.12.2019
6160 Clouds 21 1017 69 10000 3.1 90 21:38 14.12.2019
6161 Clouds 21 1017 69 10000 3.1 90 21:19 14.12.2019
6162 Clouds 22 1017 69 10000 2.1 70 20:58 14.12.2019
6163 Clouds 22 1017 69 10000 2.1 70 20:39 14.12.2019
6164 Clouds 22 1017 69 10000 2.1 70 20:20 14.12.2019
6165 Clouds 23 1017 61 10000 2.1 70 19:57 14.12.2019
6166 Clouds 23 1017 61 10000 2.1 70 19:57 14.12.2019
6167 Clouds 23 1017 61 10000 2.1 70 19:37 14.12.2019
6168 Clouds 23 1017 61 10000 2.1 70 19:19 14.12.2019
6169 Clouds 23 1017 61 10000 2.1 70 18:56 14.12.2019
6170 Clouds 23 1017 61 10000 2.1 70 18:37 14.12.2019
6171 Clouds 23 1017 61 10000 2.1 70 18:19 14.12.2019
6172 Clouds 23 1017 57 10000 3.1 40 17:44 14.12.2019
6173 Clear 24 1017 57 10000 3.1 40 17:24 14.12.2019
6174 Clear 24 1017 50 10000 3.1 30 16:58 14.12.2019
6175 Clear 24 1017 50 10000 3.1 30 16:39 14.12.2019
6176 Clear 24 1017 50 10000 3.1 30 16:18 14.12.2019
6177 Clear 25 1016 50 10000 2.6 350 15:43 14.12.2019
6178 Clear 25 1016 50 10000 2.6 350 15:22 14.12.2019
6179 Clear 26 1016 44 10000 3.6 350 14:59 14.12.2019
6180 Clear 26 1016 44 10000 3.6 350 14:38 14.12.2019
6181 Clear 26 1016 44 10000 3.6 350 14:19 14.12.2019
6182 Clear 28 1016 39 10000 4.6 360 13:55 14.12.2019
6183 Clear 28 1016 39 10000 4.6 360 13:37 14.12.2019
6184 Clear 28 1016 39 10000 4.6 360 13:18 14.12.2019
6185 Clear 28 1016 39 10000 4.1 330 12:54 14.12.2019
6186 Clear 28 1016 39 10000 4.1 330 12:36 14.12.2019
6187 Clear 28 1016 39 10000 4.1 330 12:18 14.12.2019
6188 Clear 28 1016 42 10000 4.1 310 11:54 14.12.2019
6189 Clear 28 1016 42 10000 4.1 310 11:36 14.12.2019
6190 Clear 28 1016 42 10000 4.1 310 11:18 14.12.2019
6191 Clear 28 1017 37 10000 2.6 250 10:55 14.12.2019
6192 Clear 28 1017 37 10000 2.6 250 10:36 14.12.2019
6193 Clear 28 1017 37 10000 2.6 250 10:18 14.12.2019
6194 Clear 28 1018 37 10000 1.5 160 09:40 14.12.2019
6195 Clear 28 1018 37 10000 1.5 160 09:20 14.12.2019
6196 Clear 27 1019 44 10000 2.1 0 08:43 14.12.2019
6197 Clear 29 1019 44 10000 2.1 0 08:20 14.12.2019
6198 Clear 28 1019 50 10000 2.6 0 07:55 14.12.2019
6199 Clear 28 1019 50 10000 2.6 0 07:36 14.12.2019
6200 Clear 28 1019 50 10000 2.6 0 07:18 14.12.2019
6201 Clear 27 1000 26 6000 4.1 200 06:39 14.12.2019
6202 Clear 23 1018 50 10000 1.5 240 06:18 14.12.2019
6203 Clear 21 1017 56 10000 1.5 150 05:20 14.12.2019
6204 Clear 21 1016 69 10000 2.1 110 02:44 14.12.2019
6205 Clouds 21 1016 69 10000 2.1 110 02:22 14.12.2019
6206 Clouds 21 1015 64 10000 2.1 80 01:37 14.12.2019
6207 Clouds 21 1015 64 10000 2.6 90 00:50 14.12.2019
6208 Clouds 21 1015 64 10000 2.6 90 00:29 14.12.2019
6209 Clouds 21 1015 64 10000 2.6 90 00:29 14.12.2019
6210 Clouds 21 1015 64 10000 2.1 90 23:57 13.12.2019
6211 Clouds 21 1015 64 10000 2.1 90 23:38 13.12.2019
6212 Clouds 21 1015 64 10000 2.1 90 23:19 13.12.2019
6213 Clouds 22 1015 69 10000 3.1 80 22:55 13.12.2019
6214 Clouds 22 1015 69 10000 3.1 80 22:36 13.12.2019
6215 Clouds 22 1015 69 10000 3.1 80 22:18 13.12.2019
6216 Clouds 22 1015 60 10000 3.1 90 21:39 13.12.2019
6217 Clouds 22 1015 60 10000 3.1 90 21:21 13.12.2019
6218 Clouds 22 1015 60 10000 3.1 60 20:54 13.12.2019
6219 Clouds 22 1015 60 10000 3.1 60 20:36 13.12.2019
6220 Clouds 22 1015 60 10000 3.1 60 20:36 13.12.2019
6221 Clouds 23 1015 60 10000 3.1 40 20:18 13.12.2019
6222 Clouds 23 1015 60 10000 3.1 40 19:42 13.12.2019
6223 Clouds 23 1015 60 10000 3.1 40 19:23 13.12.2019
6224 Clouds 23 1015 57 10000 3.1 60 18:59 13.12.2019
6225 Clouds 23 1015 57 10000 3.1 60 18:41 13.12.2019
6226 Clouds 23 1015 57 10000 3.1 60 18:19 13.12.2019
6227 Clouds 23 1015 60 10000 3.1 50 17:57 13.12.2019
6228 Clouds 23 1015 60 10000 3.1 50 17:39 13.12.2019
6229 Clouds 23 1015 60 10000 3.1 50 17:18 13.12.2019
6230 Clouds 23 1014 57 10000 3.6 50 16:54 13.12.2019
6231 Clouds 24 1014 57 10000 3.6 50 16:36 13.12.2019
6232 Clouds 24 1014 57 10000 3.6 50 16:18 13.12.2019
6233 Clouds 24 1014 57 10000 4.1 20 15:40 13.12.2019
6234 Clouds 24 1014 57 10000 4.1 20 15:20 13.12.2019
6235 Clouds 25 1013 57 10000 4.6 20 14:55 13.12.2019
6236 Clouds 25 1013 57 10000 4.6 20 14:36 13.12.2019
6237 Clear 25 1013 57 10000 4.6 20 14:18 13.12.2019
6238 Clear 26 1013 50 10000 5.7 20 13:41 13.12.2019
6239 Clear 26 1013 50 10000 5.7 20 13:21 13.12.2019
6240 Clear 27 1013 36 10000 2.1 110 12:44 13.12.2019
6241 Clear 27 1013 36 10000 2.1 110 12:24 13.12.2019
6242 Clear 27 1013 42 10000 2.1 0 11:59 13.12.2019
6243 Clear 27 1013 42 10000 2.1 0 11:41 13.12.2019
6244 Clouds 27 1013 42 10000 2.1 0 11:23 13.12.2019
6245 Clouds 26 1014 44 10000 2.1 120 10:56 13.12.2019
6246 Clouds 26 1014 44 10000 2.1 120 10:38 13.12.2019
6247 Clouds 26 1014 44 10000 2.1 120 10:19 13.12.2019
6248 Clouds 25 1015 50 10000 3.6 80 09:41 13.12.2019
6249 Clouds 25 1015 50 10000 3.6 80 09:20 13.12.2019
6250 Clouds 24 1015 53 10000 3.1 140 08:44 13.12.2019
6251 Clouds 23 1015 53 10000 3.1 140 08:25 13.12.2019
6252 Clear 22 1016 60 10000 3.6 160 07:48 13.12.2019
6253 Clear 21 1016 60 10000 3.6 160 07:24 13.12.2019
6254 Clear 20 1015 64 10000 1.5 120 06:55 13.12.2019
6255 Clear 20 1015 64 10000 1.5 120 06:29 13.12.2019
6256 Clear 17 1014 68 10000 1 0 05:51 13.12.2019
6257 Clear 17 1014 68 10000 1 0 05:30 13.12.2019
6258 Clear 17 1014 72 10000 2.1 150 04:48 13.12.2019
6259 Clear 17 1013 72 10000 2.6 160 03:49 13.12.2019
6260 Clear 17 1013 72 10000 1.5 150 02:35 13.12.2019
6261 Clouds 17 1012 72 10000 2.1 140 01:49 13.12.2019
6262 Clouds 17 1012 72 10000 2.1 140 01:19 13.12.2019
6263 Clouds 18 1013 68 10000 2.1 130 00:45 13.12.2019
6264 Clouds 18 1013 68 10000 2.1 130 00:22 13.12.2019
6265 Clouds 18 1013 68 10000 2.6 150 23:41 12.12.2019
6266 Clouds 18 1013 68 10000 2.6 150 23:22 12.12.2019
6267 Clouds 19 1013 68 10000 1.5 140 22:56 12.12.2019
6268 Clouds 19 1013 68 10000 1.5 140 22:37 12.12.2019
6269 Clouds 20 1013 64 10000 1 0 22:19 12.12.2019
6270 Clouds 20 1013 64 10000 1 0 21:55 12.12.2019
6271 Clouds 20 1013 64 10000 1 0 21:37 12.12.2019
6272 Clouds 20 1013 64 10000 1 0 21:37 12.12.2019
6273 Clouds 20 1013 64 10000 1 0 21:18 12.12.2019
6274 Clouds 20 1013 64 10000 1.5 170 20:56 12.12.2019
6275 Clouds 20 1013 64 10000 1.5 170 20:38 12.12.2019
6276 Clear 20 1013 64 10000 1.5 170 20:20 12.12.2019
6277 Clear 21 1013 57 10000 1.5 120 19:43 12.12.2019
6278 Clear 21 1013 57 10000 1.5 120 19:23 12.12.2019
6279 Clouds 22 1013 53 10000 1.5 260 18:58 12.12.2019
6280 Clouds 22 1013 53 10000 1.5 260 18:40 12.12.2019
6281 Clouds 22 1013 53 10000 1.5 260 18:21 12.12.2019
6282 Clouds 22 1013 53 10000 1.5 260 18:21 12.12.2019
6283 Clouds 23 1013 53 10000 3.6 290 17:59 12.12.2019
6284 Clouds 23 1013 53 10000 3.6 290 17:40 12.12.2019
6285 Clouds 23 1013 53 10000 3.6 290 17:21 12.12.2019
6286 Clouds 23 1012 50 10000 3.6 290 16:59 12.12.2019
6287 Clouds 24 1012 50 10000 3.6 290 16:41 12.12.2019
6288 Clouds 24 1012 50 10000 3.6 290 16:21 12.12.2019
6289 Clouds 24 1012 50 10000 4.1 300 15:58 12.12.2019
6290 Clouds 24 1012 50 10000 4.1 300 15:40 12.12.2019
6291 Clouds 24 1012 50 10000 4.1 300 15:19 12.12.2019
6292 Clouds 25 1011 50 10000 5.7 290 14:56 12.12.2019
6293 Clouds 25 1011 50 10000 5.7 290 14:36 12.12.2019
6294 Clouds 25 1011 50 10000 5.7 290 14:36 12.12.2019
6295 Clouds 25 1011 50 10000 5.7 290 14:18 12.12.2019
6296 Clouds 25 1011 47 10000 6.2 320 13:54 12.12.2019
6297 Clouds 25 1011 47 10000 6.2 320 13:36 12.12.2019
6298 Clouds 25 1011 47 10000 6.2 320 13:18 12.12.2019
6299 Clouds 26 1011 47 10000 6.2 300 12:41 12.12.2019
6300 Clouds 26 1011 47 10000 6.2 300 12:41 12.12.2019
6301 Clouds 26 1012 44 10000 6.7 300 12:22 12.12.2019
6302 Clouds 26 1012 44 10000 6.7 300 11:59 12.12.2019
6303 Clouds 26 1012 44 10000 6.7 300 11:39 12.12.2019
6304 Clouds 26 1012 44 10000 6.7 300 11:39 12.12.2019
6305 Clouds 26 1012 44 10000 6.7 300 11:21 12.12.2019
6306 Clouds 26 1012 50 10000 6.2 300 10:57 12.12.2019
6307 Clouds 26 1012 50 10000 6.2 300 10:57 12.12.2019
6308 Clouds 26 1012 50 10000 6.2 300 10:39 12.12.2019
6309 Clouds 26 1012 50 10000 6.2 300 10:21 12.12.2019
6310 Clouds 26 1013 50 10000 7.2 310 09:55 12.12.2019
6311 Clouds 26 1013 50 10000 7.2 310 09:55 12.12.2019
6312 Clouds 26 1013 50 10000 7.2 310 09:37 12.12.2019
6313 Clouds 25 1014 53 10000 6.2 290 09:19 12.12.2019
6314 Clouds 25 1014 53 10000 6.2 290 08:46 12.12.2019
6315 Clouds 25 1014 53 10000 6.2 290 08:27 12.12.2019
6316 Clouds 25 1014 53 10000 7.2 300 07:50 12.12.2019
6317 Clouds 25 1014 53 10000 7.2 300 07:27 12.12.2019
6318 Clouds 24 1013 50 10000 5.7 300 06:56 12.12.2019
6319 Clouds 24 1013 50 10000 5.7 300 06:35 12.12.2019
6320 Clouds 22 1013 57 10000 4.1 270 05:42 12.12.2019
6321 Clouds 21 1012 60 10000 5.1 290 04:55 12.12.2019
6322 Clouds 21 1012 60 10000 5.1 290 04:23 12.12.2019
6323 Clouds 20 1012 88 6000 2.1 190 02:40 12.12.2019
6324 Clouds 20 1012 88 6000 2.1 190 02:22 12.12.2019
6325 Clouds 21 1012 83 8000 3.1 220 01:54 12.12.2019
6326 Clouds 21 1012 83 8000 3.1 220 01:32 12.12.2019
6327 Clouds 20 1012 88 6000 2.1 220 00:47 12.12.2019
6328 Clouds 20 1012 88 6000 2.1 220 00:21 12.12.2019
6329 Clouds 20 1012 88 7000 2.6 220 23:45 11.12.2019
6330 Clouds 21 1012 88 7000 2.6 220 23:21 11.12.2019
6331 Clouds 21 1012 83 10000 2.1 200 22:59 11.12.2019
6332 Clouds 21 1012 83 10000 2.1 200 22:39 11.12.2019
6333 Clouds 21 1012 83 10000 2.1 200 22:20 11.12.2019
6334 Clouds 22 1012 78 10000 2.1 0 21:59 11.12.2019
6335 Clouds 22 1012 78 10000 2.1 0 21:39 11.12.2019
6336 Clouds 22 1012 78 10000 2.1 0 21:20 11.12.2019
6337 Clouds 22 1013 73 10000 2.1 270 20:57 11.12.2019
6338 Clouds 22 1013 73 10000 2.1 270 20:39 11.12.2019
6339 Clouds 22 1013 73 10000 2.1 270 20:19 11.12.2019
6340 Clouds 23 1013 78 10000 2.6 290 19:58 11.12.2019
6341 Clouds 23 1013 78 10000 2.6 290 19:40 11.12.2019
6342 Clouds 23 1013 78 10000 2.6 290 19:20 11.12.2019
6343 Clouds 23 1013 78 10000 3.6 320 18:55 11.12.2019
6344 Clouds 23 1013 78 10000 3.6 320 18:37 11.12.2019
6345 Clouds 23 1013 78 10000 3.6 320 18:37 11.12.2019
6346 Clouds 23 1013 78 10000 3.6 320 18:18 11.12.2019
6347 Clouds 23 1013 73 10000 4.1 330 17:54 11.12.2019
6348 Clouds 23 1013 73 10000 4.1 330 17:36 11.12.2019
6349 Clear 23 1013 73 10000 4.1 330 17:18 11.12.2019
6350 Clear 23 1012 73 10000 3.6 320 16:55 11.12.2019
6351 Clear 24 1012 73 10000 3.6 320 16:36 11.12.2019
6352 Clear 24 1012 73 10000 3.6 320 16:18 11.12.2019
6353 Clear 24 1012 73 10000 4.1 320 15:41 11.12.2019
6354 Clear 24 1012 73 10000 4.1 320 15:23 11.12.2019
6355 Clear 25 1012 69 10000 4.6 320 14:57 11.12.2019
6356 Clear 25 1012 69 10000 4.6 320 14:39 11.12.2019
6357 Clear 25 1012 69 10000 4.6 320 14:20 11.12.2019
6358 Clouds 26 1012 69 10000 5.1 320 13:56 11.12.2019
6359 Clouds 26 1012 69 10000 5.1 320 13:38 11.12.2019
6360 Clouds 26 1012 69 10000 5.1 320 13:19 11.12.2019
6361 Clouds 26 1012 57 10000 2.6 220 12:57 11.12.2019
6362 Clouds 26 1012 57 10000 2.6 220 12:38 11.12.2019
6363 Clouds 26 1012 57 10000 2.6 220 12:19 11.12.2019
6364 Clouds 26 1012 57 10000 2.6 220 12:19 11.12.2019
6365 Clouds 26 1012 61 10000 4.1 250 11:57 11.12.2019
6366 Clouds 26 1012 61 10000 4.1 250 11:38 11.12.2019
6367 Clouds 26 1012 61 10000 4.1 250 11:18 11.12.2019
6368 Clouds 26 1012 61 10000 4.1 250 11:18 11.12.2019
6369 Clouds 26 1013 61 10000 5.1 190 10:55 11.12.2019
6370 Clouds 25 1013 61 10000 5.1 190 10:37 11.12.2019
6371 Clouds 25 1013 61 10000 5.1 190 10:19 11.12.2019
6372 Clouds 24 1014 69 10000 5.1 180 09:41 11.12.2019
6373 Clouds 24 1014 69 10000 5.1 180 09:21 11.12.2019
6374 Clouds 22 1015 88 10000 3.1 160 08:58 11.12.2019
6375 Clouds 22 1015 88 10000 3.1 160 08:38 11.12.2019
6376 Clouds 22 1015 88 10000 3.1 160 08:19 11.12.2019
6377 Rain 20 1016 94 7000 3.6 120 07:56 11.12.2019
6378 Rain 20 1016 94 7000 3.6 120 07:38 11.12.2019
6379 Rain 20 1016 94 7000 3.6 120 07:19 11.12.2019
6380 Rain 20 1016 94 4500 1.5 0 06:44 11.12.2019
6381 Rain 20 1016 94 4500 1.5 0 06:22 11.12.2019
6382 Rain 20 1015 94 3000 5.7 70 05:41 11.12.2019
6383 Rain 20 1015 94 3000 5.7 70 05:20 11.12.2019
6384 Rain 20 1014 88 10000 8.2 50 04:28 11.12.2019
6385 Rain 22 1013 83 10000 5.1 50 02:49 11.12.2019
6386 Rain 22 1013 78 10000 7.2 30 01:25 11.12.2019
6387 Rain 23 1012 88 10000 3.6 50 00:47 11.12.2019
6388 Rain 23 1012 88 10000 3.6 50 00:22 11.12.2019
6389 Rain 23 1012 78 10000 5.1 50 23:50 10.12.2019
6390 Rain 23 1012 78 10000 5.1 50 23:30 10.12.2019
6391 Clouds 23 1013 78 10000 3.1 60 22:59 10.12.2019
6392 Clouds 23 1013 78 10000 3.1 60 22:40 10.12.2019
6393 Clouds 23 1013 78 10000 3.1 60 22:40 10.12.2019
6394 Clouds 23 1013 78 10000 3.1 60 22:40 10.12.2019
6395 Clouds 23 1013 78 10000 3.1 60 22:22 10.12.2019
6396 Clouds 23 1013 78 10000 3.6 40 21:57 10.12.2019
6397 Clouds 23 1013 78 10000 3.6 40 21:39 10.12.2019
6398 Clouds 23 1013 78 10000 3.6 40 21:21 10.12.2019
6399 Clouds 23 1013 78 10000 3.6 40 21:21 10.12.2019
6400 Clouds 23 1014 73 10000 3.6 80 20:57 10.12.2019
6401 Clouds 23 1014 73 10000 3.6 80 20:38 10.12.2019
6402 Clouds 23 1014 73 10000 3.6 80 20:38 10.12.2019
6403 Clouds 23 1014 73 10000 3.6 80 20:19 10.12.2019
6404 Clouds 23 1014 69 10000 3.6 70 19:55 10.12.2019
6405 Clouds 23 1014 69 10000 3.6 70 19:37 10.12.2019
6406 Clouds 23 1014 69 10000 3.6 70 19:19 10.12.2019
6407 Clouds 23 1015 73 10000 4.6 50 18:41 10.12.2019
6408 Clouds 23 1015 73 10000 4.6 50 18:21 10.12.2019
6409 Clouds 23 1015 78 10000 5.1 50 17:58 10.12.2019
6410 Clouds 23 1015 78 10000 5.1 50 17:40 10.12.2019
6411 Clouds 23 1015 78 10000 5.1 50 17:40 10.12.2019
6412 Clouds 23 1015 78 10000 5.1 50 17:20 10.12.2019
6413 Clouds 24 1015 78 10000 4.6 50 16:54 10.12.2019
6414 Clouds 24 1015 78 10000 4.6 50 16:36 10.12.2019
6415 Clouds 24 1015 78 10000 4.6 50 16:18 10.12.2019
6416 Clouds 24 1014 78 10000 6.2 50 15:38 10.12.2019
6417 Clouds 24 1014 78 10000 6.2 50 15:18 10.12.2019
6418 Clouds 25 1014 73 9000 6.2 30 14:56 10.12.2019
6419 Clouds 25 1014 73 9000 6.2 30 14:37 10.12.2019
6420 Rain 25 1014 73 9000 6.2 30 14:19 10.12.2019
6421 Rain 25 1014 73 10000 4.6 30 13:57 10.12.2019
6422 Rain 25 1014 73 10000 4.6 30 13:38 10.12.2019
6423 Clouds 25 1014 73 10000 4.6 30 13:19 10.12.2019
6424 Clouds 25 1014 65 8000 3.6 60 12:47 10.12.2019
6425 Clouds 25 1014 65 8000 3.6 60 12:26 10.12.2019
6426 Clouds 25 1014 73 8000 2.6 80 11:55 10.12.2019
6427 Clouds 25 1014 73 8000 2.6 80 11:36 10.12.2019
6428 Clouds 24 1014 73 8000 2.6 80 11:18 10.12.2019
6429 Rain 24 1016 73 8000 2.1 40 10:42 10.12.2019
6430 Rain 24 1016 73 8000 2.1 40 10:23 10.12.2019
6431 Rain 24 1017 78 8000 4.1 20 09:56 10.12.2019
6432 Rain 24 1017 78 8000 4.1 20 09:56 10.12.2019
6433 Rain 24 1017 78 8000 4.1 20 09:38 10.12.2019
6434 Rain 24 1017 78 8000 4.1 20 09:20 10.12.2019
6435 Rain 23 1018 83 8000 3.1 50 08:57 10.12.2019
6436 Rain 23 1018 83 8000 3.1 50 08:38 10.12.2019
6437 Rain 23 1018 83 8000 3.1 50 08:19 10.12.2019
6438 Rain 23 1018 83 8000 3.1 50 08:19 10.12.2019
6439 Rain 22 1019 83 8000 4.6 50 07:44 10.12.2019
6440 Rain 23 1019 83 8000 4.6 50 07:26 10.12.2019
6441 Rain 23 1019 83 8000 4.6 50 07:26 10.12.2019
6442 Rain 23 1018 73 7000 2.6 80 06:49 10.12.2019
6443 Rain 23 1018 73 7000 2.6 80 06:24 10.12.2019
6444 Rain 21 1016 78 10000 3.1 100 05:55 10.12.2019
6445 Rain 21 1016 78 10000 3.1 100 05:19 10.12.2019
6446 Rain 20 1015 83 10000 3.1 80 03:54 10.12.2019
6447 Rain 21 1015 73 10000 2.1 60 02:48 10.12.2019
6448 Rain 20 1015 73 10000 2.6 80 01:54 10.12.2019
6449 Rain 20 1015 73 10000 2.6 80 01:26 10.12.2019
6450 Rain 21 1015 69 10000 4.6 110 00:51 10.12.2019
6451 Rain 21 1015 69 10000 4.6 110 00:24 10.12.2019
6452 Rain 21 1016 78 10000 2.1 80 23:45 09.12.2019
6453 Rain 21 1016 78 10000 2.1 80 23:24 09.12.2019
6454 Clear 21 1016 78 10000 2.1 90 22:59 09.12.2019
6455 Clear 21 1016 78 10000 2.1 90 22:40 09.12.2019
6456 Clear 22 1016 78 10000 2.1 90 22:21 09.12.2019
6457 Clouds 22 1016 69 10000 2.6 100 21:58 09.12.2019
6458 Clouds 22 1016 69 10000 2.6 100 21:39 09.12.2019
6459 Clouds 22 1016 69 10000 2.6 100 21:19 09.12.2019
6460 Clear 23 1016 65 10000 2.6 90 20:57 09.12.2019
6461 Clear 23 1016 65 10000 2.6 90 20:39 09.12.2019
6462 Clear 23 1016 65 10000 2.6 90 20:20 09.12.2019
6463 Clear 23 1017 69 10000 2.6 0 19:56 09.12.2019
6464 Clear 23 1017 69 10000 2.6 0 19:38 09.12.2019
6465 Clear 23 1017 69 10000 2.6 0 19:38 09.12.2019
6466 Clear 23 1017 69 10000 2.6 0 19:19 09.12.2019
6467 Clear 23 1017 69 10000 2.6 0 19:19 09.12.2019
6468 Clear 23 1016 69 10000 3.1 80 18:58 09.12.2019
6469 Clear 23 1016 69 10000 3.1 80 18:39 09.12.2019
6470 Clear 23 1016 69 10000 3.1 80 18:20 09.12.2019
6471 Clear 24 1016 69 10000 3.1 50 17:58 09.12.2019
6472 Clear 24 1016 69 10000 3.1 50 17:40 09.12.2019
6473 Clear 24 1016 69 10000 3.1 50 17:21 09.12.2019
6474 Clear 24 1016 73 10000 4.1 80 16:56 09.12.2019
6475 Clear 24 1016 73 10000 4.1 80 16:56 09.12.2019
6476 Clear 24 1016 73 10000 4.1 80 16:38 09.12.2019
6477 Clear 24 1016 73 10000 4.1 80 16:20 09.12.2019
6478 Clear 25 1015 73 10000 4.6 30 15:56 09.12.2019
6479 Clear 25 1015 73 10000 4.6 30 15:56 09.12.2019
6480 Clear 25 1015 73 10000 4.6 30 15:37 09.12.2019
6481 Clear 25 1015 73 10000 4.6 30 15:19 09.12.2019
6482 Clear 26 1015 65 10000 3.6 20 14:57 09.12.2019
6483 Clear 26 1015 65 10000 3.6 20 14:39 09.12.2019
6484 Clear 26 1015 65 10000 3.6 20 14:18 09.12.2019
6485 Clear 26 1015 65 10000 4.6 350 13:40 09.12.2019
6486 Clear 26 1015 65 10000 4.6 350 13:21 09.12.2019
6487 Clouds 27 1015 61 10000 6.7 340 12:58 09.12.2019
6488 Clouds 27 1015 61 10000 6.7 340 12:58 09.12.2019
6489 Clouds 27 1015 61 10000 6.7 340 12:40 09.12.2019
6490 Clouds 27 1015 61 10000 6.7 340 12:21 09.12.2019
6491 Clouds 28 1015 54 10000 5.1 330 11:59 09.12.2019
6492 Clouds 28 1015 54 10000 5.1 330 11:40 09.12.2019
6493 Clouds 28 1015 54 10000 5.1 330 11:21 09.12.2019
6494 Clouds 28 1015 57 10000 5.7 340 10:57 09.12.2019
6495 Clouds 28 1016 51 10000 2.6 0 10:38 09.12.2019
6496 Clouds 28 1016 51 10000 2.6 0 10:19 09.12.2019
6497 Clouds 28 1016 51 10000 2.6 0 10:19 09.12.2019
6498 Clouds 27 1017 54 10000 3.1 0 09:43 09.12.2019
6499 Clouds 27 1017 54 10000 3.1 0 09:23 09.12.2019
6500 Clear 26 1018 54 10000 3.1 170 08:55 09.12.2019
6501 Clear 26 1018 54 10000 3.1 170 08:37 09.12.2019
6502 Rain 26 1018 54 10000 3.1 170 08:19 09.12.2019
6503 Rain 25 1018 65 10000 1.5 180 07:44 09.12.2019
6504 Rain 24 1018 65 10000 1.5 180 07:25 09.12.2019
6505 Rain 23 1018 69 10000 2.6 0 06:55 09.12.2019
6506 Rain 23 1018 69 10000 2.6 0 06:28 09.12.2019
6507 Rain 20 1017 78 10000 3.1 180 05:30 09.12.2019
6508 Clear 20 1016 78 10000 2.6 180 04:51 09.12.2019
6509 Clear 20 1016 78 10000 2.6 180 04:23 09.12.2019
6510 Clear 20 1016 78 10000 3.1 160 02:27 09.12.2019
6511 Clear 20 1015 73 10000 3.1 120 01:44 09.12.2019
6512 Clear 20 1015 78 10000 3.1 100 00:55 09.12.2019
6513 Clear 20 1015 78 10000 3.1 100 00:32 09.12.2019
6514 Clear 20 1016 78 10000 2.6 60 23:54 08.12.2019
6515 Clear 20 1016 78 10000 2.6 60 23:36 08.12.2019
6516 Clear 20 1016 78 10000 2.6 60 23:18 08.12.2019
6517 Clear 21 1015 73 10000 2.6 100 22:56 08.12.2019
6518 Clear 21 1015 73 10000 2.6 100 22:37 08.12.2019
6519 Clear 21 1015 73 10000 2.6 100 22:18 08.12.2019
6520 Clear 21 1016 78 10000 3.1 100 21:54 08.12.2019
6521 Clear 21 1016 78 10000 3.1 100 21:36 08.12.2019
6522 Clear 21 1016 78 10000 3.1 100 21:18 08.12.2019
6523 Clear 21 1016 73 10000 2.6 70 20:54 08.12.2019
6524 Clear 21 1016 73 10000 2.6 70 20:54 08.12.2019
6525 Clear 21 1016 73 10000 2.6 70 20:36 08.12.2019
6526 Clear 21 1016 73 10000 2.6 70 20:18 08.12.2019
6527 Clear 22 1016 73 10000 3.1 80 19:42 08.12.2019
6528 Clear 22 1016 73 10000 3.1 80 19:24 08.12.2019
6529 Clear 22 1016 73 10000 3.6 80 18:56 08.12.2019
6530 Clear 22 1016 73 10000 3.6 80 18:37 08.12.2019
6531 Clear 22 1016 73 10000 3.6 80 18:37 08.12.2019
6532 Clear 22 1016 73 10000 3.6 80 18:19 08.12.2019
6533 Clear 23 1016 65 10000 3.6 50 17:57 08.12.2019
6534 Clear 23 1016 65 10000 3.6 50 17:39 08.12.2019
6535 Clear 23 1016 65 10000 3.6 50 17:20 08.12.2019
6536 Clear 24 1015 65 10000 2.6 30 16:58 08.12.2019
6537 Clear 24 1015 65 10000 2.6 30 16:40 08.12.2019
6538 Clear 24 1015 65 10000 2.6 30 16:22 08.12.2019
6539 Clear 25 1015 61 10000 3.1 340 15:57 08.12.2019
6540 Clear 25 1015 61 10000 3.1 340 15:37 08.12.2019
6541 Clear 25 1015 61 10000 3.1 340 15:18 08.12.2019
6542 Clear 26 1014 57 10000 4.1 340 14:44 08.12.2019
6543 Clear 26 1014 57 10000 4.1 340 14:25 08.12.2019
6544 Clouds 26 1014 54 10000 4.6 350 13:59 08.12.2019
6545 Clouds 26 1014 54 10000 4.6 350 13:40 08.12.2019
6546 Clouds 26 1014 54 10000 4.6 350 13:22 08.12.2019
6547 Clouds 27 1014 51 10000 3.6 340 12:59 08.12.2019
6548 Clouds 27 1014 51 10000 3.6 340 12:39 08.12.2019
6549 Clouds 27 1014 51 10000 3.6 340 12:19 08.12.2019
6550 Clouds 27 1014 45 10000 1.5 160 11:57 08.12.2019
6551 Clouds 27 1014 45 10000 1.5 160 11:37 08.12.2019
6552 Clouds 27 1014 45 10000 1.5 160 11:19 08.12.2019
6553 Clouds 27 1015 47 10000 1.5 90 10:55 08.12.2019
6554 Clouds 27 1015 47 10000 1.5 90 10:36 08.12.2019
6555 Clouds 27 1015 47 10000 1.5 90 10:36 08.12.2019
6556 Clouds 27 1015 47 10000 1.5 90 10:18 08.12.2019
6557 Clouds 26 1016 57 10000 2.1 0 09:54 08.12.2019
6558 Clouds 26 1016 57 10000 2.1 0 09:36 08.12.2019
6559 Clouds 26 1016 57 10000 2.1 0 09:18 08.12.2019
6560 Clouds 25 1017 65 10000 3.6 110 08:41 08.12.2019
6561 Rain 24 1017 65 10000 3.6 110 08:23 08.12.2019
6562 Rain 24 1017 64 10000 3.1 110 07:49 08.12.2019
6563 Rain 23 1017 64 10000 3.1 110 07:21 08.12.2019
6564 Rain 22 1017 69 10000 3.1 100 06:59 08.12.2019
6565 Rain 22 1017 69 10000 3.1 100 06:39 08.12.2019
6566 Rain 22 1017 69 10000 3.1 100 06:19 08.12.2019
6567 Rain 21 1017 78 9000 2.6 90 05:23 08.12.2019
6568 Rain 21 1016 78 10000 1.5 80 04:23 08.12.2019
6569 Rain 21 1016 83 10000 2.6 110 03:38 08.12.2019
6570 Rain 21 1015 88 10000 4.6 120 02:42 08.12.2019
6571 Rain 21 1015 88 10000 4.6 120 02:20 08.12.2019
6572 Clouds 21 1015 83 10000 2.6 100 01:35 08.12.2019
6573 Clouds 21 1016 83 10000 3.1 100 00:52 08.12.2019
6574 Clouds 21 1016 83 10000 3.1 100 00:23 08.12.2019
6575 Clouds 21 1016 88 10000 2.1 40 23:57 07.12.2019
6576 Clouds 21 1016 88 10000 2.1 40 23:37 07.12.2019
6577 Clouds 21 1016 88 10000 2.1 40 23:18 07.12.2019
6578 Rain 22 1016 83 8000 2.6 70 22:55 07.12.2019
6579 Rain 22 1016 83 8000 2.6 70 22:36 07.12.2019
6580 Rain 22 1016 83 8000 2.6 70 22:18 07.12.2019
6581 Rain 22 1016 78 10000 2.1 50 21:55 07.12.2019
6582 Rain 22 1016 78 10000 2.1 50 21:37 07.12.2019
6583 Rain 22 1016 78 10000 2.1 50 21:18 07.12.2019
6584 Clouds 22 1017 78 10000 3.1 0 20:38 07.12.2019
6585 Clouds 22 1017 78 10000 3.1 0 20:20 07.12.2019
6586 Rain 22 1017 73 10000 2.1 0 19:57 07.12.2019
6587 Rain 22 1017 73 10000 2.1 0 19:39 07.12.2019
6588 Rain 22 1017 73 10000 2.1 0 19:21 07.12.2019
6589 Rain 24 1017 73 10000 3.6 160 18:58 07.12.2019
6590 Rain 24 1017 73 10000 3.6 160 18:58 07.12.2019
6591 Rain 24 1017 73 10000 3.6 160 18:39 07.12.2019
6592 Rain 24 1017 73 10000 3.6 160 18:18 07.12.2019
6593 Rain 24 1016 61 10000 3.1 150 17:55 07.12.2019
6594 Rain 24 1016 61 10000 3.1 150 17:37 07.12.2019
6595 Rain 24 1016 61 10000 3.1 150 17:18 07.12.2019
6596 Rain 25 1016 57 10000 5.1 170 16:55 07.12.2019
6597 Rain 25 1016 57 10000 5.1 170 16:36 07.12.2019
6598 Rain 25 1016 57 10000 5.1 170 16:18 07.12.2019
6599 Rain 26 1015 42 10000 3.1 170 15:41 07.12.2019
6600 Rain 26 1015 42 10000 3.1 170 15:22 07.12.2019
6601 Clouds 27 1015 42 9000 5.1 160 14:43 07.12.2019
6602 Clouds 27 1015 42 9000 5.1 160 14:20 07.12.2019
6603 Clouds 29 1014 28 10000 3.1 180 13:59 07.12.2019
6604 Clouds 29 1014 28 10000 3.1 180 13:40 07.12.2019
6605 Clouds 29 1014 28 10000 3.1 180 13:20 07.12.2019
6606 Clouds 29 1014 30 10000 4.1 120 12:55 07.12.2019
6607 Clouds 29 1014 30 10000 4.1 120 12:37 07.12.2019
6608 Clouds 29 1015 30 10000 4.6 130 12:18 07.12.2019
6609 Clouds 29 1015 30 10000 4.6 130 11:42 07.12.2019
6610 Clouds 29 1015 30 10000 4.6 130 11:23 07.12.2019
6611 Clear 29 1015 30 10000 3.6 140 10:58 07.12.2019
6612 Clear 29 1015 30 10000 3.6 140 10:37 07.12.2019
6613 Clear 29 1015 30 10000 3.6 140 10:18 07.12.2019
6614 Clear 29 1016 32 10000 5.7 140 09:40 07.12.2019
6615 Clear 29 1016 32 10000 5.7 140 09:21 07.12.2019
6616 Clear 29 1016 32 10000 5.7 140 09:21 07.12.2019
6617 Clear 27 1017 42 10000 7.2 120 08:46 07.12.2019
6618 Clear 27 1017 42 10000 7.2 120 08:46 07.12.2019
6619 Clear 27 1017 42 10000 7.2 120 08:25 07.12.2019
6620 Clear 26 1018 54 10000 6.2 120 07:53 07.12.2019
6621 Clear 26 1018 54 10000 6.2 120 07:53 07.12.2019
6622 Clear 25 1018 54 10000 6.2 120 07:29 07.12.2019
6623 Clear 23 1018 57 10000 5.7 120 06:53 07.12.2019
6624 Clear 23 1018 57 10000 5.7 120 06:27 07.12.2019
6625 Clear 21 1018 56 10000 5.1 110 05:49 07.12.2019
6626 Clear 19 1017 60 10000 3.1 120 04:48 07.12.2019
6627 Clear 19 1017 60 10000 3.1 120 04:48 07.12.2019
6628 Clear 19 1016 56 10000 2.6 100 03:51 07.12.2019
6629 Clear 19 1016 52 10000 2.6 90 02:23 07.12.2019
6630 Clear 19 1016 53 10000 2.6 90 01:51 07.12.2019
6631 Clear 19 1016 53 10000 2.6 90 01:25 07.12.2019
6632 Clear 19 1016 60 10000 3.6 80 00:36 07.12.2019
6633 Clear 19 1016 60 10000 3.6 80 00:18 07.12.2019
6634 Clear 19 1016 60 10000 3.6 80 00:18 07.12.2019
6635 Clear 19 1017 60 10000 3.6 70 23:42 06.12.2019
6636 Clear 20 1017 60 10000 3.6 70 23:20 06.12.2019
6637 Clear 21 1017 60 10000 2.1 60 22:39 06.12.2019
6638 Clear 21 1017 60 10000 2.1 60 22:39 06.12.2019
6639 Clear 21 1017 60 10000 2.1 60 22:21 06.12.2019
6640 Clear 21 1017 56 10000 1.5 80 21:59 06.12.2019
6641 Clear 21 1017 56 10000 1.5 80 21:41 06.12.2019
6642 Clear 21 1017 56 10000 1.5 80 21:21 06.12.2019
6643 Clear 21 1017 57 10000 2.6 80 20:59 06.12.2019
6644 Clear 21 1017 57 10000 2.6 80 20:41 06.12.2019
6645 Clear 22 1017 57 10000 2.6 80 20:20 06.12.2019
6646 Clear 22 1018 60 10000 3.6 40 19:43 06.12.2019
6647 Clear 22 1018 60 10000 3.6 40 19:24 06.12.2019
6648 Clear 23 1018 57 10000 4.1 40 18:59 06.12.2019
6649 Clear 23 1018 57 10000 4.1 40 18:40 06.12.2019
6650 Clear 23 1018 57 10000 4.1 40 18:21 06.12.2019
6651 Clear 24 1018 53 10000 4.6 50 17:58 06.12.2019
6652 Clear 24 1018 53 10000 4.6 50 17:40 06.12.2019
6653 Clear 24 1018 53 10000 4.6 50 17:22 06.12.2019
6654 Clear 24 1017 57 10000 5.7 40 16:58 06.12.2019
6655 Clear 25 1017 57 10000 5.7 40 16:38 06.12.2019
6656 Clear 25 1017 57 10000 5.7 40 16:19 06.12.2019
6657 Clouds 25 1016 54 10000 6.2 40 15:41 06.12.2019
6658 Clouds 25 1016 54 10000 6.2 40 15:22 06.12.2019
6659 Clouds 26 1016 54 10000 6.2 20 14:58 06.12.2019
6660 Clouds 26 1016 54 10000 6.2 20 14:40 06.12.2019
6661 Clouds 26 1016 54 10000 6.2 20 14:20 06.12.2019
6662 Clouds 27 1016 47 10000 7.2 20 13:46 06.12.2019
6663 Clouds 27 1016 47 10000 7.2 20 13:27 06.12.2019
6664 Clouds 27 1016 47 10000 7.2 10 12:58 06.12.2019
6665 Clouds 27 1016 47 10000 7.2 10 12:39 06.12.2019
6666 Clouds 27 1016 47 10000 7.2 10 12:21 06.12.2019
6667 Clouds 28 1016 48 10000 6.7 30 11:42 06.12.2019
6668 Clouds 27 1016 48 10000 6.7 30 11:23 06.12.2019
6669 Clouds 27 1018 45 10000 3.6 70 10:57 06.12.2019
6670 Clouds 27 1018 45 10000 3.6 70 10:38 06.12.2019
6671 Clouds 27 1018 45 10000 3.6 70 10:20 06.12.2019
6672 Clouds 27 1019 47 10000 4.1 70 09:56 06.12.2019
6673 Clouds 27 1019 47 10000 4.1 70 09:37 06.12.2019
6674 Clouds 27 1019 47 10000 4.1 70 09:19 06.12.2019
6675 Clear 26 1020 50 10000 3.6 80 08:43 06.12.2019
6676 Clear 26 1020 50 10000 3.6 80 08:25 06.12.2019
6677 Clear 24 1020 50 10000 4.6 70 07:42 06.12.2019
6678 Clear 24 1020 50 10000 4.6 70 07:22 06.12.2019
6679 Clear 22 1020 60 10000 2.6 70 06:48 06.12.2019
6680 Clear 21 1020 60 10000 2.6 70 06:25 06.12.2019
6681 Clear 19 1020 64 10000 2.1 90 05:49 06.12.2019
6682 Clear 18 1019 68 10000 3.1